# Wetter Temperatur Luftdruck Luftfeuchtigkeit Sichtweite Windgeschwindigkeit Windrichtung Zeit
1 Clear 9 1023 45 10000 2.57 90 13:44 01.02.2023
2 Clear 8 1020 43 10000 2.57 90 13:19 01.02.2023
3 Clear 9 1023 43 10000 5.14 10 12:26 01.02.2023
4 Clear 9 1023 43 10000 4.63 340 10:35 01.02.2023
5 Clear 10 1023 47 10000 2.57 350 08:26 01.02.2023
6 Clear 18 1020 26 10000 11.32 10 22:41 31.01.2023
7 Clear 16 1019 30 10000 14.4 10 20:53 31.01.2023
8 Clear 14 1020 49 10000 11.83 30 19:24 31.01.2023
9 Mist 10 1022 77 6437 1.54 20 17:37 31.01.2023
10 Mist 8 1021 72 8047 2.06 100 15:36 31.01.2023
11 Mist 8 1021 70 8047 2.06 100 15:18 31.01.2023
12 Mist 9 1020 66 8047 2.57 360 13:34 31.01.2023
13 Clear 9 1019 64 10000 2.57 10 11:28 31.01.2023
14 Clear 10 1019 58 10000 2.57 350 10:25 31.01.2023
15 Clouds 10 1018 63 10000 3.09 320 09:44 31.01.2023
16 Clear 10 1018 70 10000 5.14 270 08:36 31.01.2023
17 Clear 10 1018 84 10000 4.12 280 07:36 31.01.2023
18 Clouds 11 1016 81 10000 2.57 160 03:39 31.01.2023
19 Clouds 14 1013 58 10000 4.12 120 23:29 30.01.2023
20 Clouds 14 1017 57 10000 2.06 100 22:50 30.01.2023
21 Clouds 14 1017 59 10000 4.12 110 21:48 30.01.2023
22 Clouds 14 1018 64 10000 3.6 100 20:45 30.01.2023
23 Clouds 11 1019 82 10000 3.09 70 18:55 30.01.2023
24 Clouds 9 1017 89 10000 3.09 80 17:26 30.01.2023
25 Rain 8 1017 89 10000 4.12 70 14:48 30.01.2023
26 Rain 8 1017 89 10000 4.63 70 13:56 30.01.2023
27 Clouds 9 1016 90 10000 3.09 90 12:20 30.01.2023
28 Rain 9 1016 90 8047 3.6 90 10:24 30.01.2023
29 Rain 9 1017 90 9656 3.09 150 09:53 30.01.2023
30 Rain 9 1017 88 10000 3.09 130 08:36 30.01.2023
31 Mist 10 1017 86 10000 4.12 140 06:23 30.01.2023
32 Clouds 12 1014 68 10000 5.66 260 01:31 30.01.2023
33 Clouds 13 1015 68 10000 7.72 240 23:34 29.01.2023
34 Clouds 13 1013 69 10000 8.23 240 22:37 29.01.2023
35 Clouds 13 1016 72 10000 7.72 250 20:57 29.01.2023
36 Clouds 13 1016 73 10000 7.72 250 20:25 29.01.2023
37 Clouds 13 1017 72 10000 5.66 120 19:33 29.01.2023
38 Clouds 13 1014 73 10000 5.14 140 18:35 29.01.2023
39 Clouds 11 1017 79 10000 2.57 80 16:50 29.01.2023
40 Clouds 11 1017 80 10000 3.09 130 16:20 29.01.2023
41 Clouds 11 1017 80 10000 3.09 130 16:20 29.01.2023
42 Clouds 11 1017 78 10000 2.57 60 14:20 29.01.2023
43 Clouds 11 1017 78 10000 3.09 130 13:25 29.01.2023
44 Clouds 11 1017 76 10000 4.12 120 12:39 29.01.2023
45 Clouds 11 1017 76 10000 4.12 120 12:20 29.01.2023
46 Clouds 12 1018 76 10000 3.6 130 11:38 29.01.2023
47 Clouds 12 1019 77 10000 3.09 140 10:53 29.01.2023
48 Clouds 12 1018 79 10000 1.54 90 08:55 29.01.2023
49 Clouds 12 1019 78 10000 2.06 150 05:45 29.01.2023
50 Clear 17 1017 55 10000 4.12 230 23:55 28.01.2023
51 Clear 16 1019 55 10000 4.12 120 21:30 28.01.2023
52 Clouds 15 1022 63 10000 2.57 80 19:59 28.01.2023
53 Clouds 14 1020 67 10000 4.12 110 19:27 28.01.2023
54 Clouds 11 1023 75 10000 3.09 90 17:59 28.01.2023
55 Clouds 10 1017 75 10000 1.54 10 16:58 28.01.2023
56 Clouds 9 1016 75 10000 2.06 70 16:19 28.01.2023
57 Clouds 9 1016 73 10000 3.09 60 15:38 28.01.2023
58 Clouds 9 1015 75 10000 2.57 70 14:21 28.01.2023
59 Clouds 9 1015 69 10000 1.54 60 12:48 28.01.2023
60 Clouds 10 1019 65 10000 1.54 70 11:27 28.01.2023
61 Clear 10 1015 67 10000 2.57 70 10:33 28.01.2023
62 Clear 12 1020 64 10000 1.54 80 06:35 28.01.2023
63 Clear 18 1018 42 10000 3.6 270 01:35 28.01.2023
64 Clear 19 1019 38 10000 5.66 260 00:23 28.01.2023
65 Clear 19 1024 31 10000 1.54 0 20:57 27.01.2023
66 Clear 15 1027 43 10000 2.57 0 18:25 27.01.2023
67 Clear 13 1023 43 10000 1.54 360 17:54 27.01.2023
68 Clear 11 1023 46 10000 1.54 360 17:18 27.01.2023
69 Clear 10 1023 47 10000 2.06 80 16:34 27.01.2023
70 Clear 11 1024 39 10000 1.54 30 14:54 27.01.2023
71 Clear 10 1024 44 10000 2.06 60 14:24 27.01.2023
72 Clear 11 1024 45 10000 2.06 70 12:49 27.01.2023
73 Clear 12 1029 43 10000 3.09 50 08:41 27.01.2023
74 Clear 13 1031 44 10000 0.45 186 05:58 27.01.2023
75 Clear 21 1030 28 10000 2.57 0 22:55 26.01.2023
76 Clear 20 1030 29 10000 6.69 30 21:40 26.01.2023
77 Clear 20 1031 30 10000 3.09 150 20:36 26.01.2023
78 Clear 18 1033 33 10000 4.63 120 19:26 26.01.2023
79 Clear 15 1035 42 10000 6.17 70 17:42 26.01.2023
80 Clouds 12 1033 51 10000 4.12 40 16:27 26.01.2023
81 Clear 12 1039 53 10000 2.13 29 15:56 26.01.2023
82 Clear 12 1027 52 10000 8.23 40 15:32 26.01.2023
83 Clear 12 1038 53 10000 2.12 27 14:59 26.01.2023
84 Clear 12 1034 51 10000 0 0 13:32 26.01.2023
85 Clear 13 1034 49 10000 1.54 290 11:53 26.01.2023
86 Clear 13 1029 47 10000 1.54 40 10:33 26.01.2023
87 Clear 13 1029 50 10000 2.06 310 09:44 26.01.2023
88 Clear 13 1029 50 10000 2.57 230 08:26 26.01.2023
89 Clear 14 1025 48 10000 1.54 330 06:27 26.01.2023
90 Clear 21 1026 27 10000 3.6 260 23:40 25.01.2023
91 Clear 21 1027 27 10000 2.57 250 22:36 25.01.2023
92 Clear 20 1028 29 10000 2.57 260 21:25 25.01.2023
93 Clear 20 1036 31 10000 0.45 164 20:59 25.01.2023
94 Clear 13 1029 48 10000 2.57 80 18:24 25.01.2023
95 Clear 12 1025 42 10000 1.19 63 15:58 25.01.2023
96 Clear 11 1026 46 10000 0 0 14:57 25.01.2023
97 Clear 11 1025 57 10000 1.54 30 12:29 25.01.2023
98 Clear 12 1026 52 10000 2.57 90 09:53 25.01.2023
99 Clear 12 1025 54 10000 2.57 90 09:20 25.01.2023
100 Clear 12 1029 60 10000 1.54 310 06:26 25.01.2023
101 Clear 18 1027 40 10000 4.12 260 00:31 25.01.2023
102 Clear 18 1029 31 10000 0.45 205 21:56 24.01.2023
103 Clear 18 1028 29 10000 2.06 130 21:28 24.01.2023
104 Clear 16 1030 35 10000 2.06 0 19:39 24.01.2023
105 Clear 13 1031 44 10000 1.54 0 18:30 24.01.2023
106 Clear 10 1026 52 10000 2.06 20 17:19 24.01.2023
107 Clear 10 1026 54 10000 1.54 110 16:52 24.01.2023
108 Clear 9 1025 53 10000 1.54 100 14:49 24.01.2023
109 Clear 9 1023 47 10000 2.06 340 12:29 24.01.2023
110 Clear 10 1023 48 10000 0.45 30 11:20 24.01.2023
111 Clear 11 1025 49 10000 2.06 80 08:21 24.01.2023
112 Clear 11 1021 51 10000 2.57 40 07:50 24.01.2023
113 Clear 12 1023 50 10000 3.09 360 05:22 24.01.2023
114 Clear 18 1019 27 10000 5.66 200 00:46 24.01.2023
115 Clear 18 1018 25 10000 5.66 150 23:48 23.01.2023
116 Clear 18 1019 24 10000 7.72 360 21:50 23.01.2023
117 Clear 16 1017 29 10000 6.17 340 19:45 23.01.2023
118 Clear 12 1017 36 10000 0 0 17:59 23.01.2023
119 Clear 9 1019 36 10000 4.12 330 15:37 23.01.2023
120 Clear 10 1018 35 10000 5.14 320 14:34 23.01.2023
121 Clear 10 1019 35 10000 4.63 310 13:43 23.01.2023
122 Clear 10 1018 34 10000 4.12 320 12:54 23.01.2023
123 Clear 10 1018 33 10000 3.09 30 11:44 23.01.2023
124 Clear 12 1017 34 10000 8.23 20 08:49 23.01.2023
125 Clear 12 1013 43 10000 7.2 360 06:29 23.01.2023
126 Clear 17 1015 49 10000 3.6 210 23:31 22.01.2023
127 Clear 16 1017 50 10000 2.06 210 21:48 22.01.2023
128 Clear 15 1019 52 10000 2.06 160 20:53 22.01.2023
129 Clear 14 1020 54 10000 2.06 70 19:53 22.01.2023
130 Clear 13 1021 56 10000 2.06 80 19:20 22.01.2023
131 Clear 11 1021 53 10000 2.06 110 18:22 22.01.2023
132 Clear 10 1022 59 10000 2.06 90 17:44 22.01.2023
133 Clear 9 1019 65 10000 2.06 90 17:21 22.01.2023
134 Clear 8 1020 57 10000 2.06 90 14:56 22.01.2023
135 Clear 8 1020 60 10000 2.57 100 13:51 22.01.2023
136 Clear 8 1020 55 10000 2.57 100 13:25 22.01.2023
137 Clear 9 1021 54 10000 2.06 70 12:26 22.01.2023
138 Clear 10 1022 57 10000 0 0 09:56 22.01.2023
139 Clear 10 1023 59 10000 2.06 80 08:51 22.01.2023
140 Clear 13 1031 55 10000 1.54 250 02:56 22.01.2023
141 Clear 18 1027 35 10000 4.12 250 23:43 21.01.2023
142 Clear 18 1028 37 10000 4.12 240 22:48 21.01.2023
143 Clear 17 1029 34 10000 3.6 270 21:28 21.01.2023
144 Clear 13 1033 54 10000 1.54 0 18:50 21.01.2023
145 Clear 7 1025 66 10000 2.57 50 15:36 21.01.2023
146 Clear 8 1025 68 10000 2.57 70 13:32 21.01.2023
147 Clear 8 1026 72 10000 2.06 50 12:52 21.01.2023
148 Clear 8 1026 69 10000 1.54 20 11:37 21.01.2023
149 Clear 8 1025 76 10000 2.57 290 10:48 21.01.2023
150 Clear 9 1025 78 10000 0 0 08:31 21.01.2023
151 Clear 13 1026 67 10000 5.14 270 02:18 21.01.2023
152 Clear 16 1025 58 10000 4.12 270 22:27 20.01.2023
153 Clouds 15 1026 58 10000 3.09 250 21:36 20.01.2023
154 Clouds 15 1026 61 10000 2.06 260 20:42 20.01.2023
155 Clouds 12 1028 63 10000 2.06 100 18:36 20.01.2023
156 Clear 7 1021 72 10000 1.54 0 15:53 20.01.2023
157 Clear 7 1020 72 10000 3.6 10 14:41 20.01.2023
158 Clear 8 1023 69 10000 3.6 350 12:45 20.01.2023
159 Clear 9 1022 72 10000 3.6 10 09:48 20.01.2023
160 Clear 9 1023 72 10000 4.12 360 08:22 20.01.2023
161 Clouds 12 1021 82 10000 2.57 150 02:34 20.01.2023
162 Clouds 14 1023 64 10000 2.24 226 22:59 19.01.2023
163 Clouds 14 1022 61 10000 5.14 240 22:32 19.01.2023
164 Clear 14 1024 61 10000 2.06 180 20:22 19.01.2023
165 Clear 12 1022 64 10000 1.54 100 18:58 19.01.2023
166 Clear 7 1021 79 10000 2.06 70 15:37 19.01.2023
167 Clear 9 1022 78 10000 1.54 80 10:53 19.01.2023
168 Clear 9 1029 83 10000 0 0 08:59 19.01.2023
169 Clear 16 1023 51 10000 4.12 250 23:35 18.01.2023
170 Clear 15 1028 56 10000 0.45 305 20:56 18.01.2023
171 Clear 14 1023 59 10000 2.57 50 20:19 18.01.2023
172 Clear 13 1023 59 10000 2.06 50 19:37 18.01.2023
173 Clear 9 1022 75 10000 2.57 100 17:35 18.01.2023
174 Clear 7 1020 71 10000 2.57 60 15:24 18.01.2023
175 Clear 7 1019 70 10000 2.06 40 13:30 18.01.2023
176 Haze 8 1018 68 10000 0 0 11:25 18.01.2023
177 Clear 9 1021 66 10000 5.14 360 08:44 18.01.2023
178 Clear 14 1016 57 10000 5.14 250 01:28 18.01.2023
179 Clear 15 1017 51 10000 5.14 280 23:54 17.01.2023
180 Clear 14 1017 53 10000 4.63 320 20:38 17.01.2023
181 Clear 13 1017 59 10000 3.6 280 19:34 17.01.2023
182 Clear 11 1017 67 10000 5.66 230 18:30 17.01.2023
183 Clear 7 1015 83 10000 2.57 280 16:34 17.01.2023
184 Clear 8 1016 86 10000 0.45 347 14:57 17.01.2023
185 Clear 8 1014 84 10000 3.6 280 14:22 17.01.2023
186 Clear 8 1014 87 10000 3.09 300 12:48 17.01.2023
187 Clear 8 1014 84 10000 3.09 350 11:44 17.01.2023
188 Clear 9 1014 81 10000 5.14 270 09:35 17.01.2023
189 Clear 10 1014 79 10000 3.6 300 08:20 17.01.2023
190 Clouds 11 1014 77 10000 11.32 260 05:51 17.01.2023
191 Clouds 14 1012 75 10000 13.38 260 00:57 17.01.2023
192 Clouds 15 1010 70 10000 12.86 260 23:45 16.01.2023
193 Clouds 15 1011 73 10000 8.23 270 21:59 16.01.2023
194 Clouds 14 1011 78 10000 9.77 260 20:49 16.01.2023
195 Clouds 13 1011 85 10000 10.29 270 19:42 16.01.2023
196 Clouds 13 1010 90 10000 10.8 260 18:55 16.01.2023
197 Mist 13 1010 91 10000 10.8 260 18:21 16.01.2023
198 Mist 13 1010 91 10000 10.8 260 18:21 16.01.2023
199 Clouds 12 1009 92 10000 9.26 260 17:36 16.01.2023
200 Clouds 12 1009 93 10000 7.2 240 16:29 16.01.2023
201 Clouds 11 1008 92 10000 4.63 80 13:39 16.01.2023
202 Mist 10 1009 92 6437 6.69 70 11:57 16.01.2023
203 Rain 10 1009 93 4828 7.2 140 10:21 16.01.2023
204 Clouds 14 1014 82 10000 4.63 180 00:55 16.01.2023
205 Clouds 15 1013 78 10000 4.63 170 22:27 15.01.2023
206 Clouds 14 1014 81 10000 4.63 130 20:48 15.01.2023
207 Clouds 14 1015 81 10000 4.63 140 20:23 15.01.2023
208 Clouds 12 1015 91 10000 6.17 270 18:26 15.01.2023
209 Clouds 11 1014 91 10000 6.17 250 16:38 15.01.2023
210 Clouds 11 1013 90 10000 2.06 300 13:25 15.01.2023
211 Rain 12 1013 92 10000 5.66 250 11:40 15.01.2023
212 Clear 12 1013 91 10000 7.72 260 10:52 15.01.2023
213 Clear 12 1013 91 10000 7.72 260 10:21 15.01.2023
214 Rain 12 1014 93 10000 2.57 90 01:55 15.01.2023
215 Rain 11 1014 91 4828 3.09 90 23:27 14.01.2023
216 Rain 11 1015 91 3219 7.2 80 22:42 14.01.2023
217 Rain 11 1016 90 2414 6.69 130 21:36 14.01.2023
218 Rain 11 1017 90 2816 7.2 140 21:18 14.01.2023
219 Rain 11 1017 90 2816 7.2 140 21:18 14.01.2023
220 Rain 12 1018 88 2816 5.14 90 20:40 14.01.2023
221 Rain 12 1019 86 3219 4.12 110 19:53 14.01.2023
222 Clouds 12 1019 74 10000 2.57 110 17:42 14.01.2023
223 Clear 12 1019 73 10000 2.57 140 15:30 14.01.2023
224 Clear 12 1019 75 10000 2.06 70 14:35 14.01.2023
225 Mist 12 1020 79 10000 2.06 20 13:44 14.01.2023
226 Mist 12 1020 78 10000 2.06 20 13:44 14.01.2023
227 Clear 12 1017 76 10000 2.57 130 12:23 14.01.2023
228 Clear 12 1021 78 10000 0 0 10:47 14.01.2023
229 Clear 12 1022 78 10000 1.54 220 08:19 14.01.2023
230 Clear 12 1022 78 10000 1.54 220 08:19 14.01.2023
231 Clear 18 1023 54 10000 1.54 180 23:56 13.01.2023
232 Clear 18 1024 56 10000 2.06 270 22:59 13.01.2023
233 Clear 18 1022 53 10000 5.14 270 22:40 13.01.2023
234 Clear 19 1024 50 10000 1.54 260 21:56 13.01.2023
235 Clear 18 1024 46 10000 2.06 50 20:24 13.01.2023
236 Clear 17 1025 52 10000 2.06 90 19:25 13.01.2023
237 Clear 14 1021 61 10000 2.57 70 16:58 13.01.2023
238 Clear 13 1021 61 10000 0 0 14:52 13.01.2023
239 Clear 13 1021 59 10000 2.06 60 12:22 13.01.2023
240 Clear 14 1024 54 10000 2.06 20 10:37 13.01.2023
241 Clear 14 1024 55 10000 2.06 20 10:18 13.01.2023
242 Clear 14 1025 59 10000 2.57 40 09:39 13.01.2023
243 Clear 14 1026 61 10000 3.6 330 08:51 13.01.2023
244 Clear 14 1027 63 10000 0 0 06:56 13.01.2023
245 Clear 15 1024 58 10000 3.6 20 05:47 13.01.2023
246 Clouds 20 1025 46 10000 3.09 290 00:55 13.01.2023
247 Clear 21 1024 40 10000 3.6 130 22:48 12.01.2023
248 Clear 21 1025 43 10000 3.6 70 21:49 12.01.2023
249 Clear 19 1026 47 10000 4.12 60 20:48 12.01.2023
250 Clear 15 1025 64 10000 4.12 40 18:26 12.01.2023
251 Clear 12 1029 75 10000 1.54 0 16:59 12.01.2023
252 Clear 11 1023 79 10000 1.54 0 14:58 12.01.2023
253 Clear 12 1022 76 10000 4.12 10 14:38 12.01.2023
254 Clear 12 1022 77 10000 4.12 10 14:18 12.01.2023
255 Clear 11 1026 82 10000 3.6 30 12:19 12.01.2023
256 Clear 11 1023 84 10000 2.57 270 10:25 12.01.2023
257 Clear 11 1028 89 10000 1.54 350 07:26 12.01.2023
258 Clear 16 1025 70 10000 3.6 240 00:31 12.01.2023
259 Clear 16 1027 69 10000 2.06 210 23:57 11.01.2023
260 Clouds 16 1026 65 10000 3.09 240 23:37 11.01.2023
261 Clouds 16 1026 65 10000 3.09 240 23:19 11.01.2023
262 Clear 15 1028 69 10000 2.06 0 21:22 11.01.2023
263 Clear 11 1029 87 10000 2.06 80 18:51 11.01.2023
264 Clear 10 1024 89 10000 2.06 30 17:37 11.01.2023
265 Clear 8 1026 91 10000 1.54 70 15:52 11.01.2023
266 Clear 9 1028 90 10000 0 0 13:59 11.01.2023
267 Clear 9 1024 91 10000 2.06 260 12:33 11.01.2023
268 Clear 9 1024 89 10000 1.54 70 11:39 11.01.2023
269 Clouds 10 1025 89 10000 0 0 09:32 11.01.2023
270 Clear 11 1025 88 10000 1.54 10 07:30 11.01.2023
271 Clear 11 1025 86 10000 3.09 260 06:47 11.01.2023
272 Clouds 14 1020 88 10000 5.14 230 23:55 10.01.2023
273 Clouds 14 1020 88 10000 5.14 250 22:34 10.01.2023
274 Clouds 13 1020 91 10000 5.14 240 21:29 10.01.2023
275 Rain 13 1018 91 3219 11.32 270 19:56 10.01.2023
276 Rain 13 1020 93 8047 7.72 270 19:29 10.01.2023
277 Rain 15 1019 94 9656 9.26 200 18:47 10.01.2023
278 Mist 15 1019 94 4828 7.72 200 17:53 10.01.2023
279 Mist 14 1020 94 6437 7.2 140 15:48 10.01.2023
280 Mist 14 1019 94 6437 6.17 150 15:22 10.01.2023
281 Rain 14 1020 94 3219 5.14 140 13:42 10.01.2023
282 Mist 14 1021 93 8047 4.63 150 11:49 10.01.2023
283 Mist 14 1017 94 4023 6.69 140 08:57 10.01.2023
284 Rain 14 1017 94 6437 7.72 150 08:25 10.01.2023
285 Rain 14 1017 94 2414 7.2 140 07:25 10.01.2023
286 Rain 14 1018 94 2414 6.69 160 04:50 10.01.2023
287 Mist 13 1021 90 1609 7.72 130 22:51 09.01.2023
288 Mist 13 1022 87 1609 8.23 120 21:21 09.01.2023
289 Rain 13 1023 86 2816 8.23 120 20:34 09.01.2023
290 Mist 13 1025 89 4828 6.17 130 18:42 09.01.2023
291 Rain 13 1025 90 4023 6.69 130 17:53 09.01.2023
292 Clouds 12 1021 87 10000 7.72 120 16:58 09.01.2023
293 Clouds 12 1021 86 10000 6.17 130 16:30 09.01.2023
294 Rain 13 1021 84 10000 7.2 140 15:22 09.01.2023
295 Clouds 13 1020 84 10000 6.17 150 14:43 09.01.2023
296 Clouds 13 1023 78 10000 3.6 130 12:54 09.01.2023
297 Clouds 14 1023 74 10000 3.6 130 12:22 09.01.2023
298 Clouds 14 1023 72 10000 2.57 80 11:20 09.01.2023
299 Clouds 14 1024 71 10000 3.6 260 08:28 09.01.2023
300 Clouds 14 1025 72 10000 2.06 230 06:31 09.01.2023
301 Clouds 15 1025 66 10000 4.63 260 02:53 09.01.2023
302 Clouds 18 1023 52 10000 4.12 260 22:43 08.01.2023
303 Clouds 17 1024 52 10000 4.12 250 21:23 08.01.2023
304 Clouds 18 1026 52 10000 1.54 120 20:57 08.01.2023
305 Clouds 15 1023 59 10000 2.57 100 19:19 08.01.2023
306 Haze 12 1023 75 10000 2.06 60 17:39 08.01.2023
307 Haze 11 1023 76 10000 2.06 60 17:18 08.01.2023
308 Clear 11 1022 77 10000 2.06 340 15:38 08.01.2023
309 Clear 11 1022 77 10000 2.06 340 15:38 08.01.2023
310 Clouds 11 1021 75 10000 3.09 260 14:18 08.01.2023
311 Clear 11 1021 74 10000 2.06 50 13:32 08.01.2023
312 Clear 11 1021 72 10000 0 0 12:59 08.01.2023
313 Clear 11 1024 78 10000 2.57 270 11:37 08.01.2023
314 Clear 12 1026 79 10000 1.54 0 09:37 08.01.2023
315 Clear 12 1026 79 10000 0 0 08:31 08.01.2023
316 Clear 14 1023 69 10000 4.12 260 02:43 08.01.2023
317 Clear 19 1024 41 10000 3.6 130 22:55 07.01.2023
318 Clear 19 1023 39 10000 3.6 130 22:34 07.01.2023
319 Clear 19 1026 41 10000 1.54 0 21:59 07.01.2023
320 Clear 19 1026 42 10000 2.57 70 20:59 07.01.2023
321 Clear 18 1025 43 10000 1.54 0 20:25 07.01.2023
322 Clear 15 1025 57 10000 3.09 60 19:25 07.01.2023
323 Clear 14 1025 63 10000 1.54 50 18:18 07.01.2023
324 Clear 12 1022 66 10000 2.06 0 17:40 07.01.2023
325 Clear 12 1021 67 10000 3.09 50 16:47 07.01.2023
326 Clear 11 1021 70 10000 3.09 50 16:23 07.01.2023
327 Clear 11 1021 70 10000 3.6 40 15:39 07.01.2023
328 Clear 11 1021 68 10000 3.6 40 15:21 07.01.2023
329 Clear 12 1028 70 10000 0.45 316 13:59 07.01.2023
330 Clear 12 1021 67 10000 3.09 20 13:41 07.01.2023
331 Clear 11 1021 68 10000 1.54 20 12:50 07.01.2023
332 Clear 12 1021 69 10000 1.54 20 12:20 07.01.2023
333 Clear 12 1021 71 10000 4.12 320 10:28 07.01.2023
334 Clear 12 1026 71 10000 1.54 30 08:52 07.01.2023
335 Clear 12 1029 76 10000 0 0 07:59 07.01.2023
336 Clear 12 1025 79 10000 0.45 65 07:40 07.01.2023
337 Clear 12 1026 82 10000 5.14 270 05:49 07.01.2023
338 Clear 17 1025 58 10000 2.06 240 23:24 06.01.2023
339 Clear 17 1026 62 10000 3.09 260 22:21 06.01.2023
340 Clear 16 1026 64 10000 2.06 0 21:47 06.01.2023
341 Clear 15 1027 70 10000 2.57 300 20:34 06.01.2023
342 Clear 14 1025 75 10000 1.54 0 19:55 06.01.2023
343 Clear 14 1025 74 10000 2.57 90 19:37 06.01.2023
344 Clear 13 1025 76 10000 2.57 90 19:18 06.01.2023
345 Clear 11 1030 84 10000 2.06 290 17:55 06.01.2023
346 Clear 9 1023 87 10000 3.09 40 16:52 06.01.2023
347 Clear 8 1023 89 10000 3.09 40 16:22 06.01.2023
348 Clear 9 1023 85 10000 1.54 60 15:51 06.01.2023
349 Clear 9 1023 83 10000 1.54 60 15:28 06.01.2023
350 Clear 9 1023 87 10000 0 0 13:42 06.01.2023
351 Clear 9 1026 89 10000 1.54 300 11:50 06.01.2023
352 Clouds 10 1026 91 10000 2.06 350 10:34 06.01.2023
353 Mist 11 1027 90 9656 2.57 0 08:42 06.01.2023
354 Clear 12 1025 89 10000 4.63 230 05:22 06.01.2023
355 Clouds 16 1022 83 10000 4.12 240 22:56 05.01.2023
356 Clouds 16 1021 84 10000 7.2 240 22:29 05.01.2023
357 Mist 15 1021 93 10000 7.72 230 20:24 05.01.2023
358 Rain 13 1020 95 2012 6.69 160 17:30 05.01.2023
359 Mist 13 1020 94 4828 8.23 140 16:48 05.01.2023
360 Rain 12 1021 94 4828 7.2 130 15:48 05.01.2023
361 Rain 12 1020 94 2816 7.72 110 15:20 05.01.2023
362 Rain 12 1021 94 3219 7.2 120 13:35 05.01.2023
363 Rain 13 1021 94 10000 8.23 120 12:40 05.01.2023
364 Rain 13 1022 90 10000 4.63 120 10:37 05.01.2023
365 Clouds 13 1021 92 10000 7.2 110 09:40 05.01.2023
366 Clouds 14 1022 95 10000 5.14 120 07:28 05.01.2023
367 Clouds 14 1022 94 10000 4.12 110 06:38 05.01.2023
368 Mist 15 1020 94 10000 6.69 130 00:32 05.01.2023
369 Mist 15 1021 94 4023 6.69 140 22:26 04.01.2023
370 Rain 15 1022 95 3219 6.17 140 21:30 04.01.2023
371 Mist 15 1024 94 1609 5.66 140 19:58 04.01.2023
372 Rain 15 1023 93 2414 5.66 140 19:37 04.01.2023
373 Mist 15 1024 93 4023 5.14 90 19:18 04.01.2023
374 Mist 14 1022 94 10000 4.63 120 17:38 04.01.2023
375 Mist 14 1022 94 4023 4.63 100 16:30 04.01.2023
376 Mist 14 1022 94 2816 4.63 100 14:50 04.01.2023
377 Mist 14 1022 94 4023 4.12 90 12:19 04.01.2023
378 Mist 14 1022 94 4023 4.12 100 11:23 04.01.2023
379 Mist 14 1022 93 4023 4.63 90 10:44 04.01.2023
380 Mist 14 1022 93 4023 4.63 90 10:24 04.01.2023
381 Mist 14 1022 94 4828 4.63 90 09:40 04.01.2023
382 Mist 14 1021 92 10000 4.12 80 05:39 04.01.2023
383 Clouds 14 1020 89 10000 6.17 70 01:40 04.01.2023
384 Mist 14 1020 87 10000 6.17 130 23:42 03.01.2023
385 Clouds 14 1020 87 10000 4.12 90 22:56 03.01.2023
386 Clouds 13 1020 87 10000 7.72 80 21:39 03.01.2023
387 Mist 13 1021 89 4828 7.72 70 20:50 03.01.2023
388 Mist 11 1021 91 4828 7.2 70 18:24 03.01.2023
389 Clouds 10 1021 89 10000 6.17 80 16:40 03.01.2023
390 Clouds 10 1020 89 10000 5.14 80 15:28 03.01.2023
391 Mist 10 1020 91 6437 5.66 60 13:33 03.01.2023
392 Mist 10 1022 92 4023 3.09 130 12:59 03.01.2023
393 Mist 10 1020 91 8047 4.63 60 12:31 03.01.2023
394 Mist 10 1023 91 8047 3.09 100 11:56 03.01.2023
395 Rain 11 1020 86 10000 4.12 100 09:50 03.01.2023
396 Clouds 11 1019 84 10000 5.14 80 04:28 03.01.2023
397 Clouds 11 1020 84 10000 2.57 240 03:49 03.01.2023
398 Rain 11 1020 83 10000 2.57 240 03:28 03.01.2023
399 Clouds 13 1019 66 10000 3.09 160 23:19 02.01.2023
400 Clear 13 1019 66 10000 3.09 220 22:39 02.01.2023
401 Clear 14 1019 66 10000 3.09 130 20:51 02.01.2023
402 Clear 13 1019 67 10000 3.09 130 20:31 02.01.2023
403 Clear 12 1017 68 10000 2.06 80 18:49 02.01.2023
404 Clear 9 1018 76 10000 2.06 240 16:20 02.01.2023
405 Clear 9 1016 72 10000 2.06 80 14:26 02.01.2023
406 Clear 9 1016 68 10000 2.57 310 12:56 02.01.2023
407 Clear 10 1015 63 10000 5.14 300 11:27 02.01.2023
408 Clear 11 1016 64 10000 4.12 300 08:51 02.01.2023
409 Clouds 12 1012 68 10000 6.69 280 04:42 02.01.2023
410 Clouds 15 1007 67 10000 11.83 260 23:32 01.01.2023
411 Clouds 15 1012 70 10000 1.79 247 21:55 01.01.2023
412 Clouds 15 1011 72 10000 10.8 270 20:50 01.01.2023
413 Clouds 15 1011 75 10000 10.8 270 20:18 01.01.2023
414 Clouds 15 1011 75 10000 10.8 270 20:18 01.01.2023
415 Clear 13 1013 84 10000 2.57 320 18:53 01.01.2023
416 Clear 12 1010 89 10000 4.63 270 17:24 01.01.2023
417 Clear 11 1012 92 10000 0 0 16:57 01.01.2023
418 Clear 11 1011 90 10000 4.63 280 15:46 01.01.2023
419 Clouds 11 1010 91 10000 4.12 280 13:50 01.01.2023
420 Clouds 12 1011 92 10000 5.66 270 12:59 01.01.2023
421 Clear 12 1009 91 10000 10.8 260 11:42 01.01.2023
422 Clear 12 1009 91 10000 10.8 260 11:21 01.01.2023
423 Mist 14 1009 95 10000 9.77 230 09:38 01.01.2023
424 Rain 14 1010 96 4023 9.26 190 08:42 01.01.2023
425 Rain 14 1010 95 8047 9.26 140 08:18 01.01.2023
426 Rain 14 1012 96 4828 6.69 180 06:46 01.01.2023
427 Clouds 15 1019 94 10000 3.6 210 23:58 31.12.2022
428 Mist 15 1018 95 10000 4.12 210 23:38 31.12.2022
429 Mist 15 1018 95 4828 4.63 220 22:29 31.12.2022
430 Mist 15 1019 94 2414 4.63 120 21:24 31.12.2022
431 Mist 15 1020 95 6437 4.12 240 20:31 31.12.2022
432 Mist 14 1021 95 4828 4.12 130 18:57 31.12.2022
433 Mist 14 1021 95 2414 4.12 130 18:38 31.12.2022
434 Mist 14 1020 95 3219 4.63 130 17:58 31.12.2022
435 Mist 14 1020 95 2414 4.63 130 17:34 31.12.2022
436 Mist 13 1019 95 4828 4.63 100 16:32 31.12.2022
437 Mist 13 1019 96 4023 4.12 140 15:43 31.12.2022
438 Mist 13 1020 95 6437 5.14 130 14:34 31.12.2022
439 Mist 14 1020 95 4828 4.63 150 13:28 31.12.2022
440 Mist 14 1020 95 4023 4.63 130 12:25 31.12.2022
441 Mist 14 1021 95 6437 2.57 90 11:57 31.12.2022
442 Mist 14 1021 94 6437 4.12 120 11:38 31.12.2022
443 Mist 14 1021 95 6437 3.6 120 10:20 31.12.2022
444 Mist 14 1021 94 4828 3.09 150 09:50 31.12.2022
445 Mist 14 1022 94 4023 2.06 100 08:39 31.12.2022
446 Mist 14 1023 92 9656 2.06 220 05:40 31.12.2022
447 Clouds 15 1022 86 10000 2.57 260 00:34 31.12.2022
448 Clouds 15 1022 85 10000 3.09 200 23:27 30.12.2022
449 Mist 15 1022 86 10000 2.57 210 22:19 30.12.2022
450 Mist 15 1023 87 10000 2.57 160 21:41 30.12.2022
451 Clouds 15 1023 87 10000 2.57 160 21:21 30.12.2022
452 Mist 14 1024 92 4023 2.57 90 18:51 30.12.2022
453 Mist 13 1023 93 4828 2.06 90 17:35 30.12.2022
454 Mist 13 1023 92 10000 2.06 110 16:50 30.12.2022
455 Clouds 13 1022 90 10000 1.54 60 15:18 30.12.2022
456 Clouds 13 1022 89 10000 1.54 130 13:31 30.12.2022
457 Clouds 13 1022 88 10000 1.54 150 08:39 30.12.2022
458 Clouds 13 1021 89 10000 2.06 20 04:54 30.12.2022
459 Mist 14 1019 87 10000 1.54 300 02:28 30.12.2022
460 Clouds 15 1019 80 10000 3.09 230 23:48 29.12.2022
461 Clouds 15 1018 79 10000 3.09 120 22:37 29.12.2022
462 Clouds 15 1019 78 10000 3.6 140 21:29 29.12.2022
463 Clouds 15 1020 80 10000 3.6 150 20:53 29.12.2022
464 Clouds 14 1022 85 10000 2.06 0 19:55 29.12.2022
465 Clouds 13 1022 90 10000 1.54 100 17:56 29.12.2022
466 Clouds 13 1018 88 10000 2.57 60 17:28 29.12.2022
467 Rain 12 1019 88 10000 2.06 140 16:55 29.12.2022
468 Clouds 12 1021 89 10000 0 0 15:58 29.12.2022
469 Clouds 13 1017 88 10000 2.57 160 13:55 29.12.2022
470 Clouds 13 1017 88 10000 4.12 80 12:41 29.12.2022
471 Clouds 12 1017 88 10000 2.57 80 10:31 29.12.2022
472 Clouds 13 1020 89 10000 1.54 140 06:57 29.12.2022
473 Clouds 17 1016 70 10000 4.12 260 23:30 28.12.2022
474 Clear 17 1016 70 10000 4.12 160 22:33 28.12.2022
475 Clouds 16 1016 74 10000 4.63 150 21:20 28.12.2022
476 Clouds 15 1017 80 10000 3.09 140 20:22 28.12.2022
477 Mist 14 1018 88 10000 4.63 140 19:23 28.12.2022
478 Mist 11 1017 91 1207 1.54 90 16:43 28.12.2022
479 Mist 12 1015 92 4023 1.54 330 14:29 28.12.2022
480 Mist 12 1015 93 8047 0 0 12:49 28.12.2022
481 Mist 12 1016 92 9656 1.54 0 11:51 28.12.2022
482 Mist 12 1016 93 10000 2.06 90 10:37 28.12.2022
483 Rain 12 1018 91 4023 3.09 30 07:51 28.12.2022
484 Rain 12 1018 91 10000 2.57 60 06:49 28.12.2022
485 Rain 14 1016 84 10000 1.54 0 03:43 28.12.2022
486 Rain 16 1018 77 10000 3.09 220 23:23 27.12.2022
487 Clear 18 1021 57 10000 4.12 140 19:58 27.12.2022
488 Clear 17 1021 56 10000 4.12 140 19:24 27.12.2022
489 Clear 14 1021 67 10000 2.57 100 17:20 27.12.2022
490 Clear 14 1018 67 10000 1.54 60 16:39 27.12.2022
491 Clouds 14 1017 66 10000 0 0 15:22 27.12.2022
492 Clear 14 1021 68 10000 2.57 80 12:29 27.12.2022
493 Clear 15 1017 66 10000 3.09 90 11:24 27.12.2022
494 Clear 15 1019 65 10000 2.06 0 09:46 27.12.2022
495 Clear 16 1021 62 10000 2.06 0 09:22 27.12.2022
496 Clear 17 1021 53 10000 2.06 230 06:49 27.12.2022
497 Clear 18 1021 50 10000 2.06 250 04:29 27.12.2022
498 Clear 25 1021 33 10000 3.6 240 22:20 26.12.2022
499 Clear 24 1022 35 10000 2.06 120 20:51 26.12.2022
500 Clear 24 1022 32 10000 2.06 120 20:29 26.12.2022
501 Clear 20 1023 40 10000 2.57 90 18:43 26.12.2022
502 Clear 18 1020 43 10000 2.57 0 17:32 26.12.2022
503 Clear 16 1019 42 10000 2.06 0 15:46 26.12.2022
504 Clear 17 1019 43 10000 2.06 50 13:20 26.12.2022
505 Clear 17 1020 41 10000 1.54 80 11:56 26.12.2022
506 Clear 19 1021 47 10000 3.6 320 07:28 26.12.2022
507 Clear 25 1020 27 10000 5.14 260 23:48 25.12.2022
508 Clear 26 1020 28 10000 5.14 260 23:22 25.12.2022
509 Clear 27 1021 26 10000 4.63 250 22:26 25.12.2022
510 Clear 26 1024 27 10000 2.68 67 21:35 25.12.2022
511 Clear 20 1024 42 10000 2.57 40 18:49 25.12.2022
512 Clear 18 1023 49 10000 1.54 70 17:51 25.12.2022
513 Clear 18 1023 43 10000 2.57 30 17:33 25.12.2022
514 Clear 16 1022 43 10000 2.57 70 15:19 25.12.2022
515 Clear 16 1023 41 10000 2.57 50 11:50 25.12.2022
516 Clear 17 1023 50 10000 2.06 50 06:21 25.12.2022
517 Clear 24 1025 39 10000 5.14 270 23:30 24.12.2022
518 Clear 23 1024 37 10000 4.12 260 21:25 24.12.2022
519 Clear 17 1031 52 10000 0 0 17:59 24.12.2022
520 Clear 13 1023 63 10000 2.06 40 16:32 24.12.2022
521 Smoke 14 1023 61 10000 1.54 340 14:52 24.12.2022
522 Mist 13 1022 68 9656 1.54 10 12:42 24.12.2022
523 Mist 13 1022 71 8047 1.54 50 10:39 24.12.2022
524 Mist 13 1022 71 8047 1.54 50 10:20 24.12.2022
525 Mist 14 1022 69 9656 0 0 09:36 24.12.2022
526 Clear 14 1026 75 10000 3.09 290 05:48 24.12.2022
527 Haze 16 1022 67 9656 4.12 260 02:20 24.12.2022
528 Haze 20 1022 49 9656 3.6 240 23:35 23.12.2022
529 Haze 20 1022 49 8047 3.6 260 22:27 23.12.2022
530 Clear 19 1023 48 10000 1.54 130 20:40 23.12.2022
531 Clear 17 1025 51 10000 2.06 140 19:39 23.12.2022
532 Clear 17 1025 53 10000 2.06 140 19:21 23.12.2022
533 Clear 16 1025 59 10000 1.54 100 18:39 23.12.2022
534 Clear 15 1025 61 10000 1.54 100 18:19 23.12.2022
535 Clear 11 1020 72 10000 2.06 110 16:33 23.12.2022
536 Clear 11 1020 71 10000 2.06 110 15:30 23.12.2022
537 Mist 12 1020 71 9656 1.54 100 11:47 23.12.2022
538 Mist 13 1020 69 8047 1.54 320 09:37 23.12.2022
539 Mist 14 1026 65 8047 0 0 07:55 23.12.2022
540 Haze 13 1023 72 9656 3.09 250 06:52 23.12.2022
541 Mist 14 1022 71 10000 3.09 250 05:45 23.12.2022
542 Clear 21 1020 38 10000 2.06 210 23:22 22.12.2022
543 Clear 20 1021 38 10000 2.57 0 22:38 22.12.2022
544 Clear 20 1021 39 10000 2.57 110 21:20 22.12.2022
545 Clear 17 1023 47 10000 2.06 110 19:25 22.12.2022
546 Clear 16 1023 49 10000 2.57 110 18:41 22.12.2022
547 Clear 13 1019 58 10000 1.54 50 17:23 22.12.2022
548 Clear 13 1019 58 10000 1.54 50 17:23 22.12.2022
549 Clear 12 1018 56 10000 2.06 50 16:38 22.12.2022
550 Clear 12 1018 59 10000 2.57 80 15:34 22.12.2022
551 Clear 12 1018 55 10000 3.6 90 14:51 22.12.2022
552 Clear 12 1018 54 10000 3.09 80 13:33 22.12.2022
553 Clouds 14 1019 45 10000 1.35 69 12:59 22.12.2022
554 Clear 13 1018 53 10000 2.57 360 10:44 22.12.2022
555 Clear 13 1018 52 10000 2.57 360 10:22 22.12.2022
556 Clear 14 1018 55 10000 3.09 90 09:20 22.12.2022
557 Clear 15 1018 57 10000 3.09 70 08:27 22.12.2022
558 Clear 15 1022 61 10000 2.06 0 05:28 22.12.2022
559 Mist 15 1021 59 10000 2.06 0 04:18 22.12.2022
560 Clear 21 1021 38 10000 4.63 260 23:50 21.12.2022
561 Clear 21 1019 40 10000 0.45 225 21:58 21.12.2022
562 Clear 21 1022 37 10000 4.12 260 21:23 21.12.2022
563 Clear 20 1024 34 10000 2.06 240 20:52 21.12.2022
564 Clear 20 1024 33 10000 2.06 240 20:18 21.12.2022
565 Clear 18 1024 37 10000 2.06 150 19:43 21.12.2022
566 Clear 18 1025 40 10000 2.06 150 19:24 21.12.2022
567 Clear 17 1025 47 10000 2.57 120 18:46 21.12.2022
568 Clear 12 1024 57 10000 2.06 80 17:38 21.12.2022
569 Clear 13 1022 40 10000 1.75 16 14:58 21.12.2022
570 Clear 11 1020 61 10000 0 0 13:26 21.12.2022
571 Clear 12 1021 65 10000 2.06 80 11:47 21.12.2022
572 Clear 12 1021 62 10000 2.06 80 11:20 21.12.2022
573 Clear 12 1021 62 10000 1.54 90 09:47 21.12.2022
574 Clear 13 1022 68 10000 1.54 360 07:38 21.12.2022
575 Clear 13 1026 71 10000 4.12 260 03:48 21.12.2022
576 Clear 19 1026 42 10000 4.63 250 22:56 20.12.2022
577 Clear 19 1024 35 10000 3.6 260 21:23 20.12.2022
578 Clear 18 1025 35 10000 2.06 260 20:24 20.12.2022
579 Clear 17 1029 36 10000 1.54 150 19:41 20.12.2022
580 Clear 15 1029 45 10000 1.54 30 18:37 20.12.2022
581 Clear 14 1029 47 10000 1.54 30 18:19 20.12.2022
582 Clear 12 1025 49 10000 0 0 17:46 20.12.2022
583 Clear 10 1025 48 10000 1.54 310 16:37 20.12.2022
584 Clear 11 1024 48 10000 1.54 20 15:36 20.12.2022
585 Clear 11 1024 46 10000 1.54 0 14:48 20.12.2022
586 Clear 11 1024 46 10000 1.54 0 14:28 20.12.2022
587 Clear 12 1025 41 10000 0 0 12:58 20.12.2022
588 Clear 11 1025 49 10000 1.54 30 12:28 20.12.2022
589 Clear 11 1025 49 10000 1.54 60 11:33 20.12.2022
590 Clear 12 1025 50 10000 1.54 50 08:49 20.12.2022
591 Clear 13 1026 60 10000 4.63 260 03:40 20.12.2022
592 Clear 18 1026 32 10000 3.09 210 22:42 19.12.2022
593 Clear 18 1024 35 10000 0 0 21:56 19.12.2022
594 Clear 16 1028 37 10000 2.06 30 20:28 19.12.2022
595 Clear 15 1029 43 10000 2.57 70 19:39 19.12.2022
596 Clear 13 1024 52 10000 2.57 80 18:42 19.12.2022
597 Clear 8 1023 62 10000 2.06 70 16:52 19.12.2022
598 Clear 8 1021 60 10000 1.54 30 13:41 19.12.2022
599 Clear 8 1021 60 10000 1.54 60 12:21 19.12.2022
600 Smoke 9 1021 58 10000 2.06 60 10:55 19.12.2022
601 Clear 10 1020 60 10000 0 0 07:45 19.12.2022
602 Clear 12 1021 61 10000 4.12 250 03:48 19.12.2022
603 Clear 18 1018 33 10000 4.12 240 22:43 18.12.2022
604 Clear 18 1016 30 10000 2.57 230 21:47 18.12.2022
605 Clear 18 1018 29 10000 2.57 230 21:24 18.12.2022
606 Clear 17 1016 29 10000 2.57 100 20:33 18.12.2022
607 Clear 16 1020 32 10000 2.06 0 19:42 18.12.2022
608 Clear 14 1020 36 10000 2.06 30 18:39 18.12.2022
609 Clear 12 1016 40 10000 1.54 0 17:49 18.12.2022
610 Clear 9 1014 43 10000 2.06 30 15:41 18.12.2022
611 Clear 9 1014 42 10000 2.06 30 15:41 18.12.2022
612 Clear 9 1014 41 10000 2.06 30 15:20 18.12.2022
613 Clear 9 1014 44 10000 2.06 50 14:21 18.12.2022
614 Clear 10 1015 40 10000 3.6 30 12:57 18.12.2022
615 Clear 10 1015 39 10000 1.54 360 12:57 18.12.2022
616 Clear 10 1015 42 10000 3.6 30 12:31 18.12.2022
617 Clear 11 1015 37 10000 2.57 290 11:22 18.12.2022
618 Clear 11 1015 38 10000 2.57 20 09:24 18.12.2022
619 Clear 12 1015 43 10000 1.54 20 08:45 18.12.2022
620 Clear 12 1019 42 10000 2.57 350 06:24 18.12.2022
621 Clear 13 1018 40 10000 3.09 260 04:41 18.12.2022
622 Clear 15 1018 39 10000 2.06 290 01:49 18.12.2022
623 Clear 18 1019 25 10000 3.6 20 22:30 17.12.2022
624 Clear 16 1021 31 10000 3.09 0 20:37 17.12.2022
625 Clear 11 1019 41 10000 4.12 20 17:21 17.12.2022
626 Clear 10 1018 36 10000 4.12 40 15:19 17.12.2022
627 Clear 10 1018 35 10000 3.09 360 13:18 17.12.2022
628 Clear 11 1019 39 10000 2.57 10 11:19 17.12.2022
629 Clear 11 1019 40 10000 3.6 360 10:40 17.12.2022
630 Clear 11 1019 42 10000 2.57 0 08:37 17.12.2022
631 Clear 12 1022 45 10000 3.09 350 06:47 17.12.2022
632 Clouds 16 1021 41 10000 4.12 250 02:19 17.12.2022
633 Clear 20 1023 31 10000 0 0 22:53 16.12.2022
634 Clear 18 1023 37 10000 3.09 110 20:27 16.12.2022
635 Clear 14 1023 51 10000 3.09 10 18:22 16.12.2022
636 Clear 11 1020 53 10000 3.09 0 15:28 16.12.2022
637 Clear 11 1019 60 10000 2.06 0 14:36 16.12.2022
638 Clear 11 1020 61 10000 1.54 50 12:49 16.12.2022
639 Clear 11 1020 62 10000 0 0 11:56 16.12.2022
640 Clear 12 1020 56 10000 1.54 0 09:40 16.12.2022
641 Clear 12 1020 60 10000 0 0 08:39 16.12.2022
642 Clear 12 1021 58 10000 0 0 07:54 16.12.2022
643 Clear 12 1023 68 10000 2.57 230 06:45 16.12.2022
644 Clear 16 1022 49 10000 4.12 260 22:46 15.12.2022
645 Clear 16 1022 45 10000 4.12 250 21:36 15.12.2022
646 Clear 15 1021 47 10000 0 0 19:49 15.12.2022
647 Clear 14 1025 56 10000 0 0 18:54 15.12.2022
648 Clear 10 1021 69 10000 1.54 100 17:28 15.12.2022
649 Clear 9 1020 69 10000 2.06 50 16:25 15.12.2022
650 Clear 9 1020 70 10000 0 0 14:57 15.12.2022
651 Clear 9 1021 73 10000 1.54 50 12:55 15.12.2022
652 Clear 9 1021 73 10000 1.54 50 12:24 15.12.2022
653 Clear 10 1022 76 10000 2.06 90 09:19 15.12.2022
654 Clear 10 1022 74 10000 2.06 240 08:41 15.12.2022
655 Clear 11 1025 72 10000 3.09 280 05:45 15.12.2022
656 Clear 12 1023 68 10000 5.14 260 02:38 15.12.2022
657 Clear 15 1024 46 10000 3.09 250 21:24 14.12.2022
658 Clear 15 1026 48 10000 0.89 228 20:57 14.12.2022
659 Clear 15 1026 50 10000 0.45 12 20:18 14.12.2022
660 Clear 10 1028 69 10000 3.09 70 17:52 14.12.2022
661 Clear 9 1023 71 10000 0 0 16:57 14.12.2022
662 Clear 7 1021 72 10000 2.57 30 15:39 14.12.2022
663 Clear 7 1020 74 10000 2.57 50 13:40 14.12.2022
664 Clear 8 1021 72 10000 1.54 50 11:20 14.12.2022
665 Clear 8 1021 74 10000 1.54 50 11:20 14.12.2022
666 Clear 8 1021 73 10000 2.06 80 10:25 14.12.2022
667 Clear 8 1021 75 10000 1.54 80 08:48 14.12.2022
668 Clear 15 1019 47 10000 2.57 180 22:47 13.12.2022
669 Haze 15 1018 49 10000 2.57 130 21:48 13.12.2022
670 Clear 14 1021 53 10000 2.57 120 20:48 13.12.2022
671 Clear 13 1019 61 10000 2.06 0 19:57 13.12.2022
672 Clear 8 1021 78 10000 2.06 0 17:21 13.12.2022
673 Clear 7 1016 78 10000 1.54 350 15:35 13.12.2022
674 Clouds 7 1019 80 10000 3.09 40 14:36 13.12.2022
675 Clouds 7 1018 83 10000 2.57 110 10:55 13.12.2022
676 Clouds 8 1018 82 10000 2.57 110 10:36 13.12.2022
677 Clouds 8 1018 83 10000 2.06 70 09:23 13.12.2022
678 Clear 12 1014 65 10000 3.09 0 23:23 12.12.2022
679 Clouds 12 1014 69 10000 3.09 60 22:22 12.12.2022
680 Clouds 11 1015 76 10000 3.6 140 20:53 12.12.2022
681 Clouds 8 1015 88 10000 4.12 80 18:33 12.12.2022
682 Clouds 7 1015 91 10000 4.12 70 17:19 12.12.2022
683 Rain 7 1015 91 10000 3.09 100 15:22 12.12.2022
684 Clouds 8 1017 84 10000 2.06 80 11:51 12.12.2022
685 Clear 8 1016 79 10000 3.09 0 09:19 12.12.2022
686 Clear 10 1017 75 10000 9.26 260 04:54 12.12.2022
687 Clear 11 1015 71 10000 9.26 260 03:21 12.12.2022
688 Clouds 14 1016 63 10000 11.32 260 22:54 11.12.2022
689 Clouds 13 1016 82 10000 8.23 260 20:47 11.12.2022
690 Clouds 12 1014 90 10000 10.29 270 19:43 11.12.2022
691 Clouds 12 1017 91 10000 11.32 270 19:22 11.12.2022
692 Mist 13 1016 94 10000 7.2 230 18:18 11.12.2022
693 Mist 13 1016 94 10000 7.2 230 18:18 11.12.2022
694 Mist 13 1016 95 6437 6.69 240 17:31 11.12.2022
695 Rain 13 1016 95 9656 5.14 250 16:52 11.12.2022
696 Rain 13 1015 94 2414 8.23 240 15:47 11.12.2022
697 Mist 13 1015 94 3219 8.23 150 14:50 11.12.2022
698 Rain 13 1016 92 10000 7.72 180 12:45 11.12.2022
699 Rain 13 1018 93 6437 7.2 130 12:18 11.12.2022
700 Mist 14 1022 88 10000 6.69 120 08:29 11.12.2022
701 Clouds 16 1021 71 10000 6.17 230 00:34 11.12.2022
702 Clouds 17 1021 66 10000 4.12 160 23:20 10.12.2022
703 Clouds 16 1022 70 10000 4.63 200 22:33 10.12.2022
704 Clouds 16 1019 71 10000 4.63 200 22:33 10.12.2022
705 Clouds 16 1019 71 10000 4.63 200 22:33 10.12.2022
706 Clouds 16 1023 66 10000 4.12 190 21:20 10.12.2022
707 Clouds 16 1024 62 10000 2.57 160 20:39 10.12.2022
708 Clouds 14 1025 63 10000 2.57 0 18:58 10.12.2022
709 Clouds 10 1028 76 10000 0 0 16:57 10.12.2022
710 Clouds 10 1021 75 10000 2.57 70 16:33 10.12.2022
711 Clouds 10 1020 76 10000 2.06 0 15:38 10.12.2022
712 Clouds 9 1020 79 10000 3.09 80 14:49 10.12.2022
713 Clear 9 1020 78 10000 2.57 80 12:54 10.12.2022
714 Clouds 10 1020 77 10000 2.57 90 11:46 10.12.2022
715 Clouds 10 1020 80 10000 2.06 50 10:43 10.12.2022
716 Clear 10 1021 81 10000 2.06 40 09:18 10.12.2022
717 Clear 11 1021 76 10000 2.06 360 07:20 10.12.2022
718 Clear 14 1023 66 10000 4.12 180 01:58 10.12.2022
719 Clear 17 1022 55 10000 5.66 260 23:19 09.12.2022
720 Clear 17 1022 52 10000 4.63 210 22:40 09.12.2022
721 Clear 16 1023 51 10000 2.57 0 21:26 09.12.2022
722 Clear 16 1025 52 10000 1.54 150 20:44 09.12.2022
723 Clear 14 1023 59 10000 1.54 80 19:28 09.12.2022
724 Clear 11 1027 69 10000 2.57 90 17:55 09.12.2022
725 Clear 8 1022 76 10000 3.09 50 16:36 09.12.2022
726 Clear 8 1022 76 10000 3.09 50 16:18 09.12.2022
727 Clear 8 1021 78 10000 2.06 80 15:19 09.12.2022
728 Clear 9 1022 76 10000 2.06 350 11:36 09.12.2022
729 Clear 9 1022 74 10000 2.06 320 10:45 09.12.2022
730 Clear 10 1023 73 10000 3.09 270 09:25 09.12.2022
731 Clear 12 1026 72 10000 6.17 280 03:33 09.12.2022
732 Clear 13 1025 68 10000 5.66 260 02:29 09.12.2022
733 Clear 17 1027 52 10000 4.63 270 22:32 08.12.2022
734 Clear 16 1029 56 10000 2.57 0 20:51 08.12.2022
735 Clear 12 1030 67 10000 2.06 60 18:18 08.12.2022
736 Clear 8 1026 81 10000 2.06 90 15:44 08.12.2022
737 Clear 8 1026 81 10000 1.54 250 14:27 08.12.2022
738 Clear 8 1026 80 10000 1.54 250 14:27 08.12.2022
739 Clear 9 1026 82 10000 2.06 260 11:42 08.12.2022
740 Clear 9 1030 80 10000 1.54 360 10:22 08.12.2022
741 Clear 9 1026 81 10000 1.54 0 09:27 08.12.2022
742 Clear 10 1028 78 10000 2.06 310 06:47 08.12.2022
743 Clear 16 1025 58 10000 4.12 250 22:19 07.12.2022
744 Clear 16 1023 61 10000 4.63 270 21:51 07.12.2022
745 Clouds 16 1026 61 10000 4.63 270 21:31 07.12.2022
746 Clear 15 1027 68 10000 1.79 60 19:47 07.12.2022
747 Clear 11 1026 82 10000 0.45 195 17:41 07.12.2022
748 Clear 8 1023 90 10000 1.54 50 14:41 07.12.2022
749 Clear 9 1023 88 10000 1.54 70 12:39 07.12.2022
750 Clear 9 1023 86 10000 1.54 60 10:46 07.12.2022
751 Clear 9 1023 87 10000 2.06 10 09:57 07.12.2022
752 Clear 10 1026 86 10000 0 0 08:54 07.12.2022
753 Clear 11 1022 83 10000 2.06 360 06:50 07.12.2022
754 Clear 12 1021 82 10000 6.69 270 05:23 07.12.2022
755 Clear 16 1019 62 10000 3.6 250 23:44 06.12.2022
756 Clouds 16 1020 66 10000 2.57 150 21:31 06.12.2022
757 Clouds 14 1023 75 10000 2.06 0 18:59 06.12.2022
758 Clouds 11 1021 81 10000 2.06 90 17:18 06.12.2022
759 Clear 11 1020 81 10000 2.57 90 16:23 06.12.2022
760 Clouds 11 1020 82 10000 2.06 80 15:35 06.12.2022
761 Clear 10 1019 82 10000 2.57 100 14:35 06.12.2022
762 Clouds 11 1019 82 10000 2.57 90 13:49 06.12.2022
763 Clouds 11 1020 81 10000 3.09 60 12:41 06.12.2022
764 Clear 11 1020 83 10000 2.06 70 11:34 06.12.2022
765 Clouds 11 1020 81 10000 2.57 110 07:49 06.12.2022
766 Clear 13 1018 75 10000 6.17 260 03:20 06.12.2022
767 Clouds 17 1019 61 10000 5.66 270 23:21 05.12.2022
768 Clear 17 1017 61 10000 4.63 260 21:40 05.12.2022
769 Clear 16 1021 66 10000 3.6 220 20:52 05.12.2022
770 Clouds 16 1022 72 10000 4.63 270 19:53 05.12.2022
771 Clouds 15 1022 77 10000 4.63 270 19:34 05.12.2022
772 Clear 13 1023 94 10000 3.6 280 16:51 05.12.2022
773 Clear 12 1021 93 10000 4.12 300 15:29 05.12.2022
774 Clouds 13 1020 94 10000 1.54 230 13:52 05.12.2022
775 Mist 13 1020 94 10000 1.54 40 12:57 05.12.2022
776 Clouds 13 1020 93 10000 0 0 12:38 05.12.2022
777 Clouds 13 1021 94 10000 2.06 260 11:42 05.12.2022
778 Mist 14 1021 93 8047 2.06 250 08:32 05.12.2022
779 Clouds 16 1021 84 10000 2.06 0 00:18 05.12.2022
780 Clouds 17 1022 82 9656 3.09 110 22:44 04.12.2022
781 Clouds 17 1022 81 10000 3.09 110 22:19 04.12.2022
782 Clouds 17 1023 80 10000 2.06 340 21:32 04.12.2022
783 Clouds 17 1024 80 10000 3.09 260 20:20 04.12.2022
784 Clouds 17 1024 80 10000 2.06 260 19:23 04.12.2022
785 Clouds 16 1024 83 10000 2.06 220 18:36 04.12.2022
786 Clouds 14 1024 88 10000 1.54 110 17:22 04.12.2022
787 Clouds 13 1023 90 10000 0 0 16:37 04.12.2022
788 Clouds 13 1023 90 10000 0 0 16:18 04.12.2022
789 Clouds 13 1023 90 10000 2.06 90 15:27 04.12.2022
790 Mist 13 1022 90 10000 1.54 80 14:32 04.12.2022
791 Mist 13 1022 90 9656 0 0 12:52 04.12.2022
792 Mist 13 1022 91 10000 0 0 12:33 04.12.2022
793 Mist 13 1022 90 9656 2.06 340 11:35 04.12.2022
794 Clear 13 1023 89 10000 1.54 30 08:50 04.12.2022
795 Clear 16 1022 81 10000 5.14 270 02:51 04.12.2022
796 Clear 20 1020 60 10000 5.66 260 23:44 03.12.2022
797 Clear 21 1021 60 10000 3.6 260 22:46 03.12.2022
798 Clear 21 1022 57 10000 2.06 240 21:52 03.12.2022
799 Clear 20 1022 62 10000 1.54 0 20:46 03.12.2022
800 Clear 17 1027 80 10000 0 0 18:57 03.12.2022
801 Clear 15 1023 86 10000 0 0 18:31 03.12.2022
802 Mist 13 1021 91 9656 1.54 0 15:52 03.12.2022
803 Clear 13 1022 91 10000 1.54 290 13:50 03.12.2022
804 Mist 13 1023 93 10000 1.54 300 12:53 03.12.2022
805 Mist 13 1022 92 8047 1.54 300 12:22 03.12.2022
806 Clouds 13 1024 93 10000 3.09 0 09:47 03.12.2022
807 Clouds 14 1023 92 10000 2.57 300 06:27 03.12.2022
808 Clouds 15 1022 79 10000 3.6 140 00:23 03.12.2022
809 Clouds 15 1023 81 10000 5.66 140 22:20 02.12.2022
810 Mist 14 1024 87 10000 6.17 90 20:53 02.12.2022
811 Mist 12 1025 93 3219 4.63 80 18:21 02.12.2022
812 Mist 11 1023 92 6437 4.12 130 15:58 02.12.2022
813 Mist 11 1022 91 8047 4.63 70 14:40 02.12.2022
814 Mist 11 1022 91 6437 4.63 70 14:22 02.12.2022
815 Mist 11 1023 91 10000 4.63 70 12:55 02.12.2022
816 Clouds 12 1023 87 10000 3.09 90 11:31 02.12.2022
817 Clouds 12 1023 82 10000 2.06 180 08:35 02.12.2022
818 Clouds 13 1022 76 10000 3.6 140 07:23 02.12.2022
819 Clouds 15 1020 70 10000 4.12 260 23:35 01.12.2022
820 Clouds 15 1020 68 10000 4.12 170 21:46 01.12.2022
821 Clouds 15 1021 68 10000 4.12 170 21:27 01.12.2022
822 Clouds 14 1021 69 10000 5.14 130 19:24 01.12.2022
823 Clouds 14 1021 71 10000 5.66 130 17:48 01.12.2022
824 Clouds 12 1021 73 10000 2.57 110 15:44 01.12.2022
825 Clouds 12 1020 73 10000 3.09 150 11:41 01.12.2022
826 Clouds 13 1019 71 10000 4.12 150 10:25 01.12.2022
827 Clouds 13 1019 72 10000 4.12 140 09:54 01.12.2022
828 Clouds 13 1019 72 10000 4.12 140 09:36 01.12.2022
829 Clouds 16 1017 66 10000 6.17 200 00:18 01.12.2022
830 Clouds 17 1015 59 10000 4.12 210 22:37 30.11.2022
831 Clouds 17 1016 60 10000 3.09 160 21:19 30.11.2022
832 Clouds 16 1019 64 10000 3.6 120 20:45 30.11.2022
833 Clouds 16 1020 65 10000 3.6 120 20:22 30.11.2022
834 Clouds 14 1020 76 10000 3.6 90 18:33 30.11.2022
835 Clouds 13 1020 80 10000 3.09 60 17:36 30.11.2022
836 Clouds 11 1020 84 10000 1.54 0 16:19 30.11.2022
837 Clouds 11 1019 84 10000 1.54 80 14:27 30.11.2022
838 Clouds 10 1019 85 10000 2.06 80 13:48 30.11.2022
839 Clear 11 1016 85 10000 1.54 90 11:34 30.11.2022
840 Clear 12 1021 84 10000 1.54 90 08:40 30.11.2022
841 Clear 12 1021 83 10000 1.54 150 07:57 30.11.2022
842 Clear 18 1014 59 10000 5.66 280 23:39 29.11.2022
843 Clear 18 1015 60 10000 3.6 210 22:51 29.11.2022
844 Clear 18 1015 60 10000 3.09 120 21:39 29.11.2022
845 Clouds 17 1016 63 10000 3.09 0 20:37 29.11.2022
846 Clouds 16 1016 71 10000 3.6 40 19:18 29.11.2022
847 Clouds 13 1015 79 10000 3.09 40 17:36 29.11.2022
848 Clouds 11 1014 82 10000 1.54 80 16:26 29.11.2022
849 Clouds 11 1013 83 10000 2.06 80 14:50 29.11.2022
850 Clouds 12 1013 82 10000 3.09 100 13:36 29.11.2022
851 Clouds 12 1013 83 10000 1.54 20 12:22 29.11.2022
852 Clouds 12 1013 83 10000 2.06 70 11:24 29.11.2022
853 Clouds 13 1013 82 10000 2.06 120 10:23 29.11.2022
854 Clouds 13 1013 82 10000 3.09 150 08:42 29.11.2022
855 Clouds 13 1013 82 10000 2.06 160 05:49 29.11.2022
856 Clouds 17 1012 69 10000 5.66 270 23:38 28.11.2022
857 Clouds 17 1013 67 10000 5.66 270 23:19 28.11.2022
858 Clouds 17 1013 64 10000 5.14 260 21:55 28.11.2022
859 Clouds 17 1014 64 10000 3.6 250 21:36 28.11.2022
860 Clouds 16 1015 70 10000 2.06 140 20:19 28.11.2022
861 Haze 15 1015 75 9656 3.6 110 18:39 28.11.2022
862 Haze 14 1015 83 10000 3.09 100 17:51 28.11.2022
863 Mist 13 1015 86 10000 2.57 90 16:59 28.11.2022
864 Mist 12 1014 87 10000 2.06 90 14:30 28.11.2022
865 Mist 12 1014 87 10000 2.57 60 13:52 28.11.2022
866 Mist 13 1015 87 10000 2.06 330 12:44 28.11.2022
867 Mist 13 1015 87 10000 2.06 330 12:44 28.11.2022
868 Mist 13 1016 88 6437 2.57 70 10:55 28.11.2022
869 Haze 13 1016 80 9656 2.57 100 07:54 28.11.2022
870 Clear 14 1016 75 10000 0 0 04:53 28.11.2022
871 Clear 15 1016 67 10000 0 0 03:59 28.11.2022
872 Clear 15 1016 66 10000 2.57 100 03:20 28.11.2022
873 Clear 21 1017 46 10000 4.63 250 23:43 27.11.2022
874 Clear 21 1018 39 10000 4.12 270 21:54 27.11.2022
875 Clear 20 1019 38 10000 5.14 270 20:38 27.11.2022
876 Smoke 16 1019 54 10000 2.06 120 18:18 27.11.2022
877 Clear 11 1018 70 10000 2.06 320 15:36 27.11.2022
878 Clear 12 1018 71 10000 1.54 20 13:37 27.11.2022
879 Mist 12 1018 74 10000 2.57 80 11:31 27.11.2022
880 Clear 14 1018 64 10000 0 0 08:57 27.11.2022
881 Clear 14 1018 72 10000 0 0 05:20 27.11.2022
882 Clear 21 1018 34 10000 3.6 250 22:39 26.11.2022
883 Clear 20 1020 29 10000 2.06 170 20:57 26.11.2022
884 Clear 19 1021 31 10000 2.06 120 19:40 26.11.2022
885 Clear 17 1021 29 10000 2.06 120 18:38 26.11.2022
886 Clear 12 1021 48 10000 0 0 16:27 26.11.2022
887 Clear 15 1019 29 10000 1.23 83 13:55 26.11.2022
888 Clear 13 1021 37 10000 2.57 20 12:40 26.11.2022
889 Clear 14 1021 36 10000 2.06 10 10:52 26.11.2022
890 Clear 14 1022 40 10000 3.09 100 09:36 26.11.2022
891 Clear 15 1023 43 10000 1.54 50 07:29 26.11.2022
892 Clear 24 1023 20 10000 5.14 260 22:18 25.11.2022
893 Clear 24 1024 18 10000 5.14 220 21:30 25.11.2022
894 Clear 23 1025 21 10000 2.06 100 20:20 25.11.2022
895 Clear 15 1025 30 10000 1.34 37 16:50 25.11.2022
896 Clear 14 1025 31 10000 2.57 30 14:48 25.11.2022
897 Clear 15 1025 29 10000 3.6 90 09:44 25.11.2022
898 Clear 16 1025 31 10000 2.57 100 08:42 25.11.2022
899 Clear 17 1024 35 10000 0.45 177 06:59 25.11.2022
900 Clear 17 1024 34 10000 3.6 180 06:40 25.11.2022
901 Clear 24 1021 27 10000 7.2 20 00:29 25.11.2022
902 Clear 25 1021 29 10000 1.79 217 22:59 24.11.2022
903 Clear 25 1021 29 10000 1.34 256 21:59 24.11.2022
904 Clear 25 1022 21 10000 8.75 10 21:26 24.11.2022
905 Clear 22 1023 30 10000 3.09 160 19:34 24.11.2022
906 Clouds 20 1022 39 10000 1.54 110 17:45 24.11.2022
907 Clear 17 1022 50 10000 1.54 110 17:21 24.11.2022
908 Clear 13 1021 52 10000 2.06 240 16:19 24.11.2022
909 Clear 14 1020 54 10000 3.09 20 14:23 24.11.2022
910 Clear 14 1020 54 10000 3.09 20 14:23 24.11.2022
911 Clear 14 1019 53 10000 1.54 320 12:38 24.11.2022
912 Mist 14 1019 61 9656 2.57 50 10:38 24.11.2022
913 Haze 15 1019 60 9656 1.54 150 08:21 24.11.2022
914 Clear 16 1018 67 10000 2.57 270 04:42 24.11.2022
915 Clear 22 1020 36 10000 4.12 270 23:47 23.11.2022
916 Clear 22 1020 35 10000 3.6 250 22:45 23.11.2022
917 Clear 22 1021 32 10000 2.57 210 21:43 23.11.2022
918 Clear 21 1023 29 10000 2.06 130 20:49 23.11.2022
919 Clear 19 1022 28 10000 1.54 120 19:33 23.11.2022
920 Clear 19 1022 28 10000 1.54 120 19:33 23.11.2022
921 Clear 18 1023 34 10000 2.57 80 18:48 23.11.2022
922 Clear 15 1018 38 10000 2.57 350 17:29 23.11.2022
923 Clear 12 1017 39 10000 2.57 120 13:42 23.11.2022
924 Clear 13 1017 39 10000 2.57 120 13:21 23.11.2022
925 Clear 13 1018 37 10000 1.54 110 12:22 23.11.2022
926 Clear 13 1018 36 10000 2.06 90 11:44 23.11.2022
927 Clear 14 1018 40 10000 2.06 70 10:45 23.11.2022
928 Clear 14 1018 42 10000 2.57 80 09:45 23.11.2022
929 Clear 14 1018 45 10000 2.57 80 09:26 23.11.2022
930 Clouds 16 1017 28 10000 1.16 35 08:57 23.11.2022
931 Clear 14 1018 48 10000 2.06 60 08:30 23.11.2022
932 Clear 15 1018 45 10000 2.57 220 05:19 23.11.2022
933 Clear 22 1020 27 10000 1.54 250 23:58 22.11.2022
934 Clear 23 1017 19 10000 3.09 0 22:37 22.11.2022
935 Clear 23 1020 19 10000 3.09 210 21:34 22.11.2022
936 Clear 22 1021 18 10000 1.54 0 20:51 22.11.2022
937 Clear 22 1022 18 10000 1.54 0 20:31 22.11.2022
938 Clear 21 1022 20 10000 2.57 80 19:45 22.11.2022
939 Haze 16 1019 28 9656 2.06 60 17:54 22.11.2022
940 Smoke 14 1019 26 10000 2.57 40 16:38 22.11.2022
941 Clear 13 1018 26 10000 3.09 60 14:31 22.11.2022
942 Clear 14 1019 26 10000 2.57 30 12:30 22.11.2022
943 Clear 15 1019 25 10000 2.06 0 09:28 22.11.2022
944 Clear 15 1019 25 10000 2.06 0 09:28 22.11.2022
945 Clear 15 1019 25 10000 2.06 0 09:28 22.11.2022
946 Clear 16 1019 23 10000 1.54 20 07:59 22.11.2022
947 Clear 16 1019 29 10000 2.06 350 06:43 22.11.2022
948 Clear 22 1022 24 10000 4.63 270 00:54 22.11.2022
949 Clear 24 1024 18 10000 0 0 22:57 21.11.2022
950 Clear 24 1019 16 10000 3.09 290 22:24 21.11.2022
951 Clear 23 1023 18 10000 2.06 0 21:32 21.11.2022
952 Clear 22 1024 19 10000 2.57 70 20:31 21.11.2022
953 Clear 21 1025 20 10000 3.09 50 19:39 21.11.2022
954 Clear 20 1027 22 10000 3.6 30 18:52 21.11.2022
955 Clear 15 1024 30 10000 5.14 40 17:32 21.11.2022
956 Clear 14 1020 27 10000 2.57 30 16:43 21.11.2022
957 Clear 13 1020 28 10000 2.57 30 16:19 21.11.2022
958 Clear 14 1020 27 10000 2.57 20 15:23 21.11.2022
959 Clear 14 1020 25 10000 1.54 0 13:54 21.11.2022
960 Clear 14 1020 24 10000 2.06 360 13:18 21.11.2022
961 Clear 15 1020 22 10000 3.09 10 09:43 21.11.2022
962 Clear 16 1021 22 10000 2.06 0 07:52 21.11.2022
963 Haze 23 1022 21 10000 5.66 270 00:50 21.11.2022
964 Clear 24 1024 16 10000 4.63 260 21:47 20.11.2022
965 Clear 24 1025 16 10000 2.06 0 20:48 20.11.2022
966 Clear 22 1029 19 10000 1.34 312 19:57 20.11.2022
967 Clear 16 1027 28 10000 2.57 0 17:43 20.11.2022
968 Clear 13 1021 26 10000 2.57 60 15:52 20.11.2022
969 Clear 12 1025 27 10000 2.57 60 15:24 20.11.2022
970 Clear 12 1021 26 10000 2.06 50 14:25 20.11.2022
971 Clear 13 1021 24 10000 2.06 260 13:32 20.11.2022
972 Clear 13 1020 22 10000 2.57 30 12:25 20.11.2022
973 Clear 13 1026 25 10000 1.54 20 10:58 20.11.2022
974 Clear 13 1024 24 10000 3.09 20 09:47 20.11.2022
975 Clear 14 1026 24 10000 0 0 08:55 20.11.2022
976 Haze 14 1024 23 10000 2.57 350 08:32 20.11.2022
977 Clear 14 1024 23 10000 2.06 10 07:28 20.11.2022
978 Clear 21 1021 20 10000 4.63 50 01:30 20.11.2022
979 Clear 22 1020 15 10000 4.63 270 00:58 20.11.2022
980 Clear 22 1020 15 10000 4.63 270 00:39 20.11.2022
981 Clear 23 1020 14 10000 4.63 270 00:20 20.11.2022
982 Clear 23 1020 15 10000 4.12 200 23:47 19.11.2022
983 Clear 23 1020 15 10000 4.63 160 23:20 19.11.2022
984 Clear 23 1017 16 10000 4.12 30 22:20 19.11.2022
985 Clear 22 1018 17 10000 2.57 0 21:28 19.11.2022
986 Clear 22 1022 17 10000 3.6 20 20:42 19.11.2022
987 Clear 22 1022 17 10000 3.6 20 20:42 19.11.2022
988 Clear 21 1019 17 10000 3.6 20 20:23 19.11.2022
989 Clear 19 1019 24 10000 0.45 155 18:54 19.11.2022
990 Clear 16 1019 39 10000 2.06 10 17:39 19.11.2022
991 Clear 16 1024 37 10000 2.06 10 17:19 19.11.2022
992 Clear 14 1022 31 10000 2.06 10 15:34 19.11.2022
993 Clear 14 1020 40 10000 4.12 90 13:46 19.11.2022
994 Clear 15 1027 37 10000 0.89 346 11:57 19.11.2022
995 Clear 14 1016 54 10000 3.09 190 10:19 19.11.2022
996 Clear 14 1016 65 10000 1.54 90 08:36 19.11.2022
997 Clear 15 1014 68 10000 2.06 240 04:46 19.11.2022
998 Clear 17 1017 63 10000 4.63 270 01:52 19.11.2022
999 Clear 20 1015 45 10000 4.63 260 23:40 18.11.2022
1000 Clear 21 1016 40 10000 4.63 160 22:34 18.11.2022
1001 Clear 21 1017 37 10000 2.57 0 21:37 18.11.2022
1002 Clear 20 1019 35 10000 1.34 225 20:59 18.11.2022
1003 Clear 20 1018 37 10000 2.06 0 20:26 18.11.2022
1004 Clear 19 1019 38 10000 2.57 120 19:46 18.11.2022
1005 Clear 17 1020 38 10000 3.6 110 18:28 18.11.2022
1006 Clear 12 1016 42 10000 3.09 80 16:42 18.11.2022
1007 Clear 11 1016 45 10000 2.57 90 13:40 18.11.2022
1008 Clear 12 1017 49 10000 0 0 11:24 18.11.2022
1009 Clear 14 1018 53 10000 1.54 80 08:29 18.11.2022
1010 Clear 15 1018 48 10000 1.79 360 07:40 18.11.2022
1011 Clear 16 1018 44 10000 2.57 20 05:18 18.11.2022
1012 Clear 21 1021 28 10000 5.14 270 00:42 18.11.2022
1013 Clear 23 1024 16 10000 2.57 310 21:30 17.11.2022
1014 Clear 23 1025 15 10000 2.57 0 20:45 17.11.2022
1015 Clear 22 1027 18 10000 3.09 10 19:51 17.11.2022
1016 Clear 19 1027 22 10000 2.57 0 18:35 17.11.2022
1017 Clear 15 1027 30 10000 1.54 30 17:32 17.11.2022
1018 Clear 13 1023 34 10000 1.54 0 16:48 17.11.2022
1019 Clear 12 1023 33 10000 2.57 50 13:33 17.11.2022
1020 Clear 13 1023 34 10000 2.06 40 11:21 17.11.2022
1021 Clear 14 1024 30 10000 1.54 360 08:23 17.11.2022
1022 Clear 17 1027 30 10000 3.6 240 03:51 17.11.2022
1023 Clear 23 1025 15 10000 4.63 250 00:21 17.11.2022
1024 Clear 23 1026 14 10000 4.12 180 22:30 16.11.2022
1025 Clear 22 1027 16 10000 7.2 40 20:36 16.11.2022
1026 Clear 21 1028 18 10000 8.75 60 19:49 16.11.2022
1027 Clear 20 1025 20 10000 7.2 20 18:43 16.11.2022
1028 Clear 17 1030 31 10000 5.14 70 17:20 16.11.2022
1029 Clear 15 1028 24 10000 8.23 40 13:59 16.11.2022
1030 Clear 16 1025 31 10000 7.72 30 09:48 16.11.2022
1031 Clear 16 1024 39 10000 7.2 30 05:27 16.11.2022
1032 Clear 19 1022 44 10000 5.66 270 01:25 16.11.2022
1033 Clear 22 1021 30 10000 5.14 260 22:27 15.11.2022
1034 Clear 21 1022 28 10000 1.54 0 20:45 15.11.2022
1035 Clear 19 1020 33 10000 3.09 100 19:34 15.11.2022
1036 Clear 18 1024 39 10000 4.12 40 18:42 15.11.2022
1037 Clear 14 1020 47 10000 2.57 40 17:21 15.11.2022
1038 Clear 11 1020 60 10000 3.09 10 16:19 15.11.2022
1039 Clear 11 1020 55 10000 2.06 40 14:45 15.11.2022
1040 Clear 12 1020 53 10000 0 0 12:59 15.11.2022
1041 Clear 12 1020 60 10000 1.54 40 11:43 15.11.2022
1042 Clear 12 1020 60 10000 1.54 40 11:18 15.11.2022
1043 Clear 13 1020 61 10000 1.54 140 08:35 15.11.2022
1044 Clear 20 1021 38 10000 4.12 250 00:36 15.11.2022
1045 Clear 20 1022 38 10000 4.63 250 23:34 14.11.2022
1046 Clear 20 1023 33 10000 4.12 250 21:32 14.11.2022
1047 Clear 20 1024 31 10000 2.06 150 20:40 14.11.2022
1048 Clear 17 1021 39 10000 2.06 30 18:50 14.11.2022
1049 Clear 10 1020 56 10000 1.54 350 15:51 14.11.2022
1050 Clear 11 1020 55 10000 2.06 80 12:54 14.11.2022
1051 Clear 12 1019 53 10000 2.57 90 11:42 14.11.2022
1052 Clear 12 1019 55 10000 2.57 80 09:29 14.11.2022
1053 Clear 13 1019 54 10000 3.09 180 07:54 14.11.2022
1054 Clear 13 1018 54 10000 3.09 310 06:40 14.11.2022
1055 Clear 19 1018 38 10000 7.72 230 00:18 14.11.2022
1056 Clear 19 1019 37 10000 2.57 330 21:55 13.11.2022
1057 Clear 19 1019 38 10000 8.23 360 21:36 13.11.2022
1058 Clear 17 1020 42 10000 7.72 330 19:45 13.11.2022
1059 Clear 16 1020 49 10000 8.75 320 18:24 13.11.2022
1060 Clear 14 1020 53 10000 4.12 350 17:44 13.11.2022
1061 Clear 10 1015 74 10000 1.76 52 14:58 13.11.2022
1062 Clouds 10 1016 72 10000 1.54 360 14:23 13.11.2022
1063 Clear 10 1016 70 10000 3.09 60 12:43 13.11.2022
1064 Clouds 11 1016 70 10000 1.54 90 11:29 13.11.2022
1065 Clear 12 1016 70 10000 3.6 270 08:56 13.11.2022
1066 Clear 15 1018 54 10000 5.14 240 02:24 13.11.2022
1067 Clear 20 1020 35 10000 1.54 250 22:58 12.11.2022
1068 Clear 20 1020 32 10000 4.12 270 21:24 12.11.2022
1069 Clear 19 1021 33 10000 0.89 225 20:22 12.11.2022
1070 Clear 17 1019 39 10000 2.57 70 18:45 12.11.2022
1071 Clear 11 1018 50 10000 1.54 10 16:28 12.11.2022
1072 Clear 11 1017 47 10000 1.54 10 15:24 12.11.2022
1073 Clear 12 1017 42 10000 2.06 10 12:38 12.11.2022
1074 Clear 13 1017 43 10000 2.57 40 09:30 12.11.2022
1075 Clear 14 1018 41 10000 1.54 0 07:47 12.11.2022
1076 Clear 21 1020 30 10000 4.12 260 23:23 11.11.2022
1077 Clear 20 1022 30 10000 2.06 210 20:52 11.11.2022
1078 Clear 20 1022 31 10000 2.06 210 20:23 11.11.2022
1079 Clear 19 1020 34 10000 2.57 0 19:25 11.11.2022
1080 Clear 16 1019 45 10000 1.54 0 17:58 11.11.2022
1081 Clear 14 1019 50 10000 0 0 16:55 11.11.2022
1082 Clear 11 1019 50 10000 2.57 60 14:30 11.11.2022
1083 Clear 11 1019 53 10000 2.06 100 13:31 11.11.2022
1084 Clear 12 1019 56 10000 2.57 60 11:38 11.11.2022
1085 Clear 12 1019 61 10000 1.54 40 08:43 11.11.2022
1086 Clear 13 1019 62 10000 3.09 80 07:41 11.11.2022
1087 Clear 19 1021 44 10000 5.14 270 00:30 11.11.2022
1088 Clear 20 1021 35 10000 5.66 210 22:51 10.11.2022
1089 Clear 20 1022 35 10000 3.6 90 21:44 10.11.2022
1090 Clear 19 1022 36 10000 3.6 90 21:25 10.11.2022
1091 Clear 18 1024 41 10000 2.57 190 20:24 10.11.2022
1092 Clear 18 1025 46 10000 2.06 110 19:56 10.11.2022
1093 Clear 15 1024 53 10000 2.57 0 18:45 10.11.2022
1094 Clear 12 1021 66 10000 0 0 16:55 10.11.2022
1095 Clear 10 1020 68 10000 1.54 40 16:25 10.11.2022
1096 Clear 10 1019 66 10000 1.54 360 13:34 10.11.2022
1097 Clear 10 1021 70 10000 2.57 0 09:30 10.11.2022
1098 Clear 11 1021 74 10000 0 0 07:57 10.11.2022
1099 Clear 15 1021 66 10000 7.2 250 01:18 10.11.2022
1100 Clear 17 1022 53 10000 4.63 220 22:58 09.11.2022
1101 Clear 17 1022 56 10000 1.54 0 21:57 09.11.2022
1102 Clouds 15 1022 64 10000 6.17 280 20:46 09.11.2022
1103 Clouds 15 1022 65 10000 6.17 280 20:28 09.11.2022
1104 Clouds 14 1022 71 10000 3.09 280 19:26 09.11.2022
1105 Clouds 14 1022 71 10000 3.09 280 19:26 09.11.2022
1106 Clear 12 1023 87 10000 0 0 17:49 09.11.2022
1107 Mist 10 1021 92 4828 1.54 0 14:58 09.11.2022
1108 Mist 10 1019 92 4828 3.09 0 14:40 09.11.2022
1109 Mist 10 1020 92 2816 3.09 0 14:21 09.11.2022
1110 Clouds 10 1015 93 10000 2.07 275 12:55 09.11.2022
1111 Clouds 11 1013 92 10000 4.63 250 09:40 09.11.2022
1112 Clouds 12 1016 94 10000 3.6 320 07:47 09.11.2022
1113 Mist 12 1016 93 10000 3.6 310 06:55 09.11.2022
1114 Clouds 18 1012 75 10000 8.75 200 22:46 08.11.2022
1115 Clouds 18 1013 75 10000 8.23 210 21:43 08.11.2022
1116 Clouds 18 1014 79 10000 8.23 210 21:21 08.11.2022
1117 Clouds 18 1014 83 10000 7.72 200 20:30 08.11.2022
1118 Clouds 17 1015 89 10000 7.72 220 19:28 08.11.2022
1119 Mist 16 1015 95 10000 9.26 190 17:37 08.11.2022
1120 Rain 14 1013 95 4023 6.17 130 15:38 08.11.2022
1121 Rain 14 1015 95 3219 3.09 90 14:51 08.11.2022
1122 Rain 14 1015 94 4828 3.09 70 13:34 08.11.2022
1123 Clouds 13 1017 94 10000 1.54 140 11:54 08.11.2022
1124 Clouds 13 1021 95 10000 2.57 120 08:25 08.11.2022
1125 Clear 13 1019 95 10000 1.54 120 06:29 08.11.2022
1126 Mist 16 1017 92 6437 6.17 200 23:52 07.11.2022
1127 Clouds 17 1017 91 10000 5.66 210 22:21 07.11.2022
1128 Clouds 17 1018 91 10000 4.12 220 20:59 07.11.2022
1129 Clouds 17 1018 92 10000 5.66 120 19:59 07.11.2022
1130 Mist 15 1018 92 9656 4.63 130 17:44 07.11.2022
1131 Mist 15 1018 92 10000 3.6 110 16:26 07.11.2022
1132 Drizzle 15 1018 92 10000 4.63 140 15:33 07.11.2022
1133 Mist 15 1017 92 8047 3.6 140 14:18 07.11.2022
1134 Mist 15 1017 92 4023 4.63 140 12:33 07.11.2022
1135 Mist 15 1019 90 6437 3.09 140 10:46 07.11.2022
1136 Clouds 15 1018 85 10000 2.06 150 09:25 07.11.2022
1137 Clouds 14 1018 84 10000 1.54 100 07:29 07.11.2022
1138 Clear 16 1015 76 10000 3.6 260 03:27 07.11.2022
1139 Clear 19 1014 67 10000 4.63 210 01:18 07.11.2022
1140 Clear 21 1012 56 10000 5.14 250 22:18 06.11.2022
1141 Clear 20 1015 53 10000 4.63 250 21:19 06.11.2022
1142 Clear 20 1014 53 10000 3.09 300 20:20 06.11.2022
1143 Clear 19 1014 55 10000 2.06 130 19:32 06.11.2022
1144 Clear 18 1017 56 10000 0.89 182 18:39 06.11.2022
1145 Clear 17 1014 61 10000 1.34 222 18:19 06.11.2022
1146 Clear 15 1017 64 10000 2.06 60 17:20 06.11.2022
1147 Clear 13 1014 74 10000 2.06 80 16:37 06.11.2022
1148 Clear 12 1013 71 10000 2.06 70 15:43 06.11.2022
1149 Clear 13 1013 68 10000 1.54 360 12:48 06.11.2022
1150 Clear 13 1012 64 10000 0.22 191 11:58 06.11.2022
1151 Clear 13 1013 72 10000 2.06 10 10:40 06.11.2022
1152 Clear 14 1014 71 10000 1.54 30 07:45 06.11.2022
1153 Clear 20 1017 51 10000 4.63 260 00:50 06.11.2022
1154 Clear 21 1019 43 10000 3.09 250 22:54 05.11.2022
1155 Clear 19 1021 40 10000 2.57 0 19:28 05.11.2022
1156 Clear 14 1023 56 10000 2.06 130 17:23 05.11.2022
1157 Clear 11 1019 60 10000 2.06 110 15:53 05.11.2022
1158 Clear 12 1019 58 10000 2.06 220 14:33 05.11.2022
1159 Clear 12 1020 62 10000 3.6 260 12:38 05.11.2022
1160 Clear 13 1021 60 10000 2.06 90 10:31 05.11.2022
1161 Clear 13 1022 60 10000 1.54 340 08:24 05.11.2022
1162 Clear 13 1023 65 10000 0 0 06:57 05.11.2022
1163 Clear 16 1025 52 10000 3.6 250 02:35 05.11.2022
1164 Clear 20 1025 36 10000 5.14 250 23:34 04.11.2022
1165 Clear 20 1026 32 10000 6.17 260 22:28 04.11.2022
1166 -273 0 0 0 0 0 19:57 04.11.2022
1167 -273 0 0 0 0 0 19:54 04.11.2022
1168 Clear 15 1030 47 10000 2.57 50 17:45 04.11.2022
1169 Smoke 12 1025 51 10000 1.54 80 16:33 04.11.2022
1170 Clear 10 1024 49 10000 2.06 80 13:24 04.11.2022
1171 Clear 11 1023 49 10000 1.54 70 12:23 04.11.2022
1172 Clear 12 1022 47 10000 3.09 30 09:40 04.11.2022
1173 Clear 12 1022 54 10000 4.12 330 08:21 04.11.2022
1174 Clear 12 1022 54 10000 4.12 330 08:21 04.11.2022
1175 Clear 12 1026 49 10000 2.57 350 07:41 04.11.2022
1176 Clear 16 1021 39 10000 6.69 340 01:35 04.11.2022
1177 Clear 17 1020 43 10000 9.77 260 22:30 03.11.2022
1178 Clear 17 1021 43 10000 9.77 270 20:49 03.11.2022
1179 Clear 16 1021 41 10000 8.23 260 19:44 03.11.2022
1180 Clear 15 1021 44 10000 6.69 340 18:46 03.11.2022
1181 Clear 14 1020 54 10000 3.6 330 17:40 03.11.2022
1182 Clear 11 1020 63 10000 5.66 270 16:18 03.11.2022
1183 Clear 11 1020 69 10000 3.09 320 13:54 03.11.2022
1184 Clear 11 1019 71 10000 3.09 330 12:35 03.11.2022
1185 Clear 11 1019 71 10000 9.26 280 11:44 03.11.2022
1186 Clear 12 1019 71 10000 8.23 270 09:18 03.11.2022
1187 Clear 13 1020 69 10000 2.57 270 07:24 03.11.2022
1188 Clear 19 1019 63 10000 7.2 260 21:24 02.11.2022
1189 Clear 18 1019 65 10000 3.09 320 20:34 02.11.2022
1190 Clear 17 1017 72 10000 3.09 360 19:47 02.11.2022
1191 Mist 15 1019 92 10000 3.6 250 16:36 02.11.2022
1192 Mist 15 1019 92 10000 3.09 100 15:35 02.11.2022
1193 Mist 15 1018 90 4828 3.6 90 14:29 02.11.2022
1194 Mist 15 1018 91 10000 3.09 0 12:38 02.11.2022
1195 Clouds 15 1019 90 10000 2.57 120 10:45 02.11.2022
1196 Rain 16 1019 82 10000 4.12 250 08:49 02.11.2022
1197 Clouds 16 1017 78 10000 4.63 270 04:48 02.11.2022
1198 Clouds 21 1015 64 10000 6.17 190 23:52 01.11.2022
1199 Clear 21 1015 62 10000 5.66 240 22:19 01.11.2022
1200 Clouds 22 1015 61 10000 5.66 120 21:37 01.11.2022
1201 Clouds 21 1016 62 10000 5.66 140 20:25 01.11.2022
1202 Clouds 21 1016 64 10000 5.14 160 19:42 01.11.2022
1203 Clouds 20 1017 73 10000 4.63 110 18:33 01.11.2022
1204 Clouds 18 1016 79 10000 3.6 90 17:28 01.11.2022
1205 Clouds 16 1015 87 10000 2.06 80 15:54 01.11.2022
1206 Mist 16 1015 86 10000 2.06 70 13:35 01.11.2022
1207 Mist 16 1014 87 10000 1.54 90 12:27 01.11.2022
1208 Mist 16 1015 86 10000 1.54 10 11:22 01.11.2022
1209 Mist 17 1015 81 10000 1.54 260 09:54 01.11.2022
1210 Mist 17 1015 81 10000 2.06 110 08:38 01.11.2022
1211 Mist 18 1016 77 10000 2.06 120 07:29 01.11.2022
1212 Mist 18 1018 76 10000 1.54 130 06:47 01.11.2022
1213 Clear 18 1012 75 10000 0 0 05:56 01.11.2022
1214 Clear 19 1014 70 10000 3.6 250 03:37 01.11.2022
1215 Fog 25 1015 48 10000 4.12 260 21:46 31.10.2022
1216 Fog 25 1015 45 10000 4.63 260 20:40 31.10.2022
1217 Clear 23 1017 43 10000 1.54 170 18:54 31.10.2022
1218 Clear 21 1017 43 10000 1.54 110 17:48 31.10.2022
1219 Clear 19 1013 46 10000 2.57 80 16:42 31.10.2022
1220 Clear 17 1013 56 10000 3.09 90 13:24 31.10.2022
1221 Clear 19 1014 48 10000 2.06 40 11:52 31.10.2022
1222 Clear 19 1014 52 10000 2.57 100 08:38 31.10.2022
1223 Clear 20 1014 51 10000 2.06 120 05:33 31.10.2022
1224 Clear 21 1016 49 10000 4.12 260 02:23 31.10.2022
1225 Clear 26 1016 37 10000 5.66 270 23:19 30.10.2022
1226 Clear 26 1016 37 10000 5.66 270 23:19 30.10.2022
1227 Clear 26 1017 36 10000 4.12 260 21:40 30.10.2022
1228 Clear 25 1018 38 10000 3.6 210 20:37 30.10.2022
1229 Clear 22 1020 41 10000 1.54 140 18:39 30.10.2022
1230 Clear 16 1016 55 10000 1.54 70 16:18 30.10.2022
1231 Clear 16 1016 53 10000 2.57 50 13:53 30.10.2022
1232 Clear 16 1016 58 10000 2.57 50 13:20 30.10.2022
1233 Clear 17 1016 58 10000 2.57 80 11:42 30.10.2022
1234 Clear 18 1017 53 10000 3.09 80 09:38 30.10.2022
1235 Clear 18 1017 50 10000 3.09 120 08:39 30.10.2022
1236 Clear 19 1017 56 10000 0 0 03:58 30.10.2022
1237 Clear 25 1019 42 10000 5.66 250 00:28 30.10.2022
1238 Clear 25 1020 41 10000 5.14 260 23:45 29.10.2022
1239 Clear 23 1023 41 10000 3.6 270 21:28 29.10.2022
1240 Clear 19 1024 56 10000 0 0 18:34 29.10.2022
1241 Clear 15 1020 64 10000 1.54 80 17:21 29.10.2022
1242 Clear 15 1019 67 10000 2.06 110 15:38 29.10.2022
1243 Clear 15 1019 69 10000 1.54 320 14:51 29.10.2022
1244 Clear 15 1020 74 10000 0 0 12:36 29.10.2022
1245 Clear 16 1020 68 10000 1.54 30 11:54 29.10.2022
1246 Clear 17 1020 66 10000 1.54 200 07:38 29.10.2022
1247 Clear 17 1020 69 10000 3.09 230 06:46 29.10.2022
1248 Clear 17 1020 70 10000 3.6 240 05:53 29.10.2022
1249 Clear 23 1022 51 10000 5.66 260 23:43 28.10.2022
1250 Clear 23 1021 42 10000 3.09 0 21:30 28.10.2022
1251 Clear 21 1022 100 10000 0 0 19:43 28.10.2022
1252 Clear 19 1024 54 10000 2.57 100 18:32 28.10.2022
1253 Clear 15 1021 68 10000 0 0 17:26 28.10.2022
1254 Clear 15 1019 62 10000 1.54 100 14:46 28.10.2022
1255 Clear 16 1019 69 10000 2.06 30 13:23 28.10.2022
1256 Clear 16 1019 65 10000 0 0 11:54 28.10.2022
1257 Clear 16 1019 68 10000 2.06 10 11:32 28.10.2022
1258 Clear 16 1018 74 10000 1.54 20 10:45 28.10.2022
1259 Clear 17 1018 66 10000 1.54 200 08:40 28.10.2022
1260 Clear 18 1017 64 10000 1.54 240 06:51 28.10.2022
1261 Clear 24 1018 47 10000 5.14 240 00:52 28.10.2022
1262 Clear 24 1018 45 10000 3.09 0 23:45 27.10.2022
1263 Clear 23 1019 50 10000 3.09 120 22:32 27.10.2022
1264 Clear 21 1021 59 10000 2.06 0 20:57 27.10.2022
1265 Clouds 16 1017 72 10000 2.06 50 18:31 27.10.2022
1266 Clouds 15 1016 80 10000 2.57 0 17:22 27.10.2022
1267 Clouds 14 1020 78 10000 1.54 350 12:33 27.10.2022
1268 Clear 16 1014 75 10000 2.57 240 07:41 27.10.2022
1269 Clear 19 1017 61 10000 3.13 257 02:55 27.10.2022
1270 Clear 23 1016 58 10000 6.17 260 23:53 26.10.2022
1271 Clear 23 1017 53 10000 5.66 220 22:43 26.10.2022
1272 Clear 22 1018 52 10000 4.12 240 21:33 26.10.2022
1273 Clear 17 1019 60 10000 2.06 90 18:28 26.10.2022
1274 Smoke 15 1015 56 10000 1.54 50 14:54 26.10.2022
1275 Clear 15 1015 65 10000 1.54 350 13:34 26.10.2022
1276 Clear 15 1015 63 10000 1.54 60 12:34 26.10.2022
1277 Clear 16 1016 57 10000 1.54 340 09:20 26.10.2022
1278 Clear 17 1016 53 10000 2.06 0 08:53 26.10.2022
1279 Clear 17 1016 56 10000 1.54 60 07:52 26.10.2022
1280 Clear 24 1018 32 10000 5.66 240 00:40 26.10.2022
1281 Clear 25 1019 29 10000 4.63 250 23:57 25.10.2022
1282 Clear 24 1021 25 10000 3.09 250 21:47 25.10.2022
1283 Haze 23 1021 25 10000 2.06 170 20:46 25.10.2022
1284 Clear 20 1026 33 10000 0.45 212 18:58 25.10.2022
1285 Clear 17 1019 38 10000 2.06 100 17:49 25.10.2022
1286 Clear 16 1019 24 10000 0.87 65 13:57 25.10.2022
1287 Clear 15 1021 37 10000 2.57 60 11:38 25.10.2022
1288 Clear 16 1021 39 10000 2.06 0 10:37 25.10.2022
1289 Clear 17 1021 46 10000 1.54 0 08:44 25.10.2022
1290 Clear 17 1021 45 10000 1.54 0 08:18 25.10.2022
1291 Clear 17 1021 46 10000 0 0 07:54 25.10.2022
1292 Clear 17 1021 45 10000 0 0 06:55 25.10.2022
1293 Clear 19 1023 39 10000 6.17 260 03:43 25.10.2022
1294 Clear 24 1022 28 10000 6.17 270 00:35 25.10.2022
1295 Clear 24 1023 22 10000 6.17 260 23:28 24.10.2022
1296 Clear 24 1024 23 10000 3.6 210 22:24 24.10.2022
1297 Clear 23 1024 26 10000 4.63 260 21:32 24.10.2022
1298 Clear 22 1024 32 10000 4.12 180 20:41 24.10.2022
1299 Clear 19 1026 52 10000 2.57 160 18:52 24.10.2022
1300 Clear 17 1019 59 10000 2.06 280 17:45 24.10.2022
1301 Clear 14 1019 63 10000 2.06 80 16:33 24.10.2022
1302 Clear 15 1017 58 10000 1.54 120 14:22 24.10.2022
1303 Clear 15 1017 62 10000 2.06 0 13:34 24.10.2022
1304 Clear 15 1017 67 10000 2.06 0 11:41 24.10.2022
1305 Clear 16 1016 60 10000 0.89 32 07:57 24.10.2022
1306 Clear 21 1014 56 10000 7.2 180 00:50 24.10.2022
1307 Clear 21 1011 50 10000 4.63 280 21:23 23.10.2022
1308 Clouds 20 1015 59 10000 3.09 320 19:50 23.10.2022
1309 Clear 16 1015 80 10000 2.06 360 17:55 23.10.2022
1310 Clear 15 1013 86 10000 2.06 360 17:27 23.10.2022
1311 Clouds 15 1009 82 10000 0 0 15:19 23.10.2022
1312 Clear 15 1013 87 10000 0 0 12:59 23.10.2022
1313 Clouds 16 1012 85 10000 3.09 240 10:59 23.10.2022
1314 Clouds 17 1011 83 10000 4.12 120 08:18 23.10.2022
1315 Clouds 20 1011 70 10000 6.17 190 23:40 22.10.2022
1316 Clouds 20 1012 69 10000 6.17 260 22:31 22.10.2022
1317 Clouds 20 1013 71 10000 5.14 230 21:42 22.10.2022
1318 Clouds 20 1014 72 10000 5.14 250 20:49 22.10.2022
1319 Clouds 20 1014 73 10000 4.12 260 19:45 22.10.2022
1320 Clouds 20 1013 74 10000 4.63 140 19:24 22.10.2022
1321 Clouds 18 1014 78 10000 2.57 120 17:36 22.10.2022
1322 Clouds 18 1014 80 10000 2.57 160 15:37 22.10.2022
1323 Clouds 18 1014 80 10000 1.54 170 14:42 22.10.2022
1324 Clouds 18 1014 80 10000 2.57 130 13:45 22.10.2022
1325 Clouds 19 1015 80 10000 4.12 160 10:25 22.10.2022
1326 Haze 19 1015 82 10000 4.63 150 09:36 22.10.2022
1327 Haze 19 1017 87 10000 3.6 120 07:58 22.10.2022
1328 Clear 22 1013 73 10000 4.63 260 02:59 22.10.2022
1329 Clear 26 1015 61 10000 5.66 240 23:51 21.10.2022
1330 Clear 25 1017 62 10000 3.6 250 21:35 21.10.2022
1331 Clear 25 1018 63 10000 1.79 224 20:59 21.10.2022
1332 Haze 22 1018 73 9656 3.6 100 19:33 21.10.2022
1333 Mist 19 1013 84 8047 3.09 80 16:51 21.10.2022
1334 Mist 19 1018 86 10000 2.06 120 13:59 21.10.2022
1335 Mist 19 1013 86 9656 2.06 100 12:58 21.10.2022
1336 Mist 19 1013 84 9656 2.06 100 12:58 21.10.2022
1337 Clear 19 1013 77 10000 0 0 10:59 21.10.2022
1338 Clear 20 1013 76 10000 1.54 120 10:20 21.10.2022
1339 Clear 21 1013 69 10000 1.54 0 08:39 21.10.2022
1340 Clear 22 1013 59 10000 2.57 280 07:28 21.10.2022
1341 Clear 29 1014 40 10000 6.69 260 01:20 21.10.2022
1342 Clear 31 1016 30 10000 4.12 270 22:26 20.10.2022
1343 Clear 29 1015 33 10000 2.06 0 20:38 20.10.2022
1344 Clear 28 1018 34 10000 2.57 50 19:38 20.10.2022
1345 Clear 23 1014 43 10000 2.57 80 17:53 20.10.2022
1346 Clear 22 1015 48 10000 2.57 80 17:33 20.10.2022
1347 Clear 23 1015 44 10000 1.54 90 12:37 20.10.2022
1348 Clear 23 1015 44 10000 1.54 90 12:18 20.10.2022
1349 Clear 24 1015 43 10000 2.06 260 11:20 20.10.2022
1350 Clear 24 1015 42 10000 2.06 70 10:45 20.10.2022
1351 Clear 24 1019 41 10000 2.06 340 08:22 20.10.2022
1352 Clear 25 1018 42 10000 3.09 240 05:43 20.10.2022
1353 Clear 31 1016 29 10000 6.17 270 01:50 20.10.2022
1354 Clear 33 1015 24 10000 3.09 0 22:46 19.10.2022
1355 Clear 33 1016 26 10000 3.09 10 21:58 19.10.2022
1356 Clear 33 1016 25 10000 2.57 130 21:18 19.10.2022
1357 Clear 28 1021 38 10000 3.09 50 18:50 19.10.2022
1358 Clear 23 1016 47 10000 3.09 90 17:38 19.10.2022
1359 Clear 23 1017 42 10000 1.32 43 15:58 19.10.2022
1360 Clear 22 1015 50 10000 1.54 130 13:53 19.10.2022
1361 Clear 22 1015 58 10000 2.06 350 09:42 19.10.2022
1362 Clear 22 1015 59 10000 2.06 140 08:35 19.10.2022
1363 Clear 23 1015 57 10000 2.06 0 06:30 19.10.2022
1364 Clear 29 1016 43 10000 6.17 270 01:26 19.10.2022
1365 Clear 30 1016 39 10000 4.63 270 23:19 18.10.2022
1366 Clear 30 1019 42 10000 3.6 260 21:48 18.10.2022
1367 Clear 29 1020 44 10000 2.06 140 20:59 18.10.2022
1368 Clear 27 1019 47 10000 2.06 140 20:19 18.10.2022
1369 Clear 23 1020 62 10000 2.06 190 18:25 18.10.2022
1370 Mist 19 1016 76 9656 1.54 60 16:52 18.10.2022
1371 Clear 20 1015 71 10000 1.54 310 14:53 18.10.2022
1372 Clear 19 1015 79 10000 1.54 310 12:35 18.10.2022
1373 Clear 19 1015 80 10000 1.54 330 11:22 18.10.2022
1374 Clear 18 1016 84 10000 2.06 310 10:23 18.10.2022
1375 Clear 19 1015 73 10000 2.06 170 07:58 18.10.2022
1376 Clear 19 1015 80 10000 3.6 250 05:42 18.10.2022
1377 Clear 26 1019 58 10000 5.14 250 22:54 17.10.2022
1378 Clear 25 1019 60 10000 4.63 270 21:21 17.10.2022
1379 Clear 24 1019 62 10000 3.6 270 20:43 17.10.2022
1380 Clear 23 1019 64 10000 3.6 270 20:20 17.10.2022
1381 Clear 22 1019 67 10000 2.06 30 19:34 17.10.2022
1382 Clear 18 1017 82 10000 1.54 70 17:37 17.10.2022
1383 Clear 16 1017 84 10000 1.54 20 15:54 17.10.2022
1384 Clear 16 1016 85 10000 2.57 100 14:35 17.10.2022
1385 Clear 17 1017 85 10000 2.06 320 12:29 17.10.2022
1386 Clear 17 1017 86 10000 2.57 240 07:25 17.10.2022
1387 Clouds 22 1017 67 10000 5.14 250 00:28 17.10.2022
1388 Clouds 22 1020 69 10000 5.14 260 22:26 16.10.2022
1389 Clouds 21 1019 70 10000 4.63 280 21:20 16.10.2022
1390 Clouds 21 1020 75 10000 3.6 250 19:50 16.10.2022
1391 Clouds 20 1019 79 10000 3.6 250 19:24 16.10.2022
1392 Clear 18 1019 89 10000 1.54 130 17:44 16.10.2022
1393 Clouds 17 1018 90 10000 2.06 230 16:24 16.10.2022
1394 Clouds 17 1018 90 10000 2.06 240 15:50 16.10.2022
1395 Clear 17 1018 89 10000 3.09 220 12:25 16.10.2022
1396 Clear 17 1017 88 10000 2.57 220 11:22 16.10.2022
1397 Clear 18 1017 86 10000 4.12 300 10:26 16.10.2022
1398 Clouds 19 1018 81 10000 2.57 230 04:51 16.10.2022
1399 Clouds 21 1015 74 10000 4.12 270 23:42 15.10.2022
1400 Mist 19 1017 90 10000 3.09 130 21:30 15.10.2022
1401 Mist 19 1018 91 10000 3.6 110 20:57 15.10.2022
1402 Mist 18 1017 92 10000 4.12 230 19:30 15.10.2022
1403 Mist 18 1016 92 4828 3.6 200 17:23 15.10.2022
1404 Mist 18 1015 92 10000 2.06 290 15:45 15.10.2022
1405 Mist 18 1014 92 10000 1.54 0 13:26 15.10.2022
1406 Drizzle 18 1014 91 10000 3.09 270 11:43 15.10.2022
1407 Clouds 18 1014 89 10000 2.57 240 09:37 15.10.2022
1408 Clouds 19 1015 85 10000 2.57 240 07:37 15.10.2022
1409 Haze 22 1009 75 10000 4.63 250 00:40 15.10.2022
1410 Haze 21 1011 76 10000 3.09 270 22:42 14.10.2022
1411 Haze 21 1011 76 10000 3.09 270 22:22 14.10.2022
1412 Haze 19 1012 84 10000 2.06 0 20:46 14.10.2022
1413 Haze 19 1015 84 10000 2.57 280 18:51 14.10.2022
1414 Clouds 18 1015 87 10000 1.54 140 15:32 14.10.2022
1415 Clouds 18 1015 87 10000 1.54 140 15:32 14.10.2022
1416 Haze 18 1015 87 10000 2.06 180 12:49 14.10.2022
1417 Haze 18 1016 87 10000 2.06 150 11:26 14.10.2022
1418 Clouds 19 1017 87 10000 2.57 240 08:29 14.10.2022
1419 Clouds 19 1017 86 10000 4.12 130 06:47 14.10.2022
1420 Clouds 19 1017 86 10000 4.12 130 06:18 14.10.2022
1421 Clouds 19 1017 85 10000 4.63 120 05:42 14.10.2022
1422 Haze 20 1013 80 10000 4.63 180 03:19 14.10.2022
1423 Haze 24 1017 69 8047 4.63 250 23:42 13.10.2022
1424 Haze 23 1019 72 6437 3.09 250 21:43 13.10.2022
1425 Haze 21 1021 78 6437 3.09 240 20:49 13.10.2022
1426 Haze 20 1017 83 6437 2.57 250 19:43 13.10.2022
1427 Haze 19 1017 84 8047 3.09 230 18:52 13.10.2022
1428 Haze 19 1020 83 6437 3.09 230 18:21 13.10.2022
1429 Clouds 19 1020 85 10000 2.57 250 15:51 13.10.2022
1430 Clouds 19 1020 86 10000 2.57 250 15:33 13.10.2022
1431 Clouds 19 1022 87 10000 0 0 13:54 13.10.2022
1432 Clouds 19 1020 86 10000 2.06 190 12:43 13.10.2022
1433 Clouds 19 1023 86 10000 0 0 10:59 13.10.2022
1434 Haze 19 1021 85 10000 2.57 220 08:34 13.10.2022
1435 Clouds 19 1022 87 10000 3.09 250 07:38 13.10.2022
1436 Clouds 20 1020 82 10000 4.63 250 04:25 13.10.2022
1437 Clouds 23 1020 73 10000 6.17 250 01:41 13.10.2022
1438 Clear 24 1019 69 10000 7.72 250 00:41 13.10.2022
1439 Clear 25 1021 63 10000 5.66 250 22:45 12.10.2022
1440 Clear 25 1018 62 10000 4 0 21:48 12.10.2022
1441 Clear 24 1021 66 10000 4 0 21:19 12.10.2022
1442 Haze 22 1021 73 10000 7.2 310 20:35 12.10.2022
1443 Thunderstorm 21 1023 79 10000 5.14 190 19:23 12.10.2022
1444 Haze 20 1022 84 10000 2.57 260 18:18 12.10.2022
1445 Haze 19 1021 86 10000 2.06 0 17:42 12.10.2022
1446 Mist 19 1020 88 10000 4.12 290 14:45 12.10.2022
1447 Thunderstorm 19 1020 87 10000 3.09 240 13:53 12.10.2022
1448 Clouds 19 1021 88 10000 2.57 160 11:55 12.10.2022
1449 Clear 19 1021 85 10000 3.6 250 09:36 12.10.2022
1450 Clear 20 1019 85 10000 7.2 300 07:42 12.10.2022
1451 Clouds 20 1020 83 10000 3.6 300 06:44 12.10.2022
1452 Clouds 20 1020 81 10000 8.23 110 05:32 12.10.2022
1453 Clear 24 1017 66 10000 5.14 230 00:38 12.10.2022
1454 Clouds 22 1018 73 10000 2.57 210 21:26 11.10.2022
1455 Clouds 21 1019 75 10000 2.57 0 20:32 11.10.2022
1456 Clouds 20 1019 78 10000 2.57 160 18:27 11.10.2022
1457 Haze 19 1019 83 10000 2.06 0 16:33 11.10.2022
1458 Clouds 19 1020 86 10000 0 0 13:59 11.10.2022
1459 Clouds 19 1018 85 10000 2.57 10 11:45 11.10.2022
1460 Clouds 19 1018 85 10000 2.57 330 10:28 11.10.2022
1461 Clouds 19 1015 85 10000 3.09 290 09:25 11.10.2022
1462 Clouds 20 1014 82 10000 3.6 260 05:26 11.10.2022
1463 Clear 24 1015 69 10000 6.69 270 02:19 11.10.2022
1464 Haze 25 1015 64 9656 5.66 270 00:27 11.10.2022
1465 Haze 23 1019 69 10000 2.57 70 21:23 10.10.2022
1466 Haze 20 1017 81 6437 2.57 120 19:45 10.10.2022
1467 Mist 19 1017 84 6437 2.57 130 18:25 10.10.2022
1468 Mist 18 1016 87 8047 2.57 80 16:48 10.10.2022
1469 Haze 18 1016 88 10000 2.06 170 14:48 10.10.2022
1470 Clouds 18 1016 89 10000 1.54 130 12:43 10.10.2022
1471 Haze 18 1016 87 10000 1.54 270 11:26 10.10.2022
1472 Clouds 18 1016 85 10000 3.6 240 08:33 10.10.2022
1473 Clouds 20 1015 81 10000 6.69 260 05:42 10.10.2022
1474 Clear 22 1015 72 10000 5.66 250 03:48 10.10.2022
1475 Haze 26 1018 63 10000 4.63 270 00:31 10.10.2022
1476 Haze 26 1019 63 10000 5.14 260 22:37 09.10.2022
1477 Haze 26 1019 64 10000 5.14 260 22:18 09.10.2022
1478 Haze 25 1020 67 8047 3.6 250 21:21 09.10.2022
1479 Haze 23 1023 73 6437 2.06 190 19:59 09.10.2022
1480 Haze 23 1022 75 6437 2.57 240 19:37 09.10.2022
1481 Mist 21 1021 81 4828 2.57 250 18:43 09.10.2022
1482 Mist 19 1017 90 4828 1.54 270 16:56 09.10.2022
1483 Mist 19 1017 90 6437 1.54 320 16:33 09.10.2022
1484 Mist 19 1019 88 6437 1.54 330 15:38 09.10.2022
1485 Mist 19 1016 88 6437 2.57 10 14:31 09.10.2022
1486 Mist 19 1017 88 6437 3.6 110 13:23 09.10.2022
1487 Mist 19 1017 88 8047 3.09 110 12:29 09.10.2022
1488 Clouds 19 1017 88 10000 3.09 240 10:48 09.10.2022
1489 Clouds 20 1017 85 10000 3.6 270 08:30 09.10.2022
1490 Clear 23 1018 72 10000 4.12 270 03:40 09.10.2022
1491 Clear 25 1018 69 10000 5.66 270 02:52 09.10.2022
1492 Haze 27 1018 63 9656 5.14 260 00:39 09.10.2022
1493 Haze 27 1019 62 8047 4.63 250 22:58 08.10.2022
1494 Haze 27 1019 62 8047 4.63 250 22:22 08.10.2022
1495 Haze 25 1020 67 4828 3.09 270 20:31 08.10.2022
1496 Haze 23 1023 78 4828 1.54 120 18:57 08.10.2022
1497 Mist 19 1018 88 3219 1.54 120 17:33 08.10.2022
1498 Mist 18 1018 92 8047 2.06 60 15:26 08.10.2022
1499 Mist 18 1017 91 8047 1.54 260 13:32 08.10.2022
1500 Mist 19 1018 87 10000 1.54 320 10:48 08.10.2022
1501 Mist 19 1018 88 10000 1.54 320 10:25 08.10.2022
1502 Mist 19 1018 87 10000 1.54 260 09:24 08.10.2022
1503 Clouds 21 1016 82 10000 3.6 280 05:35 08.10.2022
1504 Haze 26 1018 66 10000 6.17 250 01:19 08.10.2022
1505 Haze 27 1018 63 10000 6.17 240 23:39 07.10.2022
1506 Haze 27 1018 62 10000 6.17 240 23:20 07.10.2022
1507 Haze 28 1020 59 9656 4.12 260 21:52 07.10.2022
1508 Haze 25 1020 67 6437 3.6 130 20:18 07.10.2022
1509 Haze 20 1018 82 8047 2.57 350 17:55 07.10.2022
1510 Haze 20 1018 84 8047 2.06 200 16:51 07.10.2022
1511 Haze 19 1017 84 8047 1.54 100 15:27 07.10.2022
1512 Mist 19 1020 85 8047 2.57 150 14:22 07.10.2022
1513 Haze 20 1021 83 9656 2.06 270 11:41 07.10.2022
1514 Clouds 20 1021 83 10000 2.06 40 09:25 07.10.2022
1515 Haze 20 1021 83 10000 1.54 0 08:29 07.10.2022
1516 Haze 21 1016 79 10000 3.6 260 04:39 07.10.2022
1517 Haze 26 1018 66 9656 5.66 270 00:23 07.10.2022
1518 Haze 26 1019 64 8047 4.63 250 22:50 06.10.2022
1519 Haze 25 1020 68 6437 4.63 260 21:41 06.10.2022
1520 Haze 23 1021 73 6437 3.09 260 20:45 06.10.2022
1521 Haze 22 1020 78 6437 2.06 240 19:33 06.10.2022
1522 Haze 20 1017 83 6437 2.06 0 18:32 06.10.2022
1523 Mist 19 1019 86 9656 2.06 80 15:47 06.10.2022
1524 Haze 19 1020 85 10000 2.06 40 13:49 06.10.2022
1525 Haze 19 1019 85 10000 2.57 150 10:45 06.10.2022
1526 Clouds 20 1015 84 10000 4.63 120 05:43 06.10.2022
1527 Clear 24 1016 71 10000 5.14 280 02:38 06.10.2022
1528 Clear 27 1017 63 10000 5.66 250 22:34 05.10.2022
1529 Haze 24 1019 72 9656 2.06 160 19:54 05.10.2022
1530 Mist 20 1015 86 8047 2.06 30 17:50 05.10.2022
1531 Mist 19 1015 86 8047 2.06 30 17:29 05.10.2022
1532 Haze 19 1014 85 10000 2.06 80 15:46 05.10.2022
1533 Clouds 19 1014 85 10000 1.54 90 14:46 05.10.2022
1534 Haze 19 1014 89 10000 2.06 150 13:52 05.10.2022
1535 Clouds 19 1015 89 10000 2.06 130 12:19 05.10.2022
1536 Clear 19 1014 87 10000 1.54 100 08:49 05.10.2022
1537 Clear 20 1014 86 10000 2.57 130 07:29 05.10.2022
1538 Clear 21 1013 79 10000 3.6 270 05:35 05.10.2022
1539 Clear 25 1012 67 10000 6.17 270 02:42 05.10.2022
1540 Clear 28 1015 60 10000 5.14 250 00:41 05.10.2022
1541 Clear 28 1015 59 10000 5.14 250 00:23 05.10.2022
1542 Clear 28 1014 58 10000 3.6 270 21:59 04.10.2022
1543 Clear 26 1014 60 10000 3.09 200 20:29 04.10.2022
1544 Clear 24 1015 68 10000 0 0 18:58 04.10.2022
1545 Clear 22 1015 74 10000 1.54 320 18:35 04.10.2022
1546 Clear 20 1014 83 10000 0 0 17:43 04.10.2022
1547 Clear 18 1014 81 10000 0 0 16:28 04.10.2022
1548 Clear 18 1014 83 10000 1.54 70 12:41 04.10.2022
1549 Clear 18 1014 83 10000 1.54 70 12:41 04.10.2022
1550 Clear 19 1014 84 10000 1.54 60 09:32 04.10.2022
1551 Clear 20 1014 83 10000 3.09 120 07:23 04.10.2022
1552 Clear 25 1015 65 10000 7.2 260 01:44 04.10.2022
1553 Clear 26 1016 62 10000 6.17 240 23:40 03.10.2022
1554 Clear 26 1018 60 10000 5.14 270 21:52 03.10.2022
1555 Clear 25 1019 63 10000 3.09 200 20:55 03.10.2022
1556 Clear 23 1019 69 10000 3.09 250 19:34 03.10.2022
1557 Clear 20 1023 82 10000 1.54 0 17:58 03.10.2022
1558 Clear 17 1015 84 10000 0 0 16:56 03.10.2022
1559 Clear 17 1015 84 10000 0 0 15:28 03.10.2022
1560 Clear 17 1015 86 10000 0 0 13:45 03.10.2022
1561 Clear 17 1015 86 10000 0 0 12:22 03.10.2022
1562 Clear 18 1015 83 10000 2.57 140 10:39 03.10.2022
1563 Clear 18 1015 83 10000 2.57 250 09:37 03.10.2022
1564 Clear 20 1014 78 10000 7.2 270 05:44 03.10.2022
1565 Clear 23 1016 67 10000 7.2 250 02:51 03.10.2022
1566 Clear 26 1016 57 10000 4.63 260 22:29 02.10.2022
1567 Clouds 24 1018 63 10000 4.12 250 20:50 02.10.2022
1568 Clouds 20 1018 74 10000 2.57 0 18:42 02.10.2022
1569 Clouds 20 1018 75 10000 1.54 90 17:52 02.10.2022
1570 Clouds 19 1017 77 10000 3.09 360 16:33 02.10.2022
1571 Clouds 19 1016 79 10000 1.54 10 15:50 02.10.2022
1572 Clouds 19 1016 80 10000 2.06 340 13:51 02.10.2022
1573 Clouds 19 1016 80 10000 2.06 340 13:21 02.10.2022
1574 Clouds 19 1016 80 10000 2.06 70 12:28 02.10.2022
1575 Clouds 19 1016 80 10000 2.57 150 11:39 02.10.2022
1576 Clouds 19 1017 82 10000 0 0 10:59 02.10.2022
1577 Clouds 19 1016 82 10000 2.06 180 09:27 02.10.2022
1578 Clouds 18 1016 81 10000 3.09 250 07:39 02.10.2022
1579 Clear 22 1016 70 10000 3.6 260 02:55 02.10.2022
1580 Clear 25 1013 60 10000 7.2 230 00:46 02.10.2022
1581 Clear 25 1013 59 10000 7.2 230 00:21 02.10.2022
1582 Clear 25 1015 57 10000 5.14 250 22:53 01.10.2022
1583 Clouds 23 1015 63 10000 3.09 140 20:53 01.10.2022
1584 Clouds 20 1016 74 10000 3.09 100 18:50 01.10.2022
1585 Clouds 19 1014 77 10000 3.09 150 16:36 01.10.2022
1586 Clouds 19 1015 79 10000 2.57 60 14:41 01.10.2022
1587 Clouds 19 1014 78 10000 0.89 225 13:32 01.10.2022
1588 Clouds 19 1015 77 10000 2.57 180 12:33 01.10.2022
1589 Clouds 19 1014 79 10000 3.09 150 11:21 01.10.2022
1590 Clouds 19 1014 81 10000 2.06 110 10:32 01.10.2022
1591 Clouds 19 1014 82 10000 2.06 150 09:55 01.10.2022
1592 Clouds 19 1015 84 10000 3.09 130 08:58 01.10.2022
1593 Clear 20 1013 80 10000 3.6 250 05:47 01.10.2022
1594 Clear 22 1012 70 10000 4.63 260 03:36 01.10.2022
1595 Clear 26 1012 61 10000 4.63 270 01:21 01.10.2022
1596 Clear 26 1014 59 10000 5.14 230 22:56 30.09.2022
1597 Haze 26 1014 63 10000 4.63 260 21:41 30.09.2022
1598 Clouds 25 1016 65 10000 2.06 200 20:45 30.09.2022
1599 Clouds 24 1015 66 10000 2.06 200 20:19 30.09.2022
1600 Clouds 20 1016 80 10000 3.09 150 17:40 30.09.2022
1601 Clouds 20 1016 84 10000 2.06 110 16:29 30.09.2022
1602 Clouds 20 1016 86 10000 1.54 110 14:21 30.09.2022
1603 Clouds 19 1016 88 10000 1.54 150 12:24 30.09.2022
1604 Clouds 19 1013 89 10000 2.06 210 11:48 30.09.2022
1605 Clear 20 1013 87 10000 2.57 250 08:38 30.09.2022
1606 Clouds 21 1013 81 10000 4.63 120 06:29 30.09.2022
1607 Clear 26 1013 63 10000 6.17 250 02:50 30.09.2022
1608 Clear 29 1013 59 10000 5.66 260 00:35 30.09.2022
1609 Haze 28 1018 61 10000 5.14 260 21:39 29.09.2022
1610 Haze 28 1018 62 10000 5.14 260 21:18 29.09.2022
1611 Mist 25 1016 69 4828 2.57 240 18:54 29.09.2022
1612 Mist 23 1016 74 1609 1.54 210 17:48 29.09.2022
1613 Fog 20 1015 90 402 2.06 220 16:29 29.09.2022
1614 Mist 20 1015 80 8047 1.54 150 15:36 29.09.2022
1615 Mist 20 1015 91 8047 0 0 14:59 29.09.2022
1616 Mist 20 1015 87 10000 1.54 110 11:54 29.09.2022
1617 Clear 23 1015 69 10000 2.57 140 07:39 29.09.2022
1618 Clear 28 1013 56 10000 4.12 160 03:24 29.09.2022
1619 Clear 31 1015 49 10000 8 220 00:29 29.09.2022
1620 Clear 32 1015 48 10000 5.66 250 23:19 28.09.2022
1621 Clear 31 1016 45 10000 5.14 270 21:31 28.09.2022
1622 Clear 31 1017 47 10000 2.57 0 20:49 28.09.2022
1623 Clear 29 1019 52 10000 2.06 150 19:48 28.09.2022
1624 Clear 22 1013 78 10000 2.57 230 16:27 28.09.2022
1625 Clear 22 1012 69 10000 1.54 270 13:28 28.09.2022
1626 Clear 23 1012 69 10000 2.06 270 11:43 28.09.2022
1627 Clear 23 1012 64 10000 2.06 40 09:36 28.09.2022
1628 Clear 23 1012 69 10000 3.6 120 07:42 28.09.2022
1629 Clear 26 1011 57 10000 3.6 230 05:32 28.09.2022
1630 Clear 31 1012 44 10000 6.17 250 01:41 28.09.2022
1631 Clear 32 1013 44 10000 5.66 260 00:28 28.09.2022
1632 Clear 33 1014 44 10000 5.14 260 22:40 27.09.2022
1633 Clear 32 1014 42 10000 4.63 260 21:20 27.09.2022
1634 Clear 31 1015 47 10000 3.6 250 20:31 27.09.2022
1635 Clear 30 1015 49 10000 3.09 270 19:40 27.09.2022
1636 Clear 25 1012 62 10000 0 0 17:47 27.09.2022
1637 Clear 22 1012 73 10000 1.54 10 16:50 27.09.2022
1638 Clear 22 1011 70 10000 1.54 0 15:18 27.09.2022
1639 Clear 22 1011 63 10000 0 0 13:53 27.09.2022
1640 Clear 21 1011 72 10000 2.06 270 12:37 27.09.2022
1641 Clear 21 1012 69 10000 2.06 190 10:35 27.09.2022
1642 Clear 23 1012 59 10000 0 0 07:55 27.09.2022
1643 Clear 26 1010 47 10000 5.14 250 04:52 27.09.2022
1644 Clear 30 1013 43 10000 6.69 250 01:40 27.09.2022
1645 Clear 30 1013 43 10000 6.69 250 01:40 27.09.2022
1646 Clear 32 1014 41 10000 8.23 270 00:23 27.09.2022
1647 Clear 32 1014 42 10000 6.17 260 23:24 26.09.2022
1648 Clear 31 1016 47 10000 5.66 270 21:35 26.09.2022
1649 Clear 30 1016 48 10000 3.6 250 20:18 26.09.2022
1650 Clear 28 1017 53 10000 3.6 250 19:19 26.09.2022
1651 Clear 23 1013 73 10000 1.54 160 17:26 26.09.2022
1652 Clear 22 1012 73 10000 2.06 320 15:25 26.09.2022
1653 Clear 22 1013 71 10000 1.54 260 12:31 26.09.2022
1654 Clear 22 1013 75 10000 1.54 270 11:28 26.09.2022
1655 Clear 22 1014 73 10000 1.54 230 10:36 26.09.2022
1656 Clear 22 1014 73 10000 1.54 230 10:18 26.09.2022
1657 Clear 22 1014 63 10000 2.06 210 09:51 26.09.2022
1658 Clear 22 1014 79 10000 2.06 210 09:21 26.09.2022
1659 Clear 25 1013 52 10000 4.63 230 05:30 26.09.2022
1660 Clear 29 1013 43 10000 7.72 260 02:35 26.09.2022
1661 Clear 31 1017 44 10000 6.69 260 23:25 25.09.2022
1662 Clear 31 1018 46 10000 5.14 240 21:48 25.09.2022
1663 Clear 30 1018 46 10000 5.14 240 21:25 25.09.2022
1664 Clear 30 1019 46 10000 3.6 230 20:36 25.09.2022
1665 Clear 27 1022 54 10000 1.54 260 18:57 25.09.2022
1666 Clear 25 1019 59 10000 1.54 260 18:26 25.09.2022
1667 Clear 23 1016 69 10000 1.54 240 17:29 25.09.2022
1668 Clear 21 1016 74 10000 1.54 310 16:21 25.09.2022
1669 Clear 21 1015 69 10000 2.06 360 14:54 25.09.2022
1670 Clear 21 1015 75 10000 2.06 360 14:19 25.09.2022
1671 Clear 22 1016 70 10000 1.54 230 11:34 25.09.2022
1672 Clear 22 1016 64 10000 2.06 240 09:48 25.09.2022
1673 Clear 23 1016 60 10000 3.09 240 07:43 25.09.2022
1674 Clear 25 1015 51 10000 4.63 240 05:27 25.09.2022
1675 Clear 31 1018 39 10000 7.72 260 23:37 24.09.2022
1676 Clear 30 1020 43 10000 5.14 260 21:50 24.09.2022
1677 Clear 30 1020 42 10000 4.12 260 20:34 24.09.2022
1678 Clear 28 1020 46 10000 2.57 260 19:20 24.09.2022
1679 Clear 21 1016 75 10000 0 0 16:57 24.09.2022
1680 Clear 22 1015 66 10000 2.57 300 15:54 24.09.2022
1681 Clear 21 1015 69 10000 2.57 300 15:18 24.09.2022
1682 Clear 21 1015 66 10000 2.57 260 13:22 24.09.2022
1683 Clear 22 1015 66 10000 1.54 310 12:25 24.09.2022
1684 Clear 22 1015 60 10000 3.09 250 10:18 24.09.2022
1685 Clear 22 1015 68 10000 3.6 270 09:22 24.09.2022
1686 Clear 22 1015 71 10000 2.06 240 08:42 24.09.2022
1687 Clear 25 1021 57 10000 2.06 0 04:58 24.09.2022
1688 Clear 25 1016 53 10000 4.63 250 04:27 24.09.2022
1689 Clear 31 1015 42 10000 6.17 270 23:25 23.09.2022
1690 Clear 30 1016 38 10000 3.6 250 21:44 23.09.2022
1691 Clear 29 1016 40 10000 3.6 250 21:24 23.09.2022
1692 Clear 30 1018 39 10000 3.09 260 20:54 23.09.2022
1693 Clear 27 1017 46 10000 2.06 250 19:20 23.09.2022
1694 Clear 23 1014 57 10000 0 0 17:50 23.09.2022
1695 Clear 20 1012 71 10000 1.54 350 13:41 23.09.2022
1696 Clear 21 1013 69 10000 0 0 10:24 23.09.2022
1697 Clear 21 1013 71 10000 2.06 180 08:45 23.09.2022
1698 Clear 26 1012 54 10000 5.14 250 03:37 23.09.2022
1699 Clear 29 1015 40 10000 5.66 240 23:30 22.09.2022
1700 Clear 29 1016 40 10000 5.14 260 22:28 22.09.2022
1701 Clear 29 1016 40 10000 4.63 260 21:36 22.09.2022
1702 Clear 27 1015 42 10000 3.09 210 20:25 22.09.2022
1703 Clear 24 1019 54 10000 1.54 110 18:59 22.09.2022
1704 Clear 18 1014 66 10000 0 0 15:58 22.09.2022
1705 Clear 19 1014 69 10000 2.57 240 10:55 22.09.2022
1706 Clear 19 1014 68 10000 2.57 240 10:19 22.09.2022
1707 Clear 20 1014 64 10000 3.09 240 08:22 22.09.2022
1708 Clear 20 1013 70 10000 6.17 270 06:18 22.09.2022
1709 Clear 26 1014 51 10000 9.77 260 01:27 22.09.2022
1710 Clear 26 1016 45 10000 6.17 260 22:29 21.09.2022
1711 Clear 26 1017 49 10000 4.63 270 21:26 21.09.2022
1712 Clear 23 1017 59 10000 2.06 210 19:22 21.09.2022
1713 Clear 20 1015 75 10000 1.54 30 17:45 21.09.2022
1714 Clear 17 1014 77 10000 2.06 290 16:20 21.09.2022
1715 Clear 17 1014 79 10000 0 0 13:56 21.09.2022
1716 Clear 18 1013 74 10000 2.06 320 11:44 21.09.2022
1717 Clear 19 1013 73 10000 2.06 320 11:22 21.09.2022
1718 Clear 19 1017 76 10000 4.63 270 09:44 21.09.2022
1719 Clear 19 1013 79 10000 6.17 260 08:50 21.09.2022
1720 Clear 21 1018 78 10000 8.75 270 05:53 21.09.2022
1721 Clear 25 1014 64 10000 10.29 270 02:42 21.09.2022
1722 Clear 25 1014 63 10000 10.29 270 02:19 21.09.2022
1723 Clear 27 1014 59 10000 9.77 250 00:20 21.09.2022
1724 Clear 27 1016 53 10000 5.14 250 21:55 20.09.2022
1725 Clear 25 1016 56 10000 4.63 240 20:37 20.09.2022
1726 Clear 24 1017 62 10000 2.06 0 19:24 20.09.2022
1727 Clouds 17 1023 87 10000 0 0 15:58 20.09.2022
1728 Clear 18 1016 85 10000 1.54 30 14:35 20.09.2022
1729 Clear 18 1015 85 10000 2.06 330 12:45 20.09.2022
1730 Clouds 19 1017 85 10000 5.66 270 08:51 20.09.2022
1731 Clear 19 1018 84 10000 5.66 270 08:25 20.09.2022
1732 Clear 21 1013 73 10000 6.69 250 04:44 20.09.2022
1733 Clear 23 1013 64 10000 6.69 250 03:38 20.09.2022
1734 Clear 26 1014 53 10000 5.66 260 22:51 19.09.2022
1735 Clear 25 1014 55 10000 4.63 240 21:39 19.09.2022
1736 Clear 24 1014 59 10000 4.63 260 20:47 19.09.2022
1737 Clear 23 1014 64 10000 2.06 0 19:42 19.09.2022
1738 Clear 19 1015 79 10000 3.09 120 17:44 19.09.2022
1739 Clouds 17 1016 85 10000 1.54 110 14:18 19.09.2022
1740 Clouds 17 1017 86 10000 0 0 12:56 19.09.2022
1741 Clear 17 1015 84 10000 3.6 250 10:47 19.09.2022
1742 Clouds 18 1016 81 10000 4.12 270 08:51 19.09.2022
1743 Clear 19 1013 76 10000 3.6 270 05:53 19.09.2022
1744 Clear 24 1012 62 10000 6.69 250 01:53 19.09.2022
1745 Clouds 24 1012 61 10000 6.17 230 23:22 18.09.2022
1746 Clouds 24 1013 58 10000 6.69 260 21:34 18.09.2022
1747 Clouds 23 1013 61 10000 4.12 240 20:24 18.09.2022
1748 Clouds 21 1013 75 10000 4.12 250 17:54 18.09.2022
1749 Clouds 20 1012 75 10000 3.6 120 17:35 18.09.2022
1750 Clouds 19 1012 78 10000 4.12 100 15:36 18.09.2022
1751 Clouds 19 1011 80 10000 3.6 130 13:50 18.09.2022
1752 Clouds 19 1011 82 10000 3.6 110 12:35 18.09.2022
1753 Clouds 19 1012 84 10000 1.54 130 10:55 18.09.2022
1754 Clear 23 1010 69 10000 5.66 250 03:42 18.09.2022
1755 Haze 25 1010 59 10000 6.17 250 01:24 18.09.2022
1756 Clouds 26 1011 58 10000 6.17 240 00:23 18.09.2022
1757 Clouds 23 1014 65 10000 3.6 220 21:40 17.09.2022
1758 Clouds 22 1015 72 10000 3.09 150 19:43 17.09.2022
1759 Clouds 21 1015 77 10000 2.06 140 18:57 17.09.2022
1760 Clouds 18 1014 87 10000 2.06 120 16:22 17.09.2022
1761 Clear 18 1010 87 10000 0 0 13:56 17.09.2022
1762 Clear 19 1010 84 10000 2.57 100 11:31 17.09.2022
1763 Clear 19 1011 82 10000 0 0 09:37 17.09.2022
1764 Clear 21 1014 77 10000 3.09 250 06:25 17.09.2022
1765 Clear 26 1015 66 10000 6.69 260 01:51 17.09.2022
1766 Clear 27 1016 58 10000 5.66 270 22:54 16.09.2022
1767 Clear 26 1016 59 10000 5.14 230 21:29 16.09.2022
1768 Clear 25 1016 63 10000 3.09 200 20:24 16.09.2022
1769 Clear 21 1018 78 10000 2.57 100 17:50 16.09.2022
1770 Clear 18 1013 80 10000 1.54 80 15:34 16.09.2022
1771 Clear 18 1013 82 10000 2.57 80 14:28 16.09.2022
1772 Clear 19 1013 83 10000 1.54 100 11:45 16.09.2022
1773 Clear 20 1022 81 10000 2.06 170 08:53 16.09.2022
1774 Clear 20 1018 78 10000 2.57 220 07:20 16.09.2022
1775 Clear 21 1018 77 10000 5.66 260 06:47 16.09.2022
1776 Clear 24 1016 68 10000 3.6 230 02:59 16.09.2022
1777 Clear 27 1016 57 10000 6.17 240 23:48 15.09.2022
1778 Clouds 26 1017 59 10000 4.12 220 21:24 15.09.2022
1779 Clouds 24 1018 62 10000 3.09 120 20:23 15.09.2022
1780 Clouds 22 1018 75 10000 3.09 130 18:30 15.09.2022
1781 Clouds 20 1018 78 10000 2.06 120 17:33 15.09.2022
1782 Clouds 20 1019 82 10000 2.06 190 16:54 15.09.2022
1783 Clouds 19 1017 85 10000 2.06 90 14:42 15.09.2022
1784 Clouds 19 1018 86 10000 1.54 50 12:48 15.09.2022
1785 Clear 19 1017 83 10000 3.6 110 10:21 15.09.2022
1786 Clear 20 1020 83 10000 2.06 100 08:57 15.09.2022
1787 Clear 23 1015 73 10000 6.17 250 04:24 15.09.2022
1788 Clear 26 1015 64 10000 5.14 190 01:57 15.09.2022
1789 Clear 27 1015 57 10000 5.14 230 22:26 14.09.2022
1790 Clouds 25 1016 65 10000 3.09 200 20:19 14.09.2022
1791 Clouds 24 1016 70 10000 3.6 160 19:32 14.09.2022
1792 Clouds 21 1016 83 10000 3.09 150 17:26 14.09.2022
1793 Clouds 20 1018 87 10000 0 0 15:56 14.09.2022
1794 Clouds 20 1015 86 10000 2.06 90 14:35 14.09.2022
1795 Clear 20 1016 84 10000 0 0 11:54 14.09.2022
1796 Clear 21 1011 81 10000 2.06 200 09:48 14.09.2022
1797 Clear 22 1014 77 10000 3.6 250 07:39 14.09.2022
1798 Clear 22 1014 76 10000 4.12 270 06:47 14.09.2022
1799 Clear 23 1013 70 10000 4.63 270 04:52 14.09.2022
1800 Clear 27 1013 62 10000 6.69 250 01:51 14.09.2022
1801 Clear 28 1012 61 10000 6.69 250 01:29 14.09.2022
1802 Clear 28 1013 60 10000 6.17 200 00:52 14.09.2022
1803 Clear 28 1014 61 10000 3.6 190 23:54 13.09.2022
1804 Clear 28 1011 61 10000 5.14 270 23:36 13.09.2022
1805 Clear 28 1011 61 10000 5.14 270 23:18 13.09.2022
1806 Clear 28 1011 61 10000 5.66 260 22:21 13.09.2022
1807 Clouds 27 1013 62 10000 3.09 260 20:21 13.09.2022
1808 Clear 24 1015 73 10000 2.06 100 18:20 13.09.2022
1809 Clear 21 1017 86 10000 0 0 15:56 13.09.2022
1810 Clear 21 1016 86 10000 2.57 260 14:47 13.09.2022
1811 Clouds 21 1012 86 10000 1.54 270 13:20 13.09.2022
1812 Clear 22 1016 82 10000 3.09 250 09:23 13.09.2022
1813 Clear 23 1016 79 10000 4.63 240 07:21 13.09.2022
1814 Clear 29 1015 61 10000 7.72 260 00:30 13.09.2022
1815 Clear 30 1017 61 10000 6.69 260 22:51 12.09.2022
1816 Clear 29 1016 61 10000 6.69 260 22:22 12.09.2022
1817 Clouds 28 1018 65 10000 4.63 230 20:42 12.09.2022
1818 Clear 26 1019 74 10000 1.54 0 18:52 12.09.2022
1819 Clouds 24 1018 81 10000 2.06 190 17:42 12.09.2022
1820 Clouds 22 1018 87 10000 0 0 14:54 12.09.2022
1821 Clouds 23 1019 84 10000 4.63 260 11:51 12.09.2022
1822 Clear 23 1019 83 10000 4.63 250 10:20 12.09.2022
1823 Clear 25 1020 77 10000 4.63 270 05:50 12.09.2022
1824 Clouds 26 1018 71 10000 5.14 250 04:30 12.09.2022
1825 Clear 31 1018 60 10000 3.6 260 23:58 11.09.2022
1826 Clouds 31 1018 59 10000 5.66 260 22:43 11.09.2022
1827 Clouds 30 1017 63 10000 4.63 260 20:53 11.09.2022
1828 Clouds 29 1019 65 10000 4.63 260 20:21 11.09.2022
1829 Clouds 28 1019 69 10000 2.06 180 19:26 11.09.2022
1830 Clouds 26 1016 74 10000 1.54 120 18:38 11.09.2022
1831 Clouds 24 1020 83 10000 0 0 16:57 11.09.2022
1832 Clouds 23 1018 86 10000 1.54 140 15:22 11.09.2022
1833 Clouds 24 1017 85 10000 2.06 50 12:54 11.09.2022
1834 Clouds 24 1017 84 10000 3.09 130 10:35 11.09.2022
1835 Clouds 24 1017 83 10000 2.57 90 07:49 11.09.2022
1836 Clouds 25 1014 76 10000 3.6 200 03:34 11.09.2022
1837 Clouds 27 1015 72 10000 3.6 140 23:48 10.09.2022
1838 Clouds 25 1012 74 10000 3.6 210 21:38 10.09.2022
1839 Clouds 26 1016 77 10000 0 0 19:58 10.09.2022
1840 Clouds 26 1014 79 10000 2.57 130 19:40 10.09.2022
1841 Clouds 25 1014 81 10000 2.57 130 19:20 10.09.2022
1842 Clouds 23 1010 90 10000 2.57 60 17:19 10.09.2022
1843 Clouds 22 1009 91 10000 2.57 0 15:35 10.09.2022
1844 Clouds 22 1008 92 10000 1.54 320 13:29 10.09.2022
1845 Mist 22 1011 93 9656 1.54 0 12:26 10.09.2022
1846 Mist 22 1011 94 10000 2.57 180 10:28 10.09.2022
1847 Clouds 22 1010 89 10000 5.66 150 08:41 10.09.2022
1848 Rain 22 1010 89 10000 5.66 150 08:20 10.09.2022
1849 Clear 28 1004 60 10000 4.12 70 03:43 10.09.2022
1850 Clear 35 1003 36 10000 7.2 100 23:36 09.09.2022
1851 Clear 37 1003 36 10000 8.23 100 22:36 09.09.2022
1852 Clear 34 1004 43 10000 4.63 140 20:50 09.09.2022
1853 Clear 33 1005 48 10000 4.63 130 19:58 09.09.2022
1854 Clear 32 1004 49 10000 4.63 130 19:22 09.09.2022
1855 Clear 30 1004 53 10000 2.57 40 17:19 09.09.2022
1856 Clear 28 1004 49 10000 1.54 10 14:47 09.09.2022
1857 Clear 29 1004 47 10000 2.06 260 13:31 09.09.2022
1858 Clear 28 1006 58 10000 1.54 60 10:42 09.09.2022
1859 Clear 28 1006 58 10000 1.54 60 10:42 09.09.2022
1860 Clear 31 1005 44 10000 3.6 280 07:45 09.09.2022
1861 Clear 34 1006 43 10000 5.14 230 03:34 09.09.2022
1862 Clear 34 1011 42 10000 3.6 320 22:40 08.09.2022
1863 Clear 32 1012 50 10000 5.14 120 21:51 08.09.2022
1864 Clear 31 1014 55 10000 4.63 140 20:49 08.09.2022
1865 Clear 30 1014 56 10000 4.63 140 20:25 08.09.2022
1866 Clouds 27 1011 72 10000 2.06 170 18:43 08.09.2022
1867 Clear 25 1012 71 10000 4.12 90 17:25 08.09.2022
1868 Clear 24 1011 66 10000 1.54 250 15:35 08.09.2022
1869 Smoke 25 1011 60 10000 1.54 130 13:30 08.09.2022
1870 Smoke 25 1011 63 10000 2.06 350 12:40 08.09.2022
1871 Smoke 26 1012 60 10000 2.57 270 11:23 08.09.2022
1872 Smoke 26 1012 58 10000 2.06 180 09:35 08.09.2022
1873 Clear 28 1012 56 10000 2.06 130 07:18 08.09.2022
1874 Smoke 30 1014 49 10000 4.63 230 04:43 08.09.2022
1875 Smoke 34 1013 43 10000 6.17 260 02:36 08.09.2022
1876 Smoke 34 1013 43 10000 6.17 260 02:18 08.09.2022
1877 Clear 37 1017 38 10000 2.24 251 22:58 07.09.2022
1878 Clear 36 1016 43 10000 4.12 270 21:46 07.09.2022
1879 Clear 35 1017 43 10000 4.12 270 21:21 07.09.2022
1880 Clear 33 1017 49 10000 2.57 280 20:28 07.09.2022
1881 Clear 31 1017 56 10000 3.09 260 19:20 07.09.2022
1882 Clear 24 1013 74 10000 1.54 0 16:24 07.09.2022
1883 Clear 25 1013 65 10000 4.12 250 10:52 07.09.2022
1884 Clear 25 1013 66 10000 4.12 250 10:32 07.09.2022
1885 Clear 26 1013 68 10000 3.09 260 08:29 07.09.2022
1886 Clear 27 1012 70 10000 4.12 260 06:31 07.09.2022
1887 Smoke 35 1012 45 10000 4.63 240 00:38 07.09.2022
1888 Clear 34 1016 51 10000 1.34 250 21:56 06.09.2022
1889 Smoke 34 1014 50 10000 4.63 270 21:33 06.09.2022
1890 Smoke 31 1015 57 10000 4.12 260 19:39 06.09.2022
1891 Smoke 29 1014 60 10000 2.06 170 18:40 06.09.2022
1892 Smoke 28 1010 66 10000 1.54 200 17:50 06.09.2022
1893 Clear 24 1010 84 10000 0 0 16:47 06.09.2022
1894 Clear 23 1010 86 10000 0 0 16:24 06.09.2022
1895 Clear 23 1008 83 10000 2.06 50 14:27 06.09.2022
1896 Clear 23 1008 83 10000 2.06 30 13:44 06.09.2022
1897 Clear 23 1008 84 10000 2.06 30 13:18 06.09.2022
1898 Clear 24 1008 80 10000 2.57 240 10:55 06.09.2022
1899 Clear 25 1009 73 10000 4.12 110 09:49 06.09.2022
1900 Clear 26 1008 68 10000 3.09 240 08:18 06.09.2022
1901 Clear 29 1007 55 10000 3.6 260 06:20 06.09.2022
1902 Clear 34 1009 43 10000 5.66 260 01:22 06.09.2022
1903 Clear 35 1013 50 10000 5.14 200 22:57 05.09.2022
1904 Clear 35 1011 46 10000 4.63 260 21:39 05.09.2022
1905 Clear 33 1012 49 10000 4.12 210 20:30 05.09.2022
1906 Clear 30 1013 58 10000 2.57 120 18:53 05.09.2022
1907 Clear 29 1012 63 10000 2.57 120 18:26 05.09.2022
1908 Clear 29 1014 65 10000 0.89 225 17:57 05.09.2022
1909 Clear 23 1009 82 10000 0 0 15:54 05.09.2022
1910 Clear 24 1008 77 10000 0 0 15:23 05.09.2022
1911 Clear 25 1013 76 10000 0 0 12:56 05.09.2022
1912 Clear 25 1013 73 10000 2.57 280 11:37 05.09.2022
1913 Clear 26 1008 72 10000 0 0 08:58 05.09.2022
1914 Clear 28 1013 60 10000 2.57 140 06:38 05.09.2022
1915 Clear 33 1008 43 10000 5.66 200 01:35 05.09.2022
1916 Clear 38 1009 34 10000 5.66 270 22:39 04.09.2022
1917 Clear 39 1012 33 10000 5.66 270 22:19 04.09.2022
1918 Clear 38 1011 38 10000 4.12 280 20:37 04.09.2022
1919 Clear 36 1014 38 10000 3.6 350 18:55 04.09.2022
1920 Clear 32 1012 44 10000 2.06 40 17:43 04.09.2022
1921 Clear 27 1015 56 10000 2.06 10 16:28 04.09.2022
1922 Clear 28 1017 52 10000 0 0 14:27 04.09.2022
1923 Clear 28 1019 49 10000 0.57 69 12:57 04.09.2022
1924 Clear 27 1016 51 10000 1.54 100 11:52 04.09.2022
1925 Clear 27 1015 49 10000 1.54 250 09:50 04.09.2022
1926 Clear 28 1015 53 10000 4.12 120 07:27 04.09.2022
1927 Clear 32 1013 42 10000 2.24 243 04:00 04.09.2022
1928 Clear 34 1013 37 10000 6.17 250 23:40 03.09.2022
1929 Clear 36 1014 39 10000 5.66 270 22:21 03.09.2022
1930 Clear 36 1014 41 10000 5.14 250 21:23 03.09.2022
1931 Clear 36 1014 41 10000 5.14 250 21:23 03.09.2022
1932 Clear 33 1014 45 10000 1.54 170 18:59 03.09.2022
1933 Clear 28 1013 61 10000 2.06 0 17:26 03.09.2022
1934 Clear 25 1013 65 10000 3.09 250 16:27 03.09.2022
1935 Clear 24 1012 69 10000 2.06 310 14:44 03.09.2022
1936 Clear 25 1008 61 10000 0 0 13:55 03.09.2022
1937 Clear 24 1015 64 10000 1.54 290 11:51 03.09.2022
1938 Clear 25 1010 62 10000 5.14 120 09:56 03.09.2022
1939 Clear 27 1014 57 10000 4.63 120 07:57 03.09.2022
1940 Clear 27 1013 59 10000 3.09 110 06:53 03.09.2022
1941 Clear 30 1007 51 10000 5.14 260 04:31 03.09.2022
1942 Clear 35 1011 46 10000 5.14 250 23:49 02.09.2022
1943 Clear 35 1011 42 10000 6.17 260 22:45 02.09.2022
1944 Clear 35 1014 45 10000 1.34 304 20:59 02.09.2022
1945 Clear 34 1012 45 10000 4.12 130 20:27 02.09.2022
1946 Clear 32 1014 46 10000 1.54 170 19:00 02.09.2022
1947 Clear 30 1012 51 10000 2.06 100 18:28 02.09.2022
1948 Clear 27 1013 62 10000 2.06 50 17:43 02.09.2022
1949 Clear 24 1009 77 10000 2.06 290 16:46 02.09.2022
1950 Clear 23 1008 73 10000 2.06 70 13:55 02.09.2022
1951 Clear 23 1012 75 10000 3.6 100 12:36 02.09.2022
1952 Clear 23 1008 72 10000 2.06 80 10:19 02.09.2022
1953 Clear 24 1007 72 10000 3.09 130 09:39 02.09.2022
1954 Clear 25 1007 61 10000 2.57 160 07:30 02.09.2022
1955 Clear 25 1007 61 10000 2.57 160 07:30 02.09.2022
1956 Clear 26 1007 58 10000 3.6 130 06:36 02.09.2022
1957 Clear 33 1009 47 10000 4.63 260 02:52 02.09.2022
1958 Clear 35 1010 40 10000 6.17 110 22:30 01.09.2022
1959 Clear 34 1011 45 10000 4.12 260 21:43 01.09.2022
1960 Clear 34 1011 46 10000 4.12 260 21:25 01.09.2022
1961 Clear 33 1012 46 10000 7.2 120 20:44 01.09.2022
1962 Clear 31 1013 49 10000 3.09 130 18:54 01.09.2022
1963 Clear 27 1008 59 10000 3.09 110 17:22 01.09.2022
1964 Clear 28 1007 43 10000 0 0 15:59 01.09.2022
1965 Clear 28 1006 50 10000 3.09 270 14:33 01.09.2022
1966 Clear 29 1011 48 10000 2.57 270 12:58 01.09.2022
1967 Clear 28 1012 50 10000 1.54 130 11:53 01.09.2022
1968 Clear 28 1007 48 10000 1.54 130 11:31 01.09.2022
1969 Clear 28 1008 48 10000 0 0 10:38 01.09.2022
1970 Clear 28 1007 46 10000 3.09 270 08:30 01.09.2022
1971 Clear 31 1010 39 10000 2.57 230 06:22 01.09.2022
1972 Haze 36 1008 35 10000 7.72 250 01:33 01.09.2022
1973 Clear 36 1011 33 10000 10.29 270 00:18 01.09.2022
1974 Clear 34 1015 40 10000 4.12 270 21:33 31.08.2022
1975 Clear 32 1018 50 10000 2.57 240 19:50 31.08.2022
1976 Clear 28 1016 58 10000 2.57 210 18:18 31.08.2022
1977 Clear 23 1012 61 10000 3.09 250 16:23 31.08.2022
1978 Clear 23 1011 61 10000 2.06 300 14:32 31.08.2022
1979 Clear 24 1011 61 10000 2.06 270 12:23 31.08.2022
1980 Clear 25 1012 61 10000 0 0 11:26 31.08.2022
1981 Clear 24 1013 50 10000 2.06 140 08:54 31.08.2022
1982 Clear 27 1012 48 10000 4.12 250 05:26 31.08.2022
1983 Clear 32 1016 46 10000 8.23 260 23:20 30.08.2022
1984 Clear 31 1017 50 10000 6.17 270 21:41 30.08.2022
1985 Clear 30 1019 52 10000 3.09 200 20:57 30.08.2022
1986 Clear 25 1018 63 10000 2.06 250 18:32 30.08.2022
1987 Clear 20 1014 78 10000 2.06 320 15:29 30.08.2022
1988 Clear 20 1013 81 10000 1.54 180 13:24 30.08.2022
1989 Clear 19 1013 79 10000 1.54 0 11:22 30.08.2022
1990 Clear 20 1014 79 10000 2.57 190 10:49 30.08.2022
1991 Clear 20 1013 75 10000 3.6 230 07:42 30.08.2022
1992 Clear 26 1011 59 10000 8.23 260 02:34 30.08.2022
1993 Clear 28 1015 58 10000 7.2 260 23:22 29.08.2022
1994 Clear 28 1016 60 10000 6.17 250 22:28 29.08.2022
1995 Clear 27 1016 61 10000 4.12 250 21:26 29.08.2022
1996 Clear 25 1017 67 10000 4.12 260 20:19 29.08.2022
1997 Clouds 21 1019 83 10000 3.09 140 17:58 29.08.2022
1998 Clouds 20 1013 83 10000 2.06 160 17:25 29.08.2022
1999 Clouds 19 1013 86 10000 1.54 0 16:40 29.08.2022
2000 Clouds 18 1012 87 10000 2.06 160 15:18 29.08.2022
2001 Clouds 18 1012 84 10000 3.6 260 13:23 29.08.2022
2002 Clouds 19 1012 85 10000 3.09 230 11:30 29.08.2022
2003 Clouds 19 1011 85 10000 3.09 260 10:21 29.08.2022
2004 Clear 19 1011 83 10000 4.12 250 08:38 29.08.2022
2005 Clear 21 1015 81 10000 3.6 250 05:58 29.08.2022
2006 Clear 26 1011 61 10000 6.69 260 01:25 29.08.2022
2007 Clear 27 1014 58 10000 5.66 250 22:50 28.08.2022
2008 Clear 27 1014 61 10000 5.66 260 21:45 28.08.2022
2009 Clear 26 1016 62 10000 1.54 0 20:58 28.08.2022
2010 Clouds 24 1014 67 10000 2.57 250 19:44 28.08.2022
2011 Clouds 22 1014 76 10000 2.57 210 18:22 28.08.2022
2012 Clouds 21 1015 77 10000 2.57 0 17:40 28.08.2022
2013 Clouds 20 1015 81 10000 3.09 220 16:32 28.08.2022
2014 Clouds 20 1014 85 10000 2.06 280 14:44 28.08.2022
2015 Clouds 20 1014 84 10000 1.54 290 12:49 28.08.2022
2016 Clouds 20 1011 84 10000 2.06 290 10:51 28.08.2022
2017 Clouds 20 1011 84 10000 1.54 300 09:57 28.08.2022
2018 Clouds 20 1011 83 10000 3.09 290 08:39 28.08.2022
2019 Clouds 20 1010 82 10000 4.63 270 07:50 28.08.2022
2020 Clear 25 1012 64 10000 6.17 260 03:44 28.08.2022
2021 Clear 28 1013 58 10000 5.66 260 00:33 28.08.2022
2022 Clear 28 1015 57 10000 5.66 150 22:50 27.08.2022
2023 Clear 28 1014 55 10000 5.66 150 22:18 27.08.2022
2024 Clear 26 1015 63 10000 3.6 230 20:27 27.08.2022
2025 Clouds 23 1016 75 10000 1.54 0 18:42 27.08.2022
2026 Clouds 20 1012 86 10000 1.54 0 16:26 27.08.2022
2027 Clouds 19 1012 87 10000 2.06 110 15:30 27.08.2022
2028 Clouds 19 1012 88 10000 0 0 12:55 27.08.2022
2029 Clouds 19 1013 88 10000 0 0 11:56 27.08.2022
2030 Clear 20 1013 82 10000 1.54 120 10:26 27.08.2022
2031 Clouds 20 1013 83 10000 2.57 90 09:31 27.08.2022
2032 Clear 22 1012 77 10000 2.06 210 05:59 27.08.2022
2033 Clear 29 1015 57 10000 6.17 270 00:52 27.08.2022
2034 Clear 29 1016 55 10000 6.17 260 23:35 26.08.2022
2035 Fog 29 1016 58 10000 3.6 210 21:45 26.08.2022
2036 Haze 26 1020 69 10000 2.06 0 19:50 26.08.2022
2037 Mist 22 1015 81 8047 2.57 320 17:49 26.08.2022
2038 Mist 19 1014 92 9656 2.06 310 15:45 26.08.2022
2039 Mist 19 1014 92 9656 1.54 290 14:59 26.08.2022
2040 Clear 19 1014 91 10000 0 0 12:59 26.08.2022
2041 Clear 20 1015 86 10000 2.57 260 11:47 26.08.2022
2042 Clear 20 1015 86 10000 2.57 260 11:21 26.08.2022
2043 Clouds 21 1015 82 10000 3.09 260 08:21 26.08.2022
2044 Clear 26 1013 66 10000 6.17 270 03:51 26.08.2022
2045 Clear 30 1016 54 10000 4.63 250 00:39 26.08.2022
2046 Clear 30 1017 52 10000 4.63 250 22:39 25.08.2022
2047 Clear 30 1019 54 10000 3.6 180 20:54 25.08.2022
2048 Clear 30 1019 54 10000 3.6 180 20:54 25.08.2022
2049 Clear 28 1018 59 10000 3.09 250 19:35 25.08.2022
2050 Clear 26 1017 67 10000 1.79 304 18:29 25.08.2022
2051 Clear 23 1015 74 10000 0.45 270 17:32 25.08.2022
2052 Clear 22 1014 82 10000 2.06 160 16:45 25.08.2022
2053 Clear 20 1014 83 10000 1.54 120 15:30 25.08.2022
2054 Clear 21 1018 81 10000 2.06 220 13:58 25.08.2022
2055 Clear 21 1014 81 10000 2.57 110 11:21 25.08.2022
2056 Clear 21 1014 81 10000 2.57 110 10:42 25.08.2022
2057 Clear 22 1012 78 10000 4.12 140 07:35 25.08.2022
2058 Clear 27 1013 64 10000 4.12 200 03:44 25.08.2022
2059 Clear 30 1013 56 10000 5.14 180 23:37 24.08.2022
2060 Clear 30 1013 55 10000 5.14 180 23:18 24.08.2022
2061 Clear 30 1015 55 10000 2.24 238 21:56 24.08.2022
2062 Clear 29 1014 58 10000 4.63 260 21:30 24.08.2022
2063 Clear 27 1014 63 10000 4.63 230 20:18 24.08.2022
2064 Clouds 21 1011 82 10000 2.57 130 17:32 24.08.2022
2065 Clouds 20 1010 86 10000 1.54 0 15:55 24.08.2022
2066 Clouds 20 1010 86 10000 1.54 0 15:35 24.08.2022
2067 Clouds 20 1010 81 10000 1.54 0 12:52 24.08.2022
2068 Clouds 20 1010 81 10000 1.54 0 12:52 24.08.2022
2069 Clear 20 1010 84 10000 2.06 90 11:21 24.08.2022
2070 Clouds 20 1011 81 10000 0 0 08:59 24.08.2022
2071 Clear 21 1009 78 10000 4.12 120 06:52 24.08.2022
2072 Haze 29 1007 58 10000 5.66 240 01:20 24.08.2022
2073 Haze 30 1013 57 10000 5.66 260 22:49 23.08.2022
2074 Haze 29 1012 57 10000 5.66 260 22:21 23.08.2022
2075 Haze 28 1013 61 9656 4.63 260 21:21 23.08.2022
2076 Haze 25 1013 71 8047 3.6 260 19:28 23.08.2022
2077 Haze 22 1010 80 6437 2.06 150 18:21 23.08.2022
2078 Mist 21 1010 85 6437 2.57 190 17:43 23.08.2022
2079 Mist 19 1010 92 6437 1.54 160 16:31 23.08.2022
2080 Mist 18 1010 92 10000 1.54 0 14:54 23.08.2022
2081 Mist 18 1010 93 10000 0 0 13:25 23.08.2022
2082 Mist 18 1011 92 10000 2.06 0 11:19 23.08.2022
2083 Clear 19 1012 89 10000 2.06 120 10:33 23.08.2022
2084 Clear 19 1012 88 10000 1.54 240 09:46 23.08.2022
2085 Clouds 19 1012 87 10000 2.57 120 08:48 23.08.2022
2086 Clear 19 1012 88 10000 2.57 120 08:20 23.08.2022
2087 Clear 19 1013 88 10000 3.09 250 07:33 23.08.2022
2088 Clouds 20 1012 83 10000 4.12 260 06:26 23.08.2022
2089 Clear 27 1012 65 10000 4.12 210 01:55 23.08.2022
2090 Clear 27 1013 64 10000 6.17 260 01:55 23.08.2022
2091 Haze 27 1016 63 10000 7.2 280 00:27 23.08.2022
2092 Haze 27 1017 63 10000 5.14 270 23:32 22.08.2022
2093 Haze 26 1018 65 10000 4.12 210 22:32 22.08.2022
2094 Haze 25 1020 70 10000 3.6 200 21:22 22.08.2022
2095 Mist 21 1017 87 10000 2.57 250 19:47 22.08.2022
2096 Drizzle 20 1017 88 10000 3.09 270 18:38 22.08.2022
2097 Haze 19 1020 87 10000 3.09 260 16:31 22.08.2022
2098 Clouds 19 1019 86 10000 2.06 270 15:38 22.08.2022
2099 Clouds 19 1016 87 10000 0 0 12:57 22.08.2022
2100 Clear 19 1016 86 10000 3.09 250 10:26 22.08.2022
2101 Clear 20 1020 83 10000 4.63 240 07:41 22.08.2022
2102 Clear 25 1018 68 10000 6.17 260 03:49 22.08.2022
2103 Clear 28 1018 59 10000 5.14 240 00:38 22.08.2022
2104 Clear 28 1019 58 10000 5.14 240 00:18 22.08.2022
2105 Clouds 26 1020 64 10000 3.6 260 22:18 21.08.2022
2106 Clouds 25 1020 69 10000 3.6 210 21:23 21.08.2022
2107 Clouds 23 1018 73 10000 3.6 180 20:36 21.08.2022
2108 Haze 22 1021 77 10000 3.6 130 19:24 21.08.2022
2109 Clouds 20 1021 82 10000 0 0 16:55 21.08.2022
2110 Clouds 20 1020 81 10000 2.57 100 15:53 21.08.2022
2111 Clouds 20 1019 82 10000 2.57 100 15:20 21.08.2022
2112 Haze 20 1018 82 2816 2.57 110 13:52 21.08.2022
2113 Clouds 20 1018 83 10000 2.57 110 13:26 21.08.2022
2114 Clouds 20 1014 81 10000 3.09 150 11:34 21.08.2022
2115 Clear 20 1018 82 10000 2.57 140 09:31 21.08.2022
2116 Clear 20 1021 82 10000 0 0 08:56 21.08.2022
2117 Clear 21 1017 79 10000 3.6 140 08:38 21.08.2022
2118 Clouds 21 1018 80 10000 3.09 150 07:26 21.08.2022
2119 Clear 25 1013 66 10000 6.17 200 03:40 21.08.2022
2120 Clear 28 1013 57 10000 5.14 260 00:22 21.08.2022
2121 Clear 28 1015 61 10000 4.63 210 22:40 20.08.2022
2122 Clouds 26 1015 62 10000 5.14 180 21:37 20.08.2022
2123 Clouds 25 1016 68 10000 4.63 130 20:40 20.08.2022
2124 Clouds 23 1015 74 10000 4.12 120 19:40 20.08.2022
2125 Clouds 22 1015 78 10000 4.12 110 18:30 20.08.2022
2126 Clouds 22 1011 80 10000 3.6 120 17:50 20.08.2022
2127 Clouds 21 1011 84 10000 2.57 120 16:52 20.08.2022
2128 Clouds 20 1010 83 10000 3.09 0 15:33 20.08.2022
2129 Clear 20 1009 83 10000 2.57 90 13:26 20.08.2022
2130 Clear 19 1009 84 10000 2.57 120 11:50 20.08.2022
2131 Clear 20 1009 77 10000 2.57 150 09:37 20.08.2022
2132 Clear 20 1009 74 10000 3.6 120 08:31 20.08.2022
2133 Clear 22 1008 68 10000 4.12 150 05:55 20.08.2022
2134 Clear 30 1011 49 10000 4.63 200 00:59 20.08.2022
2135 Clear 30 1010 51 10000 6.17 260 00:35 20.08.2022
2136 Clear 30 1011 51 10000 5.14 270 23:19 19.08.2022
2137 Clear 28 1012 55 10000 5.14 110 21:41 19.08.2022
2138 Clear 26 1010 60 10000 2.57 0 20:20 19.08.2022
2139 Clear 20 1011 79 10000 2.06 200 17:35 19.08.2022
2140 Clear 18 1011 77 10000 0 0 15:19 19.08.2022
2141 Clear 18 1011 78 10000 2.06 150 13:21 19.08.2022
2142 Clear 18 1012 79 10000 2.06 180 10:53 19.08.2022
2143 Mist 18 1012 82 8047 2.06 180 10:21 19.08.2022
2144 Clear 20 1012 73 10000 4.63 120 06:37 19.08.2022
2145 Clear 28 1011 50 10000 4.12 230 00:57 19.08.2022
2146 Fog 28 1012 51 10000 7.2 270 00:28 19.08.2022
2147 Clear 29 1015 51 10000 7.2 270 23:38 18.08.2022
2148 Clear 29 1016 51 10000 6.69 240 22:49 18.08.2022
2149 Clear 29 1017 51 10000 1.79 222 21:56 18.08.2022
2150 Clear 28 1016 54 10000 5.66 100 21:26 18.08.2022
2151 Clear 27 1021 54 10000 1.79 303 19:56 18.08.2022
2152 Clear 25 1017 60 10000 2.57 0 19:28 18.08.2022
2153 Mist 23 1014 71 9656 2.57 250 17:50 18.08.2022
2154 Haze 19 1014 83 10000 2.06 250 16:58 18.08.2022
2155 Mist 18 1013 85 9656 2.57 260 14:52 18.08.2022
2156 Mist 18 1013 87 10000 2.57 260 14:19 18.08.2022
2157 Mist 18 1013 83 10000 3.6 260 12:55 18.08.2022
2158 Clear 19 1014 81 10000 2.57 120 11:42 18.08.2022
2159 Clear 20 1014 75 10000 3.6 260 09:43 18.08.2022
2160 Clear 21 1014 73 10000 3.09 250 08:40 18.08.2022
2161 Clear 22 1014 67 10000 5.14 120 07:19 18.08.2022
2162 Clear 26 1011 51 10000 5.14 260 04:36 18.08.2022
2163 Haze 31 1015 46 10000 5.66 270 23:35 17.08.2022
2164 Clear 31 1015 49 10000 5.14 270 21:46 17.08.2022
2165 Clear 29 1015 53 10000 4.12 250 20:19 17.08.2022
2166 Clear 28 1015 56 10000 4.12 260 19:29 17.08.2022
2167 Clear 23 1013 68 10000 3.6 260 17:36 17.08.2022
2168 Clear 20 1012 79 10000 3.6 280 16:35 17.08.2022
2169 Clear 19 1012 82 10000 2.57 240 15:28 17.08.2022
2170 Clear 20 1012 68 10000 1.54 300 13:30 17.08.2022
2171 Clear 20 1011 72 10000 3.09 250 11:38 17.08.2022
2172 Clear 21 1011 72 10000 0 0 09:31 17.08.2022
2173 Clear 22 1011 68 10000 0 0 08:24 17.08.2022
2174 Clear 28 1011 46 10000 5.14 270 03:39 17.08.2022
2175 Clear 32 1011 42 10000 6.17 260 00:24 17.08.2022
2176 Clear 31 1012 46 10000 5.66 270 22:41 16.08.2022
2177 Clear 31 1014 43 10000 3.09 190 20:59 16.08.2022
2178 Clear 29 1014 49 10000 2.06 0 19:54 16.08.2022
2179 Clear 26 1013 58 10000 2.57 230 18:44 16.08.2022
2180 Haze 25 1015 61 4023 2.06 320 17:53 16.08.2022
2181 Clear 18 1009 88 10000 0 0 15:59 16.08.2022
2182 Clear 20 1009 66 10000 0 0 14:55 16.08.2022
2183 Clear 19 1009 77 10000 0 0 14:37 16.08.2022
2184 Clear 20 1009 66 10000 0 0 13:54 16.08.2022
2185 Clear 19 1010 74 10000 1.54 290 11:39 16.08.2022
2186 Clear 21 1011 65 10000 2.57 240 09:52 16.08.2022
2187 Clear 21 1011 69 10000 3.09 80 08:48 16.08.2022
2188 Clear 21 1011 67 10000 3.09 80 08:19 16.08.2022
2189 Clear 24 1009 57 10000 4.63 140 05:18 16.08.2022
2190 Clear 32 1014 44 10000 4.12 180 22:56 15.08.2022
2191 Clear 31 1013 46 10000 5.66 260 22:18 15.08.2022
2192 Clear 31 1014 46 10000 4.63 260 21:41 15.08.2022
2193 Clear 29 1013 45 10000 3.6 200 20:30 15.08.2022
2194 Clear 26 1015 59 10000 2.57 270 18:56 15.08.2022
2195 Clear 25 1018 59 10000 0.45 335 17:59 15.08.2022
2196 Clear 20 1011 77 10000 0 0 16:24 15.08.2022
2197 Clear 21 1011 67 10000 0 0 14:49 15.08.2022
2198 Clear 20 1011 66 10000 1.54 170 13:23 15.08.2022
2199 Clear 21 1012 58 10000 2.06 90 10:37 15.08.2022
2200 Clear 22 1012 52 10000 3.6 110 08:55 15.08.2022
2201 Clear 23 1011 54 10000 3.6 260 06:51 15.08.2022
2202 Clear 27 1015 45 10000 3.6 240 03:56 15.08.2022
2203 Clear 32 1015 43 10000 6.17 250 23:38 14.08.2022
2204 Fog 32 1016 45 10000 5.14 270 21:49 14.08.2022
2205 Fog 31 1017 45 10000 4.12 230 20:54 14.08.2022
2206 Clear 29 1017 47 10000 2.57 220 19:46 14.08.2022
2207 Clear 26 1017 55 10000 1.54 260 18:41 14.08.2022
2208 Clear 25 1014 60 10000 0 0 17:44 14.08.2022
2209 Clear 21 1013 69 10000 0 0 16:31 14.08.2022
2210 Clear 21 1013 60 10000 0 0 15:45 14.08.2022
2211 Clear 21 1013 60 10000 1.54 340 14:19 14.08.2022
2212 Clear 21 1013 60 10000 0 0 13:49 14.08.2022
2213 Clear 21 1014 68 10000 2.57 110 12:55 14.08.2022
2214 Clear 21 1014 70 10000 2.06 120 11:31 14.08.2022
2215 Clear 21 1014 69 10000 2.06 250 10:26 14.08.2022
2216 Clear 23 1014 54 10000 2.57 140 08:20 14.08.2022
2217 Clear 25 1014 46 10000 3.6 260 06:20 14.08.2022
2218 Clear 30 1015 40 10000 5.66 260 02:46 14.08.2022
2219 Clear 32 1016 36 10000 5.66 260 23:36 13.08.2022
2220 Clear 32 1016 40 10000 5.14 260 22:28 13.08.2022
2221 Clear 31 1017 42 10000 3.09 190 20:58 13.08.2022
2222 Clear 31 1017 43 10000 4.12 280 20:28 13.08.2022
2223 Clear 29 1016 45 10000 3.6 270 19:24 13.08.2022
2224 Clear 25 1014 61 10000 2.06 330 17:36 13.08.2022
2225 Clear 21 1014 66 10000 0 0 15:23 13.08.2022
2226 Clear 22 1013 67 10000 1.54 70 14:26 13.08.2022
2227 Clear 21 1013 67 10000 1.54 240 13:38 13.08.2022
2228 Clear 21 1013 58 10000 2.06 310 11:52 13.08.2022
2229 Clear 21 1014 75 10000 0 0 09:58 13.08.2022
2230 Clear 22 1014 76 10000 3.6 110 08:23 13.08.2022
2231 Clear 22 1014 76 10000 3.6 110 08:23 13.08.2022
2232 Clear 28 1012 49 10000 5.14 210 04:21 13.08.2022
2233 Clear 32 1016 39 10000 6.69 260 23:52 12.08.2022
2234 Clear 31 1017 44 10000 4.63 250 21:42 12.08.2022
2235 Clear 30 1018 44 10000 4.12 260 20:51 12.08.2022
2236 Clear 28 1018 51 10000 3.6 260 19:39 12.08.2022
2237 Clear 26 1018 60 10000 2.06 250 18:46 12.08.2022
2238 Clear 23 1014 69 10000 1.54 220 17:21 12.08.2022
2239 Clear 20 1014 69 10000 2.06 240 15:49 12.08.2022
2240 Clear 20 1013 68 10000 1.54 250 14:29 12.08.2022
2241 Clear 19 1013 82 10000 0 0 12:55 12.08.2022
2242 Clear 21 1014 65 10000 2.57 120 10:35 12.08.2022
2243 Clear 22 1014 61 10000 3.09 130 07:50 12.08.2022
2244 Clear 24 1014 55 10000 3.6 230 06:39 12.08.2022
2245 Clear 31 1013 32 10000 7.2 250 02:39 12.08.2022
2246 Clear 32 1017 35 10000 8.23 260 00:27 12.08.2022
2247 Clear 32 1018 38 10000 6.69 260 23:35 11.08.2022
2248 Clear 32 1018 41 10000 6.69 260 22:27 11.08.2022
2249 Clear 32 1018 42 10000 5.14 260 21:43 11.08.2022
2250 Clear 31 1020 44 10000 1.34 286 20:59 11.08.2022
2251 Clear 30 1018 44 10000 5.14 250 20:20 11.08.2022
2252 Clear 29 1016 47 10000 4.12 270 19:32 11.08.2022
2253 Clear 25 1020 54 10000 2.06 270 17:48 11.08.2022
2254 Clear 22 1016 71 10000 2.57 310 16:38 11.08.2022
2255 Smoke 21 1016 67 10000 0 0 15:25 11.08.2022
2256 Clear 21 1015 65 10000 2.57 270 13:37 11.08.2022
2257 Clear 22 1016 56 10000 0 0 10:58 11.08.2022
2258 Clear 25 1016 53 10000 2.57 180 07:49 11.08.2022
2259 Clear 30 1018 35 10000 5.66 260 03:57 11.08.2022
2260 Clear 32 1017 37 10000 6.69 260 01:33 11.08.2022
2261 Clear 32 1018 42 10000 5.66 260 22:36 10.08.2022
2262 Clear 32 1019 42 10000 5.66 260 21:44 10.08.2022
2263 Clear 32 1020 40 10000 3.6 180 20:55 10.08.2022
2264 Clear 30 1019 44 10000 0.89 257 19:44 10.08.2022
2265 Clear 28 1019 51 10000 2.06 220 18:42 10.08.2022
2266 Clear 24 1015 63 10000 1.54 250 16:55 10.08.2022
2267 Clear 22 1015 65 10000 1.54 250 13:36 10.08.2022
2268 Clear 22 1015 65 10000 1.54 250 13:36 10.08.2022
2269 Clear 22 1015 62 10000 1.54 320 12:48 10.08.2022
2270 Clear 23 1015 60 10000 2.06 120 09:56 10.08.2022
2271 Clear 24 1015 59 10000 2.57 140 08:35 10.08.2022
2272 Clear 25 1015 53 10000 4.12 120 07:21 10.08.2022
2273 Clear 29 1015 41 10000 7.2 260 03:35 10.08.2022
2274 Clear 32 1016 35 10000 6.17 260 00:49 10.08.2022
2275 Clear 33 1016 35 10000 5.14 260 23:25 09.08.2022
2276 Clear 32 1017 39 10000 4.12 250 21:37 09.08.2022
2277 Clear 31 1015 42 10000 5.66 270 20:42 09.08.2022
2278 Clear 29 1017 48 10000 2.57 0 18:48 09.08.2022
2279 Clear 26 1016 58 10000 1.54 260 17:31 09.08.2022
2280 Clear 24 1014 67 10000 2.57 240 16:43 09.08.2022
2281 Clear 22 1013 71 10000 0 0 15:59 09.08.2022
2282 Clear 22 1013 70 10000 0 0 14:43 09.08.2022
2283 Clear 22 1013 62 10000 3.09 110 10:53 09.08.2022
2284 Clear 23 1014 65 10000 3.6 250 08:52 09.08.2022
2285 Clear 24 1014 64 10000 4.12 130 07:54 09.08.2022
2286 Clear 27 1014 56 10000 4.63 260 04:43 09.08.2022
2287 Clear 31 1015 52 10000 5.14 260 23:58 08.08.2022
2288 Clear 31 1015 51 10000 5.14 260 23:24 08.08.2022
2289 Clear 31 1016 50 10000 5.66 260 22:38 08.08.2022
2290 Clear 31 1016 50 10000 5.14 280 21:40 08.08.2022
2291 Clear 29 1017 56 10000 4.63 120 20:34 08.08.2022
2292 Clear 28 1017 57 10000 3.6 120 19:34 08.08.2022
2293 Clear 25 1022 64 10000 0 0 17:56 08.08.2022
2294 Clear 20 1013 68 10000 1.54 100 15:48 08.08.2022
2295 Clear 20 1013 75 10000 1.54 100 15:28 08.08.2022
2296 Clear 21 1013 65 10000 2.06 250 12:30 08.08.2022
2297 Clear 21 1013 72 10000 2.57 140 10:28 08.08.2022
2298 Clear 24 1013 60 10000 3.09 100 07:51 08.08.2022
2299 Clear 29 1012 42 10000 5.66 150 03:42 08.08.2022
2300 Clear 33 1015 36 10000 6.69 260 23:28 07.08.2022
2301 Clear 33 1015 37 10000 4.63 260 21:41 07.08.2022
2302 Clear 33 1017 39 10000 3.09 230 20:55 07.08.2022
2303 Clear 31 1016 40 10000 5.14 270 20:18 07.08.2022
2304 Clear 30 1017 43 10000 4.12 150 19:51 07.08.2022
2305 Clear 27 1017 52 10000 2.06 240 18:49 07.08.2022
2306 Clear 24 1013 63 10000 1.54 330 17:31 07.08.2022
2307 Clear 21 1013 70 10000 0 0 16:52 07.08.2022
2308 Clear 22 1012 61 10000 1.54 250 15:29 07.08.2022
2309 Clear 23 1012 47 10000 0 0 13:58 07.08.2022
2310 Clear 22 1012 66 10000 1.54 330 12:40 07.08.2022
2311 Clear 22 1012 65 10000 2.06 190 10:48 07.08.2022
2312 Clear 22 1012 65 10000 2.06 190 10:20 07.08.2022
2313 Clear 28 1011 46 10000 8.23 240 04:37 07.08.2022
2314 Clear 31 1011 43 10000 8.75 270 02:18 07.08.2022
2315 Clear 31 1016 52 10000 6.17 250 22:34 06.08.2022
2316 Clear 31 1016 52 10000 5.66 260 21:52 06.08.2022
2317 Clear 28 1017 59 10000 3.09 260 19:46 06.08.2022
2318 Clear 26 1018 62 10000 2.06 170 18:49 06.08.2022
2319 Clear 22 1014 75 10000 0 0 17:45 06.08.2022
2320 Clear 20 1014 86 10000 2.06 230 16:24 06.08.2022
2321 Clear 20 1013 75 10000 1.54 70 13:51 06.08.2022
2322 Clear 20 1013 75 10000 1.54 100 12:38 06.08.2022
2323 Clear 20 1013 78 10000 2.06 90 11:21 06.08.2022
2324 Clear 21 1014 73 10000 2.06 110 09:41 06.08.2022
2325 Clear 22 1013 70 10000 3.09 230 07:28 06.08.2022
2326 Clear 29 1016 50 10000 7.2 260 01:47 06.08.2022
2327 Clear 29 1017 50 10000 7.2 260 22:37 05.08.2022
2328 Clear 29 1017 50 10000 5.66 260 21:34 05.08.2022
2329 Clear 26 1017 58 10000 2.57 280 19:22 05.08.2022
2330 Clear 25 1018 65 10000 3.09 120 18:44 05.08.2022
2331 Clear 21 1019 77 10000 0.89 226 16:55 05.08.2022
2332 Clear 21 1017 79 10000 2.06 150 16:37 05.08.2022
2333 Clouds 20 1014 78 10000 1.54 260 15:21 05.08.2022
2334 Clear 21 1017 77 10000 2.06 190 13:43 05.08.2022
2335 Clear 21 1017 77 10000 2.06 190 13:22 05.08.2022
2336 Clear 21 1013 76 10000 1.54 270 12:24 05.08.2022
2337 Clear 21 1014 77 10000 4.12 120 10:30 05.08.2022
2338 Clear 22 1013 74 10000 0 0 07:58 05.08.2022
2339 Clear 23 1013 72 10000 4.63 260 05:30 05.08.2022
2340 Clear 27 1013 61 10000 5.66 270 00:30 05.08.2022
2341 Clear 28 1016 57 10000 6.17 270 22:25 04.08.2022
2342 Clear 27 1017 58 10000 5.66 260 21:25 04.08.2022
2343 Clear 27 1017 55 10000 4.63 260 20:42 04.08.2022
2344 Clear 26 1017 61 10000 2.57 240 19:37 04.08.2022
2345 Clear 24 1016 70 10000 1.54 0 18:36 04.08.2022
2346 Clear 22 1014 77 10000 1.54 0 17:37 04.08.2022
2347 Clear 20 1012 82 10000 3.09 270 14:18 04.08.2022
2348 Clear 20 1013 81 10000 1.54 270 12:44 04.08.2022
2349 Clear 20 1013 82 10000 3.09 260 10:51 04.08.2022
2350 Clear 21 1013 77 10000 3.09 270 07:53 04.08.2022
2351 Clear 23 1012 72 10000 4.63 260 05:46 04.08.2022
2352 Clear 28 1012 56 10000 5.66 260 02:29 04.08.2022
2353 Clear 29 1012 55 10000 6.17 260 23:45 03.08.2022
2354 Clear 29 1013 54 10000 4.63 240 22:30 03.08.2022
2355 Clear 27 1014 60 10000 4.12 200 20:50 03.08.2022
2356 Clear 25 1014 66 10000 3.09 280 19:44 03.08.2022
2357 Clear 23 1015 73 10000 2.57 250 18:36 03.08.2022
2358 Clear 19 1014 85 10000 2.57 240 16:25 03.08.2022
2359 Clear 19 1014 84 10000 2.06 250 15:32 03.08.2022
2360 Clear 20 1014 78 10000 2.57 270 12:41 03.08.2022
2361 Clouds 20 1015 75 10000 3.6 120 08:54 03.08.2022
2362 Clear 24 1014 61 10000 5.66 250 04:47 03.08.2022
2363 Clear 26 1014 59 10000 7.2 270 03:52 03.08.2022
2364 Clear 29 1015 51 10000 7.72 260 01:45 03.08.2022
2365 Clear 29 1015 52 10000 6.69 260 23:41 02.08.2022
2366 Clear 29 1016 53 10000 3.6 160 21:59 02.08.2022
2367 Clear 29 1016 55 10000 6.17 250 21:40 02.08.2022
2368 Clear 28 1017 58 10000 5.14 260 20:20 02.08.2022
2369 Clear 21 1016 80 10000 3.6 270 16:49 02.08.2022
2370 Clear 20 1016 81 10000 2.57 280 13:40 02.08.2022
2371 Clear 20 1016 82 10000 2.57 120 10:34 02.08.2022
2372 Clouds 21 1016 80 10000 4.63 110 08:29 02.08.2022
2373 Clouds 21 1016 79 10000 4.63 230 07:50 02.08.2022
2374 Clear 24 1015 64 10000 5.66 250 04:56 02.08.2022
2375 Clear 29 1014 47 10000 6.17 250 02:20 02.08.2022
2376 Clear 30 1015 51 10000 6.69 250 23:23 01.08.2022
2377 Clouds 29 1016 52 10000 4.63 260 21:42 01.08.2022
2378 Clear 28 1017 57 10000 4.12 260 20:19 01.08.2022
2379 Clear 25 1017 61 10000 4.63 260 18:55 01.08.2022
2380 Clear 23 1016 68 10000 1.54 280 16:58 01.08.2022
2381 Clear 22 1016 74 10000 3.6 270 16:39 01.08.2022
2382 Clear 20 1016 79 10000 2.57 260 15:45 01.08.2022
2383 Clear 21 1016 76 10000 0 0 14:57 01.08.2022
2384 Clear 21 1016 76 10000 2.57 320 13:32 01.08.2022
2385 Clear 22 1017 70 10000 1.54 340 11:18 01.08.2022
2386 Clouds 22 1017 69 10000 3.09 230 09:34 01.08.2022
2387 Clouds 23 1016 66 10000 4.12 250 07:37 01.08.2022
2388 Clouds 25 1015 56 10000 7.2 260 04:43 01.08.2022
2389 Clear 28 1015 54 10000 6.17 260 02:24 01.08.2022
2390 Clouds 29 1016 54 10000 4.63 250 22:54 31.07.2022
2391 Clouds 29 1016 55 10000 4.63 250 22:35 31.07.2022
2392 Clouds 28 1016 52 10000 4.12 260 20:46 31.07.2022
2393 Clear 26 1016 57 10000 2.06 110 18:52 31.07.2022
2394 Clouds 23 1016 68 10000 2.06 120 17:34 31.07.2022
2395 Clear 21 1016 78 10000 0 0 14:57 31.07.2022
2396 Clear 21 1015 78 10000 2.06 30 13:21 31.07.2022
2397 Clouds 21 1015 80 10000 2.06 140 11:44 31.07.2022
2398 Clouds 21 1016 82 10000 4.12 120 09:18 31.07.2022
2399 Clear 23 1014 75 10000 3.6 280 06:31 31.07.2022
2400 Clear 26 1013 63 10000 3.6 230 02:56 31.07.2022
2401 Clear 29 1013 58 10000 5.14 270 23:23 30.07.2022
2402 Clear 27 1014 64 10000 5.14 260 22:19 30.07.2022
2403 Clear 27 1014 66 10000 3.6 260 21:40 30.07.2022
2404 Clear 24 1015 74 10000 1.54 110 20:51 30.07.2022
2405 Clear 23 1015 78 10000 2.57 110 19:57 30.07.2022
2406 Clear 21 1015 79 10000 2.57 100 18:26 30.07.2022
2407 Clear 20 1014 83 10000 3.09 130 16:54 30.07.2022
2408 Clear 19 1013 81 10000 1.54 210 15:35 30.07.2022
2409 Clear 19 1013 82 10000 1.54 100 14:32 30.07.2022
2410 Clear 19 1013 80 10000 2.06 150 12:43 30.07.2022
2411 Clear 20 1013 79 10000 2.06 120 11:55 30.07.2022
2412 Clear 20 1013 79 10000 3.09 140 10:25 30.07.2022
2413 Clear 20 1014 79 10000 2.57 140 09:45 30.07.2022
2414 Clear 21 1013 77 10000 4.63 140 07:47 30.07.2022
2415 Clear 27 1011 56 10000 6.17 250 02:34 30.07.2022
2416 Clear 28 1011 53 10000 5.66 240 01:43 30.07.2022
2417 Clear 28 1013 51 10000 4.63 250 21:39 29.07.2022
2418 Clear 28 1013 51 10000 2.57 150 20:59 29.07.2022
2419 Clear 25 1013 62 10000 4.12 130 19:48 29.07.2022
2420 Clear 22 1013 75 10000 2.06 150 17:52 29.07.2022
2421 Clear 18 1013 85 10000 1.54 150 15:19 29.07.2022
2422 Clear 19 1012 83 10000 1.54 130 12:59 29.07.2022
2423 Clear 19 1013 81 10000 2.57 100 10:35 29.07.2022
2424 Clear 20 1013 80 10000 3.6 110 08:49 29.07.2022
2425 Clear 21 1013 77 10000 3.6 250 07:40 29.07.2022
2426 Clear 27 1011 53 10000 5.14 240 01:47 29.07.2022
2427 Clear 28 1013 47 10000 5.14 130 22:49 28.07.2022
2428 Clear 27 1013 57 10000 1.79 226 21:00 28.07.2022
2429 Clear 25 1014 64 10000 4.12 120 20:30 28.07.2022
2430 Clear 23 1014 73 10000 3.09 240 19:42 28.07.2022
2431 Clouds 21 1014 81 10000 3.09 230 18:50 28.07.2022
2432 Clear 19 1014 83 10000 3.09 140 17:43 28.07.2022
2433 Clear 18 1013 86 10000 0 0 16:51 28.07.2022
2434 Clear 17 1013 85 10000 2.57 250 15:32 28.07.2022
2435 Clear 18 1012 85 10000 2.06 310 13:29 28.07.2022
2436 Clear 18 1014 81 10000 2.57 110 10:37 28.07.2022
2437 Clouds 20 1014 74 10000 6.69 270 06:45 28.07.2022
2438 Clear 22 1014 67 10000 6.17 260 05:31 28.07.2022
2439 Clear 28 1013 53 10000 7.2 260 01:23 28.07.2022
2440 Clear 28 1014 55 10000 4.63 250 22:41 27.07.2022
2441 Clear 26 1015 57 10000 4.63 230 21:29 27.07.2022
2442 Clouds 23 1016 71 10000 3.09 240 19:43 27.07.2022
2443 Clouds 20 1016 81 10000 2.57 270 18:39 27.07.2022
2444 Clouds 18 1015 85 10000 2.06 0 15:52 27.07.2022
2445 Clouds 17 1015 85 10000 2.06 0 15:20 27.07.2022
2446 Clouds 17 1015 85 10000 2.06 250 14:40 27.07.2022
2447 Clouds 17 1015 87 10000 2.06 140 12:50 27.07.2022
2448 Clouds 18 1015 79 10000 0 0 08:55 27.07.2022
2449 Clear 19 1015 77 10000 4.63 240 07:24 27.07.2022
2450 Clear 26 1013 61 10000 6.17 260 02:42 27.07.2022
2451 Clear 27 1014 59 10000 5.14 270 22:39 26.07.2022
2452 Clear 26 1015 61 10000 5.14 260 21:23 26.07.2022
2453 Clear 26 1015 63 10000 3.6 240 20:47 26.07.2022
2454 Haze 21 1015 78 8047 2.57 240 18:46 26.07.2022
2455 Haze 21 1015 77 8047 2.57 240 18:20 26.07.2022
2456 Haze 19 1014 84 9656 2.06 260 16:46 26.07.2022
2457 Haze 18 1014 85 10000 2.06 260 15:42 26.07.2022
2458 Clouds 18 1013 85 10000 0 0 13:59 26.07.2022
2459 Clouds 18 1014 85 10000 2.06 320 11:40 26.07.2022
2460 Clouds 18 1014 84 10000 3.6 140 09:35 26.07.2022
2461 Clouds 19 1014 84 10000 2.06 280 07:56 26.07.2022
2462 Clear 27 1012 62 10000 7.2 270 01:21 26.07.2022
2463 Clear 28 1012 59 10000 5.66 260 23:37 25.07.2022
2464 Clear 27 1013 60 10000 4.63 230 22:33 25.07.2022
2465 Clear 27 1014 62 10000 4.63 270 21:43 25.07.2022
2466 Clear 26 1014 65 10000 3.6 210 20:42 25.07.2022
2467 Haze 23 1014 70 9656 2.57 260 19:51 25.07.2022
2468 Haze 22 1014 73 9656 2.57 260 19:20 25.07.2022
2469 Haze 20 1014 79 10000 2.06 90 17:35 25.07.2022
2470 Haze 19 1014 83 10000 2.06 200 16:40 25.07.2022
2471 Clouds 19 1013 84 10000 1.54 320 12:58 25.07.2022
2472 Clouds 19 1014 83 10000 2.57 0 10:47 25.07.2022
2473 Clear 19 1014 82 10000 3.09 270 07:29 25.07.2022
2474 Clear 28 1012 62 10000 6.17 260 00:38 25.07.2022
2475 Clear 28 1012 61 10000 6.17 260 23:45 24.07.2022
2476 Clear 27 1012 60 10000 5.14 240 22:43 24.07.2022
2477 Clear 26 1013 63 10000 3.6 240 21:33 24.07.2022
2478 Clear 26 1013 68 10000 4.12 240 20:58 24.07.2022
2479 Haze 25 1013 71 9656 3.09 260 20:37 24.07.2022
2480 Haze 21 1013 79 9656 2.57 220 19:18 24.07.2022
2481 Haze 20 1013 84 8047 2.57 250 17:56 24.07.2022
2482 Haze 19 1013 87 9656 0 0 15:54 24.07.2022
2483 Haze 19 1012 88 10000 2.57 170 14:47 24.07.2022
2484 Clouds 19 1012 87 10000 3.09 150 13:49 24.07.2022
2485 Clouds 19 1012 84 10000 2.06 160 12:28 24.07.2022
2486 Clouds 19 1012 83 10000 1.54 190 11:30 24.07.2022
2487 Clouds 19 1013 84 10000 3.09 250 09:48 24.07.2022
2488 Clouds 19 1013 84 10000 2.57 240 08:22 24.07.2022
2489 Clouds 20 1012 83 10000 3.6 180 07:41 24.07.2022
2490 Clouds 23 1010 71 10000 7.72 250 03:18 24.07.2022
2491 Clear 28 1011 57 10000 4.63 240 23:25 23.07.2022
2492 Clouds 25 1013 64 10000 3.09 220 20:47 23.07.2022
2493 Haze 22 1013 71 10000 3.6 220 19:30 23.07.2022
2494 Haze 21 1013 74 10000 2.06 190 18:40 23.07.2022
2495 Clouds 20 1012 77 10000 3.09 170 17:28 23.07.2022
2496 Clouds 19 1012 82 10000 2.06 0 16:29 23.07.2022
2497 Clouds 19 1011 82 10000 2.06 110 15:22 23.07.2022
2498 Clouds 19 1012 84 10000 0.89 184 14:55 23.07.2022
2499 Clouds 19 1011 83 10000 2.06 140 14:24 23.07.2022
2500 Clouds 19 1012 84 10000 3.09 120 11:56 23.07.2022
2501 Clouds 20 1011 83 10000 2.57 130 10:44 23.07.2022
2502 Clouds 19 1011 84 10000 2.06 0 09:53 23.07.2022
2503 Clear 20 1012 82 10000 3.09 140 08:24 23.07.2022
2504 Clear 26 1009 62 10000 5.66 260 03:38 23.07.2022
2505 Clear 29 1011 52 10000 5.66 260 00:39 23.07.2022
2506 Clear 27 1013 56 10000 4.12 260 21:41 22.07.2022
2507 Clear 25 1013 61 10000 3.6 260 20:33 22.07.2022
2508 Haze 23 1013 70 10000 2.57 120 19:32 22.07.2022
2509 Clouds 21 1012 83 10000 1.95 211 18:23 22.07.2022
2510 Haze 18 1013 87 8047 3.09 120 16:46 22.07.2022
2511 Clear 18 1012 88 10000 2.57 110 14:20 22.07.2022
2512 Clear 18 1012 91 10000 2.06 190 10:59 22.07.2022
2513 Clear 19 1013 83 10000 3.09 110 09:25 22.07.2022
2514 Clear 20 1013 80 10000 3.09 230 08:27 22.07.2022
2515 Clear 24 1013 66 10000 5.14 280 04:48 22.07.2022
2516 Clear 29 1013 54 10000 6.17 180 00:40 22.07.2022
2517 Clear 29 1014 50 10000 5.14 260 22:25 21.07.2022
2518 Clear 28 1015 52 10000 4.63 110 20:48 21.07.2022
2519 Clear 25 1016 58 10000 3.09 270 19:23 21.07.2022
2520 Clear 21 1015 79 10000 2.06 290 17:39 21.07.2022
2521 Clear 21 1015 78 10000 2.06 290 17:19 21.07.2022
2522 Clear 18 1015 90 10000 0 0 14:55 21.07.2022
2523 Clear 18 1015 86 10000 2.57 280 14:29 21.07.2022
2524 Clear 19 1015 80 10000 2.57 330 12:28 21.07.2022
2525 Clear 20 1015 77 10000 0 0 10:56 21.07.2022
2526 Clear 20 1016 79 10000 3.09 110 09:27 21.07.2022
2527 Clear 20 1016 74 10000 3.6 110 08:49 21.07.2022
2528 Clear 21 1016 68 10000 3.6 250 07:42 21.07.2022
2529 Clear 24 1015 56 10000 6.17 270 04:46 21.07.2022
2530 Clear 30 1017 44 10000 5.66 210 00:43 21.07.2022
2531 Clear 30 1018 52 10000 4.63 190 22:22 20.07.2022
2532 Clear 28 1019 55 10000 4.63 270 20:55 20.07.2022
2533 Clear 27 1019 59 10000 3.09 240 19:52 20.07.2022
2534 Clear 26 1018 59 10000 3.09 240 19:24 20.07.2022
2535 Clear 25 1018 62 10000 1.54 180 18:34 20.07.2022
2536 Clear 24 1018 66 10000 0 0 18:00 20.07.2022
2537 Mist 21 1017 79 10000 2.57 140 16:45 20.07.2022
2538 Mist 19 1017 81 10000 2.06 250 15:32 20.07.2022
2539 Clear 19 1016 82 10000 2.06 250 14:20 20.07.2022
2540 Clear 20 1016 77 10000 2.06 90 11:37 20.07.2022
2541 Clear 20 1015 82 10000 3.09 120 09:41 20.07.2022
2542 Clear 26 1014 50 10000 5.14 260 04:36 20.07.2022
2543 Clear 31 1015 38 10000 5.66 250 00:52 20.07.2022
2544 Clear 31 1015 43 10000 5.66 260 23:41 19.07.2022
2545 Clear 31 1016 47 10000 6.17 270 22:33 19.07.2022
2546 Clear 30 1016 51 10000 5.14 270 21:46 19.07.2022
2547 Clear 29 1017 53 10000 5.14 250 20:48 19.07.2022
2548 Haze 27 1016 58 10000 5.14 260 19:21 19.07.2022
2549 Fog 25 1016 64 10000 4.12 260 18:31 19.07.2022
2550 Fog 24 1016 70 10000 2.57 260 17:46 19.07.2022
2551 Fog 19 1015 76 10000 1.54 290 14:58 19.07.2022
2552 Fog 19 1015 78 10000 2.06 290 11:58 19.07.2022
2553 Fog 19 1016 78 10000 1.54 0 11:18 19.07.2022
2554 Clear 20 1016 80 10000 3.6 130 09:44 19.07.2022
2555 Clear 21 1016 77 10000 2.57 150 08:42 19.07.2022
2556 Clear 22 1016 74 10000 3.09 150 07:19 19.07.2022
2557 Clear 23 1015 67 10000 6.17 120 05:48 19.07.2022
2558 Clear 24 1015 63 10000 3.6 210 04:59 19.07.2022
2559 Clear 29 1014 52 10000 2.06 0 01:58 19.07.2022
2560 Clear 30 1015 56 10000 6.17 270 23:50 18.07.2022
2561 Clear 30 1015 55 10000 6.17 270 23:19 18.07.2022
2562 Clear 30 1015 55 10000 6.69 260 22:23 18.07.2022
2563 Clear 29 1015 55 10000 5.66 240 21:20 18.07.2022
2564 Clear 28 1015 59 10000 2.57 250 19:54 18.07.2022
2565 Clear 25 1015 68 10000 2.06 70 18:24 18.07.2022
2566 Clear 22 1014 79 10000 2.57 200 16:30 18.07.2022
2567 Clear 20 1014 81 10000 2.06 160 15:26 18.07.2022
2568 Clouds 21 1013 79 10000 2.06 320 13:31 18.07.2022
2569 Clear 21 1012 77 10000 3.6 300 11:34 18.07.2022
2570 Clear 21 1012 78 10000 2.57 120 09:55 18.07.2022
2571 Clear 21 1013 77 10000 3.09 150 07:54 18.07.2022
2572 Clear 23 1012 69 10000 5.14 190 05:25 18.07.2022
2573 Clear 29 1011 55 10000 8.75 250 22:57 17.07.2022
2574 Clear 30 1011 52 10000 8.23 250 22:31 17.07.2022
2575 Clear 29 1011 50 10000 6.17 210 21:40 17.07.2022
2576 Clear 30 1011 51 10000 3.6 340 20:46 17.07.2022
2577 Clear 26 1012 64 10000 5.14 180 19:50 17.07.2022
2578 Clear 25 1012 67 10000 5.14 180 19:24 17.07.2022
2579 Mist 24 1012 68 10000 2.57 180 17:54 17.07.2022
2580 Mist 22 1012 76 10000 2.06 0 17:36 17.07.2022
2581 Mist 20 1011 82 10000 4.63 120 16:45 17.07.2022
2582 Mist 19 1011 90 10000 4.63 120 16:22 17.07.2022
2583 Mist 19 1010 84 10000 2.06 320 13:58 17.07.2022
2584 Clear 18 1010 90 10000 1.54 280 12:56 17.07.2022
2585 Clear 19 1011 86 10000 4.12 250 10:21 17.07.2022
2586 Clear 20 1012 84 10000 0 0 07:55 17.07.2022
2587 Clear 28 1011 54 10000 5.14 260 02:36 17.07.2022
2588 Haze 29 1012 54 10000 5.66 260 00:33 17.07.2022
2589 Haze 29 1012 57 10000 6.17 250 23:18 16.07.2022
2590 Haze 28 1013 59 10000 4.12 110 20:53 16.07.2022
2591 Haze 25 1013 66 10000 3.6 260 18:59 16.07.2022
2592 Haze 22 1013 78 9656 3.09 260 17:48 16.07.2022
2593 Mist 18 1013 90 8047 3.09 250 16:23 16.07.2022
2594 Mist 18 1013 87 10000 2.57 260 13:47 16.07.2022
2595 Clear 19 1014 85 10000 2.06 240 10:35 16.07.2022
2596 Clear 19 1014 84 10000 2.57 130 09:29 16.07.2022
2597 Clear 19 1014 83 10000 2.57 300 08:42 16.07.2022
2598 Clear 20 1014 81 10000 3.6 130 07:51 16.07.2022
2599 Haze 25 1012 64 10000 5.14 250 03:40 16.07.2022
2600 Haze 28 1012 61 10000 5.14 260 01:59 16.07.2022
2601 Clear 29 1014 56 10000 5.66 250 23:21 15.07.2022
2602 Haze 28 1014 58 10000 6.69 250 22:37 15.07.2022
2603 Haze 27 1014 59 10000 4.63 240 21:18 15.07.2022
2604 Haze 25 1015 68 10000 3.09 290 19:51 15.07.2022
2605 Haze 22 1015 77 10000 2.57 270 18:35 15.07.2022
2606 Haze 20 1015 83 10000 2.57 250 17:34 15.07.2022
2607 Mist 17 1014 88 10000 2.06 150 14:45 15.07.2022
2608 Clear 18 1014 85 10000 3.09 250 12:48 15.07.2022
2609 Clear 18 1014 84 10000 2.06 240 10:54 15.07.2022
2610 Clear 19 1015 82 10000 3.6 220 08:49 15.07.2022
2611 Clear 21 1013 74 10000 1.54 250 05:55 15.07.2022
2612 Clear 26 1013 60 10000 6.17 240 00:52 15.07.2022
2613 Clear 26 1013 61 10000 6.17 250 23:36 14.07.2022
2614 Clear 26 1013 60 10000 5.66 250 22:42 14.07.2022
2615 Clear 25 1014 61 10000 4.12 260 21:43 14.07.2022
2616 Clear 26 1014 62 10000 4.12 260 21:25 14.07.2022
2617 Clear 25 1014 63 10000 5.66 260 20:43 14.07.2022
2618 Clear 24 1014 66 10000 5.66 260 20:20 14.07.2022
2619 Clouds 22 1015 74 10000 2.06 250 18:52 14.07.2022
2620 Clear 18 1014 84 10000 3.09 270 16:22 14.07.2022
2621 Clouds 17 1014 86 10000 2.57 250 15:30 14.07.2022
2622 Clouds 17 1014 87 10000 2.06 260 13:53 14.07.2022
2623 Clouds 17 1014 88 10000 1.54 220 12:58 14.07.2022
2624 Clear 17 1014 85 10000 2.06 250 11:47 14.07.2022
2625 Clear 17 1014 85 10000 2.06 250 11:23 14.07.2022
2626 Clear 17 1014 84 10000 3.09 260 10:24 14.07.2022
2627 Clouds 18 1014 83 10000 4.63 100 07:50 14.07.2022
2628 Clear 26 1013 57 10000 8.23 270 01:26 14.07.2022
2629 Clear 26 1013 60 10000 8.23 260 00:53 14.07.2022
2630 Clear 26 1014 59 10000 6.69 270 22:57 13.07.2022
2631 Clear 26 1014 60 10000 6.69 270 22:22 13.07.2022
2632 Clear 25 1015 64 10000 5.66 270 21:19 13.07.2022
2633 Clear 23 1015 68 10000 2.06 160 19:58 13.07.2022
2634 Haze 18 1015 83 9656 2.06 150 17:54 13.07.2022
2635 Mist 17 1015 86 9656 3.09 140 16:47 13.07.2022
2636 Fog 16 1014 86 10000 3.09 140 15:43 13.07.2022
2637 Clouds 17 1013 85 10000 2.57 250 13:24 13.07.2022
2638 Clouds 17 1015 84 10000 2.06 290 10:47 13.07.2022
2639 Clouds 17 1015 84 10000 2.06 290 10:28 13.07.2022
2640 Clouds 17 1015 84 10000 4.12 280 09:27 13.07.2022
2641 Clouds 18 1014 82 10000 3.6 270 07:53 13.07.2022
2642 Clear 24 1011 61 10000 6.69 250 03:34 13.07.2022
2643 Clear 26 1013 55 10000 6.17 220 00:24 13.07.2022
2644 Clear 25 1014 60 10000 5.14 260 22:19 12.07.2022
2645 Clear 24 1014 60 10000 5.66 210 21:36 12.07.2022
2646 Clear 23 1014 65 10000 4.12 250 20:42 12.07.2022
2647 Haze 20 1014 73 9656 4.12 120 19:44 12.07.2022
2648 Haze 19 1014 78 9656 2.06 0 18:25 12.07.2022
2649 Haze 17 1014 84 8047 3.6 150 16:20 12.07.2022
2650 Clouds 17 1013 84 10000 2.57 260 14:31 12.07.2022
2651 Clouds 17 1013 84 10000 2.57 290 13:34 12.07.2022
2652 Clouds 17 1014 85 10000 2.57 130 11:48 12.07.2022
2653 Clouds 17 1014 86 10000 2.57 110 10:25 12.07.2022
2654 Clouds 17 1014 85 10000 4.12 260 08:46 12.07.2022
2655 Clouds 18 1014 80 10000 4.63 260 07:48 12.07.2022
2656 Clear 20 1012 75 10000 5.14 130 05:45 12.07.2022
2657 Clear 22 1012 69 10000 6.17 110 04:46 12.07.2022
2658 Clear 27 1012 59 10000 2.57 250 00:54 12.07.2022
2659 Clear 27 1013 57 10000 5.66 270 22:43 11.07.2022
2660 Haze 25 1014 64 10000 4.12 250 20:56 11.07.2022
2661 Clear 25 1014 63 10000 4.12 250 20:32 11.07.2022
2662 Clear 22 1014 72 10000 3.09 250 19:18 11.07.2022
2663 Haze 21 1014 77 9656 3.09 270 18:29 11.07.2022
2664 Mist 18 1014 87 8047 2.06 0 16:30 11.07.2022
2665 Mist 17 1014 88 10000 2.06 230 15:28 11.07.2022
2666 Clouds 17 1014 89 10000 2.06 180 13:19 11.07.2022
2667 Clouds 18 1014 87 10000 3.09 110 11:23 11.07.2022
2668 Clouds 19 1015 79 10000 3.09 260 09:55 11.07.2022
2669 Clear 19 1015 79 10000 3.09 100 09:35 11.07.2022
2670 Clear 20 1015 82 10000 2.57 240 08:32 11.07.2022
2671 Clear 29 1015 51 10000 5.66 260 01:20 11.07.2022
2672 Clear 30 1016 55 10000 6.69 270 23:54 10.07.2022
2673 Fog 29 1016 55 10000 6.17 260 22:47 10.07.2022
2674 Clear 28 1017 56 10000 5.14 250 20:56 10.07.2022
2675 Clear 28 1017 56 10000 5.14 250 20:36 10.07.2022
2676 Clear 25 1018 62 10000 4.12 270 19:38 10.07.2022
2677 Clear 23 1018 65 10000 2.06 180 18:35 10.07.2022
2678 Clear 22 1018 75 10000 1.54 210 17:35 10.07.2022
2679 Clear 19 1017 83 10000 2.06 200 16:24 10.07.2022
2680 Clear 19 1017 83 10000 2.06 200 16:24 10.07.2022
2681 Clear 17 1017 86 10000 1.54 320 14:47 10.07.2022
2682 Clear 18 1017 81 10000 2.57 80 13:40 10.07.2022
2683 Clear 18 1017 84 10000 2.57 180 12:26 10.07.2022
2684 Clear 19 1018 73 10000 2.57 100 09:47 10.07.2022
2685 Clear 20 1018 75 10000 3.09 230 08:44 10.07.2022
2686 Clear 21 1017 65 10000 3.09 230 07:29 10.07.2022
2687 Clear 28 1017 50 10000 5.66 250 01:23 10.07.2022
2688 Clear 27 1018 57 10000 6.17 250 22:27 09.07.2022
2689 Clear 28 1019 54 10000 3.6 190 21:56 09.07.2022
2690 Clear 26 1019 62 10000 5.14 260 20:23 09.07.2022
2691 Haze 22 1020 73 8047 4.12 250 18:35 09.07.2022
2692 Haze 19 1020 85 8047 3.09 150 17:33 09.07.2022
2693 Mist 18 1019 89 6437 2.57 140 16:44 09.07.2022
2694 Mist 17 1019 89 8047 2.06 250 15:40 09.07.2022
2695 Mist 17 1018 87 8047 1.54 280 14:27 09.07.2022
2696 Mist 17 1018 87 10000 1.54 0 13:49 09.07.2022
2697 Mist 17 1018 89 10000 1.54 190 12:45 09.07.2022
2698 Mist 17 1019 90 9656 2.57 130 11:22 09.07.2022
2699 Mist 18 1019 88 8047 2.57 240 10:22 09.07.2022
2700 Clear 19 1018 81 10000 4.12 270 07:45 09.07.2022
2701 Clear 22 1016 71 10000 0.89 254 04:58 09.07.2022
2702 Clear 26 1016 59 10000 6.69 260 02:33 09.07.2022
2703 Clear 28 1017 57 10000 3.13 290 22:54 08.07.2022
2704 Clear 27 1017 57 10000 3.6 200 21:58 08.07.2022
2705 Clear 25 1018 64 10000 3.6 150 20:41 08.07.2022
2706 Clouds 23 1017 69 10000 2.06 0 19:53 08.07.2022
2707 Haze 20 1018 81 10000 3.09 150 18:24 08.07.2022
2708 Mist 18 1017 87 10000 2.57 0 16:48 08.07.2022
2709 Clouds 17 1016 88 10000 2.06 230 14:53 08.07.2022
2710 Clear 17 1016 87 10000 3.09 270 13:41 08.07.2022
2711 Clear 18 1016 85 10000 0 0 11:51 08.07.2022
2712 Clear 18 1016 83 10000 2.06 220 10:37 08.07.2022
2713 Clear 19 1016 81 10000 3.6 120 08:37 08.07.2022
2714 Clear 20 1015 76 10000 4.63 130 06:50 08.07.2022
2715 Clear 28 1014 54 10000 7.72 260 01:31 08.07.2022
2716 Clear 28 1014 56 10000 5.66 250 23:30 07.07.2022
2717 Clear 28 1015 57 10000 5.66 260 22:35 07.07.2022
2718 Clear 27 1015 58 10000 4.12 260 20:36 07.07.2022
2719 Clear 23 1015 68 10000 1.54 0 18:22 07.07.2022
2720 Clear 20 1015 80 10000 0 0 16:57 07.07.2022
2721 Clear 17 1014 84 10000 0 0 14:56 07.07.2022
2722 Clear 17 1014 84 10000 2.06 150 13:25 07.07.2022
2723 Clear 17 1014 84 10000 2.57 90 12:37 07.07.2022
2724 Clear 17 1014 85 10000 2.57 90 12:18 07.07.2022
2725 Clear 18 1014 84 10000 2.57 140 11:29 07.07.2022
2726 Clear 18 1013 83 10000 3.09 180 10:42 07.07.2022
2727 Clear 18 1013 82 10000 3.09 180 10:24 07.07.2022
2728 Clear 19 1013 78 10000 3.6 230 07:22 07.07.2022
2729 Clear 25 1012 62 10000 5.14 210 02:55 07.07.2022
2730 Clear 26 1014 62 10000 4.47 218 23:37 06.07.2022
2731 Clear 26 1014 63 10000 2.57 190 23:18 06.07.2022
2732 Clear 26 1014 64 10000 3.58 256 22:56 06.07.2022
2733 Clear 26 1015 61 10000 4.63 250 22:38 06.07.2022
2734 Clear 24 1015 65 10000 4.63 240 21:27 06.07.2022
2735 Clouds 22 1015 70 10000 3.09 250 19:35 06.07.2022
2736 Clouds 20 1016 79 10000 3.6 250 18:21 06.07.2022
2737 Clouds 18 1015 83 10000 2.06 110 16:19 06.07.2022
2738 Clouds 18 1014 88 10000 4.12 230 14:54 06.07.2022
2739 Clouds 18 1014 87 10000 4.12 230 12:40 06.07.2022
2740 Clear 18 1014 87 10000 3.6 240 11:49 06.07.2022
2741 Clear 18 1014 86 10000 3.09 240 10:18 06.07.2022
2742 Clear 20 1014 81 10000 5.14 250 07:46 06.07.2022
2743 Clear 20 1014 79 10000 5.14 250 07:23 06.07.2022
2744 Clear 24 1013 62 10000 6.69 250 03:24 06.07.2022
2745 Clear 26 1014 56 10000 5.14 260 22:45 05.07.2022
2746 Clear 26 1014 57 10000 4.63 250 21:53 05.07.2022
2747 Clear 24 1015 59 10000 4.63 250 20:39 05.07.2022
2748 Haze 23 1015 65 10000 4.12 230 19:43 05.07.2022
2749 Haze 22 1015 66 10000 3.09 90 19:22 05.07.2022
2750 Haze 20 1015 76 10000 1.54 110 17:47 05.07.2022
2751 Haze 19 1014 81 4023 2.06 160 16:54 05.07.2022
2752 Clear 17 1014 84 10000 1.54 30 15:31 05.07.2022
2753 Smoke 17 1014 82 10000 1.54 360 14:28 05.07.2022
2754 Clear 17 1014 82 10000 1.54 320 12:43 05.07.2022
2755 Clouds 17 1014 82 10000 0 0 11:49 05.07.2022
2756 Haze 17 1014 80 9656 2.06 320 10:40 05.07.2022
2757 Haze 18 1014 79 3219 3.6 120 09:23 05.07.2022
2758 Haze 18 1014 77 9656 4.63 120 07:47 05.07.2022
2759 Clear 20 1013 72 10000 5.14 250 05:29 05.07.2022
2760 Clear 22 1013 67 10000 6.17 250 04:24 05.07.2022
2761 Clear 25 1013 58 10000 5.66 250 00:26 05.07.2022
2762 Clear 25 1014 56 10000 6.17 220 23:31 04.07.2022
2763 Clear 25 1014 58 10000 5.66 260 22:27 04.07.2022
2764 Clear 24 1014 59 10000 5.66 240 21:46 04.07.2022
2765 Clear 24 1014 60 10000 2.06 170 20:53 04.07.2022
2766 Clear 23 1014 61 10000 4.63 250 20:34 04.07.2022
2767 Clear 23 1015 63 10000 3.09 140 19:55 04.07.2022
2768 Clouds 22 1015 65 10000 3.6 170 19:35 04.07.2022
2769 Clouds 19 1014 77 10000 3.09 180 17:58 04.07.2022
2770 Clouds 17 1014 83 10000 0 0 15:58 04.07.2022
2771 Clouds 16 1014 81 10000 2.06 100 15:33 04.07.2022
2772 Clear 16 1013 81 10000 1.54 20 13:29 04.07.2022
2773 Clear 16 1013 81 10000 1.54 0 12:30 04.07.2022
2774 Clear 17 1013 79 10000 1.54 240 10:34 04.07.2022
2775 Clear 17 1014 78 10000 3.09 260 09:52 04.07.2022
2776 Clear 18 1013 74 10000 4.63 220 07:37 04.07.2022
2777 Clear 21 1012 66 10000 6.17 260 04:57 04.07.2022
2778 Clear 25 1013 57 10000 6.17 270 00:39 04.07.2022
2779 Clear 25 1013 59 10000 6.17 260 22:59 03.07.2022
2780 Clear 24 1014 62 10000 3.09 210 20:58 03.07.2022
2781 Clear 23 1014 61 10000 5.66 240 20:31 03.07.2022
2782 Clouds 22 1014 64 10000 4.12 130 19:28 03.07.2022
2783 Clouds 21 1014 70 10000 4.12 170 18:43 03.07.2022
2784 Clouds 19 1014 75 10000 2.57 0 17:44 03.07.2022
2785 Clouds 17 1013 83 10000 0 0 15:55 03.07.2022
2786 Clouds 17 1013 85 10000 1.54 40 14:59 03.07.2022
2787 Clouds 17 1013 81 10000 0 0 14:20 03.07.2022
2788 Clouds 17 1013 82 10000 1.54 240 13:48 03.07.2022
2789 Clear 17 1013 80 10000 2.06 90 12:33 03.07.2022
2790 Clear 17 1013 80 10000 2.06 190 11:29 03.07.2022
2791 Clear 17 1013 80 10000 3.09 130 10:39 03.07.2022
2792 Clear 17 1013 80 10000 2.57 100 09:55 03.07.2022
2793 Clear 19 1013 73 10000 4.12 260 07:35 03.07.2022
2794 Clear 23 1012 61 10000 6.69 290 04:22 03.07.2022
2795 Clear 27 1013 54 10000 6.69 270 00:23 03.07.2022
2796 Clear 27 1013 54 10000 5.14 270 22:35 02.07.2022
2797 Clear 26 1014 55 10000 5.66 170 21:38 02.07.2022
2798 Clear 24 1014 61 10000 4.63 150 19:52 02.07.2022
2799 Clear 23 1014 64 10000 4.63 150 19:23 02.07.2022
2800 Clear 21 1015 78 10000 3.6 240 17:58 02.07.2022
2801 Clear 20 1014 79 10000 2.06 220 17:36 02.07.2022
2802 Clear 17 1014 86 10000 2.06 70 15:28 02.07.2022
2803 Clear 17 1014 83 10000 3.09 250 12:22 02.07.2022
2804 Clear 18 1014 80 10000 2.57 250 11:27 02.07.2022
2805 Clear 18 1014 79 10000 3.09 100 10:46 02.07.2022
2806 Clear 19 1014 80 10000 3.09 250 09:49 02.07.2022
2807 Clear 19 1014 77 10000 3.6 250 08:36 02.07.2022
2808 Clear 19 1014 77 10000 3.6 250 08:18 02.07.2022
2809 Clear 26 1013 53 10000 5.66 270 02:52 02.07.2022
2810 Clear 28 1014 52 10000 5.14 240 00:27 02.07.2022
2811 Clear 28 1015 53 10000 3.09 250 22:59 01.07.2022
2812 Clear 28 1015 54 10000 5.14 240 22:19 01.07.2022
2813 Clear 27 1015 57 10000 4.12 100 21:37 01.07.2022
2814 Clear 27 1016 58 10000 0.45 199 20:57 01.07.2022
2815 Haze 24 1016 68 10000 3.6 210 19:47 01.07.2022
2816 Haze 22 1016 74 8047 2.57 190 18:42 01.07.2022
2817 Mist 19 1016 84 10000 2.06 130 16:38 01.07.2022
2818 Clear 17 1015 86 10000 2.06 100 14:21 01.07.2022
2819 Clear 18 1015 85 10000 2.57 80 13:23 01.07.2022
2820 Clear 18 1015 82 10000 3.09 110 10:53 01.07.2022
2821 Clear 19 1015 82 10000 3.09 110 10:19 01.07.2022
2822 Clear 21 1014 69 10000 4.63 250 06:20 01.07.2022
2823 Clear 28 1014 57 10000 3.6 270 01:57 01.07.2022
2824 Clear 29 1015 53 10000 5.66 260 23:34 30.06.2022
2825 Clear 29 1016 55 10000 5.66 250 22:50 30.06.2022
2826 Clear 29 1016 53 10000 5.66 250 22:31 30.06.2022
2827 Haze 28 1016 57 2414 4.63 260 21:53 30.06.2022
2828 Clear 27 1017 56 10000 4.12 240 20:45 30.06.2022
2829 Clear 26 1017 57 10000 4.12 240 20:18 30.06.2022
2830 Clear 25 1017 61 10000 2.06 0 19:47 30.06.2022
2831 Haze 24 1017 66 10000 1.54 0 18:49 30.06.2022
2832 Haze 22 1017 74 10000 2.57 0 17:53 30.06.2022
2833 Haze 21 1017 80 9656 2.57 0 17:18 30.06.2022
2834 Mist 19 1016 87 6437 2.57 300 15:56 30.06.2022
2835 Mist 18 1016 85 10000 2.57 130 13:58 30.06.2022
2836 Mist 18 1016 84 10000 2.57 260 13:20 30.06.2022
2837 Clear 19 1016 83 10000 3.09 260 12:33 30.06.2022
2838 Clear 19 1016 81 10000 2.57 290 10:49 30.06.2022
2839 Mist 20 1017 82 10000 4.12 120 09:47 30.06.2022
2840 Mist 20 1017 83 10000 4.12 120 08:31 30.06.2022
2841 Mist 21 1017 81 10000 4.12 260 07:41 30.06.2022
2842 Clear 23 1015 70 10000 5.66 260 05:45 30.06.2022
2843 Haze 29 1016 51 10000 4.63 270 23:39 29.06.2022
2844 Clear 29 1016 50 10000 6.17 180 22:42 29.06.2022
2845 Clear 29 1017 51 10000 6.17 180 22:20 29.06.2022
2846 Clear 30 1017 46 10000 1.54 210 20:54 29.06.2022
2847 Clear 28 1017 50 10000 4.63 210 20:32 29.06.2022
2848 Clear 27 1017 53 10000 4.63 130 19:31 29.06.2022
2849 Haze 23 1017 73 9656 2.06 100 17:39 29.06.2022
2850 Haze 20 1016 83 8047 2.57 70 16:31 29.06.2022
2851 Clear 18 1015 73 10000 1.54 190 13:58 29.06.2022
2852 Clear 19 1016 71 10000 2.57 130 12:38 29.06.2022
2853 Clear 21 1016 71 10000 2.06 250 10:20 29.06.2022
2854 Clear 21 1016 68 10000 2.57 230 09:31 29.06.2022
2855 Clear 21 1016 70 10000 2.57 250 07:23 29.06.2022
2856 Clear 25 1014 62 10000 5.14 250 04:49 29.06.2022
2857 Clear 32 1015 41 10000 1.34 262 00:55 29.06.2022
2858 Clear 31 1015 42 10000 4.63 250 00:35 29.06.2022
2859 Clear 32 1016 43 10000 5.14 260 22:53 28.06.2022
2860 Clear 32 1016 42 10000 5.14 260 22:21 28.06.2022
2861 Clear 32 1016 44 10000 5.14 260 21:50 28.06.2022
2862 Clear 32 1016 43 10000 5.14 260 21:30 28.06.2022
2863 Haze 30 1016 47 10000 3.6 260 20:27 28.06.2022
2864 Fog 29 1016 54 10000 3.6 250 19:32 28.06.2022
2865 Fog 27 1016 58 10000 3.6 260 18:44 28.06.2022
2866 Fog 24 1016 70 10000 1.54 250 17:38 28.06.2022
2867 Mist 19 1015 87 10000 0 0 15:56 28.06.2022
2868 Fog 20 1016 74 10000 2.57 240 15:21 28.06.2022
2869 Mist 20 1015 76 10000 3.09 240 14:20 28.06.2022
2870 Mist 20 1015 76 10000 1.54 210 13:50 28.06.2022
2871 Mist 21 1015 69 10000 2.06 200 12:54 28.06.2022
2872 Clear 21 1016 70 10000 0 0 10:57 28.06.2022
2873 Smoke 21 1016 79 10000 3.09 130 09:28 28.06.2022
2874 Smoke 22 1016 73 10000 4.12 100 08:43 28.06.2022
2875 Clear 23 1016 62 10000 4.12 240 07:42 28.06.2022
2876 Clear 25 1015 53 10000 0 0 05:58 28.06.2022
2877 Clear 34 1015 38 10000 4.63 220 00:56 28.06.2022
2878 Clear 34 1015 34 10000 5.66 180 23:37 27.06.2022
2879 Clear 35 1015 35 10000 6.17 180 22:52 27.06.2022
2880 Clear 33 1016 43 10000 4.12 130 21:34 27.06.2022
2881 Clear 33 1016 44 10000 3.6 110 20:52 27.06.2022
2882 Haze 29 1016 58 10000 3.6 250 19:31 27.06.2022
2883 Haze 26 1016 63 10000 3.09 260 18:25 27.06.2022
2884 Mist 22 1016 74 10000 3.09 290 16:19 27.06.2022
2885 Mist 21 1016 72 10000 3.09 260 15:22 27.06.2022
2886 Clear 20 1016 77 10000 2.57 270 13:36 27.06.2022
2887 Clear 20 1016 74 10000 1.54 220 12:56 27.06.2022
2888 Clear 18 1017 77 10000 2.57 250 10:34 27.06.2022
2889 Clear 19 1017 76 10000 3.09 90 09:20 27.06.2022
2890 Clear 19 1017 73 10000 2.57 120 08:29 27.06.2022
2891 Clear 21 1015 67 10000 6.69 110 06:38 27.06.2022
2892 Clear 27 1014 52 10000 5.14 270 03:55 27.06.2022
2893 Clear 31 1014 46 10000 2.06 240 00:56 27.06.2022
2894 Fog 31 1015 48 10000 6.17 260 22:18 26.06.2022
2895 Haze 30 1015 49 10000 4.63 270 20:44 26.06.2022
2896 Haze 27 1015 61 10000 3.09 210 19:42 26.06.2022
2897 Haze 24 1016 68 10000 3.09 240 18:31 26.06.2022
2898 Mist 20 1015 78 9656 2.57 320 16:47 26.06.2022
2899 Mist 17 1015 86 9656 2.06 100 15:26 26.06.2022
2900 Mist 18 1014 73 10000 1.54 250 13:53 26.06.2022
2901 Mist 18 1014 77 10000 2.06 210 13:20 26.06.2022
2902 Mist 18 1014 75 10000 2.06 220 11:26 26.06.2022
2903 Mist 19 1014 77 10000 3.09 240 10:28 26.06.2022
2904 Clear 19 1015 75 10000 2.57 120 09:34 26.06.2022
2905 Clear 20 1014 73 10000 3.09 260 07:45 26.06.2022
2906 Clear 29 1012 45 10000 6.69 260 02:28 26.06.2022
2907 Clear 30 1012 42 10000 7.2 260 00:21 26.06.2022
2908 Clear 30 1013 42 10000 6.69 260 23:51 25.06.2022
2909 Clear 31 1013 43 10000 6.69 260 23:24 25.06.2022
2910 Clear 30 1013 42 10000 5.66 260 22:27 25.06.2022
2911 Clear 30 1013 44 10000 4.63 250 21:46 25.06.2022
2912 Clear 29 1013 43 10000 4.63 250 21:20 25.06.2022
2913 Clear 28 1013 45 10000 4.12 260 20:30 25.06.2022
2914 Clear 28 1014 47 10000 2.57 240 19:54 25.06.2022
2915 Clear 23 1014 61 10000 2.06 220 18:19 25.06.2022
2916 Haze 22 1014 66 8047 1.54 220 17:25 25.06.2022
2917 Mist 17 1013 85 8047 2.06 200 15:42 25.06.2022
2918 Mist 17 1013 69 10000 2.06 270 13:51 25.06.2022
2919 Mist 17 1012 75 8047 2.57 270 12:39 25.06.2022
2920 Mist 18 1013 75 6437 4.12 240 11:34 25.06.2022
2921 Mist 18 1013 69 10000 2.06 240 09:22 25.06.2022
2922 Mist 18 1013 72 10000 3.6 130 08:46 25.06.2022
2923 Mist 18 1013 71 10000 3.6 130 08:46 25.06.2022
2924 Clouds 19 1013 71 10000 4.63 260 08:19 25.06.2022
2925 Clear 24 1011 53 10000 6.17 250 05:26 25.06.2022
2926 Clear 30 1011 38 10000 6.69 260 00:44 25.06.2022
2927 Clear 30 1011 38 10000 6.69 260 00:44 25.06.2022
2928 Clear 32 1011 39 10000 7.2 270 23:18 24.06.2022
2929 Clear 32 1012 36 10000 4.63 270 21:57 24.06.2022
2930 Clear 31 1012 41 10000 5.14 250 21:19 24.06.2022
2931 Clear 29 1012 45 10000 4.12 260 20:20 24.06.2022
2932 Clear 27 1013 54 10000 3.6 260 19:23 24.06.2022
2933 Mist 26 1013 61 10000 3.09 260 18:50 24.06.2022
2934 Mist 25 1013 63 10000 3.09 260 18:30 24.06.2022
2935 Haze 24 1013 66 8047 3.09 200 17:46 24.06.2022
2936 Mist 19 1012 82 6437 3.09 260 15:56 24.06.2022
2937 Mist 18 1012 83 10000 2.06 260 14:29 24.06.2022
2938 Mist 18 1012 82 10000 1.54 250 13:55 24.06.2022
2939 Clear 18 1012 78 10000 3.09 250 12:26 24.06.2022
2940 Clear 18 1012 74 10000 3.09 260 11:40 24.06.2022
2941 Clear 19 1012 78 10000 2.57 120 10:22 24.06.2022
2942 Clear 19 1012 71 10000 4.12 120 09:41 24.06.2022
2943 Clear 20 1012 64 10000 2.57 230 08:52 24.06.2022
2944 Clear 21 1012 65 10000 4.12 240 07:33 24.06.2022
2945 Clear 22 1011 60 10000 6.17 260 06:42 24.06.2022
2946 Clear 23 1011 59 10000 6.17 260 06:18 24.06.2022
2947 Clear 28 1010 39 10000 7.2 260 03:33 24.06.2022
2948 Clear 31 1011 43 10000 3.6 210 22:59 23.06.2022
2949 Clear 31 1012 44 10000 5.66 260 22:40 23.06.2022
2950 Clear 30 1012 53 10000 1.54 0 20:58 23.06.2022
2951 Haze 29 1012 53 10000 4.63 260 20:35 23.06.2022
2952 Mist 27 1012 60 10000 4.63 210 19:34 23.06.2022
2953 Mist 24 1012 70 10000 2.57 260 17:52 23.06.2022
2954 Mist 23 1012 73 10000 2.06 230 17:23 23.06.2022
2955 Mist 18 1013 86 9656 3.6 230 15:50 23.06.2022
2956 Mist 18 1013 86 8047 3.6 230 15:24 23.06.2022
2957 Clouds 19 1012 76 10000 3.6 240 13:45 23.06.2022
2958 Clear 20 1012 74 10000 3.09 250 11:27 23.06.2022
2959 Clear 20 1013 71 10000 4.12 250 10:37 23.06.2022
2960 Clear 20 1013 73 10000 4.63 260 09:18 23.06.2022
2961 Clear 26 1012 53 10000 6.69 250 03:40 23.06.2022
2962 Clear 30 1012 50 10000 6.69 260 00:27 23.06.2022
2963 Clouds 28 1013 54 10000 6.69 260 23:41 22.06.2022
2964 Clear 28 1013 56 10000 5.14 260 22:48 22.06.2022
2965 Clear 28 1014 57 10000 5.14 260 22:48 22.06.2022
2966 Thunderstorm 27 1014 61 10000 5.14 250 21:22 22.06.2022
2967 Clouds 26 1014 68 8047 5.14 260 20:45 22.06.2022
2968 Clouds 25 1013 62 8047 3.09 290 19:58 22.06.2022
2969 Haze 24 1014 71 10000 4.12 270 18:50 22.06.2022
2970 Haze 21 1014 78 10000 4.63 280 17:29 22.06.2022
2971 Thunderstorm 19 1014 76 10000 4.63 270 16:37 22.06.2022
2972 Clouds 18 1013 83 10000 2.06 290 15:27 22.06.2022
2973 Thunderstorm 18 1013 83 10000 3.09 280 14:31 22.06.2022
2974 Rain 18 1013 77 10000 3.6 270 13:44 22.06.2022
2975 Mist 18 1013 75 10000 3.6 270 13:23 22.06.2022
2976 Clouds 19 1013 75 10000 3.6 250 11:50 22.06.2022
2977 Clear 19 1014 77 10000 3.6 270 10:58 22.06.2022
2978 Clouds 19 1014 78 10000 3.6 270 10:58 22.06.2022
2979 Clear 19 1014 77 10000 3.6 270 10:20 22.06.2022
2980 Clear 20 1014 72 10000 3.6 250 08:48 22.06.2022
2981 Clear 21 1014 65 10000 3.6 270 06:21 22.06.2022
2982 Clear 28 1012 47 10000 5.66 170 01:50 22.06.2022
2983 Clear 29 1012 44 10000 1.79 275 00:56 22.06.2022
2984 Clear 29 1013 44 10000 5.66 190 22:40 21.06.2022
2985 Clear 28 1013 47 10000 4.63 110 20:40 21.06.2022
2986 Clear 25 1013 54 10000 4.63 110 19:18 21.06.2022
2987 Clear 22 1013 72 10000 3.6 140 17:44 21.06.2022
2988 Clear 21 1012 78 10000 2.06 110 16:36 21.06.2022
2989 Clear 19 1011 62 10000 0 0 11:56 21.06.2022
2990 Clear 20 1011 61 10000 2.57 100 10:33 21.06.2022
2991 Clear 21 1011 59 10000 2.06 340 09:20 21.06.2022
2992 Clear 22 1010 56 10000 4.12 110 07:40 21.06.2022
2993 Clear 27 1009 38 10000 5.14 240 04:43 21.06.2022
2994 Clear 31 1011 30 10000 7.72 270 00:21 21.06.2022
2995 Clear 31 1012 31 10000 7.2 270 22:21 20.06.2022
2996 Clear 31 1012 30 10000 6.17 260 21:36 20.06.2022
2997 Clear 30 1013 31 10000 5.14 260 20:28 20.06.2022
2998 Clear 29 1013 38 10000 2.57 0 19:35 20.06.2022
2999 Clear 25 1014 43 10000 1.54 350 18:25 20.06.2022
3000 Clear 23 1014 56 10000 2.57 140 17:49 20.06.2022
3001 Clear 19 1013 63 10000 0 0 16:26 20.06.2022
3002 Smoke 18 1013 62 10000 2.06 320 15:20 20.06.2022
3003 Clear 18 1013 64 10000 1.54 100 12:18 20.06.2022
3004 Clear 18 1013 69 10000 1.54 100 10:21 20.06.2022
3005 Clear 18 1013 69 10000 1.54 100 10:21 20.06.2022
3006 Clear 18 1013 74 10000 2.57 200 08:54 20.06.2022
3007 Clear 19 1013 72 10000 2.57 240 07:52 20.06.2022
3008 Clear 21 1013 61 10000 4.12 140 05:21 20.06.2022
3009 Clear 25 1013 45 10000 7.2 230 01:33 20.06.2022
3010 Clear 26 1014 50 10000 4.12 260 23:57 19.06.2022
3011 Clear 25 1015 50 10000 7.72 260 22:43 19.06.2022
3012 Clear 25 1015 53 10000 6.17 240 21:45 19.06.2022
3013 Clear 25 1015 52 10000 6.17 240 21:26 19.06.2022
3014 Clear 24 1015 53 10000 6.17 240 20:30 19.06.2022
3015 Clear 23 1016 56 10000 4.63 250 19:46 19.06.2022
3016 Clear 21 1016 59 10000 2.57 250 18:42 19.06.2022
3017 Clear 20 1016 66 10000 1.54 240 17:48 19.06.2022
3018 Clear 19 1016 67 10000 1.54 240 17:21 19.06.2022
3019 Clear 17 1016 74 10000 1.54 30 16:34 19.06.2022
3020 Clear 16 1015 77 10000 2.06 0 15:38 19.06.2022
3021 Clear 15 1016 77 10000 1.54 330 14:56 19.06.2022
3022 Clear 15 1015 81 10000 0 0 13:58 19.06.2022
3023 Clear 15 1014 77 10000 0 0 12:56 19.06.2022
3024 Clear 16 1014 77 10000 2.06 180 10:54 19.06.2022
3025 Clear 16 1014 75 10000 3.09 210 09:40 19.06.2022
3026 Clear 17 1014 71 10000 3.09 220 08:47 19.06.2022
3027 Clear 17 1013 69 10000 4.12 240 07:51 19.06.2022
3028 Clear 19 1013 61 10000 5.66 240 05:36 19.06.2022
3029 Clear 23 1013 56 10000 8.23 260 01:29 19.06.2022
3030 Clear 24 1013 57 10000 7.2 260 00:24 19.06.2022
3031 Clear 24 1013 52 10000 7.2 260 23:36 18.06.2022
3032 Clear 24 1013 53 10000 7.2 240 22:36 18.06.2022
3033 Clear 23 1013 53 10000 2.68 276 20:57 18.06.2022
3034 Clear 22 1013 55 10000 4.63 250 20:38 18.06.2022
3035 Clouds 21 1013 61 10000 3.6 250 19:38 18.06.2022
3036 Clouds 20 1013 65 10000 2.57 170 18:45 18.06.2022
3037 Clouds 18 1013 72 10000 1.54 0 17:35 18.06.2022
3038 Clouds 17 1013 77 10000 0 0 16:56 18.06.2022
3039 Clouds 16 1012 82 10000 2.06 100 15:33 18.06.2022
3040 Clouds 15 1012 82 10000 1.54 140 14:45 18.06.2022
3041 Clear 15 1011 80 10000 1.54 100 13:30 18.06.2022
3042 Clear 15 1011 81 10000 2.57 230 11:56 18.06.2022
3043 Clear 15 1011 82 10000 0 0 10:55 18.06.2022
3044 Clear 16 1011 79 10000 3.09 230 09:27 18.06.2022
3045 Clear 17 1011 78 10000 4.12 230 08:30 18.06.2022
3046 Clear 17 1011 76 10000 5.14 240 07:20 18.06.2022
3047 Clear 21 1010 63 10000 6.69 240 03:47 18.06.2022
3048 Clouds 23 1010 60 10000 7.72 250 01:26 18.06.2022
3049 Clear 24 1010 61 10000 7.72 250 00:49 18.06.2022
3050 Clouds 24 1010 59 10000 5.66 210 23:59 17.06.2022
3051 Clouds 24 1010 57 10000 7.72 250 23:24 17.06.2022
3052 Clouds 23 1011 63 10000 4.63 260 21:33 17.06.2022
3053 Clouds 22 1011 70 10000 3.6 200 20:26 17.06.2022
3054 Haze 19 1011 80 10000 2.57 210 18:59 17.06.2022
3055 Mist 18 1011 80 10000 2.57 200 17:46 17.06.2022
3056 Clouds 18 1010 79 10000 3.09 150 16:43 17.06.2022
3057 Clouds 18 1010 81 10000 3.09 150 16:19 17.06.2022
3058 Mist 18 1010 81 10000 3.6 130 15:37 17.06.2022
3059 Mist 18 1010 85 10000 3.6 150 14:22 17.06.2022
3060 Mist 18 1010 85 10000 3.6 150 13:51 17.06.2022
3061 Haze 18 1010 83 10000 3.6 150 13:31 17.06.2022
3062 Clouds 18 1010 86 10000 4.12 160 12:20 17.06.2022
3063 Clouds 18 1009 85 10000 2.57 140 11:49 17.06.2022
3064 Clouds 18 1009 86 10000 2.57 140 11:30 17.06.2022
3065 Clouds 18 1010 86 10000 3.09 200 08:45 17.06.2022
3066 Mist 18 1010 86 10000 3.09 200 08:24 17.06.2022
3067 Haze 19 1009 87 10000 4.12 230 06:35 17.06.2022
3068 Clouds 23 1008 72 10000 6.17 260 03:25 17.06.2022
3069 Clear 26 1008 63 10000 7.2 250 01:27 17.06.2022
3070 Haze 27 1009 61 10000 6.69 260 23:34 16.06.2022
3071 Clear 27 1009 60 10000 5.66 260 22:40 16.06.2022
3072 Clear 26 1010 64 10000 4.63 260 21:21 16.06.2022
3073 Clouds 25 1010 65 10000 4.12 270 20:50 16.06.2022
3074 Haze 24 1010 68 10000 2.57 110 20:21 16.06.2022
3075 Haze 22 1010 73 10000 3.09 220 19:31 16.06.2022
3076 Haze 20 1010 80 9656 2.57 130 17:54 16.06.2022
3077 Haze 19 1010 82 8047 2.57 140 17:33 16.06.2022
3078 Haze 19 1010 84 9656 2.06 180 16:24 16.06.2022
3079 Mist 18 1009 86 10000 2.06 140 15:21 16.06.2022
3080 Mist 18 1009 86 10000 1.54 140 14:27 16.06.2022
3081 Clouds 18 1010 85 10000 0 0 12:59 16.06.2022
3082 Clouds 18 1009 86 10000 2.06 100 12:35 16.06.2022
3083 Haze 18 1010 85 10000 2.06 90 11:49 16.06.2022
3084 Haze 19 1011 84 10000 3.09 130 10:42 16.06.2022
3085 Haze 19 1011 85 10000 3.09 140 09:43 16.06.2022
3086 Haze 19 1011 85 10000 3.09 140 09:20 16.06.2022
3087 Clouds 19 1011 86 10000 0 0 07:57 16.06.2022
3088 Clouds 19 1010 83 10000 3.09 240 06:51 16.06.2022
3089 Clouds 22 1009 74 10000 5.66 120 04:33 16.06.2022
3090 Clear 27 1009 61 10000 6.17 240 01:54 16.06.2022
3091 Clear 27 1009 60 10000 6.17 240 01:34 16.06.2022
3092 Clear 28 1009 57 10000 6.17 250 00:38 16.06.2022
3093 Clear 28 1009 57 10000 6.17 250 23:25 15.06.2022
3094 Clear 28 1010 57 10000 5.66 260 22:35 15.06.2022
3095 Clear 27 1010 60 10000 4.63 260 21:21 15.06.2022
3096 Clear 25 1011 60 10000 4.63 220 20:38 15.06.2022
3097 Clear 25 1011 64 10000 4.63 220 20:19 15.06.2022
3098 Clouds 22 1011 73 10000 1.54 250 19:19 15.06.2022
3099 Haze 19 1011 84 10000 2.57 190 17:55 15.06.2022
3100 Clouds 18 1012 86 10000 1.54 90 16:55 15.06.2022
3101 Mist 18 1010 86 10000 2.06 130 15:36 15.06.2022
3102 Clear 17 1009 87 10000 1.54 140 13:44 15.06.2022
3103 Clear 17 1009 87 10000 1.54 250 12:54 15.06.2022
3104 Clear 17 1009 86 10000 1.54 240 11:53 15.06.2022
3105 Clear 18 1010 83 10000 1.54 110 10:24 15.06.2022
3106 Clear 18 1010 83 10000 2.57 140 09:42 15.06.2022
3107 Clear 18 1011 83 10000 3.09 130 08:37 15.06.2022
3108 Clear 20 1009 78 10000 4.12 130 06:34 15.06.2022
3109 Clear 23 1009 67 10000 4.63 250 04:34 15.06.2022
3110 Clear 26 1010 59 10000 4.63 210 01:54 15.06.2022
3111 Haze 26 1011 59 4828 6.69 260 00:50 15.06.2022
3112 Clear 26 1011 58 10000 6.69 260 23:39 14.06.2022
3113 Clear 26 1011 57 10000 6.69 260 23:19 14.06.2022
3114 Clear 26 1012 56 10000 6.17 260 22:23 14.06.2022
3115 Clear 24 1012 58 10000 5.14 250 21:38 14.06.2022
3116 Clear 24 1012 61 10000 0.45 218 20:54 14.06.2022
3117 Clouds 23 1012 62 10000 4.12 240 20:28 14.06.2022
3118 Clouds 22 1013 66 10000 3.09 220 19:20 14.06.2022
3119 Clouds 20 1013 71 10000 3.09 120 18:20 14.06.2022
3120 Clouds 18 1012 80 10000 1.54 200 16:47 14.06.2022
3121 Clouds 18 1012 83 10000 2.06 170 15:50 14.06.2022
3122 Clouds 18 1012 83 10000 2.06 170 15:50 14.06.2022
3123 Clouds 17 1012 84 10000 2.06 170 15:28 14.06.2022
3124 Clouds 17 1011 83 10000 1.54 190 14:37 14.06.2022
3125 Clouds 17 1011 84 10000 2.06 80 13:46 14.06.2022
3126 Clouds 17 1011 83 10000 1.54 110 12:48 14.06.2022
3127 Clouds 17 1011 85 10000 3.09 130 11:41 14.06.2022
3128 Clouds 17 1011 84 10000 3.6 120 10:49 14.06.2022
3129 Clouds 17 1011 84 10000 3.6 120 10:49 14.06.2022
3130 Clouds 17 1011 83 10000 1.54 70 10:24 14.06.2022
3131 Haze 18 1011 82 10000 5.14 120 08:49 14.06.2022
3132 Clear 18 1011 83 10000 4.12 160 07:50 14.06.2022
3133 Clear 20 1010 78 10000 2.57 210 05:56 14.06.2022
3134 Clear 23 1010 67 10000 6.17 250 03:20 14.06.2022
3135 Clouds 25 1011 63 10000 6.69 270 01:31 14.06.2022
3136 Clouds 25 1011 63 10000 6.17 230 23:51 13.06.2022
3137 Clouds 25 1012 62 10000 6.17 240 22:27 13.06.2022
3138 Clouds 25 1012 62 10000 6.17 230 21:59 13.06.2022
3139 Clouds 23 1012 64 10000 4.12 170 20:43 13.06.2022
3140 Clouds 21 1012 69 10000 3.09 130 19:39 13.06.2022
3141 Clouds 20 1012 74 10000 3.09 140 18:45 13.06.2022
3142 Drizzle 19 1012 79 10000 2.57 90 17:52 13.06.2022
3143 Drizzle 19 1012 81 10000 2.57 90 17:18 13.06.2022
3144 Mist 18 1011 83 10000 3.09 110 15:53 13.06.2022
3145 Drizzle 18 1011 83 10000 3.09 90 14:47 13.06.2022
3146 Clouds 18 1011 82 10000 1.54 90 13:59 13.06.2022
3147 Clouds 18 1010 83 10000 3.09 110 13:23 13.06.2022
3148 Clouds 18 1011 83 10000 2.06 130 11:45 13.06.2022
3149 Clouds 18 1011 83 10000 3.6 150 10:36 13.06.2022
3150 Clouds 18 1011 82 10000 3.09 170 09:42 13.06.2022
3151 Clear 18 1011 83 10000 2.57 170 08:30 13.06.2022
3152 Clear 19 1011 78 10000 3.6 260 06:34 13.06.2022
3153 Clear 22 1009 68 10000 5.14 230 04:23 13.06.2022
3154 Clear 26 1010 54 10000 6.17 250 01:44 13.06.2022
3155 Clear 27 1010 53 10000 6.17 250 01:18 13.06.2022
3156 Clear 26 1011 56 10000 5.66 180 23:41 12.06.2022
3157 Clear 26 1012 59 10000 5.66 180 22:34 12.06.2022
3158 Haze 26 1012 61 9656 5.14 260 21:45 12.06.2022
3159 Haze 26 1012 62 10000 4.63 250 20:49 12.06.2022
3160 Haze 25 1012 67 10000 3.6 250 19:49 12.06.2022
3161 Haze 24 1011 68 9656 1.54 260 18:54 12.06.2022
3162 Haze 20 1012 80 6437 2.06 120 17:24 12.06.2022
3163 Mist 17 1011 88 8047 2.06 130 15:45 12.06.2022
3164 Mist 17 1011 85 10000 2.57 110 14:50 12.06.2022
3165 Mist 17 1011 85 9656 2.57 110 14:18 12.06.2022
3166 Mist 17 1011 85 10000 2.06 90 13:45 12.06.2022
3167 Mist 17 1011 85 10000 3.09 110 12:28 12.06.2022
3168 Clear 18 1012 81 10000 3.09 250 10:46 12.06.2022
3169 Clear 18 1012 80 10000 3.09 250 09:42 12.06.2022
3170 Clear 19 1012 81 10000 3.09 260 08:50 12.06.2022
3171 Clear 19 1012 78 10000 3.09 260 08:29 12.06.2022
3172 Clear 21 1012 72 10000 5.14 130 06:27 12.06.2022
3173 Clear 24 1012 57 10000 6.17 130 04:26 12.06.2022
3174 Clear 27 1012 55 10000 5.66 250 02:27 12.06.2022
3175 Clear 27 1012 54 10000 6.17 170 01:35 12.06.2022
3176 Clear 28 1013 53 10000 6.17 250 00:48 12.06.2022
3177 Clear 28 1012 53 10000 6.17 250 00:19 12.06.2022
3178 Clear 28 1013 56 10000 6.17 170 23:21 11.06.2022
3179 Haze 28 1013 55 10000 6.17 240 22:37 11.06.2022
3180 Haze 28 1013 55 10000 6.17 270 21:31 11.06.2022
3181 Haze 27 1013 59 10000 4.63 260 20:27 11.06.2022
3182 Haze 25 1014 69 10000 2.57 240 19:37 11.06.2022
3183 Haze 23 1014 69 6437 3.09 250 18:50 11.06.2022
3184 Haze 22 1014 72 8047 3.09 250 18:31 11.06.2022
3185 Haze 21 1013 82 8047 2.06 270 17:49 11.06.2022
3186 Haze 20 1013 84 8047 2.06 210 17:26 11.06.2022
3187 Mist 19 1013 90 6437 2.06 250 16:44 11.06.2022
3188 Mist 19 1013 89 6437 2.06 250 16:25 11.06.2022
3189 Haze 17 1013 92 10000 2.06 250 15:18 11.06.2022
3190 Clear 17 1013 88 10000 0 0 13:52 11.06.2022
3191 Mist 17 1013 85 10000 1.54 210 12:19 11.06.2022
3192 Mist 18 1014 87 10000 3.6 120 10:40 11.06.2022
3193 Clouds 18 1014 87 10000 3.09 120 09:42 11.06.2022
3194 Clouds 18 1014 86 10000 3.6 260 08:45 11.06.2022
3195 Clouds 20 1013 78 10000 5.14 120 06:47 11.06.2022
3196 Clear 21 1013 75 10000 2.57 290 05:58 11.06.2022
3197 Clear 25 1012 64 10000 5.14 160 03:45 11.06.2022
3198 Clear 27 1012 58 10000 5.66 260 01:52 11.06.2022
3199 Clear 28 1012 56 10000 5.66 260 01:26 11.06.2022
3200 Haze 29 1013 56 10000 5.14 250 23:29 10.06.2022
3201 Haze 28 1013 57 9656 5.66 270 22:29 10.06.2022
3202 Haze 27 1013 63 8047 4.63 190 21:47 10.06.2022
3203 Haze 25 1014 68 6437 4.63 120 20:39 10.06.2022
3204 Haze 25 1014 68 6437 4.63 120 20:39 10.06.2022
3205 Haze 25 1014 69 6437 4.63 120 20:21 10.06.2022
3206 Haze 24 1014 73 6437 5.14 120 19:19 10.06.2022
3207 Haze 23 1013 76 6437 3.6 210 18:55 10.06.2022
3208 Haze 22 1012 74 6437 2.57 230 17:55 10.06.2022
3209 Haze 21 1012 77 6437 3.09 250 17:32 10.06.2022
3210 Haze 20 1012 82 4828 2.57 290 16:47 10.06.2022
3211 Mist 17 1011 92 4828 2.06 0 15:40 10.06.2022
3212 Mist 17 1011 93 8047 0 0 14:34 10.06.2022
3213 Mist 17 1011 89 8047 1.54 250 13:23 10.06.2022
3214 Mist 17 1011 90 9656 0 0 11:59 10.06.2022
3215 Mist 18 1011 88 9656 2.06 150 11:25 10.06.2022
3216 Mist 18 1011 85 8047 2.06 140 10:35 10.06.2022
3217 Mist 18 1012 84 8047 2.57 140 09:21 10.06.2022
3218 Mist 19 1012 86 9656 1.54 240 07:57 10.06.2022
3219 Mist 19 1011 85 9656 4.12 130 06:49 10.06.2022
3220 Mist 19 1011 84 9656 4.12 130 06:30 10.06.2022
3221 Mist 20 1010 81 8047 4.63 130 05:31 10.06.2022
3222 Clear 25 1009 65 10000 4.63 280 02:46 10.06.2022
3223 Clear 27 1009 58 10000 5.14 260 01:37 10.06.2022
3224 Clear 28 1010 58 10000 4.63 230 23:58 09.06.2022
3225 Haze 28 1010 57 10000 5.66 250 22:43 09.06.2022
3226 Haze 27 1010 57 10000 4.63 240 21:44 09.06.2022
3227 Haze 27 1010 57 10000 4.63 240 21:25 09.06.2022
3228 Haze 26 1011 59 10000 3.09 250 20:40 09.06.2022
3229 Haze 24 1011 66 10000 2.06 190 19:51 09.06.2022
3230 Haze 20 960 77 9656 3.09 60 18:41 09.06.2022
3231 Haze 18 959 84 8047 2.57 120 17:55 09.06.2022
3232 Mist 18 1011 86 8047 3.09 140 16:28 09.06.2022
3233 Mist 17 1010 87 10000 3.09 20 15:40 09.06.2022
3234 Mist 17 1009 88 10000 2.57 150 14:33 09.06.2022
3235 Mist 17 1009 89 10000 2.57 120 13:44 09.06.2022
3236 Mist 17 1009 88 10000 2.57 120 13:20 09.06.2022
3237 Haze 17 1009 87 10000 3.6 130 11:43 09.06.2022
3238 Mist 17 1010 86 10000 4.12 140 10:36 09.06.2022
3239 Mist 17 1010 85 10000 4.12 150 09:40 09.06.2022
3240 Mist 17 1010 84 10000 4.12 150 09:21 09.06.2022
3241 Clouds 18 1009 85 10000 3.09 110 07:29 09.06.2022
3242 Clouds 21 1008 75 10000 5.66 130 04:47 09.06.2022
3243 Clear 26 1008 62 10000 5.14 250 01:42 09.06.2022
3244 Clear 26 1009 62 10000 5.66 180 23:24 08.06.2022
3245 Clear 25 1010 66 10000 5.14 270 22:45 08.06.2022
3246 Haze 25 1010 66 10000 4.63 260 22:25 08.06.2022
3247 Haze 24 1011 66 9656 5.66 260 21:45 08.06.2022
3248 Haze 24 1011 69 10000 4.12 270 20:33 08.06.2022
3249 Haze 21 1011 76 10000 4.12 260 19:47 08.06.2022
3250 Haze 19 1012 85 9656 3.6 150 18:49 08.06.2022
3251 Haze 19 1012 83 9656 3.6 150 18:22 08.06.2022
3252 Haze 18 1011 85 8047 2.57 20 16:30 08.06.2022
3253 Mist 18 1011 86 10000 1.54 140 14:49 08.06.2022
3254 Clouds 18 1010 86 10000 0.89 277 12:55 08.06.2022
3255 Clouds 18 1010 86 10000 0.89 277 12:55 08.06.2022
3256 Haze 18 1011 85 10000 3.09 140 11:50 08.06.2022
3257 Haze 18 1011 85 10000 3.09 140 11:22 08.06.2022
3258 Clouds 18 1012 86 10000 1.54 180 09:46 08.06.2022
3259 Clouds 18 1011 85 10000 3.09 130 09:19 08.06.2022
3260 Clear 18 1012 84 10000 3.09 130 07:32 08.06.2022
3261 Clear 20 1010 78 10000 4.12 140 05:20 08.06.2022
3262 Clear 25 1010 64 10000 5.14 260 02:28 08.06.2022
3263 Clear 26 1010 61 10000 5.14 250 23:42 07.06.2022
3264 Clear 26 1010 62 10000 5.14 250 23:24 07.06.2022
3265 Clear 26 1011 63 10000 5.14 260 22:39 07.06.2022
3266 Clouds 25 1011 63 10000 4.63 230 21:52 07.06.2022
3267 Clear 25 1011 64 10000 4.63 230 21:27 07.06.2022
3268 Clear 24 1011 67 10000 4.63 240 20:46 07.06.2022
3269 Clear 24 1011 67 10000 4.12 250 20:23 07.06.2022
3270 Haze 22 1011 73 9656 3.6 110 19:19 07.06.2022
3271 Haze 19 1012 84 9656 3.09 120 17:55 07.06.2022
3272 Haze 18 1011 86 6437 2.57 150 16:56 07.06.2022
3273 Haze 18 1011 86 9656 2.57 160 16:33 07.06.2022
3274 Mist 18 1011 86 10000 2.06 180 15:40 07.06.2022
3275 Mist 18 1011 85 10000 2.06 180 15:22 07.06.2022
3276 Haze 18 1010 86 10000 2.57 180 14:46 07.06.2022
3277 Clouds 18 1010 82 10000 2.57 140 13:50 07.06.2022
3278 Clouds 18 1010 83 10000 2.06 130 13:29 07.06.2022
3279 Clouds 17 1010 87 10000 0 0 12:39 07.06.2022
3280 Clouds 18 1010 86 10000 1.54 250 10:57 07.06.2022
3281 Clear 18 1010 85 10000 0 0 09:58 07.06.2022
3282 Clear 19 1010 83 10000 3.09 130 08:36 07.06.2022
3283 Clear 19 1010 81 10000 4.12 130 07:22 07.06.2022
3284 Clear 20 1009 77 10000 4.63 250 05:48 07.06.2022
3285 Clear 25 1009 65 10000 6.17 260 02:48 07.06.2022
3286 Clear 26 1010 61 10000 6.17 250 00:35 07.06.2022
3287 Clear 26 1010 59 10000 6.17 240 23:34 06.06.2022
3288 Clear 25 1011 62 10000 5.14 260 22:41 06.06.2022
3289 Clear 25 1011 59 10000 5.14 230 21:43 06.06.2022
3290 Clear 24 1012 64 10000 6.17 250 20:19 06.06.2022
3291 Clear 22 1012 67 10000 2.57 200 19:23 06.06.2022
3292 Clouds 21 1012 72 10000 3.09 170 18:46 06.06.2022
3293 Clouds 20 1012 76 10000 3.09 0 17:52 06.06.2022
3294 Clouds 18 1012 80 10000 3.09 90 16:48 06.06.2022
3295 Clouds 17 1012 83 10000 2.57 80 15:40 06.06.2022
3296 Clouds 17 1012 85 10000 3.6 100 14:57 06.06.2022
3297 Clouds 17 1011 87 10000 3.09 130 13:37 06.06.2022
3298 Clouds 17 1011 88 10000 4.12 110 12:44 06.06.2022
3299 Clouds 17 1011 87 10000 4.12 110 12:26 06.06.2022
3300 Clouds 17 1011 87 10000 2.57 140 11:45 06.06.2022
3301 Clear 18 1012 85 10000 2.06 0 09:46 06.06.2022
3302 Clear 19 1012 84 10000 2.57 170 08:36 06.06.2022
3303 Clear 19 1012 83 10000 4.12 180 07:43 06.06.2022
3304 Clear 19 1011 79 10000 4.12 110 06:44 06.06.2022
3305 Clear 22 1011 71 10000 4.12 210 04:36 06.06.2022
3306 Clear 25 1011 59 10000 5.14 240 01:30 06.06.2022
3307 Clear 25 1011 59 10000 6.69 230 00:55 06.06.2022
3308 Clear 25 1012 58 10000 6.69 230 00:33 06.06.2022
3309 Clear 25 1012 59 10000 1.54 0 22:58 05.06.2022
3310 Clear 24 1012 58 10000 5.14 240 22:19 05.06.2022
3311 Clouds 22 1013 63 10000 3.09 0 20:23 05.06.2022
3312 Clouds 20 1014 71 10000 2.06 230 18:57 05.06.2022
3313 Clouds 19 1014 72 10000 2.57 230 18:18 05.06.2022
3314 Clouds 19 1014 75 10000 2.57 200 17:38 05.06.2022
3315 Clouds 18 1013 78 10000 2.57 200 17:20 05.06.2022
3316 Clouds 17 1013 81 10000 0 0 16:47 05.06.2022
3317 Clouds 16 1013 86 10000 1.54 200 15:25 05.06.2022
3318 Clouds 16 1013 86 10000 0 0 14:21 05.06.2022
3319 Clouds 16 1013 87 10000 2.06 90 11:59 05.06.2022
3320 Clear 16 1013 84 10000 2.57 110 10:45 05.06.2022
3321 Clear 16 1013 84 10000 3.09 130 10:24 05.06.2022
3322 Clouds 16 1014 84 10000 2.57 100 09:42 05.06.2022
3323 Clouds 17 1014 83 10000 2.06 170 08:25 05.06.2022
3324 Clouds 17 1013 82 10000 3.09 240 06:25 05.06.2022
3325 Clouds 18 1013 80 10000 4.12 250 05:19 05.06.2022
3326 Clouds 21 1013 72 10000 5.66 250 02:48 05.06.2022
3327 Clouds 22 1013 68 10000 6.69 250 01:24 05.06.2022
3328 Clouds 22 1014 67 10000 5.14 240 23:36 04.06.2022
3329 Clouds 20 1014 71 10000 4.12 240 21:31 04.06.2022
3330 Clouds 19 1014 75 10000 3.6 130 19:46 04.06.2022
3331 Clouds 18 1013 78 10000 2.57 130 17:28 04.06.2022
3332 Clouds 17 1013 81 10000 3.09 100 16:22 04.06.2022
3333 Clouds 17 1013 81 10000 3.09 140 15:51 04.06.2022
3334 Clouds 17 1012 82 10000 2.57 100 14:22 04.06.2022
3335 Clouds 17 1012 84 10000 1.54 140 11:48 04.06.2022
3336 Clouds 17 1012 85 10000 0 0 10:57 04.06.2022
3337 Clouds 17 1013 84 10000 2.06 170 10:20 04.06.2022
3338 Clouds 17 1012 84 10000 2.57 130 09:41 04.06.2022
3339 Clouds 17 1012 83 10000 3.6 180 08:40 04.06.2022
3340 Clouds 17 1012 82 10000 3.09 230 07:27 04.06.2022
3341 Clouds 19 1011 75 10000 4.63 250 04:33 04.06.2022
3342 Clouds 19 1011 75 10000 4.63 250 04:33 04.06.2022
3343 Clouds 19 1011 75 10000 5.14 260 04:33 04.06.2022
3344 Clouds 19 1011 75 10000 5.14 260 04:33 04.06.2022
3345 Clouds 19 1011 75 10000 4.63 250 04:33 04.06.2022
3346 Clear 24 1011 61 10000 5.14 240 00:48 04.06.2022
3347 Clear 24 1011 60 10000 6.69 270 23:31 03.06.2022
3348 Clear 23 1011 62 10000 7.2 250 22:30 03.06.2022
3349 Clouds 21 1012 70 10000 1.54 210 20:52 03.06.2022
3350 Clouds 20 1012 71 10000 2.57 190 20:27 03.06.2022
3351 Clouds 17 1011 80 10000 2.57 160 17:39 03.06.2022
3352 Clouds 17 1011 81 10000 2.57 170 16:37 03.06.2022
3353 Clouds 17 1011 84 10000 2.57 100 15:18 03.06.2022
3354 Clouds 17 1010 86 10000 1.54 0 12:56 03.06.2022
3355 Clouds 17 1011 83 10000 2.57 230 10:54 03.06.2022
3356 Clouds 17 1011 83 10000 3.09 160 09:38 03.06.2022
3357 Clouds 17 1011 83 10000 2.57 170 08:45 03.06.2022
3358 Clouds 17 1011 83 10000 3.6 120 07:26 03.06.2022
3359 Clouds 17 1011 83 10000 4.12 170 06:32 03.06.2022
3360 Clouds 18 1010 78 10000 5.66 250 05:35 03.06.2022
3361 Clear 25 1010 58 10000 8.23 230 00:28 03.06.2022
3362 Clear 26 1010 54 10000 5.66 260 22:41 02.06.2022
3363 Clear 26 1011 56 10000 4.63 250 21:40 02.06.2022
3364 Clear 24 1011 60 10000 4.12 220 20:22 02.06.2022
3365 Haze 22 1011 63 10000 3.6 190 19:46 02.06.2022
3366 Haze 22 1011 66 10000 3.6 190 19:28 02.06.2022
3367 Haze 18 1012 81 9656 2.06 120 17:32 02.06.2022
3368 Haze 17 1011 85 10000 2.57 110 16:27 02.06.2022
3369 Clouds 16 1011 86 10000 2.06 140 14:20 02.06.2022
3370 Clouds 16 1011 85 10000 2.06 180 13:29 02.06.2022
3371 Clouds 16 1010 86 10000 2.06 100 12:21 02.06.2022
3372 Clouds 16 1011 84 10000 3.6 140 10:20 02.06.2022
3373 Clouds 17 1011 83 10000 4.63 100 09:28 02.06.2022
3374 Clear 17 1011 81 10000 4.12 100 08:27 02.06.2022
3375 Clear 18 1011 80 10000 4.63 110 07:33 02.06.2022
3376 Clear 20 1010 73 10000 4.63 120 05:29 02.06.2022
3377 Clear 24 1009 62 10000 6.17 200 03:45 02.06.2022
3378 Clear 27 1010 53 10000 7.2 250 23:52 01.06.2022
3379 Clear 28 1011 51 10000 5.14 270 22:54 01.06.2022
3380 Clear 27 1011 51 10000 4.12 240 21:39 01.06.2022
3381 Clear 26 1011 54 10000 4.12 240 21:20 01.06.2022
3382 Clear 26 1012 54 10000 4.12 260 20:37 01.06.2022
3383 Clear 23 1012 58 10000 2.57 160 19:31 01.06.2022
3384 Clear 20 1012 69 10000 0 0 17:57 01.06.2022
3385 Clear 17 1012 81 10000 1.54 100 16:41 01.06.2022
3386 Clear 15 1011 83 10000 1.54 90 15:37 01.06.2022
3387 Clear 15 1011 78 10000 0 0 13:57 01.06.2022
3388 Clear 16 1011 73 10000 1.54 260 12:29 01.06.2022
3389 Clear 16 1011 79 10000 2.06 230 10:37 01.06.2022
3390 Clear 17 1011 78 10000 2.57 120 09:25 01.06.2022
3391 Clear 17 1011 78 10000 0 0 07:56 01.06.2022
3392 Clear 18 1010 74 10000 3.09 130 06:41 01.06.2022
3393 Clear 24 1009 51 10000 5.14 240 01:30 01.06.2022
3394 Clear 25 1010 53 10000 6.17 270 23:41 31.05.2022
3395 Clear 24 1010 54 10000 6.17 250 22:38 31.05.2022
3396 Haze 23 1011 58 10000 6.17 250 21:46 31.05.2022
3397 Clear 23 1011 61 10000 0.89 233 20:57 31.05.2022
3398 Clear 22 1011 62 10000 5.14 260 20:33 31.05.2022
3399 Clear 20 1010 64 10000 0.89 303 18:57 31.05.2022
3400 Clouds 19 1011 72 10000 3.09 0 18:19 31.05.2022
3401 Haze 18 1011 74 10000 3.6 120 17:35 31.05.2022
3402 Haze 15 1010 80 8047 2.57 100 15:42 31.05.2022
3403 Clear 14 1009 79 10000 1.54 110 14:36 31.05.2022
3404 Clear 15 1009 78 10000 2.06 100 12:39 31.05.2022
3405 Clear 15 1009 78 10000 2.06 100 12:18 31.05.2022
3406 Clear 15 1009 78 10000 0 0 09:53 31.05.2022
3407 Clear 16 1009 74 10000 3.09 190 07:42 31.05.2022
3408 Clear 18 1008 68 10000 4.63 140 05:25 31.05.2022
3409 Clear 22 1009 56 10000 7.72 250 02:51 31.05.2022
3410 Clear 23 1009 60 10000 6.69 250 23:39 30.05.2022
3411 Clear 23 1010 61 10000 6.69 250 23:18 30.05.2022
3412 Clear 23 1010 60 10000 7.2 240 22:32 30.05.2022
3413 Clear 23 1010 61 10000 6.69 230 21:37 30.05.2022
3414 Clear 22 1011 57 10000 5.66 260 20:41 30.05.2022
3415 Clear 21 1011 62 10000 4.12 250 19:40 30.05.2022
3416 Clouds 18 1011 70 10000 2.57 170 17:48 30.05.2022
3417 Clouds 17 1011 74 10000 2.57 170 17:20 30.05.2022
3418 Clouds 15 1010 84 10000 2.57 80 15:51 30.05.2022
3419 Clouds 15 1009 84 10000 2.57 150 13:21 30.05.2022
3420 Clouds 15 1010 83 10000 3.6 110 11:30 30.05.2022
3421 Clear 16 1011 78 10000 1.54 100 09:45 30.05.2022
3422 Clear 17 1009 75 10000 4.12 110 07:34 30.05.2022
3423 Clear 18 1009 75 10000 0 0 05:54 30.05.2022
3424 Clear 21 1008 62 10000 6.17 210 03:22 30.05.2022
3425 Clear 23 1010 57 10000 5.14 270 00:18 30.05.2022
3426 Clear 22 1010 57 10000 6.17 150 22:40 29.05.2022
3427 Clear 22 1010 59 10000 5.66 270 21:44 29.05.2022
3428 Clear 21 1011 66 10000 5.14 240 20:21 29.05.2022
3429 Clouds 20 1011 67 10000 4.63 270 19:28 29.05.2022
3430 Clouds 18 1010 73 10000 0 0 17:56 29.05.2022
3431 Clouds 15 1010 83 10000 1.54 130 16:22 29.05.2022
3432 Clouds 15 1009 85 10000 2.06 180 15:43 29.05.2022
3433 Clouds 14 1009 87 10000 2.06 150 14:54 29.05.2022
3434 Clear 14 1010 84 10000 1.54 150 12:33 29.05.2022
3435 Clouds 15 1011 84 10000 2.57 100 11:20 29.05.2022
3436 Clear 15 1011 84 10000 1.54 130 10:29 29.05.2022
3437 Clear 16 1012 83 10000 0 0 07:59 29.05.2022
3438 Clouds 17 1012 77 10000 5.66 270 04:58 29.05.2022
3439 Clouds 18 1012 76 10000 5.66 270 04:36 29.05.2022
3440 Clouds 20 1013 66 10000 6.17 250 01:28 29.05.2022
3441 Clouds 20 1014 64 10000 5.66 260 23:48 28.05.2022
3442 Clouds 20 1014 65 10000 5.66 260 23:19 28.05.2022
3443 Clouds 19 1015 69 10000 4.12 250 21:53 28.05.2022
3444 Clouds 19 1015 72 10000 3.09 250 20:58 28.05.2022
3445 Clouds 18 1016 75 10000 3.09 250 19:20 28.05.2022
3446 Clouds 17 1015 77 10000 2.06 280 18:24 28.05.2022
3447 Clouds 16 1015 80 10000 2.57 140 17:33 28.05.2022
3448 Clouds 16 1014 83 10000 2.06 140 15:56 28.05.2022
3449 Clouds 16 1014 83 10000 2.57 260 15:38 28.05.2022
3450 Clouds 15 1014 86 10000 2.57 250 13:38 28.05.2022
3451 Clouds 15 1014 88 10000 3.6 240 12:43 28.05.2022
3452 Clear 15 1014 88 10000 3.6 230 11:37 28.05.2022
3453 Clear 15 1014 86 10000 3.09 220 10:39 28.05.2022
3454 Clear 15 1014 86 10000 0 0 09:55 28.05.2022
3455 Clouds 15 1015 79 10000 5.66 240 08:33 28.05.2022
3456 Clear 16 1015 79 10000 5.66 260 06:50 28.05.2022
3457 Clear 17 1015 74 10000 5.66 240 05:24 28.05.2022
3458 Clear 21 1015 64 10000 7.72 250 02:27 28.05.2022
3459 Clear 23 1016 58 10000 2.57 0 23:59 27.05.2022
3460 Clouds 23 1017 57 10000 5.14 260 22:49 27.05.2022
3461 Clear 22 1017 60 10000 5.14 220 21:35 27.05.2022
3462 Clouds 21 1018 63 10000 4.63 270 20:46 27.05.2022
3463 Clouds 20 1018 65 10000 4.63 270 20:21 27.05.2022
3464 Clouds 19 1018 66 10000 3.6 250 19:38 27.05.2022
3465 Clouds 18 1018 70 10000 3.09 0 19:20 27.05.2022
3466 Clouds 17 1017 76 10000 2.57 250 17:26 27.05.2022
3467 Clouds 16 1016 80 10000 1.54 280 15:57 27.05.2022
3468 Clouds 16 1016 79 10000 2.57 340 15:20 27.05.2022
3469 Clouds 16 1016 82 10000 3.09 340 13:41 27.05.2022
3470 Clouds 16 1016 81 10000 4.12 280 12:28 27.05.2022
3471 Clouds 16 1016 81 10000 3.09 250 11:31 27.05.2022
3472 Clouds 16 1016 82 10000 2.57 230 10:47 27.05.2022
3473 Clouds 16 1016 82 10000 2.57 230 10:22 27.05.2022
3474 Clouds 16 1017 80 10000 2.06 250 09:31 27.05.2022
3475 Clouds 16 1017 80 10000 4.12 270 07:41 27.05.2022
3476 Clear 17 1016 76 10000 5.14 250 05:27 27.05.2022
3477 Clear 22 1014 64 10000 7.72 250 01:47 27.05.2022
3478 Clear 23 1014 63 10000 6.69 250 23:55 26.05.2022
3479 Clear 24 1014 62 10000 6.17 250 22:29 26.05.2022
3480 Haze 24 1014 62 10000 5.14 230 21:34 26.05.2022
3481 Haze 22 1014 67 10000 3.6 260 19:51 26.05.2022
3482 Haze 21 1014 69 10000 3.6 260 19:19 26.05.2022
3483 Haze 18 1014 76 9656 1.54 0 17:36 26.05.2022
3484 Haze 17 1014 81 8047 2.06 220 16:36 26.05.2022
3485 Haze 16 1013 80 8047 2.57 240 15:41 26.05.2022
3486 Haze 16 1013 85 9656 2.06 0 14:21 26.05.2022
3487 Clouds 16 1013 85 10000 1.54 250 12:36 26.05.2022
3488 Clouds 16 1013 85 10000 2.06 250 11:23 26.05.2022
3489 Clouds 16 1013 78 10000 3.6 260 09:40 26.05.2022
3490 Clear 16 1014 77 10000 3.6 260 09:19 26.05.2022
3491 Clouds 16 1013 83 10000 2.06 210 07:51 26.05.2022
3492 Clear 20 1011 72 10000 5.14 250 03:53 26.05.2022
3493 Haze 24 1012 60 10000 6.17 180 00:33 26.05.2022
3494 Haze 25 1012 59 8047 4.63 260 23:39 25.05.2022
3495 Haze 24 1012 60 8047 5.66 270 21:56 25.05.2022
3496 Haze 24 1012 62 8047 5.66 270 21:31 25.05.2022
3497 Haze 24 1012 63 9656 5.14 260 20:35 25.05.2022
3498 Haze 23 1012 66 8047 4.63 260 19:21 25.05.2022
3499 Haze 19 1012 76 6437 3.09 250 17:40 25.05.2022
3500 Haze 17 1011 82 6437 1.54 0 16:37 25.05.2022
3501 Haze 16 1011 88 6437 0 0 15:54 25.05.2022
3502 Haze 15 1011 85 10000 1.54 340 14:51 25.05.2022
3503 Mist 15 1011 85 8047 1.54 340 14:33 25.05.2022
3504 Haze 16 1011 84 8047 1.54 50 13:45 25.05.2022
3505 Haze 16 1011 84 8047 2.06 40 12:38 25.05.2022
3506 Mist 16 1011 83 8047 2.57 120 10:43 25.05.2022
3507 Mist 16 1011 84 8047 2.57 130 09:54 25.05.2022
3508 Clear 16 1011 84 10000 0.89 233 08:37 25.05.2022
3509 Clear 16 1011 86 10000 1.9 218 07:23 25.05.2022
3510 Clear 19 1010 73 10000 4.63 250 04:22 25.05.2022
3511 Clear 24 1009 60 10000 6.17 240 00:19 25.05.2022
3512 Clear 24 1010 60 10000 5.66 270 23:43 24.05.2022
3513 Clear 24 1011 60 10000 5.66 280 22:33 24.05.2022
3514 Clear 24 1011 61 10000 4.12 250 21:41 24.05.2022
3515 Clear 23 1011 62 10000 4.12 250 21:21 24.05.2022
3516 Clear 22 1011 64 10000 3.6 250 20:23 24.05.2022
3517 Haze 19 1011 69 8047 2.06 220 18:56 24.05.2022
3518 Haze 19 1011 69 8047 2.06 220 18:56 24.05.2022
3519 Haze 16 1011 79 8047 1.54 60 16:58 24.05.2022
3520 Haze 16 1011 81 8047 2.06 340 16:28 24.05.2022
3521 Clouds 15 1010 85 10000 0 0 14:59 24.05.2022
3522 Clouds 15 1011 82 10000 2.57 110 14:25 24.05.2022
3523 Clouds 15 1010 83 10000 1.54 0 13:18 24.05.2022
3524 Clouds 15 1011 82 10000 2.57 130 11:49 24.05.2022
3525 Clouds 15 1012 82 10000 2.57 150 09:47 24.05.2022
3526 Clouds 15 1012 81 10000 3.6 130 08:51 24.05.2022
3527 Clouds 16 1012 82 10000 0 0 06:58 24.05.2022
3528 Clouds 17 1011 78 10000 2.57 270 04:59 24.05.2022
3529 Clear 20 1011 67 10000 6.17 260 02:42 24.05.2022
3530 Clear 21 1011 66 10000 5.14 270 01:43 24.05.2022
3531 Clouds 21 1012 63 10000 4.63 230 23:44 23.05.2022
3532 Clouds 20 1013 63 10000 4.12 260 22:22 23.05.2022
3533 Clouds 19 1014 70 10000 4.12 230 21:41 23.05.2022
3534 Haze 17 1014 75 10000 4.63 210 20:45 23.05.2022
3535 Clouds 16 1014 79 10000 3.6 160 19:44 23.05.2022
3536 Clouds 16 1014 79 10000 3.6 160 19:18 23.05.2022
3537 Haze 16 1014 76 10000 2.57 0 18:37 23.05.2022
3538 Clouds 15 1014 81 10000 0 0 17:56 23.05.2022
3539 Haze 14 1014 84 10000 2.06 160 15:54 23.05.2022
3540 Clouds 14 1014 87 10000 0 0 13:56 23.05.2022
3541 Clear 14 1015 86 10000 2.06 240 11:41 23.05.2022
3542 Clear 14 1015 85 10000 2.06 250 10:44 23.05.2022
3543 Clear 14 1015 78 10000 1.54 230 09:47 23.05.2022
3544 Clear 14 1016 84 10000 2.57 270 08:46 23.05.2022
3545 Clear 14 1016 84 10000 2.57 270 08:46 23.05.2022
3546 Clear 15 1016 81 10000 3.6 240 06:49 23.05.2022
3547 Clear 15 1016 80 10000 3.6 240 06:31 23.05.2022
3548 Clear 20 1014 64 10000 7.2 250 02:55 23.05.2022
3549 Clear 21 1015 62 10000 6.69 230 01:52 23.05.2022
3550 Clear 21 1015 61 10000 6.69 230 01:26 23.05.2022
3551 Clear 22 1016 64 10000 6.69 240 22:49 22.05.2022
3552 Clear 21 1016 64 10000 6.69 240 22:22 22.05.2022
3553 Clear 21 1016 66 10000 5.66 260 21:51 22.05.2022
3554 Clouds 21 1016 66 10000 5.14 270 20:43 22.05.2022
3555 Clouds 20 1017 67 10000 5.14 270 20:22 22.05.2022
3556 Clouds 19 1017 69 10000 5.14 260 19:19 22.05.2022
3557 Clear 18 1017 72 10000 3.09 260 18:46 22.05.2022
3558 Clear 18 1017 74 10000 3.09 260 18:21 22.05.2022
3559 Mist 15 1017 84 10000 2.06 260 16:57 22.05.2022
3560 Mist 13 1016 87 10000 2.06 260 15:34 22.05.2022
3561 Clear 13 1016 89 10000 3.09 270 14:47 22.05.2022
3562 Clear 14 1016 86 10000 2.57 260 13:21 22.05.2022
3563 Clear 14 1016 87 10000 2.06 260 12:45 22.05.2022
3564 Clear 14 1016 89 10000 0 0 10:55 22.05.2022
3565 Clear 15 1017 83 10000 3.09 260 09:38 22.05.2022
3566 Clouds 15 1017 82 10000 3.6 250 07:52 22.05.2022
3567 Clouds 16 1017 82 10000 3.6 250 07:20 22.05.2022
3568 Clouds 17 1015 77 10000 5.14 250 04:49 22.05.2022
3569 Clear 21 1014 61 10000 6.17 260 01:20 22.05.2022
3570 Clouds 21 1014 59 10000 6.17 250 00:26 22.05.2022
3571 Clouds 21 1015 59 10000 5.66 230 23:47 21.05.2022
3572 Clouds 20 1015 64 10000 5.14 250 22:24 21.05.2022
3573 Clouds 19 1015 67 10000 4.63 230 21:39 21.05.2022
3574 Clouds 19 1015 70 10000 3.6 240 20:48 21.05.2022
3575 Clouds 19 1015 71 10000 3.6 240 20:21 21.05.2022
3576 Clouds 18 1014 74 10000 4.12 210 19:25 21.05.2022
3577 Clouds 17 1013 82 10000 2.57 130 17:38 21.05.2022
3578 Clouds 15 1012 86 10000 2.57 250 15:44 21.05.2022
3579 Clouds 15 1012 87 10000 2.06 200 14:37 21.05.2022
3580 Clouds 15 1012 87 10000 2.06 260 13:41 21.05.2022
3581 Clouds 15 1012 87 10000 2.06 260 12:41 21.05.2022
3582 Clouds 15 1012 88 10000 3.09 240 11:56 21.05.2022
3583 Clouds 16 1012 84 10000 2.57 240 10:22 21.05.2022
3584 Clouds 16 1012 83 10000 2.57 240 09:38 21.05.2022
3585 Clouds 16 1012 85 10000 2.57 230 08:52 21.05.2022
3586 Clouds 16 1011 86 10000 2.08 202 06:28 21.05.2022
3587 Haze 17 1010 83 10000 3.6 250 03:48 21.05.2022
3588 Clouds 19 1010 73 10000 5.66 270 23:50 20.05.2022
3589 Clouds 19 1010 69 10000 6.17 140 22:42 20.05.2022
3590 Clouds 19 1010 71 10000 6.17 140 22:23 20.05.2022
3591 Clouds 19 1010 70 10000 4.63 140 21:41 20.05.2022
3592 Clouds 18 1009 70 10000 4.12 130 20:54 20.05.2022
3593 Clouds 18 1010 76 10000 3.6 110 19:58 20.05.2022
3594 Clouds 17 1010 78 10000 3.6 110 19:26 20.05.2022
3595 Clouds 16 1009 80 10000 2.57 0 18:36 20.05.2022
3596 Haze 15 1009 87 10000 2.06 140 16:54 20.05.2022
3597 Haze 15 1009 85 10000 2.06 140 16:19 20.05.2022
3598 Clouds 15 1008 86 10000 3.09 130 15:44 20.05.2022
3599 Mist 14 1008 89 10000 3.6 150 14:30 20.05.2022
3600 Mist 14 1008 90 10000 3.6 110 13:55 20.05.2022
3601 Mist 15 1009 87 10000 4.12 140 11:34 20.05.2022
3602 Clouds 15 1010 85 10000 4.12 120 09:52 20.05.2022
3603 Clouds 15 1010 85 10000 3.09 140 08:44 20.05.2022
3604 Mist 16 1010 80 10000 3.6 200 06:50 20.05.2022
3605 Mist 16 1010 81 10000 3.6 200 06:31 20.05.2022
3606 Mist 17 1011 81 10000 5.14 190 04:42 20.05.2022
3607 Haze 20 1011 68 10000 6.17 190 00:48 20.05.2022
3608 Haze 19 1012 71 9656 4.63 250 22:47 19.05.2022
3609 Haze 20 1012 71 9656 4.12 250 22:20 19.05.2022
3610 Haze 18 1013 75 10000 3.6 240 21:48 19.05.2022
3611 Haze 19 1013 74 10000 3.6 240 21:22 19.05.2022
3612 Haze 18 1014 81 10000 2.57 270 20:34 19.05.2022
3613 Haze 16 1014 85 10000 2.57 80 19:50 19.05.2022
3614 Haze 16 1014 83 10000 2.06 220 18:22 19.05.2022
3615 Haze 15 1014 84 10000 0.45 269 16:51 19.05.2022
3616 Mist 15 1013 81 10000 2.57 0 15:19 19.05.2022
3617 Clouds 15 1013 86 10000 2.57 150 14:25 19.05.2022
3618 Haze 15 1013 85 9656 1.54 140 13:23 19.05.2022
3619 Haze 15 1014 85 9656 2.06 110 11:29 19.05.2022
3620 Clouds 15 1015 85 10000 2.06 170 09:29 19.05.2022
3621 Clouds 16 1015 85 10000 2.57 240 07:52 19.05.2022
3622 Clear 16 1015 81 10000 4.12 130 06:18 19.05.2022
3623 Clear 16 1015 80 10000 4.12 130 06:18 19.05.2022
3624 Clear 22 1014 64 10000 6.17 270 02:27 19.05.2022
3625 Clear 23 1014 60 10000 6.69 260 00:40 19.05.2022
3626 Clouds 22 1015 61 10000 5.14 270 22:51 18.05.2022
3627 Clear 22 1015 61 10000 5.14 270 22:24 18.05.2022
3628 Clear 21 1016 65 10000 4.63 260 21:30 18.05.2022
3629 Clouds 19 1016 71 10000 4.63 270 20:50 18.05.2022
3630 Clouds 19 1017 70 10000 4.63 270 20:18 18.05.2022
3631 Clouds 19 1017 71 10000 4.63 270 20:18 18.05.2022
3632 Haze 16 1017 79 10000 2.06 100 18:33 18.05.2022
3633 Haze 16 1017 79 10000 2.06 100 18:33 18.05.2022
3634 Haze 16 1017 80 10000 2.57 130 17:41 18.05.2022
3635 Haze 16 1017 79 10000 2.57 130 17:23 18.05.2022
3636 Haze 15 1016 82 10000 2.57 170 16:34 18.05.2022
3637 Clouds 15 1016 80 10000 3.09 170 15:42 18.05.2022
3638 Clouds 15 1015 86 10000 2.57 140 14:48 18.05.2022
3639 Haze 15 1015 85 10000 3.09 90 13:44 18.05.2022
3640 Clouds 15 1015 84 10000 2.57 110 12:51 18.05.2022
3641 Clouds 15 1016 84 10000 1.54 230 11:37 18.05.2022
3642 Clouds 15 1016 84 10000 1.54 230 11:19 18.05.2022
3643 Clear 14 1015 86 10000 2.06 250 09:56 18.05.2022
3644 Clear 15 1015 78 10000 2.57 240 07:54 18.05.2022
3645 Clear 16 1015 79 10000 2.57 250 06:49 18.05.2022
3646 Clear 21 1014 66 10000 5.66 260 02:23 18.05.2022
3647 Clear 22 1015 61 10000 6.69 260 00:26 18.05.2022
3648 Clouds 22 1015 58 10000 5.66 240 22:47 17.05.2022
3649 Clouds 20 1016 65 10000 4.12 240 21:20 17.05.2022
3650 Clouds 19 1016 69 10000 3.09 150 20:30 17.05.2022
3651 Clouds 17 1016 74 10000 3.09 150 19:29 17.05.2022
3652 Haze 16 1016 79 10000 3.09 130 17:53 17.05.2022
3653 Haze 16 1016 79 10000 3.09 130 17:22 17.05.2022
3654 Haze 15 1015 79 4828 3.09 130 16:34 17.05.2022
3655 Clouds 15 1014 83 10000 3.6 90 15:43 17.05.2022
3656 Smoke 15 1014 79 10000 1.54 190 14:31 17.05.2022
3657 Clouds 15 1014 84 10000 2.06 330 13:54 17.05.2022
3658 Clouds 15 1014 82 10000 0 0 12:32 17.05.2022
3659 Clear 15 1014 78 10000 2.57 180 09:53 17.05.2022
3660 Clear 15 1014 77 10000 2.06 140 08:44 17.05.2022
3661 Clear 16 1013 74 10000 2.57 170 07:40 17.05.2022
3662 Clear 18 1012 72 10000 4.63 260 04:33 17.05.2022
3663 Clear 23 1013 62 10000 6.17 190 00:47 17.05.2022
3664 Clear 22 1014 59 10000 6.17 260 22:45 16.05.2022
3665 Clear 22 1014 62 10000 6.17 260 22:18 16.05.2022
3666 Clear 22 1014 63 10000 2.57 220 20:56 16.05.2022
3667 Clear 21 1014 63 10000 5.14 240 20:24 16.05.2022
3668 Clouds 19 1015 69 10000 3.09 180 18:39 16.05.2022
3669 Clouds 16 1015 79 10000 2.57 120 16:41 16.05.2022
3670 Clouds 15 1013 83 10000 3.6 130 14:48 16.05.2022
3671 Clouds 16 1014 83 10000 3.6 130 13:27 16.05.2022
3672 Clouds 15 1014 86 10000 3.09 140 12:34 16.05.2022
3673 Clear 16 1014 80 10000 2.57 140 10:34 16.05.2022
3674 Clear 17 1014 73 10000 4.12 110 07:47 16.05.2022
3675 Clear 20 1012 54 10000 4.12 110 05:40 16.05.2022
3676 Clear 27 1013 42 10000 6.69 260 00:44 16.05.2022
3677 Fog 27 1013 45 10000 5.66 260 22:42 15.05.2022
3678 Clear 28 1013 37 10000 4.12 210 21:57 15.05.2022
3679 Clear 28 1013 37 10000 6.69 250 21:36 15.05.2022
3680 Clear 27 1013 38 10000 3.6 150 20:38 15.05.2022
3681 Clear 24 1013 47 10000 2.06 0 18:39 15.05.2022
3682 Clear 20 1013 57 10000 0 0 16:54 15.05.2022
3683 Clear 18 1012 59 10000 1.54 260 14:29 15.05.2022
3684 Clear 19 1012 57 10000 2.06 260 13:45 15.05.2022
3685 Clear 20 1013 54 10000 0 0 11:55 15.05.2022
3686 Clear 20 1013 51 10000 0 0 10:47 15.05.2022
3687 Clear 21 1013 47 10000 2.57 230 09:51 15.05.2022
3688 Clear 23 1013 39 10000 2.06 250 07:23 15.05.2022
3689 Clear 23 1012 37 10000 2.06 230 06:55 15.05.2022
3690 Clear 28 1012 29 10000 5.66 250 03:38 15.05.2022
3691 Clear 32 1013 22 10000 5.14 270 00:26 15.05.2022
3692 Clear 31 1013 24 10000 5.66 270 23:37 14.05.2022
3693 Clear 31 1014 30 10000 4.63 260 21:51 14.05.2022
3694 Clear 31 1014 29 10000 4.63 260 21:26 14.05.2022
3695 Clear 30 1014 29 10000 5.66 260 20:28 14.05.2022
3696 Clear 28 1015 25 10000 1.54 140 19:21 14.05.2022
3697 Clear 28 1015 27 10000 0.45 9 18:58 14.05.2022
3698 Clear 24 1015 38 10000 2.06 120 17:53 14.05.2022
3699 Clear 19 1014 61 10000 2.57 110 16:23 14.05.2022
3700 Clear 19 1014 50 10000 2.06 90 14:41 14.05.2022
3701 Clear 19 1014 51 10000 2.06 90 14:22 14.05.2022
3702 Clear 19 1014 40 10000 2.57 80 11:48 14.05.2022
3703 Clear 19 1014 42 10000 3.09 90 10:45 14.05.2022
3704 Clear 19 1014 43 10000 3.09 90 10:19 14.05.2022
3705 Clear 20 1014 40 10000 2.06 310 09:34 14.05.2022
3706 Clear 21 1014 46 10000 1.54 220 07:43 14.05.2022
3707 Clear 24 1013 37 10000 4.12 200 05:21 14.05.2022
3708 Clear 29 1014 24 10000 5.14 210 01:57 14.05.2022
3709 Clear 29 1015 27 10000 6.69 260 23:28 13.05.2022
3710 Clear 30 1015 25 10000 1.34 201 22:56 13.05.2022
3711 Clear 30 1016 21 10000 4.63 270 22:22 13.05.2022
3712 Clear 28 1016 24 10000 4.63 260 21:24 13.05.2022
3713 Clear 28 1017 24 10000 4.12 260 20:43 13.05.2022
3714 Clear 28 1017 24 10000 4.12 260 20:43 13.05.2022
3715 Clear 27 1017 25 10000 4.12 260 20:22 13.05.2022
3716 Clear 25 1017 29 10000 3.09 270 19:21 13.05.2022
3717 Clear 22 1017 29 10000 3.09 10 17:50 13.05.2022
3718 Clear 21 1017 30 10000 3.09 10 17:24 13.05.2022
3719 Clear 18 1016 43 10000 0 0 15:53 13.05.2022
3720 Clear 17 1016 45 10000 1.54 130 14:47 13.05.2022
3721 Clear 18 1016 37 10000 0 0 12:58 13.05.2022
3722 Clear 18 1016 44 10000 1.54 120 12:25 13.05.2022
3723 Clear 18 1017 39 10000 2.57 110 10:35 13.05.2022
3724 Clear 19 1017 40 10000 2.57 300 09:29 13.05.2022
3725 Clear 19 1018 40 10000 2.06 230 08:20 13.05.2022
3726 Clear 19 1018 41 10000 2.57 220 07:31 13.05.2022
3727 Clear 20 1017 39 10000 5.66 260 05:58 13.05.2022
3728 Clear 26 1018 26 10000 10.29 270 01:49 13.05.2022
3729 Clear 25 1019 26 10000 7.2 260 23:44 12.05.2022
3730 Clear 26 1020 25 10000 6.17 260 22:43 12.05.2022
3731 Smoke 25 1020 24 10000 4.63 260 21:46 12.05.2022
3732 Clear 24 1021 25 10000 3.6 260 20:23 12.05.2022
3733 Clear 21 1021 30 10000 2.57 110 18:41 12.05.2022
3734 Clear 17 1022 41 10000 0 0 16:58 12.05.2022
3735 Clear 14 1021 48 10000 3.09 0 15:50 12.05.2022
3736 Clear 13 1021 46 10000 2.57 40 14:20 12.05.2022
3737 Clear 13 1021 47 10000 2.06 50 13:24 12.05.2022
3738 Clear 15 1021 44 10000 3.09 320 10:43 12.05.2022
3739 Clear 15 1021 39 10000 5.66 310 09:19 12.05.2022
3740 Clear 15 1021 40 10000 7.2 270 08:41 12.05.2022
3741 Clear 16 1021 40 10000 7.72 280 07:37 12.05.2022
3742 Clear 17 1020 35 10000 8.75 280 05:35 12.05.2022
3743 Clear 19 1020 37 10000 12.35 270 02:49 12.05.2022
3744 Clear 20 1019 35 10000 11.32 270 00:33 12.05.2022
3745 Clear 20 1020 32 10000 10.8 280 22:33 11.05.2022
3746 Clear 19 1020 33 10000 8.75 260 21:33 11.05.2022
3747 Clear 19 1020 36 10000 6.69 330 20:55 11.05.2022
3748 Clear 16 1020 46 10000 4.63 330 18:27 11.05.2022
3749 Clear 13 1019 62 10000 1.54 50 16:51 11.05.2022
3750 Clear 13 1019 62 10000 1.54 50 16:51 11.05.2022
3751 Clear 10 1018 71 10000 0 0 14:58 11.05.2022
3752 Clear 11 1018 65 10000 1.54 360 14:38 11.05.2022
3753 Clear 11 1018 66 10000 1.54 360 14:18 11.05.2022
3754 Clear 11 1017 74 10000 2.57 110 11:52 11.05.2022
3755 Clear 12 1018 71 10000 2.06 90 10:32 11.05.2022
3756 Clear 12 1018 64 10000 3.09 240 08:40 11.05.2022
3757 Clear 14 1017 61 10000 10.29 260 05:28 11.05.2022
3758 Clear 20 1018 39 10000 9.77 250 00:43 11.05.2022
3759 Clear 20 1018 43 10000 7.2 260 22:31 10.05.2022
3760 Clear 20 1018 46 10000 3.58 292 21:56 10.05.2022
3761 Clear 19 1019 47 10000 4.63 260 20:57 10.05.2022
3762 Clear 18 1018 48 10000 3.6 220 19:37 10.05.2022
3763 Clear 16 1018 57 10000 0 0 17:58 10.05.2022
3764 Clear 15 1018 60 10000 1.54 130 17:21 10.05.2022
3765 Clear 11 1017 72 10000 0 0 15:31 10.05.2022
3766 Clear 11 1016 76 10000 2.06 90 12:45 10.05.2022
3767 Clear 11 1016 76 10000 1.54 50 11:51 10.05.2022
3768 Clear 11 1016 77 10000 1.54 110 11:20 10.05.2022
3769 Clear 12 1016 74 10000 1.54 10 10:53 10.05.2022
3770 Clear 12 1015 70 10000 3.09 280 09:26 10.05.2022
3771 Clear 13 1015 69 10000 6.69 270 07:22 10.05.2022
3772 Clear 17 1014 52 10000 3.6 260 03:57 10.05.2022
3773 Clear 19 1014 49 10000 7.2 260 01:18 10.05.2022
3774 Clear 19 1015 51 10000 2.57 250 22:57 09.05.2022
3775 Clear 19 1015 51 10000 6.69 250 21:51 09.05.2022
3776 Clear 19 1015 50 10000 4.63 240 20:54 09.05.2022
3777 Clouds 18 1015 52 10000 3.09 210 19:29 09.05.2022
3778 Clear 16 1015 62 10000 3.09 0 17:52 09.05.2022
3779 Clouds 13 1014 66 10000 3.6 340 16:38 09.05.2022
3780 Smoke 12 1014 67 10000 3.09 20 15:52 09.05.2022
3781 Smoke 12 1013 71 10000 3.09 20 15:27 09.05.2022
3782 Smoke 12 1013 77 10000 2.06 350 14:31 09.05.2022
3783 Clear 12 1012 79 10000 2.57 40 13:50 09.05.2022
3784 Clear 12 1012 77 10000 3.09 50 12:26 09.05.2022
3785 Clear 13 1012 76 10000 2.57 70 11:43 09.05.2022
3786 Clear 13 1012 74 10000 2.57 100 10:44 09.05.2022
3787 Clouds 13 1012 75 10000 4.12 90 09:38 09.05.2022
3788 Clear 14 1012 77 10000 3.09 130 07:54 09.05.2022
3789 Clear 18 1011 61 10000 9.26 260 03:40 09.05.2022
3790 Clear 19 1012 61 10000 8.23 250 00:21 09.05.2022
3791 Clear 19 1012 62 10000 5.14 170 22:57 08.05.2022
3792 Clouds 19 1012 62 10000 6.17 220 22:22 08.05.2022
3793 Clouds 18 1013 70 10000 5.14 190 20:37 08.05.2022
3794 Clouds 18 1013 73 10000 3.6 240 19:53 08.05.2022
3795 Clouds 17 1012 76 10000 4.12 200 18:57 08.05.2022
3796 Haze 17 1012 77 9656 4.12 200 18:24 08.05.2022
3797 Clouds 16 1012 83 10000 2.57 240 16:59 08.05.2022
3798 Clouds 15 1011 82 10000 3.09 260 15:41 08.05.2022
3799 Clouds 15 1011 82 10000 3.09 260 15:20 08.05.2022
3800 Clouds 15 1011 82 10000 3.09 260 15:20 08.05.2022
3801 Clouds 16 1011 79 10000 1.54 290 12:41 08.05.2022
3802 Clouds 16 1011 77 10000 2.06 360 10:34 08.05.2022
3803 Clouds 15 1011 78 10000 0 0 09:59 08.05.2022
3804 Clear 16 1012 76 10000 2.57 170 09:33 08.05.2022
3805 Clear 16 1012 73 10000 5.66 120 07:33 08.05.2022
3806 Clear 19 1011 69 10000 5.14 210 04:24 08.05.2022
3807 Clear 20 1011 66 10000 5.66 190 03:20 08.05.2022
3808 Clear 23 1012 61 10000 6.17 260 00:29 08.05.2022
3809 Clear 24 1012 58 10000 5.66 240 23:53 07.05.2022
3810 Clear 23 1013 59 10000 5.14 250 22:57 07.05.2022
3811 Clear 23 1013 59 10000 5.14 250 22:33 07.05.2022
3812 Clear 23 1013 61 10000 5.14 260 21:44 07.05.2022
3813 Clear 22 1014 62 10000 2.57 250 20:56 07.05.2022
3814 Clear 21 1014 64 10000 2.57 0 19:59 07.05.2022
3815 Clouds 19 1014 73 10000 2.57 150 18:38 07.05.2022
3816 Clouds 15 1014 88 10000 0 0 15:58 07.05.2022
3817 Clouds 15 1013 85 10000 2.57 110 14:44 07.05.2022
3818 Clear 16 1013 84 10000 0 0 10:59 07.05.2022
3819 Clear 16 1014 82 10000 1.54 200 09:38 07.05.2022
3820 Clear 17 1014 77 10000 2.57 230 07:54 07.05.2022
3821 Clear 18 1014 74 10000 3.09 250 06:44 07.05.2022
3822 Clear 19 1013 66 10000 3.6 270 05:34 07.05.2022
3823 Clear 22 1013 55 10000 4.63 260 03:32 07.05.2022
3824 Clear 25 1015 54 10000 5.66 180 23:38 06.05.2022
3825 Clear 25 1015 54 10000 5.14 260 22:32 06.05.2022
3826 Clear 24 1015 55 10000 4.63 240 21:47 06.05.2022
3827 Clear 24 1016 52 10000 3.6 260 20:35 06.05.2022
3828 Clear 22 1015 56 10000 2.57 270 19:42 06.05.2022
3829 Clear 21 1015 59 10000 2.57 270 19:18 06.05.2022
3830 Haze 20 1016 67 9656 3.09 130 18:24 06.05.2022
3831 Haze 17 1015 78 10000 0 0 16:57 06.05.2022
3832 Clear 16 1015 77 10000 1.54 110 15:47 06.05.2022
3833 Clear 15 1015 72 10000 1.54 40 14:54 06.05.2022
3834 Clear 15 1015 80 10000 1.54 30 13:26 06.05.2022
3835 Clear 15 1015 79 10000 1.54 90 12:40 06.05.2022
3836 Clear 16 1015 73 10000 0 0 11:45 06.05.2022
3837 Clear 16 1016 77 10000 0 0 10:34 06.05.2022
3838 Clear 16 1016 75 10000 2.06 240 09:46 06.05.2022
3839 Clouds 17 1016 76 10000 3.09 250 08:43 06.05.2022
3840 Clouds 19 1016 68 10000 3.6 240 06:50 06.05.2022
3841 Fog 20 1015 65 10000 6.17 270 05:48 06.05.2022
3842 Clear 24 1015 50 10000 6.17 250 02:51 06.05.2022
3843 Clear 24 1015 51 10000 5.66 260 01:31 06.05.2022
3844 Clear 24 1016 59 10000 6.69 260 22:45 05.05.2022
3845 Haze 23 1017 60 9656 5.14 260 21:31 05.05.2022
3846 Haze 22 1017 64 8047 4.12 200 20:26 05.05.2022
3847 Haze 18 1017 83 6437 1.54 250 18:36 05.05.2022
3848 Mist 15 1016 87 6437 1.54 280 16:40 05.05.2022
3849 Mist 14 1015 89 8047 2.06 240 14:53 05.05.2022
3850 Mist 14 1015 86 10000 2.06 270 13:25 05.05.2022
3851 Clouds 15 1015 88 10000 2.06 260 12:53 05.05.2022
3852 Clear 15 1015 79 10000 1.54 250 10:52 05.05.2022
3853 Clear 16 1015 75 10000 2.06 170 09:40 05.05.2022
3854 Clear 17 1014 67 10000 4.12 250 07:36 05.05.2022
3855 Clear 20 1013 64 10000 3.6 240 05:42 05.05.2022
3856 Clear 24 1013 54 10000 0.89 229 01:59 05.05.2022
3857 Clear 25 1013 55 10000 6.69 250 01:32 05.05.2022
3858 Clear 26 1013 53 10000 1.34 300 23:53 04.05.2022
3859 Clear 25 1014 53 10000 5.66 270 22:46 04.05.2022
3860 Clear 24 1014 56 10000 4.63 260 21:54 04.05.2022
3861 Clear 24 1014 57 10000 4.63 260 21:29 04.05.2022
3862 Clear 22 1015 59 10000 3.6 210 20:27 04.05.2022
3863 Clear 22 1015 61 10000 1.34 196 19:55 04.05.2022
3864 Clear 20 1015 67 10000 2.57 210 19:24 04.05.2022
3865 Haze 18 1015 75 10000 2.06 0 18:22 04.05.2022
3866 Haze 17 1015 75 10000 1.54 0 17:58 04.05.2022
3867 Mist 14 1014 87 10000 2.06 100 15:42 04.05.2022
3868 Mist 13 1014 88 10000 2.06 100 15:24 04.05.2022
3869 Clouds 13 1013 86 10000 2.06 90 14:21 04.05.2022
3870 Clouds 13 1013 86 10000 1.54 0 13:49 04.05.2022
3871 Clear 14 1013 84 10000 0 0 12:34 04.05.2022
3872 Clear 14 1014 84 10000 0 0 10:43 04.05.2022
3873 Clear 14 1014 83 10000 1.54 0 09:45 04.05.2022
3874 Clear 15 1014 82 10000 1.54 200 08:49 04.05.2022
3875 Clear 15 1013 80 10000 1.54 200 07:33 04.05.2022
3876 Clear 20 1012 66 10000 3.09 260 02:59 04.05.2022
3877 Clear 21 1012 62 10000 7.2 260 01:41 04.05.2022
3878 Clouds 21 1013 62 10000 5.14 230 22:54 03.05.2022
3879 Clouds 20 1014 61 10000 4.12 260 21:47 03.05.2022
3880 Clouds 20 1014 64 10000 4.12 260 21:20 03.05.2022
3881 Clouds 19 1014 65 10000 4.63 130 20:38 03.05.2022
3882 Clouds 18 1014 70 10000 2.57 140 18:55 03.05.2022
3883 Clouds 18 1014 73 10000 2.06 130 18:37 03.05.2022
3884 Clouds 16 1014 77 10000 2.06 180 17:19 03.05.2022
3885 Clouds 15 1013 83 10000 2.06 140 15:48 03.05.2022
3886 Clouds 15 1012 83 10000 2.06 110 14:22 03.05.2022
3887 Clouds 15 1013 82 10000 2.06 150 12:31 03.05.2022
3888 Clouds 15 1013 82 10000 2.06 130 11:23 03.05.2022
3889 Clouds 14 1014 84 10000 0 0 10:25 03.05.2022
3890 Clear 14 1013 83 10000 1.54 150 08:18 03.05.2022
3891 Clear 15 1013 80 10000 3.09 270 06:45 03.05.2022
3892 Clouds 21 1012 63 10000 7.72 270 01:56 03.05.2022
3893 Clouds 22 1014 60 10000 5.66 230 22:47 02.05.2022
3894 Clouds 21 1014 61 10000 5.66 230 22:28 02.05.2022
3895 Clouds 20 1015 63 10000 5.14 220 21:27 02.05.2022
3896 Clouds 18 1016 72 10000 3.6 180 19:22 02.05.2022
3897 Clouds 17 1015 74 10000 3.09 200 18:25 02.05.2022
3898 Clouds 16 1015 77 10000 2.57 140 17:38 02.05.2022
3899 Clouds 16 1015 78 10000 3.09 0 16:37 02.05.2022
3900 Clouds 15 1014 76 10000 2.57 150 15:41 02.05.2022
3901 Clouds 15 1013 79 10000 3.6 190 14:27 02.05.2022
3902 Clouds 15 1013 76 10000 2.06 160 13:19 02.05.2022
3903 Clouds 16 1014 79 10000 2.57 120 11:41 02.05.2022
3904 Clouds 16 1014 79 10000 3.09 120 09:42 02.05.2022
3905 Clouds 16 1013 78 10000 3.6 150 08:20 02.05.2022
3906 Clouds 16 1012 75 10000 3.09 180 06:31 02.05.2022
3907 Clear 22 1010 59 10000 5.66 210 00:44 02.05.2022
3908 Clear 22 1010 59 10000 5.66 210 00:21 02.05.2022
3909 Clear 23 1010 60 10000 4.02 292 22:54 01.05.2022
3910 Clear 22 1011 57 10000 5.14 190 21:42 01.05.2022
3911 Clear 20 1011 62 10000 4.12 250 20:30 01.05.2022
3912 Clouds 19 1011 67 10000 3.09 0 19:21 01.05.2022
3913 Clouds 18 1010 71 10000 2.57 160 18:52 01.05.2022
3914 Clouds 17 1010 77 10000 2.57 150 17:49 01.05.2022
3915 Clouds 15 1010 82 10000 2.57 130 16:37 01.05.2022
3916 Mist 14 1009 85 10000 1.54 170 15:51 01.05.2022
3917 Mist 13 1009 84 10000 0 0 14:45 01.05.2022
3918 Mist 14 1009 83 10000 2.06 100 12:24 01.05.2022
3919 Clear 15 1011 78 10000 2.06 360 10:22 01.05.2022
3920 Clear 15 1011 77 10000 0 0 08:50 01.05.2022
3921 Clear 16 1011 68 10000 2.57 90 06:50 01.05.2022
3922 Clear 24 1010 50 10000 3.09 270 01:56 01.05.2022
3923 Clear 25 1012 48 10000 4.63 250 22:51 30.04.2022
3924 Clear 24 1013 50 10000 4.63 260 21:33 30.04.2022
3925 Clear 23 1014 53 10000 4.63 270 20:19 30.04.2022
3926 Clear 21 1013 57 10000 4.12 260 19:25 30.04.2022
3927 Clear 17 1014 73 10000 1.54 310 17:32 30.04.2022
3928 Clouds 13 1013 82 10000 0.31 164 15:53 30.04.2022
3929 Clear 13 1014 81 10000 0 0 15:19 30.04.2022
3930 Clear 13 1014 83 10000 0 0 14:19 30.04.2022
3931 Clear 13 1014 86 10000 0 0 11:58 30.04.2022
3932 Clear 14 1015 81 10000 0 0 11:31 30.04.2022
3933 Clear 14 1015 84 10000 1.54 100 10:25 30.04.2022
3934 Clear 15 1015 81 10000 3.09 130 08:25 30.04.2022
3935 Clear 17 1013 72 10000 2.06 260 04:58 30.04.2022
3936 Clear 23 1014 51 10000 6.69 250 00:25 30.04.2022
3937 Clear 23 1015 51 10000 3.6 200 22:56 29.04.2022
3938 Clear 21 1016 51 10000 6.17 260 22:21 29.04.2022
3939 Clear 20 1016 55 10000 6.17 260 21:26 29.04.2022
3940 Clear 19 1017 56 10000 3.6 230 20:24 29.04.2022
3941 Clouds 18 1017 61 10000 2.57 0 19:28 29.04.2022
3942 Haze 15 1017 76 8047 2.06 60 17:37 29.04.2022
3943 Clouds 13 1016 81 10000 2.06 70 16:43 29.04.2022
3944 Clouds 12 1016 82 10000 1.54 80 14:38 29.04.2022
3945 Clear 11 1015 82 10000 0 0 13:52 29.04.2022
3946 Clear 12 1015 82 10000 1.54 140 12:38 29.04.2022
3947 Clear 12 1015 82 10000 3.09 130 10:56 29.04.2022
3948 Clear 13 1015 78 10000 3.6 240 07:58 29.04.2022
3949 Clear 14 1015 77 10000 3.6 240 07:26 29.04.2022
3950 Clear 14 1015 75 10000 3.6 240 06:33 29.04.2022
3951 Clear 18 1014 62 10000 8.23 260 02:50 29.04.2022
3952 Clouds 19 1015 61 10000 6.69 260 00:18 29.04.2022
3953 Clouds 19 1015 62 10000 6.17 250 23:26 28.04.2022
3954 Clouds 19 1016 62 10000 6.17 250 22:37 28.04.2022
3955 Clouds 18 1016 65 10000 5.66 270 21:44 28.04.2022
3956 Clouds 17 1017 67 10000 6.69 250 20:49 28.04.2022
3957 Clouds 17 1016 68 10000 3.6 180 19:57 28.04.2022
3958 Clouds 17 1016 68 10000 3.6 180 19:39 28.04.2022
3959 Clouds 16 1016 69 10000 3.09 220 19:19 28.04.2022
3960 Clouds 15 1016 77 10000 3.09 80 17:56 28.04.2022
3961 Clouds 14 1015 81 10000 2.57 300 16:59 28.04.2022
3962 Haze 14 1015 79 10000 3.6 310 16:21 28.04.2022
3963 Clouds 14 1015 79 10000 4.12 260 15:56 28.04.2022
3964 Clouds 14 1015 81 10000 4.12 260 15:21 28.04.2022
3965 Clouds 14 1015 81 10000 3.6 90 13:43 28.04.2022
3966 Clouds 14 1015 78 10000 4.12 110 12:34 28.04.2022
3967 Clouds 14 1015 82 10000 3.6 130 11:51 28.04.2022
3968 Clouds 14 1015 83 10000 4.12 140 10:30 28.04.2022
3969 Clouds 14 1015 85 10000 2.06 180 09:51 28.04.2022
3970 Clouds 14 1015 84 10000 2.06 240 08:20 28.04.2022
3971 Clouds 15 1015 81 10000 0 0 06:56 28.04.2022
3972 Clear 15 1014 75 10000 0.89 157 05:54 28.04.2022
3973 Clear 17 1014 71 10000 4.63 270 04:44 28.04.2022
3974 Clear 19 1014 66 10000 5.66 210 03:40 28.04.2022
3975 Clouds 22 1014 59 10000 6.69 250 23:52 27.04.2022
3976 Clouds 22 1014 58 10000 4.63 130 22:34 27.04.2022
3977 Clouds 22 1015 56 10000 5.14 220 21:51 27.04.2022
3978 Clouds 21 1015 56 10000 2.57 100 20:56 27.04.2022
3979 Clouds 20 1015 59 10000 4.12 120 20:34 27.04.2022
3980 Clouds 20 1015 59 10000 4.12 120 20:34 27.04.2022
3981 Clouds 19 1015 63 10000 3.6 140 19:37 27.04.2022
3982 Clouds 18 1015 67 10000 5.14 80 18:52 27.04.2022
3983 Clouds 17 1015 71 10000 5.14 80 18:22 27.04.2022
3984 Haze 15 1014 77 9656 4.12 150 16:27 27.04.2022
3985 Clouds 13 1013 84 10000 3.09 110 14:26 27.04.2022
3986 Clear 14 1013 73 10000 3.09 200 11:45 27.04.2022
3987 Clear 14 1013 74 10000 3.09 200 11:20 27.04.2022
3988 Clear 16 1013 73 10000 6.69 230 08:58 27.04.2022
3989 Clear 16 1013 71 10000 3.09 260 07:18 27.04.2022
3990 Clear 20 1011 57 10000 4.12 240 04:21 27.04.2022
3991 Clear 24 1011 46 10000 5.66 260 01:31 27.04.2022
3992 Clear 25 1012 44 10000 5.66 260 00:36 27.04.2022
3993 Clear 26 1012 35 10000 4.63 210 23:25 26.04.2022
3994 Clear 26 1012 35 10000 0.89 299 22:58 26.04.2022
3995 Clear 26 1013 36 10000 5.14 270 22:39 26.04.2022
3996 Clear 25 1013 41 10000 4.12 140 21:35 26.04.2022
3997 Clear 24 1014 40 10000 4.12 150 20:41 26.04.2022
3998 Clear 23 1014 44 10000 2.57 100 19:53 26.04.2022
3999 Clear 22 1014 46 10000 2.57 100 19:32 26.04.2022
4000 Clear 20 1014 55 10000 2.06 100 18:45 26.04.2022
4001 Clear 19 1014 55 10000 0 0 17:59 26.04.2022
4002 Clear 16 1013 71 10000 2.57 80 16:49 26.04.2022
4003 Clear 16 1013 53 10000 2.06 80 14:27 26.04.2022
4004 Clear 17 1013 55 10000 1.54 90 13:33 26.04.2022
4005 Clear 17 1013 48 10000 2.06 170 11:55 26.04.2022
4006 Clear 18 1014 46 10000 1.54 210 10:37 26.04.2022
4007 Clear 19 1013 38 10000 2.06 230 09:25 26.04.2022
4008 Clear 21 1013 30 10000 3.09 280 07:38 26.04.2022
4009 Clear 24 1013 29 10000 5.14 260 04:33 26.04.2022
4010 Clear 28 1013 24 10000 7.72 260 01:30 26.04.2022
4011 Clear 28 1014 22 10000 6.17 250 00:26 26.04.2022
4012 Clear 29 1015 20 10000 7.2 260 22:36 25.04.2022
4013 Clear 30 1015 18 10000 5.14 260 21:42 25.04.2022
4014 Clear 29 1016 18 10000 3.6 120 20:40 25.04.2022
4015 Clear 26 1016 22 10000 1.54 0 18:58 25.04.2022
4016 Clear 23 1016 34 10000 2.06 70 17:54 25.04.2022
4017 Clear 20 1015 43 10000 1.54 30 16:59 25.04.2022
4018 Clear 17 1015 34 10000 2.06 50 15:29 25.04.2022
4019 Clear 17 1015 40 10000 2.57 50 14:46 25.04.2022
4020 Clear 18 1015 38 10000 2.06 40 13:35 25.04.2022
4021 Clear 18 1015 38 10000 2.57 80 11:43 25.04.2022
4022 Clear 19 1015 38 10000 1.54 90 10:26 25.04.2022
4023 Clear 19 1016 38 10000 3.09 240 08:46 25.04.2022
4024 Clear 21 1015 32 10000 5.14 270 06:45 25.04.2022
4025 Clear 23 1014 33 10000 8.75 260 04:33 25.04.2022
4026 Clear 28 1014 21 10000 4.63 190 00:58 25.04.2022
4027 Clear 30 1015 20 10000 5.66 240 23:51 24.04.2022
4028 Clear 29 1016 18 10000 4.63 250 22:49 24.04.2022
4029 Clear 29 1016 19 10000 4.63 250 22:29 24.04.2022
4030 Clear 28 1016 19 10000 4.12 220 21:41 24.04.2022
4031 Clear 28 1017 20 10000 4.12 220 21:18 24.04.2022
4032 Clear 27 1017 23 10000 2.06 160 20:35 24.04.2022
4033 Clear 26 1017 28 10000 2.06 0 19:48 24.04.2022
4034 Clear 22 1016 36 10000 2.57 80 18:20 24.04.2022
4035 Clear 19 1016 46 10000 2.06 10 17:29 24.04.2022
4036 Clear 19 1016 52 10000 0 0 16:59 24.04.2022
4037 Haze 16 1015 57 9656 2.06 80 16:35 24.04.2022
4038 Haze 16 1016 52 9656 0.45 74 15:55 24.04.2022
4039 Clear 16 1015 52 10000 4.12 220 15:31 24.04.2022
4040 Clear 16 1015 52 10000 4.12 220 15:31 24.04.2022
4041 Clear 16 1015 54 10000 0.45 341 13:58 24.04.2022
4042 Clear 16 1015 55 10000 1.54 100 13:25 24.04.2022
4043 Clear 16 1015 55 10000 1.54 100 13:25 24.04.2022
4044 Clear 17 1015 50 10000 2.06 70 12:32 24.04.2022
4045 Clear 17 1015 49 10000 4.12 280 11:33 24.04.2022
4046 Clear 17 1016 49 10000 2.57 290 10:27 24.04.2022
4047 Clear 18 1015 53 10000 3.6 260 09:26 24.04.2022
4048 Clear 18 1015 54 10000 2.57 270 06:45 24.04.2022
4049 Clear 21 1015 50 10000 7.72 250 03:55 24.04.2022
4050 Clear 22 1015 50 10000 7.2 240 01:38 24.04.2022
4051 Clear 22 1015 50 10000 7.2 240 01:38 24.04.2022
4052 Clear 22 1016 53 10000 9.26 260 00:29 24.04.2022
4053 Clear 22 1017 51 10000 7.2 260 23:44 23.04.2022
4054 Clear 22 1017 53 10000 6.17 250 23:21 23.04.2022
4055 Clear 22 1018 55 10000 4.63 270 21:51 23.04.2022
4056 Clear 21 1018 54 10000 4.63 270 21:33 23.04.2022
4057 Clear 20 1019 57 10000 4.12 260 20:51 23.04.2022
4058 Clear 18 1019 61 10000 1.54 0 19:47 23.04.2022
4059 Clear 18 1019 63 10000 1.54 0 19:19 23.04.2022
4060 Clear 17 1019 69 10000 2.06 0 18:52 23.04.2022
4061 Clouds 15 1019 79 10000 2.57 70 17:51 23.04.2022
4062 Clouds 14 1019 79 10000 2.57 70 17:26 23.04.2022
4063 Clouds 13 1019 78 10000 2.06 130 16:41 23.04.2022
4064 Clouds 11 1019 84 10000 3.09 60 15:20 23.04.2022
4065 Clear 11 1018 80 10000 3.09 100 12:44 23.04.2022
4066 Clear 12 1018 79 10000 3.09 70 10:44 23.04.2022
4067 Clear 12 1018 79 10000 2.57 70 09:33 23.04.2022
4068 Clear 14 1017 76 10000 5.66 260 06:32 23.04.2022
4069 Clear 16 1016 64 10000 2.57 250 03:54 23.04.2022
4070 Clear 18 1015 59 10000 3.09 250 00:57 23.04.2022
4071 Clear 18 1016 59 10000 12.35 250 23:29 22.04.2022
4072 Clear 18 1017 61 10000 12.35 250 22:20 22.04.2022
4073 Clouds 18 1017 60 10000 11.32 260 21:43 22.04.2022
4074 Clouds 17 1017 65 10000 11.32 270 20:47 22.04.2022
4075 Clouds 17 1017 66 10000 11.32 270 20:27 22.04.2022
4076 Clouds 16 1017 69 10000 8.75 270 19:20 22.04.2022
4077 Clear 15 1016 73 10000 4.63 260 18:41 22.04.2022
4078 Clouds 14 1016 79 10000 4.63 270 17:40 22.04.2022
4079 Clouds 13 1015 84 10000 5.14 280 16:46 22.04.2022
4080 Clouds 12 1015 88 10000 9.77 270 15:42 22.04.2022
4081 Clouds 12 1014 89 10000 6.69 250 14:46 22.04.2022
4082 Clouds 13 1015 91 10000 5.14 260 13:50 22.04.2022
4083 Clouds 13 1014 92 10000 4.12 280 12:58 22.04.2022
4084 Clouds 13 1014 92 10000 6.17 240 11:50 22.04.2022
4085 Clouds 13 1014 91 10000 6.17 240 11:22 22.04.2022
4086 Mist 13 1015 92 9656 6.69 250 10:50 22.04.2022
4087 Rain 13 1015 91 9656 4.63 250 10:30 22.04.2022
4088 Rain 14 1015 90 2012 6.17 230 09:50 22.04.2022
4089 Rain 15 1015 85 10000 5.66 210 08:50 22.04.2022
4090 Clear 15 1016 86 10000 4.63 230 07:20 22.04.2022
4091 Clouds 17 1016 73 10000 6.69 250 03:30 22.04.2022
4092 Clear 19 1016 64 10000 7.72 250 00:52 22.04.2022
4093 Clear 19 1017 60 10000 7.2 250 23:25 21.04.2022
4094 Clear 19 1017 56 10000 8.75 260 22:29 21.04.2022
4095 Clear 19 1018 55 10000 7.2 230 20:43 21.04.2022
4096 Clear 18 1018 57 10000 7.2 230 20:24 21.04.2022
4097 Clear 16 1017 65 10000 2.57 140 18:44 21.04.2022
4098 Clear 16 1017 67 10000 2.57 140 18:18 21.04.2022
4099 Clear 13 1017 78 10000 1.54 100 16:47 21.04.2022
4100 Clear 11 1016 82 10000 1.54 100 15:22 21.04.2022
4101 Clear 11 1016 83 10000 2.06 0 14:50 21.04.2022
4102 Clear 11 1016 83 10000 2.06 350 13:24 21.04.2022
4103 Clear 11 1016 84 10000 0 0 12:59 21.04.2022
4104 Clear 12 1016 83 10000 1.54 0 10:57 21.04.2022
4105 Clear 12 1017 78 10000 5.66 240 08:57 21.04.2022
4106 Clear 13 1017 77 10000 6.17 230 07:49 21.04.2022
4107 Clear 14 1016 71 10000 7.2 250 05:44 21.04.2022
4108 Clear 17 1015 60 10000 7.2 260 03:33 21.04.2022
4109 Clear 18 1015 60 10000 5.14 250 02:48 21.04.2022
4110 Clear 18 1015 60 10000 5.14 250 02:48 21.04.2022
4111 Clear 19 1015 57 10000 6.69 170 01:41 21.04.2022
4112 Clear 20 1016 58 10000 5.14 240 23:51 20.04.2022
4113 Clear 20 1016 60 10000 5.14 240 23:23 20.04.2022
4114 Clear 20 1016 62 10000 7.2 240 22:51 20.04.2022
4115 Clouds 19 1016 63 10000 7.2 240 22:32 20.04.2022
4116 Clouds 19 1016 63 10000 7.2 240 22:32 20.04.2022
4117 Clouds 19 1016 64 10000 6.69 240 21:33 20.04.2022
4118 Clouds 19 1016 66 10000 5.66 160 20:41 20.04.2022
4119 Clouds 18 1016 67 10000 5.14 140 19:53 20.04.2022
4120 Clouds 17 1016 69 10000 5.14 140 19:25 20.04.2022
4121 Clouds 17 1016 73 10000 4.63 150 18:26 20.04.2022
4122 Clear 15 1016 80 10000 4.12 130 16:58 20.04.2022
4123 Clear 14 1015 82 10000 3.09 100 16:38 20.04.2022
4124 Clouds 14 1015 84 10000 1.54 80 14:48 20.04.2022
4125 Clouds 14 1015 83 10000 2.06 0 11:56 20.04.2022
4126 Clouds 14 1015 82 10000 3.09 130 11:33 20.04.2022
4127 Clouds 14 1015 82 10000 3.6 100 10:29 20.04.2022
4128 Clear 14 1014 83 10000 3.6 140 09:27 20.04.2022
4129 Clear 14 1013 84 10000 2.57 200 08:24 20.04.2022
4130 Clear 15 1013 82 10000 3.6 240 07:43 20.04.2022
4131 Clear 17 1012 74 10000 5.66 260 04:49 20.04.2022
4132 Clear 21 1013 58 10000 6.17 210 01:20 20.04.2022
4133 Clear 22 1014 54 10000 6.17 240 00:20 20.04.2022
4134 Clear 22 1014 55 10000 7.2 250 22:44 19.04.2022
4135 Clear 21 1014 56 10000 7.2 250 22:22 19.04.2022
4136 Clear 21 1015 57 10000 7.2 250 21:38 19.04.2022
4137 Clear 21 1015 56 10000 4.12 260 20:56 19.04.2022
4138 Clear 21 1015 57 10000 4.12 260 20:36 19.04.2022
4139 Clear 19 1015 60 10000 3.09 0 19:31 19.04.2022
4140 Clear 18 1015 67 10000 2.06 230 18:26 19.04.2022
4141 Clear 15 1014 78 10000 2.57 110 16:47 19.04.2022
4142 Clear 14 1014 78 10000 2.06 180 16:24 19.04.2022
4143 Clear 14 1014 78 10000 2.57 150 15:23 19.04.2022
4144 Clear 14 1014 77 10000 0 0 14:40 19.04.2022
4145 Clear 14 1014 75 10000 2.57 130 12:52 19.04.2022
4146 Clear 14 1014 73 10000 2.57 130 12:29 19.04.2022
4147 Clear 15 1015 75 10000 3.09 260 11:23 19.04.2022
4148 Clear 16 1015 69 10000 3.6 230 09:28 19.04.2022
4149 Clear 17 1015 68 10000 6.17 250 07:37 19.04.2022
4150 Clear 19 1015 60 10000 6.69 240 04:23 19.04.2022
4151 Clear 22 1016 56 10000 5.66 270 01:24 19.04.2022
4152 Clear 23 1016 54 10000 4.63 260 23:44 18.04.2022
4153 Clear 23 1017 53 10000 2.24 173 21:57 18.04.2022
4154 Clear 22 1017 55 10000 4.12 270 21:25 18.04.2022
4155 Clear 22 1017 56 10000 4.12 210 20:39 18.04.2022
4156 Clear 21 1017 58 10000 1.34 225 19:59 18.04.2022
4157 Clear 20 1017 61 10000 2.57 0 19:32 18.04.2022
4158 Clear 18 1017 66 10000 1.54 110 18:43 18.04.2022
4159 Clear 16 1017 75 10000 2.06 110 17:40 18.04.2022
4160 Clear 15 1017 80 10000 2.06 110 17:19 18.04.2022
4161 Clear 14 1017 85 10000 0 0 16:38 18.04.2022
4162 Clear 12 1017 85 10000 1.54 50 15:30 18.04.2022
4163 Clear 13 1017 83 10000 0 0 14:22 18.04.2022
4164 Clear 13 1017 76 10000 0 0 12:54 18.04.2022
4165 Clear 13 1017 79 10000 0 0 12:23 18.04.2022
4166 Clear 13 1017 84 10000 2.06 70 10:46 18.04.2022
4167 Clouds 14 1017 83 10000 5.14 270 09:32 18.04.2022
4168 Clouds 14 1018 81 10000 4.63 240 08:46 18.04.2022
4169 Clear 15 1017 73 10000 3.6 120 06:52 18.04.2022
4170 Clear 20 1017 61 10000 6.17 260 02:45 18.04.2022
4171 Clear 21 1019 59 10000 7.2 270 23:23 17.04.2022
4172 Clear 21 1019 59 10000 5.66 250 22:37 17.04.2022
4173 Clear 20 1020 61 10000 5.14 240 21:34 17.04.2022
4174 Clouds 20 1021 63 10000 5.14 260 20:52 17.04.2022
4175 Clouds 19 1021 66 10000 5.14 260 20:19 17.04.2022
4176 Clouds 17 1022 73 10000 0.89 214 18:58 17.04.2022
4177 Clear 15 1022 80 10000 0.45 247 17:31 17.04.2022
4178 Clouds 13 1021 87 10000 2.06 20 15:37 17.04.2022
4179 Clouds 13 1021 88 10000 3.6 260 14:46 17.04.2022
4180 Clouds 13 1021 88 10000 2.57 230 13:37 17.04.2022
4181 Clouds 13 1021 87 10000 3.6 250 12:49 17.04.2022
4182 Clouds 13 1020 86 10000 2.57 230 10:59 17.04.2022
4183 Clear 13 1020 85 10000 3.6 250 10:30 17.04.2022
4184 Clear 13 1020 86 10000 0 0 09:57 17.04.2022
4185 Clear 13 1020 84 10000 4.63 260 09:21 17.04.2022
4186 Clear 13 1020 85 10000 4.63 270 08:41 17.04.2022
4187 Clear 14 1019 81 10000 7.72 250 06:32 17.04.2022
4188 Clouds 19 1018 66 10000 11.32 250 02:31 17.04.2022
4189 Clouds 19 1019 66 10000 11.32 250 00:43 17.04.2022
4190 Clear 19 1020 62 10000 7.2 270 23:41 16.04.2022
4191 Clouds 18 1020 65 10000 5.14 260 21:54 16.04.2022
4192 Clouds 18 1020 65 10000 5.14 260 21:19 16.04.2022
4193 Clouds 17 1020 70 10000 5.14 240 19:33 16.04.2022
4194 Clouds 15 1019 74 10000 5.66 290 18:45 16.04.2022
4195 Clouds 14 1019 82 10000 4.63 290 17:21 16.04.2022
4196 Clouds 13 1018 84 10000 3.6 270 16:31 16.04.2022
4197 Clouds 13 1017 85 10000 2.57 170 15:23 16.04.2022
4198 Clouds 13 1017 83 10000 1.54 40 14:43 16.04.2022
4199 Clouds 13 1017 86 10000 2.57 310 13:55 16.04.2022
4200 Clouds 13 1017 88 10000 2.57 310 13:24 16.04.2022
4201 Clear 13 1017 88 10000 2.06 230 11:58 16.04.2022
4202 Clouds 13 1017 89 10000 3.09 230 10:37 16.04.2022
4203 Clear 13 1016 87 10000 3.09 210 09:39 16.04.2022
4204 Clear 13 1016 85 10000 2.57 120 08:54 16.04.2022
4205 Clear 14 1016 83 10000 3.6 240 07:31 16.04.2022
4206 Clear 15 1015 76 10000 2.57 180 06:18 16.04.2022
4207 Clear 20 1014 60 10000 1.54 0 01:53 16.04.2022
4208 Clear 21 1014 58 10000 8.23 250 00:19 16.04.2022
4209 Clear 21 1014 57 10000 5.66 240 22:52 15.04.2022
4210 Clear 21 1015 58 10000 5.66 240 22:31 15.04.2022
4211 Clear 20 1015 55 10000 4.63 220 21:35 15.04.2022
4212 Clear 20 1016 55 10000 0.89 242 20:55 15.04.2022
4213 Clear 19 1016 58 10000 2.06 120 19:52 15.04.2022
4214 Clear 18 1016 60 10000 2.06 160 19:33 15.04.2022
4215 Clear 17 1016 67 10000 3.6 150 18:45 15.04.2022
4216 Clear 16 1016 68 10000 3.6 150 18:23 15.04.2022
4217 Clear 14 1016 74 10000 2.57 20 17:29 15.04.2022
4218 Clear 12 1015 78 10000 2.06 110 16:26 15.04.2022
4219 Clouds 11 1015 80 10000 2.06 80 15:59 15.04.2022
4220 Clouds 11 1014 82 10000 2.06 80 14:30 15.04.2022
4221 Clear 12 1014 82 10000 2.06 100 13:23 15.04.2022
4222 Clear 12 1014 82 10000 1.54 110 12:40 15.04.2022
4223 Clear 12 1014 79 10000 2.06 120 11:54 15.04.2022
4224 Clear 12 1014 75 10000 0 0 10:53 15.04.2022
4225 Clear 13 1015 75 10000 2.06 250 10:24 15.04.2022
4226 Clear 13 1015 78 10000 4.12 260 09:38 15.04.2022
4227 Clear 13 1015 73 10000 4.12 260 09:18 15.04.2022
4228 Clear 14 1014 68 10000 6.69 280 06:56 15.04.2022
4229 Clear 15 1014 63 10000 7.2 280 05:57 15.04.2022
4230 Clear 20 1014 43 10000 7.2 260 01:49 15.04.2022
4231 Clear 21 1015 46 10000 6.69 260 23:30 14.04.2022
4232 Clear 20 1016 50 10000 6.69 260 22:47 14.04.2022
4233 Clear 20 1016 49 10000 6.69 260 22:28 14.04.2022
4234 Clear 20 1016 45 10000 2.57 230 21:57 14.04.2022
4235 Clear 19 1017 45 10000 5.14 260 20:35 14.04.2022
4236 Clear 18 1017 48 10000 2.57 110 19:22 14.04.2022
4237 Clear 16 1017 53 10000 2.06 90 18:18 14.04.2022
4238 Clear 14 1017 61 10000 1.54 70 17:28 14.04.2022
4239 Clear 12 1017 71 10000 1.54 0 16:33 14.04.2022
4240 Clear 11 1016 75 10000 3.09 80 14:28 14.04.2022
4241 Clear 11 1017 75 10000 2.57 100 13:45 14.04.2022
4242 Clear 11 1017 74 10000 2.06 130 12:51 14.04.2022
4243 Clear 12 1017 76 10000 2.06 130 12:31 14.04.2022
4244 Clear 12 1018 75 10000 1.54 130 11:24 14.04.2022
4245 Clear 12 1018 76 10000 3.09 250 10:41 14.04.2022
4246 Clear 12 1018 71 10000 0 0 09:57 14.04.2022
4247 Clear 13 1018 72 10000 5.14 250 08:54 14.04.2022
4248 Clear 13 1018 62 10000 4.63 280 06:53 14.04.2022
4249 Clear 18 1018 37 10000 6.17 250 03:28 14.04.2022
4250 Clear 20 1019 30 10000 6.17 280 23:25 13.04.2022
4251 Clear 20 1020 32 10000 7.2 270 22:20 13.04.2022
4252 Clear 19 1020 31 10000 6.69 250 21:36 13.04.2022
4253 Clear 19 1020 25 10000 5.14 130 20:22 13.04.2022
4254 Clear 18 1020 25 10000 4.12 30 19:36 13.04.2022
4255 Clear 16 1020 31 10000 5.14 330 18:27 13.04.2022
4256 Clear 13 1019 37 10000 5.14 340 17:24 13.04.2022
4257 Clear 12 1019 39 10000 7.72 300 16:37 13.04.2022
4258 Clear 11 1019 36 10000 6.69 320 15:41 13.04.2022
4259 Clear 11 1018 35 10000 6.69 340 14:51 13.04.2022
4260 Clear 12 1018 32 10000 6.69 340 14:28 13.04.2022
4261 Clear 12 1018 32 10000 5.66 320 13:29 13.04.2022
4262 Clear 13 1018 30 10000 5.66 300 12:30 13.04.2022
4263 Clear 13 1019 27 10000 8.23 360 10:55 13.04.2022
4264 Clear 14 1019 25 10000 6.69 360 09:45 13.04.2022
4265 Clear 14 1019 24 10000 5.66 350 08:43 13.04.2022
4266 Clear 14 1018 23 10000 5.66 350 07:18 13.04.2022
4267 Clear 14 1018 22 10000 5.14 360 06:46 13.04.2022
4268 Clear 15 1018 22 10000 5.14 360 06:18 13.04.2022
4269 Clear 19 1016 25 10000 12.35 260 00:24 13.04.2022
4270 Haze 19 1016 25 10000 12.35 260 23:46 12.04.2022
4271 Clear 19 1017 21 10000 10.29 340 22:20 12.04.2022
4272 Clear 18 1017 22 10000 9.26 340 21:39 12.04.2022
4273 Clear 17 1017 24 10000 9.26 330 20:42 12.04.2022
4274 Clear 16 1016 27 10000 4.63 340 19:54 12.04.2022
4275 Clear 16 1016 29 10000 12.35 330 19:33 12.04.2022
4276 Clear 14 1016 34 10000 11.32 330 18:50 12.04.2022
4277 Clear 14 1016 34 10000 11.32 330 18:50 12.04.2022
4278 Clear 12 1016 40 10000 7.72 360 17:34 12.04.2022
4279 Clear 11 1015 45 10000 9.26 340 16:32 12.04.2022
4280 Clear 10 1014 46 10000 9.26 330 15:33 12.04.2022
4281 Clouds 11 1013 46 10000 10.29 340 14:33 12.04.2022
4282 Clouds 11 1013 50 10000 7.2 360 13:39 12.04.2022
4283 Clouds 12 1013 56 10000 2.57 360 12:59 12.04.2022
4284 Clouds 13 1012 63 10000 6.17 360 11:47 12.04.2022
4285 Clouds 13 1012 61 10000 6.17 360 11:24 12.04.2022
4286 Clouds 13 1011 79 10000 8.75 270 09:25 12.04.2022
4287 Clouds 13 1011 79 10000 8.23 270 08:26 12.04.2022
4288 Clouds 14 1010 81 10000 11.32 270 06:33 12.04.2022
4289 Clouds 15 1010 80 10000 8.23 250 05:38 12.04.2022
4290 Clouds 18 1011 65 10000 10.29 250 01:47 12.04.2022
4291 Clouds 18 1012 66 10000 6.69 270 23:20 11.04.2022
4292 Clouds 18 1013 66 10000 6.17 220 21:50 11.04.2022
4293 Clouds 18 1013 66 10000 6.17 220 21:18 11.04.2022
4294 Clouds 18 1013 68 10000 5.14 220 20:30 11.04.2022
4295 Clouds 18 1014 72 10000 3.6 210 19:58 11.04.2022
4296 Mist 17 1014 73 10000 4.63 210 19:25 11.04.2022
4297 Clouds 17 1013 75 10000 2.57 240 18:52 11.04.2022
4298 Clouds 16 1013 80 10000 2.57 210 17:57 11.04.2022
4299 Clouds 16 1013 81 10000 4.12 200 17:30 11.04.2022
4300 Clouds 15 1012 83 10000 2.06 250 16:25 11.04.2022
4301 Clouds 15 1011 82 10000 1.54 210 14:40 11.04.2022
4302 Clouds 15 1011 82 10000 0 0 13:19 11.04.2022
4303 Clouds 15 1011 81 10000 1.54 310 12:36 11.04.2022
4304 Clouds 15 1011 81 10000 2.57 330 11:54 11.04.2022
4305 Clouds 15 1011 82 10000 1.54 180 10:35 11.04.2022
4306 Clouds 15 1011 80 10000 2.57 340 09:34 11.04.2022
4307 Clouds 16 1011 79 10000 2.57 270 07:24 11.04.2022
4308 Clouds 19 1010 64 10000 5.14 200 03:19 11.04.2022
4309 Clouds 21 1012 56 10000 6.69 250 23:22 10.04.2022
4310 Clouds 21 1012 58 10000 5.14 250 22:26 10.04.2022
4311 Clouds 20 1013 60 10000 5.14 250 21:35 10.04.2022
4312 Clouds 20 1013 63 10000 5.14 240 20:50 10.04.2022
4313 Clouds 19 1012 64 10000 3.6 130 19:53 10.04.2022
4314 Clouds 18 1012 66 10000 3.6 130 19:30 10.04.2022
4315 Clouds 18 1012 71 10000 3.09 190 18:46 10.04.2022
4316 Clouds 17 1012 73 10000 3.09 190 18:20 10.04.2022
4317 Haze 17 1012 75 9656 3.09 220 17:41 10.04.2022
4318 Haze 16 1011 81 9656 1.54 140 16:47 10.04.2022
4319 Clouds 15 1011 83 10000 2.06 150 15:37 10.04.2022
4320 Clouds 15 1010 79 10000 2.57 140 14:37 10.04.2022
4321 Haze 16 1010 82 10000 3.09 130 12:50 10.04.2022
4322 Haze 16 1010 81 10000 3.09 130 12:26 10.04.2022
4323 Mist 16 1010 78 10000 4.63 120 11:29 10.04.2022
4324 Clouds 16 1010 79 10000 1.54 170 10:57 10.04.2022
4325 Mist 16 1011 79 10000 4.12 110 10:22 10.04.2022
4326 Mist 16 1011 79 10000 3.09 140 09:40 10.04.2022
4327 Mist 17 1011 81 10000 5.14 120 08:25 10.04.2022
4328 Haze 17 1011 77 10000 5.14 130 07:47 10.04.2022
4329 Clear 18 1010 71 10000 3.6 130 06:19 10.04.2022
4330 Clear 24 1008 47 10000 5.66 240 02:48 10.04.2022
4331 Clear 27 1008 41 10000 5.66 260 00:51 10.04.2022
4332 Clear 27 1009 42 10000 4.63 250 23:50 09.04.2022
4333 Clear 27 1010 47 10000 5.66 260 22:50 09.04.2022
4334 Clear 26 1010 42 10000 5.14 250 21:48 09.04.2022
4335 Clear 27 1010 41 10000 0.45 56 20:57 09.04.2022
4336 Clear 26 1010 40 10000 4.63 150 20:26 09.04.2022
4337 Clear 26 1010 39 10000 4.12 120 19:42 09.04.2022
4338 Clear 25 1010 40 10000 4.12 120 19:18 09.04.2022
4339 Clear 25 1010 40 10000 4.12 120 19:18 09.04.2022
4340 Clear 25 1010 40 10000 4.12 120 19:18 09.04.2022
4341 Clear 23 1010 46 10000 4.12 100 18:21 09.04.2022
4342 Clear 21 1010 56 10000 4.63 90 17:40 09.04.2022
4343 Clear 19 1010 63 10000 2.06 90 16:53 09.04.2022
4344 Clear 19 1009 44 10000 0 0 15:59 09.04.2022
4345 Clear 19 1009 53 10000 0 0 15:41 09.04.2022
4346 Clear 20 1009 46 10000 2.06 360 14:44 09.04.2022
4347 Clear 20 1009 46 10000 2.06 360 14:44 09.04.2022
4348 Clear 20 1009 45 10000 2.06 360 14:23 09.04.2022
4349 Clear 21 1009 46 10000 0.45 42 13:21 09.04.2022
4350 Clear 21 1009 44 10000 1.54 200 12:51 09.04.2022
4351 Clear 21 1010 43 10000 2.06 290 11:40 09.04.2022
4352 Clear 22 1010 38 10000 2.06 110 10:21 09.04.2022
4353 Clear 23 1010 36 10000 3.09 250 09:52 09.04.2022
4354 Clear 24 1011 28 10000 3.09 260 08:57 09.04.2022
4355 Clear 24 1011 28 10000 3.6 250 07:32 09.04.2022
4356 Clear 32 1010 18 10000 7.72 260 03:21 09.04.2022
4357 Clear 35 1012 12 10000 6.17 270 00:30 09.04.2022
4358 Clear 36 1013 13 10000 3.09 270 22:58 08.04.2022
4359 Clear 35 1014 11 10000 4.63 210 21:34 08.04.2022
4360 Clear 34 1015 13 10000 2.06 0 20:41 08.04.2022
4361 Clear 33 1015 14 10000 2.06 0 19:41 08.04.2022
4362 Clear 29 1015 16 10000 1.54 20 18:34 08.04.2022
4363 Clear 26 1015 21 10000 2.06 50 17:55 08.04.2022
4364 Clear 25 1015 29 10000 2.06 50 17:27 08.04.2022
4365 Clear 23 1014 32 10000 3.09 310 16:51 08.04.2022
4366 Clear 22 1014 25 10000 3.09 310 16:22 08.04.2022
4367 Clear 21 1014 23 10000 2.06 20 15:28 08.04.2022
4368 Clear 22 1014 25 10000 2.06 70 14:40 08.04.2022
4369 Clear 23 1014 20 10000 1.34 323 13:55 08.04.2022
4370 Clear 23 1014 23 10000 2.06 360 13:30 08.04.2022
4371 Clear 23 1014 23 10000 1.54 330 12:42 08.04.2022
4372 Clear 24 1016 22 10000 0 0 10:56 08.04.2022
4373 Clear 24 1015 22 10000 2.06 10 09:41 08.04.2022
4374 Clear 25 1016 23 10000 0 0 08:59 08.04.2022
4375 Clear 25 1015 26 10000 2.57 120 07:42 08.04.2022
4376 Clear 25 1014 25 10000 0 0 06:44 08.04.2022
4377 Clear 33 1015 16 10000 5.66 270 02:29 08.04.2022
4378 Clear 35 1015 15 10000 6.17 270 00:28 08.04.2022
4379 Clear 35 1016 15 10000 4.63 210 23:42 07.04.2022
4380 Clear 35 1017 16 10000 3.6 200 22:41 07.04.2022
4381 Clear 34 1017 15 10000 3.6 200 22:22 07.04.2022
4382 Clear 34 1018 17 10000 0.89 168 21:58 07.04.2022
4383 Clear 33 1018 17 10000 4.12 220 21:28 07.04.2022
4384 Clear 32 1019 21 10000 2.57 110 20:42 07.04.2022
4385 Clear 30 1019 25 10000 1.54 0 19:25 07.04.2022
4386 Clear 23 1019 43 10000 1.54 350 17:28 07.04.2022
4387 Clear 22 1020 39 10000 0.45 79 16:59 07.04.2022
4388 Clear 20 1019 46 10000 2.06 340 16:33 07.04.2022
4389 Clear 20 1018 51 10000 2.57 40 15:40 07.04.2022
4390 Fog 20 1018 48 10000 1.54 290 13:52 07.04.2022
4391 Fog 20 1017 57 10000 1.54 290 13:23 07.04.2022
4392 Clear 20 1017 56 10000 3.09 250 11:52 07.04.2022
4393 Clear 20 1018 57 10000 1.54 300 10:46 07.04.2022
4394 Clear 20 1018 58 10000 2.06 330 08:43 07.04.2022
4395 Clear 21 1017 61 10000 1.1 293 06:59 07.04.2022
4396 Clear 23 1016 51 10000 2.06 0 05:21 07.04.2022
4397 Clear 28 1014 42 10000 6.17 260 02:34 07.04.2022
4398 Clear 30 1015 43 10000 6.17 260 00:43 07.04.2022
4399 Clear 31 1015 40 10000 5.14 270 23:36 06.04.2022
4400 Clear 31 1015 39 10000 4.12 250 22:44 06.04.2022
4401 Clear 31 1015 39 10000 4.12 250 22:20 06.04.2022
4402 Fog 29 1016 46 10000 5.14 260 20:47 06.04.2022
4403 Fog 27 1016 50 10000 4.63 260 20:00 06.04.2022
4404 Clear 25 1015 52 10000 2.06 130 19:24 06.04.2022
4405 Haze 23 1015 61 10000 1.54 0 18:48 06.04.2022
4406 Mist 18 1015 78 8047 1.54 130 17:36 06.04.2022
4407 Mist 17 1015 88 8047 0 0 16:58 06.04.2022
4408 Mist 15 1014 86 9656 1.54 120 16:34 06.04.2022
4409 Mist 15 1014 81 9656 1.54 120 15:44 06.04.2022
4410 Clear 16 1013 75 10000 1.54 70 13:53 06.04.2022
4411 Clear 16 1013 84 10000 2.57 80 12:30 06.04.2022
4412 Clear 16 1013 83 10000 2.06 130 11:44 06.04.2022
4413 Clear 16 1013 82 10000 2.57 110 10:37 06.04.2022
4414 Clear 16 1013 78 10000 2.57 110 10:18 06.04.2022
4415 Clear 17 1013 81 10000 3.09 80 09:25 06.04.2022
4416 Clear 17 1012 83 10000 3.6 110 08:25 06.04.2022
4417 Clear 18 1012 75 10000 2.57 150 06:45 06.04.2022
4418 Clear 25 1011 53 10000 4.63 260 01:44 06.04.2022
4419 Clear 26 1012 55 10000 4.12 240 23:50 05.04.2022
4420 Clear 24 1012 61 10000 0 0 21:59 05.04.2022
4421 Clear 24 1013 58 10000 6.17 300 21:18 05.04.2022
4422 Clear 24 1013 58 10000 6.17 300 21:18 05.04.2022
4423 Clear 22 1014 64 10000 2.57 0 20:25 05.04.2022
4424 Clear 19 1013 73 10000 4.12 320 18:53 05.04.2022
4425 Haze 16 1014 82 9656 2.57 190 17:30 05.04.2022
4426 Mist 16 1013 79 10000 4.12 290 16:45 05.04.2022
4427 Clear 16 1013 73 10000 5.14 300 15:52 05.04.2022
4428 Clear 16 1013 73 10000 5.14 300 15:31 05.04.2022
4429 Clear 15 1013 77 10000 1.54 0 14:18 05.04.2022
4430 Clear 15 1013 85 10000 0 0 12:55 05.04.2022
4431 Clear 15 1014 78 10000 2.06 250 11:49 05.04.2022
4432 Clear 15 1014 79 10000 2.06 250 11:31 05.04.2022
4433 Clear 15 1014 79 10000 3.6 110 09:42 05.04.2022
4434 Clear 15 1014 75 10000 3.09 90 08:52 05.04.2022
4435 Clear 16 1013 78 10000 4.63 110 06:43 05.04.2022
4436 Clear 21 1013 63 10000 6.17 260 00:39 05.04.2022
4437 Clear 20 1013 63 10000 4.63 260 22:41 04.04.2022
4438 Clear 20 1014 64 10000 4.63 260 22:19 04.04.2022
4439 Haze 19 1015 65 9656 4.12 250 21:21 04.04.2022
4440 Haze 19 1015 68 9656 3.6 270 20:49 04.04.2022
4441 Haze 17 1015 70 9656 2.06 0 19:44 04.04.2022
4442 Haze 16 1015 72 9656 2.06 0 19:25 04.04.2022
4443 Mist 14 1014 81 10000 0 0 17:55 04.04.2022
4444 Haze 13 1013 86 10000 2.06 90 16:36 04.04.2022
4445 Haze 13 1013 88 10000 2.06 270 15:43 04.04.2022
4446 Haze 13 1013 87 10000 2.06 270 15:25 04.04.2022
4447 Mist 13 1013 89 10000 1.54 240 14:46 04.04.2022
4448 Mist 13 1013 89 10000 2.57 320 13:22 04.04.2022
4449 Haze 13 1013 90 10000 2.06 270 11:55 04.04.2022
4450 Haze 13 1013 90 10000 2.06 270 11:28 04.04.2022
4451 Clouds 14 1013 88 10000 5.66 270 08:36 04.04.2022
4452 Clouds 16 1012 79 10000 6.17 250 04:18 04.04.2022
4453 Clouds 19 1013 66 10000 7.2 250 00:44 04.04.2022
4454 Clouds 19 1015 67 10000 5.66 250 22:40 03.04.2022
4455 Clouds 18 1015 67 10000 6.69 250 21:45 03.04.2022
4456 Clouds 17 1016 71 10000 4.63 250 20:55 03.04.2022
4457 Clouds 16 1016 77 10000 5.14 260 19:50 03.04.2022
4458 Clouds 15 1016 83 10000 4.12 250 18:32 03.04.2022
4459 Clouds 15 1016 85 10000 4.12 250 17:47 03.04.2022
4460 Clouds 14 1015 87 10000 4.63 270 16:57 03.04.2022
4461 Clouds 14 1015 87 10000 4.63 270 16:39 03.04.2022
4462 Clouds 14 1015 86 10000 4.63 270 14:52 03.04.2022
4463 Clouds 14 1015 88 10000 5.14 280 13:53 03.04.2022
4464 Clouds 14 1016 87 10000 4.63 270 12:46 03.04.2022
4465 Clouds 14 1016 85 10000 6.17 270 11:29 03.04.2022
4466 Clouds 15 1016 83 10000 4.12 260 09:38 03.04.2022
4467 Clouds 15 1017 83 10000 5.14 270 08:36 03.04.2022
4468 Clouds 15 1016 81 10000 5.66 250 05:42 03.04.2022
4469 Clouds 17 1016 75 10000 3.13 250 02:53 03.04.2022
4470 Clouds 18 1017 71 10000 5.14 260 23:21 02.04.2022
4471 Clouds 18 1017 70 10000 3.6 180 22:38 02.04.2022
4472 Clouds 17 1018 71 10000 2.57 210 21:49 02.04.2022
4473 Clouds 17 1018 73 10000 2.57 210 21:19 02.04.2022
4474 Clouds 16 1018 77 10000 3.6 210 20:35 02.04.2022
4475 Mist 14 1017 84 10000 4.63 270 18:27 02.04.2022
4476 Clouds 14 1016 85 10000 3.09 220 17:53 02.04.2022
4477 Clouds 13 1016 87 10000 3.09 140 16:30 02.04.2022
4478 Mist 13 1015 88 10000 3.09 140 15:23 02.04.2022
4479 Clouds 13 1015 90 10000 3.09 250 14:51 02.04.2022
4480 Clouds 13 1015 90 10000 3.6 240 13:57 02.04.2022
4481 Clouds 13 1015 90 10000 4.12 240 13:23 02.04.2022
4482 Clouds 13 1014 90 10000 0 0 11:54 02.04.2022
4483 Clear 13 1015 87 10000 2.06 80 09:48 02.04.2022
4484 Clear 14 1014 83 10000 2.57 240 07:33 02.04.2022
4485 Clear 17 1013 75 10000 2.57 250 03:59 02.04.2022
4486 Clear 21 1012 63 10000 6.17 260 00:27 02.04.2022
4487 Clear 21 1012 63 10000 5.66 260 23:53 01.04.2022
4488 Clouds 20 1013 62 10000 4.63 250 22:34 01.04.2022
4489 Clouds 18 1014 66 10000 3.09 250 20:54 01.04.2022
4490 Clouds 18 1013 69 10000 3.09 250 20:32 01.04.2022
4491 Clear 17 1014 73 10000 3.6 260 19:39 01.04.2022
4492 Clear 17 1014 77 10000 3.6 260 19:18 01.04.2022
4493 Clouds 16 1013 80 10000 3.09 270 18:35 01.04.2022
4494 Clouds 14 1013 86 10000 3.09 270 17:36 01.04.2022
4495 Clear 12 1011 85 10000 1.54 310 15:46 01.04.2022
4496 Smoke 12 1011 88 10000 1.54 330 14:51 01.04.2022
4497 Clear 12 1011 89 10000 1.54 310 13:39 01.04.2022
4498 Clouds 13 1011 89 10000 1.54 310 12:33 01.04.2022
4499 Clouds 13 1012 88 10000 1.54 290 11:47 01.04.2022
4500 Clouds 13 1012 87 10000 2.06 270 10:49 01.04.2022
4501 Clouds 14 1011 87 10000 2.06 320 09:35 01.04.2022
4502 Clouds 14 1011 87 10000 3.09 300 07:24 01.04.2022
4503 Clouds 15 1011 82 10000 0 0 04:57 01.04.2022
4504 Clouds 15 1011 80 10000 4.12 250 04:39 01.04.2022
4505 Clouds 16 1011 76 10000 4.63 270 02:37 01.04.2022
4506 Clouds 17 1011 73 10000 4.63 270 01:33 01.04.2022
4507 Clouds 17 1012 70 10000 4.63 250 22:27 31.03.2022
4508 Clouds 17 1013 70 10000 4.12 250 21:39 31.03.2022
4509 Clouds 17 1013 73 10000 4.12 260 20:51 31.03.2022
4510 Clouds 17 1013 74 10000 3.6 260 20:28 31.03.2022
4511 Clouds 16 1014 78 10000 3.09 160 19:29 31.03.2022
4512 Clouds 15 1013 80 10000 2.06 210 18:33 31.03.2022
4513 Clouds 14 1013 86 10000 2.06 110 16:47 31.03.2022
4514 Clouds 14 1013 87 10000 1.54 110 15:55 31.03.2022
4515 Clouds 14 1013 87 10000 1.54 90 15:26 31.03.2022
4516 Clouds 14 1013 88 10000 2.57 150 14:45 31.03.2022
4517 Clouds 14 1013 88 10000 2.57 110 13:42 31.03.2022
4518 Haze 14 1014 87 10000 3.6 150 11:31 31.03.2022
4519 Haze 14 1014 86 10000 2.57 150 10:26 31.03.2022
4520 Clouds 14 1015 87 10000 1.54 90 09:39 31.03.2022
4521 Clouds 14 1015 88 10000 1.54 190 07:48 31.03.2022
4522 Clear 17 1015 75 10000 5.66 240 03:30 31.03.2022
4523 Clear 20 1017 64 10000 7.72 250 23:25 30.03.2022
4524 Clouds 20 1018 62 10000 5.66 260 21:57 30.03.2022
4525 Clear 19 1018 61 10000 5.66 260 21:31 30.03.2022
4526 Clear 19 1018 61 10000 4.12 220 20:44 30.03.2022
4527 Clouds 18 1019 65 10000 2.06 250 19:48 30.03.2022
4528 Clouds 16 1019 74 10000 2.57 0 18:41 30.03.2022
4529 Clouds 14 1019 83 10000 1.54 0 17:51 30.03.2022
4530 Clouds 13 1019 86 10000 1.54 0 17:20 30.03.2022
4531 Clouds 13 1019 86 10000 2.57 80 16:40 30.03.2022
4532 Clouds 12 1018 88 10000 1.54 0 15:59 30.03.2022
4533 Clouds 12 1018 88 10000 2.57 30 14:36 30.03.2022
4534 Clouds 12 1019 90 10000 2.06 350 13:22 30.03.2022
4535 Clouds 12 1019 90 10000 1.54 180 12:22 30.03.2022
4536 Clear 12 1018 86 10000 1.54 90 10:48 30.03.2022
4537 Clear 12 1018 91 10000 1.54 110 09:55 30.03.2022
4538 Clear 13 1018 90 10000 1.54 190 08:21 30.03.2022
4539 Clear 13 1017 87 10000 2.57 200 07:28 30.03.2022
4540 Clouds 14 1016 82 10000 3.09 230 05:40 30.03.2022
4541 Clear 18 1015 62 10000 6.69 250 02:32 30.03.2022
4542 Clear 19 1015 65 10000 6.69 250 22:42 29.03.2022
4543 Clear 18 1015 67 10000 6.69 240 21:49 29.03.2022
4544 Clear 18 1015 68 10000 6.69 240 21:28 29.03.2022
4545 Clear 17 1015 72 10000 7.72 330 20:25 29.03.2022
4546 Clouds 15 1014 76 10000 5.14 270 19:32 29.03.2022
4547 Clear 14 1013 86 10000 4.12 240 18:53 29.03.2022
4548 Clear 13 1013 88 10000 2.06 170 17:52 29.03.2022
4549 Clear 12 1013 92 10000 2.06 170 17:18 29.03.2022
4550 Clear 11 1012 91 10000 3.6 270 16:52 29.03.2022
4551 Mist 10 1012 92 8047 1.54 330 15:29 29.03.2022
4552 Clear 11 1011 93 10000 2.06 300 14:43 29.03.2022
4553 Clear 11 1011 93 10000 2.06 300 14:43 29.03.2022
4554 Clear 11 1010 94 10000 1.54 320 13:35 29.03.2022
4555 Clear 11 1010 94 10000 0 0 12:22 29.03.2022
4556 Clouds 11 1009 93 10000 1.54 120 11:18 29.03.2022
4557 Clouds 12 1009 93 10000 2.06 270 09:58 29.03.2022
4558 Clouds 12 1009 91 10000 4.12 260 08:44 29.03.2022
4559 Clouds 13 1008 91 10000 2.57 250 06:48 29.03.2022
4560 Rain 13 1008 86 2816 3.6 190 02:52 29.03.2022
4561 Clouds 16 1010 78 10000 3.6 140 23:37 28.03.2022
4562 Clouds 15 1010 87 10000 3.09 0 22:57 28.03.2022
4563 Clouds 14 1010 89 10000 3.09 0 22:33 28.03.2022
4564 Mist 13 1010 91 9656 4.12 250 21:43 28.03.2022
4565 Mist 13 1011 91 4023 4.63 240 20:35 28.03.2022
4566 Rain 13 1011 89 4828 9.77 200 19:48 28.03.2022
4567 Rain 13 1010 88 4828 9.77 200 19:48 28.03.2022
4568 Rain 13 1010 88 2816 9.26 140 19:30 28.03.2022
4569 Rain 14 1010 85 9656 8.75 120 18:50 28.03.2022
4570 Clouds 14 1010 80 10000 7.72 130 17:41 28.03.2022
4571 Clouds 14 1011 80 9656 6.69 120 16:56 28.03.2022
4572 Clouds 14 1010 75 10000 6.17 100 15:22 28.03.2022
4573 Clouds 14 1010 76 10000 7.72 120 14:24 28.03.2022
4574 Clouds 14 1011 75 10000 5.66 110 13:19 28.03.2022
4575 Drizzle 14 1012 75 10000 5.66 130 11:52 28.03.2022
4576 Clouds 14 1013 74 10000 4.12 130 09:58 28.03.2022
4577 Clouds 14 1013 74 10000 5.14 140 09:21 28.03.2022
4578 Clouds 14 1013 73 10000 5.14 160 08:39 28.03.2022
4579 Clouds 14 1013 73 10000 5.14 160 08:18 28.03.2022
4580 Clouds 14 1013 76 10000 3.6 170 06:55 28.03.2022
4581 Clear 18 1011 62 10000 6.17 260 02:20 28.03.2022
4582 Clear 20 1012 57 10000 5.66 190 22:36 27.03.2022
4583 Clear 20 1013 57 10000 6.17 150 21:47 27.03.2022
4584 Clear 19 1013 58 10000 6.17 150 21:26 27.03.2022
4585 Clear 18 1013 62 10000 3.6 150 20:41 27.03.2022
4586 Clouds 17 1013 67 10000 5.66 140 19:37 27.03.2022
4587 Clouds 15 1013 73 10000 4.63 140 18:44 27.03.2022
4588 Clouds 15 1013 75 10000 4.63 140 18:23 27.03.2022
4589 Clouds 15 1013 75 10000 4.63 140 18:23 27.03.2022
4590 Clouds 15 1013 75 10000 4.63 140 18:23 27.03.2022
4591 Clouds 14 1012 75 10000 5.14 100 17:36 27.03.2022
4592 Clouds 13 1012 81 10000 3.09 90 15:51 27.03.2022
4593 Clouds 13 1012 84 10000 2.51 163 13:59 27.03.2022
4594 Clouds 13 1012 83 10000 3.6 120 13:21 27.03.2022
4595 Mist 13 1013 85 10000 3.6 170 11:35 27.03.2022
4596 Mist 13 1013 87 10000 3.6 140 09:49 27.03.2022
4597 Clouds 13 1013 86 10000 3.6 100 07:39 27.03.2022
4598 Clear 17 1011 72 10000 4.63 130 04:25 27.03.2022
4599 Clear 23 1011 52 10000 6.17 250 00:26 27.03.2022
4600 Clear 24 1012 51 10000 4.63 250 22:52 26.03.2022
4601 Clear 24 1012 50 10000 4.63 250 22:22 26.03.2022
4602 Fog 23 1013 53 10000 5.66 140 21:30 26.03.2022
4603 Haze 21 1015 66 9656 3.09 260 19:38 26.03.2022
4604 Haze 19 1015 71 8047 2.57 220 18:44 26.03.2022
4605 Haze 18 1014 75 4828 1.54 150 17:41 26.03.2022
4606 Mist 15 1014 87 4828 1.54 0 16:40 26.03.2022
4607 Mist 13 1014 86 8047 1.54 230 15:43 26.03.2022
4608 Mist 13 1014 89 10000 1.54 250 13:57 26.03.2022
4609 Mist 13 1014 89 10000 1.54 250 13:36 26.03.2022
4610 Mist 13 1014 90 10000 1.54 100 12:18 26.03.2022
4611 Mist 14 1016 86 10000 2.06 250 10:49 26.03.2022
4612 Mist 14 1016 81 10000 4.12 120 09:19 26.03.2022
4613 Clouds 16 1015 53 10000 1.06 202 06:56 26.03.2022
4614 Clear 18 1014 63 10000 2.57 230 05:49 26.03.2022
4615 Haze 22 1014 53 10000 5.66 260 02:34 26.03.2022
4616 Fog 27 1015 47 10000 5.14 270 22:47 25.03.2022
4617 Clear 27 1016 43 10000 2.57 220 20:58 25.03.2022
4618 Clear 26 1016 48 10000 4.12 260 20:26 25.03.2022
4619 Clear 26 1016 48 10000 4.12 260 20:26 25.03.2022
4620 Fog 24 1017 51 10000 3.09 0 19:19 25.03.2022
4621 Haze 24 1017 55 8047 2.06 260 18:36 25.03.2022
4622 Mist 22 1017 53 4828 3.6 250 17:34 25.03.2022
4623 Mist 18 1017 70 4828 1.54 260 16:29 25.03.2022
4624 Mist 15 1017 81 1207 3.09 260 15:37 25.03.2022
4625 Fog 17 1016 70 805 1.54 280 13:32 25.03.2022
4626 Fog 17 1016 73 805 2.06 350 11:25 25.03.2022
4627 Fog 17 1017 80 10000 2.57 120 09:43 25.03.2022
4628 Mist 18 1017 68 10000 0 0 08:56 25.03.2022
4629 Mist 18 1017 66 10000 2.06 240 07:46 25.03.2022
4630 Mist 19 1017 69 10000 2.06 240 07:19 25.03.2022
4631 Fog 22 1015 49 10000 4.12 250 03:45 25.03.2022
4632 Clear 28 1015 41 10000 5.66 260 23:49 24.03.2022
4633 Clear 28 1016 40 10000 5.66 270 22:24 24.03.2022
4634 Clear 28 1016 40 10000 5.66 270 22:24 24.03.2022
4635 Fog 27 1017 42 10000 4.12 250 21:24 24.03.2022
4636 Clear 27 1018 38 10000 2.06 250 19:50 24.03.2022
4637 Clear 25 1018 43 10000 1.54 0 18:45 24.03.2022
4638 Clear 22 1018 46 10000 2.57 250 17:36 24.03.2022
4639 Fog 19 1018 63 10000 3.6 250 16:39 24.03.2022
4640 Fog 17 1017 58 10000 1.54 280 14:53 24.03.2022
4641 Fog 17 1017 65 10000 1.54 280 14:32 24.03.2022
4642 Fog 17 1017 65 10000 1.54 310 13:36 24.03.2022
4643 Fog 17 1018 62 10000 1.54 280 12:35 24.03.2022
4644 Clear 17 1018 62 10000 2.06 250 11:31 24.03.2022
4645 Clear 17 1019 62 10000 2.06 250 09:34 24.03.2022
4646 Clear 18 1019 55 10000 3.6 250 08:39 24.03.2022
4647 Clear 20 1019 47 10000 3.09 250 05:45 24.03.2022
4648 Clear 27 1018 28 10000 7.72 250 00:47 24.03.2022
4649 Clear 29 1019 27 10000 5.14 280 22:23 23.03.2022
4650 Clear 29 1020 28 10000 5.66 260 21:24 23.03.2022
4651 Clear 29 1020 26 10000 3.6 210 20:46 23.03.2022
4652 Clear 28 1021 27 10000 3.6 130 19:33 23.03.2022
4653 Clear 25 1021 31 10000 4.63 80 18:19 23.03.2022
4654 Clear 23 1020 37 10000 3.09 50 17:26 23.03.2022
4655 Clear 19 1020 48 10000 2.06 60 16:18 23.03.2022
4656 Clear 17 1019 49 10000 2.57 100 14:49 23.03.2022
4657 Clear 17 1018 48 10000 1.54 90 13:34 23.03.2022
4658 Clear 18 1018 51 10000 1.54 60 11:38 23.03.2022
4659 Clear 19 1018 46 10000 2.57 50 08:51 23.03.2022
4660 Clear 19 1018 48 10000 1.54 230 06:26 23.03.2022
4661 Clear 21 1017 44 10000 5.14 260 03:52 23.03.2022
4662 Clear 27 1017 29 10000 6.69 270 00:29 23.03.2022
4663 Clear 27 1017 29 10000 6.69 270 00:28 23.03.2022
4664 Clear 28 1018 27 10000 5.66 250 22:25 22.03.2022
4665 Clear 28 1018 27 10000 5.14 260 21:29 22.03.2022
4666 Clear 28 1018 30 10000 4.12 150 20:34 22.03.2022
4667 Clear 26 1019 36 10000 3.09 260 19:31 22.03.2022
4668 Clear 25 1019 36 10000 0.45 267 18:54 22.03.2022
4669 Clear 22 1019 50 10000 2.57 270 17:44 22.03.2022
4670 Clear 19 1019 51 10000 2.57 270 17:18 22.03.2022
4671 Clear 17 1018 53 10000 4.63 210 15:52 22.03.2022
4672 Clear 16 1018 57 10000 4.63 210 15:21 22.03.2022
4673 Clear 16 1017 60 10000 0 0 14:46 22.03.2022
4674 Clear 15 1017 60 10000 0 0 14:24 22.03.2022
4675 Clear 15 1017 60 10000 2.57 210 12:46 22.03.2022
4676 Clear 16 1017 60 10000 2.06 110 11:36 22.03.2022
4677 Clear 15 1017 63 10000 2.06 100 10:23 22.03.2022
4678 Clear 15 1017 59 10000 0 0 07:57 22.03.2022
4679 Clear 17 1017 66 10000 2.06 150 05:20 22.03.2022
4680 Clear 18 1016 57 10000 4.12 240 03:41 22.03.2022
4681 Clear 24 1017 46 10000 4.63 250 23:49 21.03.2022
4682 Clear 23 1018 44 10000 4.63 130 21:58 21.03.2022
4683 Clear 23 1019 46 10000 3.6 280 20:47 21.03.2022
4684 Clear 22 1019 45 10000 3.6 280 20:27 21.03.2022
4685 Clear 22 1019 48 10000 0.45 313 19:58 21.03.2022
4686 Clear 20 1019 53 10000 4.63 110 19:27 21.03.2022
4687 Clear 18 1019 61 10000 3.09 140 18:18 21.03.2022
4688 Clear 16 1019 68 10000 3.6 120 17:18 21.03.2022
4689 Clear 15 1019 74 10000 3.6 90 16:42 21.03.2022
4690 Clear 13 1018 74 10000 2.57 110 15:52 21.03.2022
4691 Clear 12 1018 73 10000 2.57 110 15:19 21.03.2022
4692 Clear 13 1018 73 10000 0 0 13:58 21.03.2022
4693 Clear 13 1018 71 10000 2.57 140 12:35 21.03.2022
4694 Clear 13 1017 69 10000 3.09 100 11:52 21.03.2022
4695 Clear 14 1017 64 10000 2.06 0 10:40 21.03.2022
4696 Clear 17 1017 36 10000 4.63 320 08:30 21.03.2022
4697 Clear 16 1017 38 10000 5.66 330 06:48 21.03.2022
4698 Clear 20 1015 37 10000 12.86 270 02:52 21.03.2022
4699 Clear 22 1014 35 10000 12.86 270 00:19 21.03.2022
4700 Clear 22 1015 38 10000 10.8 260 22:44 20.03.2022
4701 Clear 21 1015 43 10000 11.83 270 21:52 20.03.2022
4702 Clear 21 1015 43 10000 11.83 270 21:29 20.03.2022
4703 Clear 21 1015 41 10000 7.2 330 20:43 20.03.2022
4704 Clear 20 1016 45 10000 3.6 280 19:59 20.03.2022
4705 Clear 19 1016 44 10000 9.26 340 19:34 20.03.2022
4706 Clear 17 1015 54 10000 6.17 330 18:34 20.03.2022
4707 Clear 16 1015 64 10000 6.69 290 17:35 20.03.2022
4708 Clear 15 1015 69 10000 1.54 0 16:57 20.03.2022
4709 Clear 12 1014 77 10000 4.63 260 15:35 20.03.2022
4710 Clear 12 1013 79 10000 5.14 270 14:35 20.03.2022
4711 Clear 12 1012 90 10000 3.09 260 12:42 20.03.2022
4712 Clouds 12 1012 90 10000 3.6 270 11:32 20.03.2022
4713 Mist 13 1013 90 10000 6.69 270 09:39 20.03.2022
4714 Mist 13 1014 88 10000 6.17 260 07:49 20.03.2022
4715 Clouds 14 1014 82 10000 4.12 250 05:48 20.03.2022
4716 Clouds 15 1014 73 10000 6.17 270 02:45 20.03.2022
4717 Clouds 17 1015 69 10000 6.69 250 00:48 20.03.2022
4718 Clear 19 1015 63 10000 5.14 260 23:20 19.03.2022
4719 Clouds 19 1017 62 10000 5.66 250 21:32 19.03.2022
4720 Clouds 19 1016 65 10000 1.79 200 20:58 19.03.2022
4721 Clouds 18 1017 67 10000 4.12 150 19:21 19.03.2022
4722 Clouds 17 1018 75 10000 4.12 130 18:25 19.03.2022
4723 Haze 16 1017 78 9656 2.57 150 17:41 19.03.2022
4724 Clear 14 1017 81 10000 0 0 16:29 19.03.2022
4725 Clear 13 1017 82 10000 2.06 160 15:20 19.03.2022
4726 Clear 13 1016 81 10000 3.09 250 13:35 19.03.2022
4727 Clear 14 1016 77 10000 2.57 90 12:42 19.03.2022
4728 Clear 14 1016 71 10000 2.06 100 11:54 19.03.2022
4729 Clear 14 1016 72 10000 2.06 100 11:33 19.03.2022
4730 Clear 16 1017 67 10000 2.06 180 08:23 19.03.2022
4731 Clear 18 1016 55 10000 5.66 270 04:23 19.03.2022
4732 Clear 22 1015 44 10000 4.12 180 02:30 19.03.2022
4733 Clear 25 1016 35 10000 4.12 260 23:46 18.03.2022
4734 Clear 25 1017 38 10000 5.14 260 22:36 18.03.2022
4735 Clear 25 1017 38 10000 0.89 221 21:56 18.03.2022
4736 Clear 24 1018 39 10000 2.57 190 19:57 18.03.2022
4737 Clear 22 1018 38 10000 2.57 0 19:23 18.03.2022
4738 Clear 21 1018 39 10000 2.06 130 18:34 18.03.2022
4739 Clear 17 1017 60 10000 2.06 80 16:52 18.03.2022
4740 Clear 15 1017 57 10000 3.09 110 15:52 18.03.2022
4741 Clear 15 1016 51 10000 2.57 80 14:25 18.03.2022
4742 Clear 15 1016 52 10000 1.54 110 13:18 18.03.2022
4743 Clear 16 1016 60 10000 0 0 11:29 18.03.2022
4744 Clear 16 1017 48 10000 2.57 250 09:52 18.03.2022
4745 Clear 17 1017 49 10000 3.6 240 08:45 18.03.2022
4746 Clear 17 1017 41 10000 3.09 260 06:45 18.03.2022
4747 Clear 17 1017 41 10000 3.09 260 06:45 18.03.2022
4748 Clear 19 1016 39 10000 3.6 250 04:38 18.03.2022
4749 Clear 24 1016 33 10000 8.75 270 00:55 18.03.2022
4750 Clear 25 1016 33 10000 7.2 270 23:52 17.03.2022
4751 Clear 25 1017 33 10000 7.2 270 23:52 17.03.2022
4752 Clear 25 1017 33 10000 7.2 270 23:52 17.03.2022
4753 Clear 25 1017 33 10000 7.2 270 23:52 17.03.2022
4754 Clear 25 1016 33 10000 7.2 270 23:52 17.03.2022
4755 Clear 26 1017 30 10000 6.69 250 22:44 17.03.2022
4756 Clear 26 1017 28 10000 6.69 250 22:18 17.03.2022
4757 Clear 26 1018 26 10000 4.12 260 21:27 17.03.2022
4758 Clear 26 1018 29 10000 3.6 150 20:53 17.03.2022
4759 Clear 25 1019 31 10000 3.6 150 20:19 17.03.2022
4760 Clear 24 1019 37 10000 2.57 260 19:37 17.03.2022
4761 Clear 23 1019 42 10000 3.09 250 18:51 17.03.2022
4762 Clear 19 1018 62 10000 4.12 260 17:28 17.03.2022
4763 Haze 15 1018 74 10000 2.57 260 16:20 17.03.2022
4764 Fog 15 1017 69 10000 3.6 290 15:43 17.03.2022
4765 Clear 14 1017 65 10000 0 0 14:59 17.03.2022
4766 Clear 15 1017 64 10000 3.6 280 13:45 17.03.2022
4767 Clear 15 1017 65 10000 3.6 340 12:46 17.03.2022
4768 Clear 15 1017 71 10000 2.68 52 11:33 17.03.2022
4769 Clear 15 1017 71 10000 3.6 100 10:43 17.03.2022
4770 Clear 15 1017 69 10000 3.6 100 09:36 17.03.2022
4771 Clear 17 1017 57 10000 3.6 100 08:19 17.03.2022
4772 Clear 19 1016 42 10000 5.66 360 05:51 17.03.2022
4773 Clear 20 1015 40 10000 6.17 330 04:40 17.03.2022
4774 Clear 25 1014 32 10000 9.26 260 00:27 17.03.2022
4775 Clear 24 1014 42 10000 4.02 240 22:56 16.03.2022
4776 Clear 24 1015 41 10000 8.23 270 22:36 16.03.2022
4777 Clear 24 1015 45 10000 2.57 260 21:56 16.03.2022
4778 Clear 23 1017 47 10000 7.2 290 20:40 16.03.2022
4779 Clear 20 1018 62 10000 7.2 280 19:23 16.03.2022
4780 Haze 20 1018 66 10000 7.2 330 18:42 16.03.2022
4781 Haze 18 1017 79 9656 3.6 130 17:50 16.03.2022
4782 Haze 16 1018 81 9656 3.6 130 17:31 16.03.2022
4783 Mist 15 1017 84 8047 3.6 300 16:35 16.03.2022
4784 Clouds 13 1016 78 10000 1.54 120 14:58 16.03.2022
4785 Mist 14 1016 82 9656 3.09 20 13:36 16.03.2022
4786 Clouds 14 1016 80 10000 2.06 110 12:56 16.03.2022
4787 Clear 14 1017 78 10000 0 0 11:24 16.03.2022
4788 Clear 15 1017 78 10000 1.54 90 10:37 16.03.2022
4789 Clear 15 1017 72 10000 0 0 09:57 16.03.2022
4790 Clear 15 1018 75 10000 2.06 90 08:24 16.03.2022
4791 Clear 19 1018 60 10000 3.09 250 02:46 16.03.2022
4792 Clear 23 1019 50 10000 3.13 254 22:58 15.03.2022
4793 Clear 23 1020 50 10000 8.23 260 22:36 15.03.2022
4794 Clear 23 1020 52 10000 6.69 250 21:19 15.03.2022
4795 Clear 22 1022 54 10000 3.6 260 19:47 15.03.2022
4796 Clear 20 1022 58 10000 2.06 200 18:35 15.03.2022
4797 Mist 15 1021 73 10000 1.54 100 16:42 15.03.2022
4798 Clear 14 1021 72 10000 1.54 140 15:42 15.03.2022
4799 Clear 14 1020 69 10000 2.06 70 14:54 15.03.2022
4800 Clear 13 1020 72 10000 0 0 13:57 15.03.2022
4801 Clear 13 1020 76 10000 2.57 100 13:24 15.03.2022
4802 Clear 13 1021 81 10000 2.57 70 11:34 15.03.2022
4803 Clear 14 1021 79 10000 0 0 10:55 15.03.2022
4804 Clear 15 1022 69 10000 2.57 70 09:29 15.03.2022
4805 Clear 15 1021 71 10000 3.6 110 08:32 15.03.2022
4806 Clear 15 1021 70 10000 1.54 120 07:39 15.03.2022
4807 Clear 16 1021 66 10000 2.57 290 06:32 15.03.2022
4808 Clear 21 1020 57 10000 2.06 260 01:57 15.03.2022
4809 Clear 23 1020 52 10000 5.66 270 23:31 14.03.2022
4810 Clear 23 1021 51 10000 6.17 260 22:52 14.03.2022
4811 Clear 23 1021 50 10000 3.09 270 21:56 14.03.2022
4812 Clear 22 1022 50 10000 5.66 260 21:18 14.03.2022
4813 Clear 21 1023 51 10000 2.06 0 20:30 14.03.2022
4814 Clear 19 1023 56 10000 3.09 80 19:33 14.03.2022
4815 Clear 17 1023 66 10000 2.57 90 18:20 14.03.2022
4816 Clear 15 1023 77 10000 3.6 90 17:42 14.03.2022
4817 Clear 13 1022 81 10000 3.09 70 16:37 14.03.2022
4818 Clouds 12 1021 86 10000 1.54 100 14:58 14.03.2022
4819 Clouds 12 1021 88 10000 1.54 0 13:59 14.03.2022
4820 Clouds 12 1020 86 10000 3.09 100 11:27 14.03.2022
4821 Clear 13 1020 88 10000 2.06 80 09:58 14.03.2022
4822 Clear 13 1020 88 10000 2.06 80 09:58 14.03.2022
4823 Clouds 13 1021 88 10000 4.63 120 09:38 14.03.2022
4824 Clouds 13 1021 86 10000 4.63 120 09:18 14.03.2022
4825 Clear 13 1021 86 10000 2.06 100 08:46 14.03.2022
4826 Clear 14 1020 71 10000 2.06 110 07:19 14.03.2022
4827 Clear 16 1018 64 10000 3.6 240 03:36 14.03.2022
4828 Clear 19 1018 50 10000 6.17 240 01:46 14.03.2022
4829 Clear 20 1018 48 10000 6.17 210 00:35 14.03.2022
4830 Clear 20 1019 50 10000 6.17 250 21:55 13.03.2022
4831 Clear 20 1019 48 10000 6.17 250 21:26 13.03.2022
4832 Clear 19 1020 47 10000 3.09 260 20:46 13.03.2022
4833 Clear 19 1020 46 10000 3.09 260 20:23 13.03.2022
4834 Clear 19 1021 49 10000 2.57 160 19:42 13.03.2022
4835 Clear 18 1020 49 10000 2.57 160 19:23 13.03.2022
4836 Clear 18 1021 49 10000 2.57 160 19:23 13.03.2022
4837 Clear 18 1021 49 10000 2.57 160 19:23 13.03.2022
4838 Clear 17 1021 53 10000 2.06 30 18:49 13.03.2022
4839 Clear 17 1021 56 10000 2.06 30 18:26 13.03.2022
4840 Clear 15 1021 64 10000 2.06 30 17:39 13.03.2022
4841 Clear 13 1020 69 10000 2.06 0 16:48 13.03.2022
4842 Clear 12 1020 73 10000 2.06 0 16:27 13.03.2022
4843 Clear 11 1020 65 10000 3.09 120 15:43 13.03.2022
4844 Mist 11 1019 67 10000 3.09 90 14:49 13.03.2022
4845 Mist 12 1019 59 10000 2.06 80 13:30 13.03.2022
4846 Mist 12 1019 61 10000 1.54 40 12:26 13.03.2022
4847 Clear 13 1019 59 10000 0 0 11:51 13.03.2022
4848 Clear 13 1019 61 10000 0 0 11:25 13.03.2022
4849 Clear 13 1019 61 10000 2.06 80 10:44 13.03.2022
4850 Clear 14 1019 54 10000 2.57 250 09:43 13.03.2022
4851 Clear 14 1019 58 10000 2.57 250 09:20 13.03.2022
4852 Clear 14 1019 50 10000 3.6 240 08:39 13.03.2022
4853 Clear 15 1019 47 10000 3.09 250 07:37 13.03.2022
4854 Clear 16 1019 43 10000 4.12 250 05:39 13.03.2022
4855 Clear 21 1019 26 10000 7.72 270 01:48 13.03.2022
4856 Clear 23 1020 19 10000 8.23 260 23:30 12.03.2022
4857 Clear 24 1022 17 10000 5.66 260 21:48 12.03.2022
4858 Clear 23 1023 19 10000 3.09 260 20:27 12.03.2022
4859 Clear 23 1023 19 10000 1.54 340 19:46 12.03.2022
4860 Clear 20 1023 21 10000 2.06 210 18:47 12.03.2022
4861 Clear 20 1023 22 10000 2.06 210 18:20 12.03.2022
4862 Clear 14 1023 34 10000 2.06 30 16:32 12.03.2022
4863 Clear 14 1023 29 10000 2.06 30 15:55 12.03.2022
4864 Clear 12 1023 30 10000 2.57 60 15:22 12.03.2022
4865 Clear 13 1023 29 10000 2.57 60 15:22 12.03.2022
4866 Clear 13 1023 29 10000 2.06 360 13:55 12.03.2022
4867 Clear 13 1023 31 10000 2.06 60 12:33 12.03.2022
4868 Clear 13 1023 32 10000 1.54 360 11:55 12.03.2022
4869 Clear 13 1024 32 10000 2.06 30 11:34 12.03.2022
4870 Clear 13 1024 32 10000 2.06 30 11:34 12.03.2022
4871 Clear 13 1025 31 10000 2.57 90 10:43 12.03.2022
4872 Clear 14 1024 33 10000 2.57 50 09:44 12.03.2022
4873 Clear 14 1025 32 10000 1.54 360 08:41 12.03.2022
4874 Clear 14 1024 34 10000 1.54 50 06:44 12.03.2022
4875 Clear 20 1024 21 10000 6.69 260 01:44 12.03.2022
4876 Clear 22 1025 15 10000 5.14 270 23:51 11.03.2022
4877 Clear 22 1025 16 10000 5.66 260 22:45 11.03.2022
4878 Clear 22 1026 15 10000 4.63 260 21:26 11.03.2022
4879 Clear 22 1026 15 10000 3.13 253 20:51 11.03.2022
4880 Clear 21 1026 15 10000 3.6 220 20:28 11.03.2022
4881 Clear 20 1026 18 10000 2.57 260 19:36 11.03.2022
4882 Clear 19 1026 21 10000 2.57 150 18:43 11.03.2022
4883 Clear 15 1026 38 10000 0 0 17:26 11.03.2022
4884 Clear 13 1025 45 10000 2.06 350 16:26 11.03.2022
4885 Clear 12 1024 44 10000 2.06 40 15:52 11.03.2022
4886 Clear 11 1023 53 10000 3.09 170 14:18 11.03.2022
4887 Clear 12 1022 52 10000 3.6 340 12:43 11.03.2022
4888 Clear 12 1022 51 10000 3.6 340 12:20 11.03.2022
4889 Clear 13 1022 48 10000 2.57 0 11:40 11.03.2022
4890 Clear 13 1021 64 10000 2.57 100 09:37 11.03.2022
4891 Clear 13 1020 67 10000 2.57 60 08:40 11.03.2022
4892 Clear 14 1020 61 10000 2.06 350 07:49 11.03.2022
4893 Clear 13 1020 49 10000 2.06 120 06:59 11.03.2022
4894 Clear 14 1019 64 10000 2.57 240 05:20 11.03.2022
4895 Clear 17 1016 65 10000 4.12 240 02:45 11.03.2022
4896 Clear 19 1015 55 10000 7.72 190 22:51 10.03.2022
4897 Clear 19 1014 55 10000 7.72 190 22:27 10.03.2022
4898 Clear 19 1015 57 10000 8.75 220 21:26 10.03.2022
4899 Clear 19 1015 58 10000 7.72 330 20:45 10.03.2022
4900 Clear 17 1015 60 10000 3.6 290 19:22 10.03.2022
4901 Clear 16 1015 65 10000 2.06 140 18:39 10.03.2022
4902 Clear 14 1014 76 10000 1.54 0 16:54 10.03.2022
4903 Clouds 11 1014 81 10000 0 0 15:41 10.03.2022
4904 Clouds 12 1013 82 10000 1.54 0 14:24 10.03.2022
4905 Clouds 12 1012 82 10000 3.6 100 12:50 10.03.2022
4906 Clouds 12 1013 82 10000 3.09 140 11:39 10.03.2022
4907 Clouds 12 1013 82 10000 3.6 100 10:19 10.03.2022
4908 Clouds 13 1014 85 10000 3.09 140 08:48 10.03.2022
4909 Clouds 13 1014 82 10000 2.06 170 06:36 10.03.2022
4910 Clear 14 1013 74 10000 5.14 190 03:42 10.03.2022
4911 Clear 19 1013 57 10000 6.17 250 00:23 10.03.2022
4912 Clear 20 1014 47 10000 4.63 200 22:46 09.03.2022
4913 Clear 19 1015 46 10000 4.12 250 21:48 09.03.2022
4914 Clear 19 1016 45 10000 4.12 250 21:23 09.03.2022
4915 Clear 17 1017 46 10000 4.63 150 19:40 09.03.2022
4916 Clear 15 1017 54 10000 3.09 130 18:19 09.03.2022
4917 Clear 13 1016 52 10000 3.09 90 17:26 09.03.2022
4918 Smoke 11 1016 56 10000 3.09 90 16:23 09.03.2022
4919 Smoke 10 1016 57 10000 2.06 90 14:32 09.03.2022
4920 Smoke 10 1016 51 10000 2.06 100 13:52 09.03.2022
4921 Smoke 10 1016 58 10000 2.06 90 12:36 09.03.2022
4922 Smoke 11 1016 53 10000 2.57 80 11:48 09.03.2022
4923 Smoke 11 1016 53 10000 2.57 80 11:18 09.03.2022
4924 Clear 12 1016 56 10000 2.57 340 09:45 09.03.2022
4925 Clear 12 1016 49 10000 3.6 250 08:47 09.03.2022
4926 Clear 13 1017 43 10000 2.57 300 06:51 09.03.2022
4927 Clear 18 1017 32 10000 7.2 260 01:54 09.03.2022
4928 Clear 21 1017 26 10000 7.72 260 00:26 09.03.2022
4929 Clear 21 1019 20 10000 6.17 240 22:46 08.03.2022
4930 Clear 21 1020 20 10000 5.14 270 21:52 08.03.2022
4931 Clear 21 1020 19 10000 5.14 270 21:22 08.03.2022
4932 Clear 21 1020 19 10000 5.14 270 21:22 08.03.2022
4933 Clear 20 1021 20 10000 5.14 250 20:24 08.03.2022
4934 Clear 19 1021 21 10000 3.6 250 19:24 08.03.2022
4935 Clear 17 1022 26 10000 2.06 340 18:23 08.03.2022
4936 Clear 14 1022 39 10000 0 0 16:56 08.03.2022
4937 Clear 11 1022 38 10000 0 0 14:58 08.03.2022
4938 Clear 11 1021 41 10000 0 0 13:54 08.03.2022
4939 Clear 11 1021 43 10000 1.54 310 12:28 08.03.2022
4940 Clear 11 1021 45 10000 1.54 20 11:43 08.03.2022
4941 Clear 12 1022 45 10000 1.54 310 10:29 08.03.2022
4942 Clear 13 1022 47 10000 0.45 356 08:58 08.03.2022
4943 Clear 14 1021 51 10000 2.57 130 06:31 08.03.2022
4944 Clear 15 1021 54 10000 5.66 250 03:48 08.03.2022
4945 Clear 20 1022 32 10000 8.23 30 22:53 07.03.2022
4946 Clear 20 1023 28 10000 6.17 30 21:45 07.03.2022
4947 Clear 20 1023 29 10000 6.17 30 21:27 07.03.2022
4948 Clear 19 1024 32 10000 7.72 30 20:38 07.03.2022
4949 Clear 18 1024 37 10000 2.06 110 19:50 07.03.2022
4950 Clear 17 1024 41 10000 2.06 110 19:24 07.03.2022
4951 Clear 16 1024 48 10000 2.06 110 18:38 07.03.2022
4952 Clear 12 1024 58 10000 3.09 50 17:33 07.03.2022
4953 Clear 11 1024 61 10000 2.06 50 16:55 07.03.2022
4954 Clear 8 1023 69 10000 1.54 20 14:57 07.03.2022
4955 Smoke 8 1023 67 10000 2.06 50 12:48 07.03.2022
4956 Smoke 8 1023 67 10000 2.06 50 12:20 07.03.2022
4957 Clear 9 1024 64 10000 1.54 310 10:35 07.03.2022
4958 Clear 10 1024 63 10000 2.57 360 08:35 07.03.2022
4959 Clear 13 1023 56 10000 2.57 220 02:58 07.03.2022
4960 Clear 16 1022 42 10000 6.17 260 00:22 07.03.2022
4961 Clear 17 1022 43 10000 6.69 250 23:29 06.03.2022
4962 Clear 17 1023 40 10000 5.66 240 22:32 06.03.2022
4963 Clear 16 1023 40 10000 3.6 150 21:45 06.03.2022
4964 Clear 15 1024 45 10000 2.57 110 20:30 06.03.2022
4965 Clear 15 1024 51 10000 2.06 0 19:50 06.03.2022
4966 Clear 13 1024 58 10000 3.09 50 18:51 06.03.2022
4967 Clear 11 1023 67 10000 1.54 0 17:54 06.03.2022
4968 Clear 10 1023 67 10000 3.09 0 17:20 06.03.2022
4969 Clear 8 1022 71 10000 2.06 260 16:41 06.03.2022
4970 Clear 7 1021 67 10000 2.06 40 15:37 06.03.2022
4971 Clear 7 1021 71 10000 2.06 40 14:49 06.03.2022
4972 Clear 7 1021 71 10000 2.06 40 14:30 06.03.2022
4973 Clear 7 1020 66 10000 2.06 350 12:44 06.03.2022
4974 Clear 7 1021 70 10000 4.12 260 11:56 06.03.2022
4975 Clear 8 1020 64 10000 4.63 340 10:52 06.03.2022
4976 Clear 9 1020 61 10000 4.12 340 09:43 06.03.2022
4977 Clear 9 1020 64 10000 2.57 230 08:29 06.03.2022
4978 Clear 10 1019 63 10000 3.09 340 07:34 06.03.2022
4979 Clear 11 1017 73 10000 8.23 270 04:46 06.03.2022
4980 Clouds 13 1017 60 10000 14.92 270 00:44 06.03.2022
4981 Clouds 14 1017 60 10000 14.92 270 00:25 06.03.2022
4982 Clouds 14 1016 53 10000 15.95 250 23:20 05.03.2022
4983 Clouds 14 1017 54 10000 12.86 250 22:43 05.03.2022
4984 Clouds 14 1018 53 10000 13.38 260 21:45 05.03.2022
4985 Clouds 14 1018 53 10000 13.38 260 21:20 05.03.2022
4986 Clear 13 1019 56 10000 10.29 270 19:24 05.03.2022
4987 Clouds 13 1019 58 10000 6.17 280 18:51 05.03.2022
4988 Clouds 12 1018 68 10000 2.57 330 17:53 05.03.2022
4989 Clouds 10 1018 78 10000 2.57 330 16:32 05.03.2022
4990 Clouds 9 1017 81 10000 3.6 300 15:31 05.03.2022
4991 Clouds 9 1016 81 10000 1.54 220 14:44 05.03.2022
4992 Clouds 10 1016 80 10000 1.54 220 14:26 05.03.2022
4993 Clouds 10 1016 78 10000 8.23 260 13:20 05.03.2022
4994 Clouds 11 1017 81 10000 6.17 240 11:48 05.03.2022
4995 Clouds 11 1017 81 10000 6.17 240 11:18 05.03.2022
4996 Clouds 11 1018 82 10000 5.14 160 09:59 05.03.2022
4997 Clouds 12 1018 82 10000 6.17 140 08:59 05.03.2022
4998 Clouds 12 1018 85 10000 7.2 240 07:37 05.03.2022
4999 Clouds 12 1017 83 10000 9.26 250 05:43 05.03.2022
5000 Clouds 15 1016 73 10000 9.26 260 02:27 05.03.2022
5001 Clouds 16 1015 68 10000 7.2 250 23:37 04.03.2022
5002 Clouds 16 1015 67 10000 7.2 250 22:42 04.03.2022
5003 Clouds 16 1015 64 10000 8.23 260 21:48 04.03.2022
5004 Clouds 16 1015 62 10000 5.66 260 20:54 04.03.2022
5005 Clouds 17 1015 60 10000 5.66 260 20:24 04.03.2022
5006 Clouds 16 1014 60 10000 4.63 270 19:36 04.03.2022
5007 Clouds 16 1014 61 10000 2.06 0 18:44 04.03.2022
5008 Haze 14 1013 71 9656 2.06 10 17:32 04.03.2022
5009 Haze 12 1013 82 9656 0 0 16:54 04.03.2022
5010 Clouds 11 1012 84 10000 2.57 40 15:29 04.03.2022
5011 Clear 11 1012 84 10000 3.09 60 14:29 04.03.2022
5012 Clear 12 1011 82 10000 0 0 13:26 04.03.2022
5013 Clear 12 1011 82 10000 1.54 110 13:26 04.03.2022
5014 Clear 13 1012 83 10000 2.57 170 11:46 04.03.2022
5015 Clouds 13 1012 84 10000 3.09 140 10:52 04.03.2022
5016 Clouds 14 1012 83 10000 4.12 130 09:52 04.03.2022
5017 Clouds 14 1013 82 10000 3.6 210 08:39 04.03.2022
5018 Clouds 14 1013 79 10000 5.66 110 07:36 04.03.2022
5019 Clouds 15 1013 75 10000 3.09 160 03:56 04.03.2022
5020 Clear 19 1012 57 10000 6.17 190 00:38 04.03.2022
5021 Clear 20 1013 53 10000 6.17 180 22:28 03.03.2022
5022 Clear 20 1014 51 10000 5.14 260 21:45 03.03.2022
5023 Clear 20 1014 50 10000 5.14 260 21:26 03.03.2022
5024 Haze 19 1014 55 8047 4.12 200 20:18 03.03.2022
5025 Haze 17 1015 59 6437 3.6 200 18:55 03.03.2022
5026 Haze 17 1014 59 4828 2.57 160 18:24 03.03.2022
5027 Mist 15 1014 60 4828 2.06 110 17:31 03.03.2022
5028 Mist 13 1014 63 10000 3.09 130 16:26 03.03.2022
5029 Mist 13 1013 62 10000 2.57 120 15:32 03.03.2022
5030 Mist 13 1013 68 10000 3.6 70 14:43 03.03.2022
5031 Mist 13 1013 67 10000 3.6 70 14:24 03.03.2022
5032 Fog 14 1013 64 10000 2.06 100 12:27 03.03.2022
5033 Clear 15 1014 55 10000 2.57 40 10:49 03.03.2022
5034 Clear 15 1015 51 10000 2.06 0 09:56 03.03.2022
5035 Clear 15 1015 63 10000 4.12 110 08:34 03.03.2022
5036 Clear 17 1014 44 10000 2.57 220 06:38 03.03.2022
5037 Clear 18 1014 40 10000 2.06 250 05:20 03.03.2022
5038 Clear 26 1015 24 10000 5.14 260 23:45 02.03.2022
5039 Clear 27 1016 24 10000 5.66 260 22:54 02.03.2022
5040 Clear 27 1016 26 10000 5.66 260 22:31 02.03.2022
5041 Clear 26 1017 20 10000 2.06 140 20:59 02.03.2022
5042 Clear 26 1017 19 10000 2.06 160 20:25 02.03.2022
5043 Clear 25 1017 20 10000 1.54 0 19:38 02.03.2022
5044 Clear 24 1017 20 10000 1.54 0 19:18 02.03.2022
5045 Clear 21 1018 25 10000 2.57 0 18:31 02.03.2022
5046 Clear 19 1017 29 10000 1.54 30 17:42 02.03.2022
5047 Clear 18 1017 37 10000 1.54 100 16:52 02.03.2022
5048 Clear 17 1016 31 10000 0 0 15:59 02.03.2022
5049 Smoke 15 1016 44 10000 2.06 80 14:29 02.03.2022
5050 Smoke 17 1016 39 10000 1.54 10 12:56 02.03.2022
5051 Smoke 16 1017 43 10000 0 0 12:34 02.03.2022
5052 Clear 16 1017 38 10000 0 0 11:27 02.03.2022
5053 Clear 17 1018 35 10000 1.54 100 10:39 02.03.2022
5054 Clear 17 1018 35 10000 3.6 100 09:37 02.03.2022
5055 Clear 17 1018 36 10000 2.06 0 08:36 02.03.2022
5056 Clear 17 1018 38 10000 2.06 130 07:23 02.03.2022
5057 Clear 18 1018 38 10000 1.54 0 05:42 02.03.2022
5058 Clear 27 1016 19 10000 5.66 230 00:42 02.03.2022
5059 Clear 27 1016 19 10000 6.17 240 23:35 01.03.2022
5060 Clear 28 1017 21 10000 5.14 260 22:40 01.03.2022
5061 Clear 29 1018 21 10000 5.14 260 21:53 01.03.2022
5062 Clear 28 1018 15 10000 6.17 250 20:44 01.03.2022
5063 Clear 28 1018 15 10000 3.09 0 20:22 01.03.2022
5064 Clear 25 1018 17 10000 0 0 18:59 01.03.2022
5065 Clear 23 1019 26 10000 2.57 240 18:25 01.03.2022
5066 Clear 22 1019 27 10000 2.06 120 17:55 01.03.2022
5067 Clear 18 1018 32 10000 2.57 50 16:39 01.03.2022
5068 Smoke 15 1018 32 10000 2.57 60 15:49 01.03.2022
5069 Clear 16 1018 34 10000 1.54 20 14:54 01.03.2022
5070 Clear 16 1018 34 10000 2.24 352 14:33 01.03.2022
5071 Clear 16 1018 33 10000 1.54 40 13:26 01.03.2022
5072 Clear 16 1018 31 10000 2.06 80 12:38 01.03.2022
5073 Clear 16 1018 29 10000 4.63 250 11:44 01.03.2022
5074 Clear 17 1018 31 10000 4.12 350 09:53 01.03.2022
5075 Clear 18 1018 32 10000 6.17 340 08:36 01.03.2022
5076 Clear 19 1019 26 10000 6.17 350 07:35 01.03.2022
5077 Clear 21 1017 34 10000 2.57 270 03:29 01.03.2022
5078 Clear 27 1017 21 10000 3.6 210 00:58 01.03.2022
5079 Clear 27 1017 19 10000 8.23 20 23:48 28.02.2022
5080 Clouds 27 1018 20 10000 7.72 20 22:52 28.02.2022
5081 Clear 27 1019 13 10000 10.29 30 21:48 28.02.2022
5082 Clear 27 1019 13 10000 10.29 30 21:48 28.02.2022
5083 Haze 26 1019 13 10000 10.29 30 21:24 28.02.2022
5084 Clear 25 1021 15 10000 2.06 190 19:52 28.02.2022
5085 Clear 24 1021 15 10000 2.06 190 19:22 28.02.2022
5086 Clear 22 1021 18 10000 0 0 18:36 28.02.2022
5087 Clear 17 1021 30 10000 2.06 110 17:23 28.02.2022
5088 Clear 14 1020 30 10000 2.06 70 16:32 28.02.2022
5089 Clear 13 1020 27 10000 2.06 90 15:23 28.02.2022
5090 Smoke 14 1020 28 10000 2.57 90 14:31 28.02.2022
5091 Clear 14 1020 28 10000 2.06 30 13:34 28.02.2022
5092 Clear 14 1021 28 10000 1.54 60 12:37 28.02.2022
5093 Clear 14 1021 29 10000 0 0 11:44 28.02.2022
5094 Clear 14 1022 31 10000 2.06 50 10:48 28.02.2022
5095 Clear 15 1022 32 10000 2.06 50 10:19 28.02.2022
5096 Clear 15 1022 30 10000 2.06 150 09:31 28.02.2022
5097 Clear 16 1022 29 10000 0.45 356 08:29 28.02.2022
5098 Clear 16 1022 27 10000 3.6 130 07:20 28.02.2022
5099 Clear 16 1022 29 10000 1.54 0 04:44 28.02.2022
5100 Clear 17 1022 29 10000 1.54 0 04:23 28.02.2022
5101 Clear 23 1022 15 10000 6.17 260 23:27 27.02.2022
5102 Clear 23 1023 15 10000 3.09 230 22:33 27.02.2022
5103 Clear 23 1024 14 10000 1.79 255 21:51 27.02.2022
5104 Clear 22 1025 14 10000 1.79 271 20:59 27.02.2022
5105 Clear 22 1025 13 10000 2.06 100 20:27 27.02.2022
5106 Clear 21 1025 15 10000 1.34 67 19:57 27.02.2022
5107 Clear 19 1025 16 10000 2.57 30 19:26 27.02.2022
5108 Clear 18 1026 16 10000 3.09 10 18:47 27.02.2022
5109 Clear 16 1026 26 10000 2.06 0 17:56 27.02.2022
5110 Clear 13 1025 27 10000 2.06 90 16:54 27.02.2022
5111 Clear 11 1025 29 10000 2.06 90 16:21 27.02.2022
5112 Clear 12 1025 26 10000 3.6 350 13:34 27.02.2022
5113 Clear 12 1025 26 10000 3.6 10 12:33 27.02.2022
5114 Clear 13 1026 27 10000 0.89 279 10:59 27.02.2022
5115 Clear 13 1026 28 10000 2.57 110 10:20 27.02.2022
5116 Clear 13 1026 32 10000 2.57 70 09:50 27.02.2022
5117 Clear 12 1026 33 10000 2.57 70 09:20 27.02.2022
5118 Clear 13 1026 33 10000 2.06 20 08:20 27.02.2022
5119 Clear 13 1026 33 10000 2.06 20 08:20 27.02.2022
5120 Clear 14 1025 38 10000 3.09 350 05:38 27.02.2022
5121 Clear 18 1024 29 10000 4.12 270 02:35 27.02.2022
5122 Clear 20 1024 23 10000 5.66 290 23:30 26.02.2022
5123 Clear 20 1024 24 10000 5.66 290 23:30 26.02.2022
5124 Clear 20 1025 22 10000 5.14 260 22:31 26.02.2022
5125 Clear 20 1026 19 10000 4.12 250 21:19 26.02.2022
5126 Clear 19 1026 20 10000 2.57 200 20:33 26.02.2022
5127 Clear 18 1026 21 10000 2.57 160 19:52 26.02.2022
5128 Clear 18 1026 23 10000 2.57 160 19:31 26.02.2022
5129 Clear 14 1026 35 10000 1.54 90 17:55 26.02.2022
5130 Clear 12 1026 38 10000 1.54 100 17:30 26.02.2022
5131 Clear 10 1025 44 10000 1.54 90 16:34 26.02.2022
5132 Clear 9 1024 43 10000 0 0 15:26 26.02.2022
5133 Clear 9 1025 43 10000 0 0 14:58 26.02.2022
5134 Clear 9 1024 45 10000 2.06 50 14:39 26.02.2022
5135 Clear 9 1023 45 10000 2.06 80 13:46 26.02.2022
5136 Clear 9 1023 47 10000 2.06 60 12:53 26.02.2022
5137 Clear 9 1023 48 10000 2.57 60 11:39 26.02.2022
5138 Clear 10 1023 47 10000 0 0 10:59 26.02.2022
5139 Clear 10 1023 51 10000 1.54 40 09:28 26.02.2022
5140 Clear 10 1023 56 10000 2.06 0 08:21 26.02.2022
5141 Clear 12 1022 52 10000 5.14 270 04:22 26.02.2022
5142 Clear 18 1021 31 10000 5.66 250 23:50 25.02.2022
5143 Clear 18 1022 24 10000 4.63 240 22:31 25.02.2022
5144 Clear 17 1023 24 10000 4.12 260 21:30 25.02.2022
5145 Clear 17 1023 25 10000 2.06 0 20:34 25.02.2022
5146 Clear 16 1023 27 10000 0.89 149 19:56 25.02.2022
5147 Clear 11 1023 44 10000 1.54 70 17:54 25.02.2022
5148 Clear 9 1022 46 10000 1.54 60 16:48 25.02.2022
5149 Clear 7 1022 47 10000 0 0 15:50 25.02.2022
5150 Clear 7 1022 49 10000 0 0 15:23 25.02.2022
5151 Clear 7 1022 47 10000 0 0 14:55 25.02.2022
5152 Clear 7 1022 49 10000 1.54 340 14:24 25.02.2022
5153 Clear 7 1022 48 10000 2.06 70 13:30 25.02.2022
5154 Clear 7 1022 48 10000 2.57 60 12:21 25.02.2022
5155 Clear 8 1022 46 10000 2.06 40 11:21 25.02.2022
5156 Clear 8 1023 48 10000 1.54 50 10:23 25.02.2022
5157 Clear 8 1023 49 10000 3.09 300 09:45 25.02.2022
5158 Clear 8 1023 46 10000 3.09 300 08:22 25.02.2022
5159 Clear 9 1023 50 10000 3.09 300 06:56 25.02.2022
5160 Clear 10 1023 49 10000 6.69 270 05:41 25.02.2022
5161 Clear 12 1022 43 10000 8.23 260 02:46 25.02.2022
5162 Clear 16 1024 22 10000 4.63 240 22:47 24.02.2022
5163 Clear 15 1025 20 10000 4.63 260 21:51 24.02.2022
5164 Clear 15 1025 20 10000 4.63 260 21:30 24.02.2022
5165 Clear 15 1026 21 10000 2.57 200 20:47 24.02.2022
5166 Clear 13 1026 26 10000 2.06 130 19:32 24.02.2022
5167 Clear 11 1026 33 10000 2.57 0 18:21 24.02.2022
5168 Clear 10 1026 39 10000 1.54 110 17:58 24.02.2022
5169 Clear 9 1026 42 10000 1.54 0 17:21 24.02.2022
5170 Clear 6 1025 46 10000 2.57 300 16:28 24.02.2022
5171 Clear 6 1024 45 10000 1.54 80 15:44 24.02.2022
5172 Clear 5 1024 43 10000 1.54 120 14:50 24.02.2022
5173 Clear 6 1024 48 10000 1.54 120 14:19 24.02.2022
5174 Clear 6 1023 47 10000 2.57 20 13:39 24.02.2022
5175 Clear 6 1023 47 10000 2.57 20 13:39 24.02.2022
5176 Clear 7 1023 45 10000 1.79 39 11:56 24.02.2022
5177 Clear 7 1022 43 10000 4.12 360 10:39 24.02.2022
5178 Clear 7 1022 44 10000 4.63 360 08:46 24.02.2022
5179 Clear 8 1022 44 10000 4.63 360 08:22 24.02.2022
5180 Clear 9 1020 40 10000 4.63 330 05:52 24.02.2022
5181 Clouds 12 1016 35 10000 2.06 280 00:32 24.02.2022
5182 Clouds 13 1015 35 10000 8.23 330 22:38 23.02.2022
5183 Clear 13 1016 35 10000 6.17 260 21:34 23.02.2022
5184 Clear 12 1016 38 10000 5.14 260 20:30 23.02.2022
5185 Clear 12 1016 43 10000 5.14 320 19:44 23.02.2022
5186 Clear 10 1016 52 10000 6.69 340 18:32 23.02.2022
5187 Clear 8 1015 69 10000 3.09 340 17:30 23.02.2022
5188 Clear 7 1013 74 10000 3.6 310 14:34 23.02.2022
5189 Clouds 7 1013 72 10000 0 0 12:42 23.02.2022
5190 Clouds 8 1013 71 10000 5.66 300 11:34 23.02.2022
5191 Clouds 8 1013 70 10000 6.17 280 10:31 23.02.2022
5192 Clouds 8 1014 73 10000 0 0 08:59 23.02.2022
5193 Clouds 9 1014 67 10000 3.6 270 07:58 23.02.2022
5194 Clouds 11 1013 69 10000 10.8 260 03:49 23.02.2022
5195 Clouds 14 1013 57 10000 9.77 240 00:28 23.02.2022
5196 Clear 14 1014 56 10000 11.83 250 23:36 22.02.2022
5197 Clear 14 1014 56 10000 11.83 260 22:32 22.02.2022
5198 Haze 15 1015 58 4023 10.29 250 21:49 22.02.2022
5199 Clouds 14 1015 60 10000 10.29 250 21:30 22.02.2022
5200 Clouds 14 1016 61 10000 10.29 260 20:55 22.02.2022
5201 Clouds 14 1016 62 10000 10.29 260 20:30 22.02.2022
5202 Clouds 14 1016 63 10000 5.66 260 19:42 22.02.2022
5203 Clouds 13 1016 63 10000 5.66 260 19:23 22.02.2022
5204 Clouds 12 1016 74 10000 4.63 250 17:49 22.02.2022
5205 Clear 12 1016 76 10000 4.63 250 17:23 22.02.2022
5206 Clouds 11 1015 79 10000 5.14 250 16:41 22.02.2022
5207 Clouds 10 1015 79 10000 4.63 250 15:44 22.02.2022
5208 Clouds 10 1015 79 10000 4.63 250 15:44 22.02.2022
5209 Clouds 11 1015 79 10000 5.14 240 14:44 22.02.2022
5210 Clouds 11 1015 79 10000 4.63 120 12:44 22.02.2022
5211 Clouds 11 1016 76 10000 3.6 240 10:52 22.02.2022
5212 Clouds 11 1016 74 10000 4.12 120 08:48 22.02.2022
5213 Clouds 12 1016 71 10000 4.12 140 07:27 22.02.2022
5214 Clouds 12 1016 72 10000 3.09 200 05:57 22.02.2022
5215 Clear 13 1015 67 10000 4.12 180 02:45 22.02.2022
5216 Clear 15 1014 61 10000 8.23 240 22:46 21.02.2022
5217 Clouds 15 1015 61 10000 7.72 260 21:46 21.02.2022
5218 Clouds 15 1015 65 10000 8.75 270 20:36 21.02.2022
5219 Clouds 14 1015 68 10000 4.63 130 18:46 21.02.2022
5220 Clouds 13 1015 74 10000 3.09 140 17:36 21.02.2022
5221 Clear 11 1014 78 10000 2.57 140 15:25 21.02.2022
5222 Clouds 12 1013 77 10000 2.57 100 14:22 21.02.2022
5223 Clouds 12 1014 77 10000 2.06 90 13:30 21.02.2022
5224 Clouds 12 1014 77 10000 2.57 110 12:24 21.02.2022
5225 Clouds 12 1015 76 10000 2.57 150 11:20 21.02.2022
5226 Clouds 12 1015 79 10000 2.57 0 09:50 21.02.2022
5227 Clouds 12 1015 81 10000 3.09 200 05:35 21.02.2022
5228 Clear 17 1014 65 10000 7.72 230 00:18 21.02.2022
5229 Clear 19 1014 58 10000 5.66 260 22:27 20.02.2022
5230 Clear 19 1015 57 10000 3.6 240 21:42 20.02.2022
5231 Clear 19 1015 56 10000 0.89 212 20:59 20.02.2022
5232 Haze 18 1016 61 9656 2.57 250 20:41 20.02.2022
5233 Haze 17 1016 64 8047 2.57 200 19:42 20.02.2022
5234 Haze 15 1016 70 6437 0 0 18:52 20.02.2022
5235 Haze 15 1016 71 6437 1.54 140 18:32 20.02.2022
5236 Haze 13 1016 75 6437 0 0 17:52 20.02.2022
5237 Mist 11 1015 77 4828 0 0 15:54 20.02.2022
5238 Mist 10 1015 74 10000 1.54 100 14:52 20.02.2022
5239 Mist 11 1015 75 10000 0 0 13:33 20.02.2022
5240 Clear 11 1016 71 10000 1.54 210 12:34 20.02.2022
5241 Clear 12 1017 72 10000 2.57 240 10:47 20.02.2022
5242 Clear 12 1017 72 10000 2.57 240 10:20 20.02.2022
5243 Clear 13 1016 65 10000 3.09 100 08:51 20.02.2022
5244 Clear 21 1016 36 10000 7.2 260 00:55 20.02.2022
5245 Clear 22 1016 32 10000 7.2 260 00:30 20.02.2022
5246 Clear 23 1017 29 10000 6.17 260 23:18 19.02.2022
5247 Clear 23 1017 31 10000 5.14 260 22:22 19.02.2022
5248 Clear 23 1019 27 10000 5.66 280 21:34 19.02.2022
5249 Clear 21 1020 28 10000 1.54 0 19:54 19.02.2022
5250 Clear 21 1020 26 10000 1.54 0 19:33 19.02.2022
5251 Clear 19 1020 32 10000 0 0 18:35 19.02.2022
5252 Clear 16 1020 37 10000 0 0 17:37 19.02.2022
5253 Clear 12 1020 46 10000 1.54 90 16:34 19.02.2022
5254 Clear 13 1019 41 10000 1.54 110 15:19 19.02.2022
5255 Clear 13 1019 42 10000 0 0 14:52 19.02.2022
5256 Clear 13 1019 44 10000 1.54 40 13:45 19.02.2022
5257 Clear 13 1020 45 10000 2.06 80 11:39 19.02.2022
5258 Clear 14 1021 42 10000 2.57 50 09:57 19.02.2022
5259 Clear 14 1021 47 10000 1.54 60 07:55 19.02.2022
5260 Clear 16 1021 48 10000 5.66 270 04:32 19.02.2022
5261 Clear 23 1021 25 10000 5.66 260 23:38 18.02.2022
5262 Clear 22 1022 19 10000 4.12 260 21:54 18.02.2022
5263 Clear 22 1023 20 10000 3.09 250 20:57 18.02.2022
5264 Clear 21 1024 22 10000 0 0 19:54 18.02.2022
5265 Clear 18 1024 28 10000 1.54 70 18:50 18.02.2022
5266 Clear 17 1024 27 10000 1.54 70 18:22 18.02.2022
5267 Clear 16 1025 29 10000 0 0 17:55 18.02.2022
5268 Clear 11 1024 40 10000 2.06 40 15:23 18.02.2022
5269 Clear 12 1023 41 10000 2.06 60 13:55 18.02.2022
5270 Clear 12 1023 41 10000 2.06 60 13:25 18.02.2022
5271 Clear 11 1024 45 10000 2.06 80 12:40 18.02.2022
5272 Clear 12 1024 40 10000 1.54 240 11:40 18.02.2022
5273 Clear 13 1024 38 10000 1.54 0 10:23 18.02.2022
5274 Clear 14 1026 42 10000 1.31 29 06:58 18.02.2022
5275 Clear 14 1024 49 10000 5.66 260 05:41 18.02.2022
5276 Clear 21 1023 22 10000 6.17 270 23:43 17.02.2022
5277 Clear 21 1025 22 10000 4.12 210 21:46 17.02.2022
5278 Clear 20 1025 23 10000 4.12 210 21:20 17.02.2022
5279 Clear 20 1025 27 10000 3.6 260 20:39 17.02.2022
5280 Clear 19 1025 31 10000 4.12 120 19:50 17.02.2022
5281 Clear 17 1025 43 10000 2.57 130 18:54 17.02.2022
5282 Clear 15 1024 58 10000 6.69 350 17:55 17.02.2022
5283 Clear 13 1023 64 10000 2.06 0 16:43 17.02.2022
5284 Clear 11 1023 75 10000 2.06 20 15:40 17.02.2022
5285 Clear 11 1022 72 10000 2.06 330 14:28 17.02.2022
5286 Clear 11 1021 78 10000 0.45 67 12:50 17.02.2022
5287 Clear 10 1022 80 10000 1.54 10 11:27 17.02.2022
5288 Clear 11 1021 82 10000 3.6 50 09:18 17.02.2022
5289 Clear 12 1018 74 10000 2.57 170 04:41 17.02.2022
5290 Clear 18 1015 48 10000 6.17 230 23:21 16.02.2022
5291 Clear 17 1016 42 10000 3.6 120 21:45 16.02.2022
5292 Clear 16 1016 44 10000 4.12 130 20:19 16.02.2022
5293 Clear 14 1016 54 10000 3.09 100 18:43 16.02.2022
5294 Clear 12 1016 63 10000 2.06 0 17:53 16.02.2022
5295 Clear 9 1014 64 10000 1.54 0 15:55 16.02.2022
5296 Clear 9 1013 60 10000 3.09 330 15:20 16.02.2022
5297 Clear 9 1012 63 10000 5.14 280 13:31 16.02.2022
5298 Clear 9 1012 60 10000 3.09 310 12:20 16.02.2022
5299 Clear 9 1012 62 10000 3.09 300 11:35 16.02.2022
5300 Clear 10 1012 62 10000 4.12 300 10:34 16.02.2022
5301 Clouds 10 1011 65 10000 3.44 328 08:58 16.02.2022
5302 Clouds 10 1011 59 10000 5.14 310 06:43 16.02.2022
5303 Clouds 15 1008 59 10000 10.8 260 23:46 15.02.2022
5304 Clouds 15 1009 64 10000 10.8 270 22:34 15.02.2022
5305 Clouds 15 1010 66 10000 7.2 250 21:49 15.02.2022
5306 Clouds 15 1010 69 10000 7.2 250 21:29 15.02.2022
5307 Clouds 15 1011 72 10000 6.69 260 20:56 15.02.2022
5308 Clouds 15 1011 77 10000 3.84 188 19:59 15.02.2022
5309 Clouds 14 1012 76 10000 5.14 260 19:33 15.02.2022
5310 Clouds 14 1012 78 10000 5.14 260 18:24 15.02.2022
5311 Clouds 14 1012 78 10000 6.17 140 17:52 15.02.2022
5312 Clouds 13 1012 79 10000 6.17 140 17:26 15.02.2022
5313 Clouds 13 1012 80 10000 5.14 130 15:34 15.02.2022
5314 Clouds 13 1012 83 10000 3.09 150 13:49 15.02.2022
5315 Clouds 13 1012 83 10000 3.09 150 13:25 15.02.2022
5316 Clouds 13 1014 85 10000 3.09 150 11:41 15.02.2022
5317 Clouds 13 1014 85 10000 3.09 150 11:41 15.02.2022
5318 Clouds 13 1014 85 10000 3.6 120 10:19 15.02.2022
5319 Clear 13 1014 86 10000 4.12 250 07:41 15.02.2022
5320 Clear 14 1014 81 10000 4.63 230 06:36 15.02.2022
5321 Fog 23 1016 37 10000 4.12 270 23:34 14.02.2022
5322 Clear 24 1016 38 10000 1.79 256 21:55 14.02.2022
5323 Clear 24 1018 30 10000 5.14 230 20:52 14.02.2022
5324 Clear 23 1019 21 10000 2.06 100 19:46 14.02.2022
5325 Clear 22 1019 22 10000 2.06 100 19:28 14.02.2022
5326 Clear 20 1019 31 10000 2.57 120 18:23 14.02.2022
5327 Clear 17 1019 39 10000 1.54 70 17:27 14.02.2022
5328 Fog 16 1019 39 10000 1.54 300 16:33 14.02.2022
5329 Clear 16 1019 38 10000 1.54 280 14:43 14.02.2022
5330 Clear 16 1019 37 10000 0 0 13:34 14.02.2022
5331 Clear 18 1020 24 10000 1.37 60 12:58 14.02.2022
5332 Clear 18 1019 27 10000 0.62 32 11:57 14.02.2022
5333 Clear 17 1020 39 10000 1.54 70 11:38 14.02.2022
5334 Clear 18 1020 37 10000 2.06 70 10:18 14.02.2022
5335 Clear 19 1020 37 10000 3.09 250 07:49 14.02.2022
5336 Clear 19 1020 35 10000 3.09 250 07:24 14.02.2022
5337 Clear 29 1021 15 10000 5.14 270 22:48 13.02.2022
5338 Clear 29 1021 16 10000 5.14 270 22:30 13.02.2022
5339 Clear 29 1021 14 10000 4.63 260 21:59 13.02.2022
5340 Clear 29 1022 13 10000 4.63 260 21:23 13.02.2022
5341 Clear 28 1023 16 10000 3.09 110 20:27 13.02.2022
5342 Clear 25 1023 17 10000 0 0 19:18 13.02.2022
5343 Clear 24 1023 24 10000 3.09 60 18:41 13.02.2022
5344 Clear 19 1023 28 10000 2.06 70 17:32 13.02.2022
5345 Clear 17 1021 26 10000 1.54 80 15:51 13.02.2022
5346 Clear 18 1021 23 10000 2.06 90 14:50 13.02.2022
5347 Clear 18 1021 23 10000 3.09 50 13:29 13.02.2022
5348 Clear 19 1021 23 10000 3.6 40 12:42 13.02.2022
5349 Clear 19 1021 23 10000 3.09 40 10:44 13.02.2022
5350 Clear 20 1021 22 10000 3.09 40 10:25 13.02.2022
5351 Clear 20 1021 27 10000 1.54 20 08:57 13.02.2022
5352 Clear 24 1019 30 10000 3.6 270 02:50 13.02.2022
5353 Clear 30 1018 14 10000 5.14 250 00:33 13.02.2022
5354 Clear 30 1019 11 10000 2.57 110 22:56 12.02.2022
5355 Clear 30 1019 11 10000 2.57 110 22:32 12.02.2022
5356 Clear 30 1020 13 10000 2.57 90 21:18 12.02.2022
5357 Clear 29 1020 16 10000 3.09 0 20:25 12.02.2022
5358 Clear 25 1021 24 10000 3.6 50 18:54 12.02.2022
5359 Clear 23 1021 27 10000 3.6 50 18:36 12.02.2022
5360 Clear 22 1020 29 10000 2.57 80 17:55 12.02.2022
5361 Clear 19 1021 34 10000 0.45 23 16:54 12.02.2022
5362 Clear 17 1019 40 10000 3.6 40 16:18 12.02.2022
5363 Clear 17 1018 38 10000 2.06 50 15:23 12.02.2022
5364 Clear 17 1017 37 10000 2.57 20 14:30 12.02.2022
5365 Clear 17 1017 39 10000 2.06 50 12:26 12.02.2022
5366 Clear 18 1017 35 10000 2.57 70 10:34 12.02.2022
5367 Clear 18 1017 36 10000 1.54 110 09:38 12.02.2022
5368 Clear 19 1016 38 10000 1.54 40 08:48 12.02.2022
5369 Clear 19 1016 38 10000 1.54 40 08:48 12.02.2022
5370 Clear 19 1016 36 10000 2.06 90 07:50 12.02.2022
5371 Clear 19 1015 39 10000 2.06 90 05:31 12.02.2022
5372 Clear 24 1014 34 10000 4.12 270 02:20 12.02.2022
5373 Clear 25 1015 28 10000 4.12 260 01:44 12.02.2022
5374 Clear 28 1015 24 10000 5.14 250 22:27 11.02.2022
5375 Clear 28 1016 26 10000 4.63 260 21:45 11.02.2022
5376 Clear 27 1017 23 10000 2.06 140 20:38 11.02.2022
5377 Clear 25 1017 27 10000 2.06 120 19:33 11.02.2022
5378 Clear 25 1017 28 10000 0 0 18:58 11.02.2022
5379 Clear 19 1017 38 10000 2.06 80 17:28 11.02.2022
5380 Clear 19 1017 37 10000 0 0 16:58 11.02.2022
5381 Clear 17 1016 34 10000 0 0 15:55 11.02.2022
5382 Clear 16 1016 41 10000 3.09 90 14:38 11.02.2022
5383 Clear 17 1016 41 10000 3.09 90 14:20 11.02.2022
5384 Clear 18 1016 36 10000 2.57 50 13:52 11.02.2022
5385 Clear 17 1016 38 10000 2.57 50 13:34 11.02.2022
5386 Clear 18 1016 36 10000 1.54 350 11:32 11.02.2022
5387 Clear 19 1017 37 10000 3.09 90 09:45 11.02.2022
5388 Clear 19 1017 39 10000 2.57 60 08:40 11.02.2022
5389 Clear 19 1017 40 10000 2.57 60 08:22 11.02.2022
5390 Clear 20 1017 39 10000 1.54 170 06:33 11.02.2022
5391 Clear 25 1016 32 10000 0 0 02:26 11.02.2022
5392 Clear 28 1016 26 10000 5.66 40 00:47 11.02.2022
5393 Clear 28 1017 22 10000 8.23 20 22:49 10.02.2022
5394 Clear 28 1018 18 10000 3.6 190 21:45 10.02.2022
5395 Clear 28 1019 20 10000 0.45 219 20:57 10.02.2022
5396 Clear 27 1019 20 10000 3.09 180 20:30 10.02.2022
5397 Clear 26 1019 22 10000 3.6 180 19:25 10.02.2022
5398 Clear 25 1018 22 10000 8.23 20 18:44 10.02.2022
5399 Clear 20 1018 36 10000 1.54 90 17:26 10.02.2022
5400 Clear 20 1017 34 10000 0 0 16:50 10.02.2022
5401 Clear 20 1017 40 10000 2.06 150 15:49 10.02.2022
5402 Clear 20 1016 32 10000 13.38 30 15:29 10.02.2022
5403 Clear 20 1017 25 10000 11.32 60 14:47 10.02.2022
5404 Clear 20 1017 26 10000 11.32 60 14:23 10.02.2022
5405 Clear 19 1017 34 10000 0 0 13:26 10.02.2022
5406 Clear 20 1017 32 10000 4.63 60 12:27 10.02.2022
5407 Clear 20 1017 29 10000 5.14 40 11:33 10.02.2022
5408 Clear 20 1017 28 10000 2.06 350 10:44 10.02.2022
5409 Clear 20 1017 31 10000 1.54 0 09:57 10.02.2022
5410 Clear 20 1017 30 10000 2.06 20 09:23 10.02.2022
5411 Clear 21 1016 27 10000 3.09 60 07:19 10.02.2022
5412 Clear 21 1016 23 10000 2.06 0 04:23 10.02.2022
5413 Clear 26 1016 25 10000 4.63 260 01:48 10.02.2022
5414 Clear 28 1016 20 10000 4.63 260 00:47 10.02.2022
5415 Clear 28 1016 19 10000 4.63 260 00:27 10.02.2022
5416 Clear 29 1016 13 10000 5.66 250 23:22 09.02.2022
5417 Clear 29 1017 12 10000 5.14 240 22:35 09.02.2022
5418 Clear 29 1018 13 10000 3.09 230 21:50 09.02.2022
5419 Clear 29 1018 13 10000 3.09 230 21:29 09.02.2022
5420 Clear 28 1019 14 10000 3.09 180 20:47 09.02.2022
5421 Clear 27 1019 15 10000 3.09 180 20:24 09.02.2022
5422 Clear 26 1020 18 10000 2.06 110 19:46 09.02.2022
5423 Clear 25 1020 18 10000 2.06 110 19:27 09.02.2022
5424 Clear 20 1019 30 10000 1.54 0 17:37 09.02.2022
5425 Clear 17 1019 32 10000 2.57 0 16:34 09.02.2022
5426 Clear 16 1019 29 10000 4.12 250 15:50 09.02.2022
5427 Clear 17 1018 32 10000 2.06 70 14:35 09.02.2022
5428 Clear 17 1018 39 10000 1.54 90 12:28 09.02.2022
5429 Clear 18 1019 32 10000 1.54 0 10:51 09.02.2022
5430 Clear 18 1019 30 10000 1.79 37 10:26 09.02.2022
5431 Clear 17 1019 37 10000 3.6 300 09:35 09.02.2022
5432 Clouds 19 1019 27 10000 2.07 10 08:59 09.02.2022
5433 Clouds 19 1021 28 10000 0.89 354 07:53 09.02.2022
5434 Clear 18 1020 33 10000 4.12 260 05:30 09.02.2022
5435 Clear 19 1020 34 10000 4.63 260 03:50 09.02.2022
5436 Clear 25 1019 19 10000 1.54 0 00:39 09.02.2022
5437 Clear 26 1019 18 10000 4.63 270 23:31 08.02.2022
5438 Clear 26 1020 18 10000 4.12 270 22:46 08.02.2022
5439 Clear 26 1020 16 10000 4.12 270 22:21 08.02.2022
5440 Clear 26 1022 15 10000 3.09 230 21:39 08.02.2022
5441 Clear 25 1022 15 10000 3.09 230 21:20 08.02.2022
5442 Clear 24 1022 16 10000 1.54 0 20:43 08.02.2022
5443 Clear 23 1023 18 10000 2.57 50 19:46 08.02.2022
5444 Clear 20 1023 27 10000 2.06 50 18:38 08.02.2022
5445 Clear 18 1022 26 10000 2.57 70 17:40 08.02.2022
5446 Clear 14 1022 33 10000 2.57 70 16:29 08.02.2022
5447 Clear 14 1022 30 10000 2.06 120 15:29 08.02.2022
5448 Clear 14 1022 29 10000 2.57 70 14:32 08.02.2022
5449 Clear 15 1022 28 10000 1.54 10 13:20 08.02.2022
5450 Clear 15 1023 28 10000 2.06 10 11:33 08.02.2022
5451 Clear 15 1023 29 10000 2.06 340 10:23 08.02.2022
5452 Clear 16 1024 30 10000 2.06 360 09:44 08.02.2022
5453 Clear 16 1024 32 10000 2.57 90 07:51 08.02.2022
5454 Clear 17 1023 34 10000 2.06 80 05:40 08.02.2022
5455 Clear 18 1023 31 10000 1.54 260 04:39 08.02.2022
5456 Clear 18 1023 34 10000 1.54 260 04:21 08.02.2022
5457 Clear 19 985 35 10000 3.09 240 03:36 08.02.2022
5458 Clear 19 985 33 10000 3.09 240 03:18 08.02.2022
5459 Clear 20 1023 32 10000 2.06 277 02:59 08.02.2022
5460 Clear 21 1023 31 10000 4.12 260 02:36 08.02.2022
5461 Clear 22 1023 25 10000 4.12 260 02:18 08.02.2022
5462 Clear 23 1023 21 10000 4.63 260 01:44 08.02.2022
5463 Clear 24 1023 17 10000 4.63 260 01:24 08.02.2022
5464 Clear 24 1023 15 10000 4.63 260 00:54 08.02.2022
5465 Clear 25 1023 15 10000 2.57 280 23:57 07.02.2022
5466 Clear 25 1023 14 10000 4.63 260 23:39 07.02.2022
5467 Clear 25 1023 14 10000 4.63 260 23:18 07.02.2022
5468 Clear 25 1024 14 10000 5.14 270 22:42 07.02.2022
5469 Clear 25 1024 14 10000 5.14 270 22:18 07.02.2022
5470 Clear 25 1025 15 10000 4.63 240 21:43 07.02.2022
5471 Clear 25 1025 15 10000 4.63 240 21:25 07.02.2022
5472 Clear 24 1026 16 10000 2.06 200 20:41 07.02.2022
5473 Clear 23 1026 19 10000 1.54 30 19:54 07.02.2022
5474 Clear 22 1026 19 10000 2.06 110 19:36 07.02.2022
5475 Clear 19 1026 31 10000 0 0 18:18 07.02.2022
5476 Clear 15 1025 33 10000 2.57 60 16:53 07.02.2022
5477 Clear 14 1025 33 10000 2.57 60 16:20 07.02.2022
5478 Clear 14 1024 34 10000 2.57 360 15:48 07.02.2022
5479 Clear 14 1024 32 10000 1.54 330 13:36 07.02.2022
5480 Clear 15 1024 30 10000 1.54 330 13:18 07.02.2022
5481 Clear 15 1024 26 10000 2.25 18 11:58 07.02.2022
5482 Clear 15 1024 32 10000 0 0 11:37 07.02.2022
5483 Clear 16 1024 29 10000 0.45 359 10:52 07.02.2022
5484 Clear 15 1024 33 10000 0 0 10:32 07.02.2022
5485 Clear 16 1024 31 10000 0 0 09:53 07.02.2022
5486 Clear 16 1024 32 10000 0 0 09:18 07.02.2022
5487 Clear 16 1024 32 10000 0 0 08:39 07.02.2022
5488 Clear 17 1023 35 10000 0 0 07:19 07.02.2022
5489 Clear 17 1022 34 10000 0 0 06:34 07.02.2022
5490 Clear 18 1021 42 10000 1.54 280 03:27 07.02.2022
5491 Clear 23 1020 26 10000 0 0 00:45 07.02.2022
5492 Clear 24 1020 25 10000 1.34 246 23:49 06.02.2022
5493 Clear 25 1020 21 10000 0.45 269 22:49 06.02.2022
5494 Clear 24 1021 19 10000 0 0 21:56 06.02.2022
5495 Clear 24 1021 19 10000 0 0 21:35 06.02.2022
5496 Clear 24 1022 19 10000 1.34 236 20:55 06.02.2022
5497 Clear 23 1022 20 10000 0.89 213 20:32 06.02.2022
5498 Clear 21 1022 20 10000 0 0 19:40 06.02.2022
5499 Clear 19 1022 29 10000 0 0 18:41 06.02.2022
5500 Clear 17 1023 28 10000 0.45 354 17:58 06.02.2022
5501 Clear 14 1022 37 10000 0 0 17:21 06.02.2022
5502 Clear 13 1021 33 10000 0 0 16:48 06.02.2022
5503 Clear 12 1021 37 10000 0 0 15:50 06.02.2022
5504 Clear 12 1021 38 10000 0 0 15:27 06.02.2022
5505 Clear 12 1021 37 10000 0.45 352 14:50 06.02.2022
5506 Clear 13 1020 37 10000 0 0 13:28 06.02.2022
5507 Clear 14 1022 27 10000 1.91 8 12:59 06.02.2022
5508 Clear 13 1020 36 10000 0 0 11:39 06.02.2022
5509 Clear 13 1020 35 10000 0 0 10:31 06.02.2022
5510 Clear 13 1021 40 10000 0 0 09:25 06.02.2022
5511 Clear 13 1021 41 10000 0 0 08:41 06.02.2022
5512 Clear 14 1020 42 10000 0 0 05:36 06.02.2022
5513 Clear 16 1020 42 10000 0 0 03:31 06.02.2022
5514 Clear 18 1020 35 10000 2.57 280 02:24 06.02.2022
5515 Clear 21 1020 19 10000 0 0 00:30 06.02.2022
5516 Clear 22 1020 19 10000 1.34 304 23:18 05.02.2022
5517 Clear 21 1022 18 10000 1.54 0 21:38 05.02.2022
5518 Clear 20 1023 18 10000 0 0 20:25 05.02.2022
5519 Clear 19 1023 20 10000 0 0 19:50 05.02.2022
5520 Clear 18 1023 22 10000 0 0 19:27 05.02.2022
5521 Clear 15 1024 30 10000 0.45 67 18:23 05.02.2022
5522 Clear 13 1024 30 10000 0 0 17:31 05.02.2022
5523 Clear 10 1023 34 10000 0 0 15:43 05.02.2022
5524 Clear 10 1023 34 10000 0 0 15:25 05.02.2022
5525 Clear 11 1024 31 10000 0 0 13:22 05.02.2022
5526 Clear 10 1024 32 10000 0 0 12:42 05.02.2022
5527 Clear 11 1025 32 10000 0 0 11:18 05.02.2022
5528 Clear 12 1025 34 10000 0 0 10:43 05.02.2022
5529 Clear 12 1026 34 10000 0 0 09:49 05.02.2022
5530 Clear 13 1026 34 10000 0 0 08:21 05.02.2022
5531 Clear 13 1026 32 10000 0.89 337 06:58 05.02.2022
5532 Clear 14 1025 30 10000 0 0 05:44 05.02.2022
5533 Clear 18 1025 30 10000 2.06 0 01:47 05.02.2022
5534 Clear 19 1025 27 10000 1.34 265 01:18 05.02.2022
5535 Clear 20 1025 21 10000 0 0 00:36 05.02.2022
5536 Clear 20 1026 19 10000 1.54 280 23:33 04.02.2022
5537 Clear 20 1027 20 10000 1.34 248 22:28 04.02.2022
5538 Clear 19 1027 21 10000 0 0 21:36 04.02.2022
5539 Clear 19 1028 21 10000 0 0 21:18 04.02.2022
5540 Clear 18 1028 23 10000 0 0 20:28 04.02.2022
5541 Clear 15 1029 34 10000 0 0 18:30 04.02.2022
5542 Clear 10 1027 42 10000 0 0 15:57 04.02.2022
5543 Clear 11 1027 39 10000 0 0 15:18 04.02.2022
5544 Clear 10 1027 44 10000 0 0 14:26 04.02.2022
5545 Clear 11 1027 47 10000 0 0 12:43 04.02.2022
5546 Clear 11 1027 48 10000 0 0 11:44 04.02.2022
5547 Clear 11 1026 50 10000 0 0 10:51 04.02.2022
5548 Clear 12 1026 47 10000 0 0 09:31 04.02.2022
5549 Clear 12 1026 53 10000 0 0 07:35 04.02.2022
5550 Clear 14 1023 49 10000 0 0 03:28 04.02.2022
5551 Clear 15 1023 42 10000 2.06 260 02:33 04.02.2022
5552 Clear 19 1022 22 10000 0.45 302 23:34 03.02.2022
5553 Clear 19 1022 24 10000 0.45 242 22:48 03.02.2022
5554 Clear 18 1023 18 10000 0 0 21:51 03.02.2022
5555 Clear 18 1023 18 10000 0 0 21:18 03.02.2022
5556 Clear 17 1023 21 10000 1.54 120 20:21 03.02.2022
5557 Clear 16 1023 23 10000 1.54 0 19:36 03.02.2022
5558 Clear 15 1023 30 10000 0 0 18:50 03.02.2022
5559 Clear 13 1023 32 10000 0.45 342 17:51 03.02.2022
5560 Clear 10 1022 40 10000 0 0 16:46 03.02.2022
5561 Clear 10 1021 35 10000 1.32 14 14:59 03.02.2022
5562 Clear 9 1020 36 10000 0 0 13:19 03.02.2022
5563 Clear 10 1020 35 10000 0 0 11:44 03.02.2022
5564 Clear 11 1020 29 10000 1.54 330 08:55 03.02.2022
5565 Clear 12 1020 34 10000 0 0 07:41 03.02.2022
5566 Clear 18 1015 25 10000 0 0 00:35 03.02.2022
5567 Clear 18 1015 20 10000 0 0 23:47 02.02.2022
5568 Clear 18 1015 26 10000 0.45 244 22:38 02.02.2022
5569 Clear 17 1016 25 10000 0.45 302 21:45 02.02.2022
5570 Clear 17 1016 25 10000 0.89 154 21:27 02.02.2022
5571 Clear 17 1016 29 10000 0 0 20:24 02.02.2022
5572 Clear 16 1016 31 10000 1.34 263 19:46 02.02.2022
5573 Clear 15 1017 42 10000 0.34 5 18:56 02.02.2022
5574 Clear 14 1016 44 10000 0 0 18:24 02.02.2022
5575 Clear 11 1015 55 10000 0 0 17:20 02.02.2022
5576 Haze 11 1015 61 9656 0 0 16:54 02.02.2022
5577 Haze 9 1014 61 9656 0 0 15:23 02.02.2022
5578 Mist 10 1013 57 9656 0 0 12:30 02.02.2022
5579 Clear 10 1013 61 10000 0 0 11:48 02.02.2022
5580 Clear 10 1013 64 10000 0 0 11:30 02.02.2022
5581 Clear 10 1013 64 10000 0 0 11:30 02.02.2022
5582 Clear 11 1012 82 10000 0 0 08:30 02.02.2022
5583 Clear 14 1010 73 10000 1.54 280 02:44 02.02.2022
5584 Clouds 17 1011 58 10000 0 0 22:33 01.02.2022
5585 Clouds 16 1013 64 10000 1.54 160 20:51 01.02.2022
5586 Mist 14 1013 74 10000 2.57 0 19:23 01.02.2022
5587 Haze 12 1013 83 6437 1.54 0 17:34 01.02.2022
5588 Haze 10 1013 86 8047 1.54 80 16:21 01.02.2022
5589 Mist 11 1014 88 9656 1.54 0 12:57 01.02.2022
5590 Mist 11 1014 87 8047 0 0 12:21 01.02.2022
5591 Mist 11 1015 84 8047 0 0 08:52 01.02.2022
5592 Clear 15 1016 64 10000 1.54 260 02:20 01.02.2022
5593 Clear 17 1017 47 10000 0 0 23:38 31.01.2022
5594 Clear 17 1018 51 10000 0.45 231 22:42 31.01.2022
5595 Clear 16 1019 52 10000 0 0 21:35 31.01.2022
5596 Clear 15 1020 52 10000 1.54 0 20:35 31.01.2022
5597 Clear 15 1020 54 10000 0.45 5 19:58 31.01.2022
5598 Clear 14 1021 56 10000 0 0 18:47 31.01.2022
5599 Clouds 14 1020 61 10000 1.01 62 17:57 31.01.2022
5600 Clear 11 1020 62 10000 0 0 17:24 31.01.2022
5601 Clear 10 1020 61 10000 0 0 16:25 31.01.2022
5602 Clear 10 1020 64 10000 0 0 14:53 31.01.2022
5603 Clear 10 1020 65 10000 0 0 13:35 31.01.2022
5604 Fog 10 1021 67 10000 0 0 12:38 31.01.2022
5605 Fog 11 1021 67 10000 0 0 11:31 31.01.2022
5606 Fog 11 1021 67 10000 0 0 10:48 31.01.2022
5607 Clear 12 1022 67 10000 0 0 09:38 31.01.2022
5608 Clouds 12 1021 58 10000 1.37 113 08:56 31.01.2022
5609 Clear 12 1022 68 10000 0 0 08:20 31.01.2022
5610 Clear 12 1022 67 10000 0 0 07:43 31.01.2022
5611 Clear 13 1021 67 10000 0 0 05:33 31.01.2022
5612 Clear 19 1020 53 10000 2.06 250 00:43 31.01.2022
5613 Clear 21 1020 34 10000 2.06 260 22:34 30.01.2022
5614 Clear 21 1020 24 10000 1.54 0 21:47 30.01.2022
5615 Clear 20 1020 27 10000 1.54 0 21:26 30.01.2022
5616 Clear 21 1020 23 10000 0.89 157 20:55 30.01.2022
5617 Clear 20 1021 26 10000 1.54 0 20:31 30.01.2022
5618 Clear 19 1021 24 10000 0.45 5 19:58 30.01.2022
5619 Clear 18 1021 31 10000 2.06 100 19:23 30.01.2022
5620 Clear 16 1021 37 10000 2.06 100 18:35 30.01.2022
5621 Clear 13 1021 40 10000 0 0 17:40 30.01.2022
5622 Clear 12 1021 41 10000 0 0 17:19 30.01.2022
5623 Clear 11 1021 41 10000 0 0 16:36 30.01.2022
5624 Clear 11 1021 40 10000 0 0 16:18 30.01.2022
5625 Clear 11 1020 38 10000 0 0 15:45 30.01.2022
5626 Clear 11 1020 38 10000 0 0 15:25 30.01.2022
5627 Clear 11 1019 36 10000 0 0 14:44 30.01.2022
5628 Clear 12 1019 33 10000 0 0 12:46 30.01.2022
5629 Clear 12 1019 34 10000 0 0 11:53 30.01.2022
5630 Clear 13 1019 30 10000 0 0 10:27 30.01.2022
5631 Clear 13 1019 30 10000 0 0 09:48 30.01.2022
5632 Clear 14 1019 28 10000 0 0 08:48 30.01.2022
5633 Clear 14 1019 33 10000 1.34 68 06:55 30.01.2022
5634 Clear 18 1018 27 10000 0 0 01:55 30.01.2022
5635 Clouds 19 1019 23 10000 0 0 00:19 30.01.2022
5636 Clouds 19 1019 22 10000 2.66 283 22:58 29.01.2022
5637 Clear 19 1020 26 10000 1.54 10 21:47 29.01.2022
5638 Clear 18 1020 26 10000 1.54 10 21:23 29.01.2022
5639 Clouds 17 1021 27 10000 0 0 20:22 29.01.2022
5640 Clear 16 1022 26 10000 0 0 19:33 29.01.2022
5641 Clear 15 1022 31 10000 0 0 18:52 29.01.2022
5642 Clear 14 1022 30 10000 0 0 18:18 29.01.2022
5643 Clear 13 1021 30 10000 0 0 17:28 29.01.2022
5644 Clear 13 1021 28 10000 1.54 30 15:50 29.01.2022
5645 Clear 12 1021 24 10000 1.54 20 14:23 29.01.2022
5646 Clear 13 1020 24 10000 0 0 13:42 29.01.2022
5647 Clear 13 1020 24 10000 0 0 13:23 29.01.2022
5648 Clear 13 1021 28 10000 0 0 11:47 29.01.2022
5649 Clouds 13 1021 26 10000 0.45 347 10:54 29.01.2022
5650 Clear 13 1022 27 10000 0 0 08:43 29.01.2022
5651 Clear 15 1022 23 10000 0 0 06:55 29.01.2022
5652 Clear 22 1022 11 10000 1.54 0 00:35 29.01.2022
5653 Clear 22 1022 12 10000 1.54 0 23:51 28.01.2022
5654 Clear 22 1023 13 10000 2.57 0 22:50 28.01.2022
5655 Clear 22 1023 12 10000 2.57 0 22:21 28.01.2022
5656 Clear 21 1024 13 10000 2.57 80 21:36 28.01.2022
5657 Clear 20 1025 18 10000 3.09 50 20:29 28.01.2022
5658 Clear 18 1026 26 10000 0 0 19:29 28.01.2022
5659 Clear 17 1026 30 10000 0 0 18:42 28.01.2022
5660 Clear 14 1025 31 10000 1.54 40 16:46 28.01.2022
5661 Clouds 14 1024 30 10000 0.45 347 15:18 28.01.2022
5662 Clear 14 1023 34 10000 0 0 13:50 28.01.2022
5663 Clear 13 1023 46 10000 0 0 12:29 28.01.2022
5664 Clear 13 1024 51 10000 0 0 10:49 28.01.2022
5665 Fog 14 1023 47 10000 0 0 09:52 28.01.2022
5666 Clear 14 1023 49 10000 0 0 07:44 28.01.2022
5667 Clear 14 1023 50 10000 0 0 06:44 28.01.2022
5668 Clear 15 1022 32 10000 0 0 03:56 28.01.2022
5669 Fog 18 1021 42 10000 0 0 02:31 28.01.2022
5670 Clear 18 1021 45 10000 0.45 281 01:59 28.01.2022
5671 Clear 19 1021 39 10000 1.54 250 01:31 28.01.2022
5672 Clear 21 1021 26 10000 1.54 0 22:48 27.01.2022
5673 Clear 21 1022 20 10000 0 0 21:46 27.01.2022
5674 Clear 20 1022 18 10000 0 0 21:28 27.01.2022
5675 Clear 19 1023 20 10000 0 0 20:25 27.01.2022
5676 Clear 15 1023 34 10000 0 0 18:26 27.01.2022
5677 Clear 13 1022 36 10000 0 0 17:34 27.01.2022
5678 Clear 11 1020 36 10000 0 0 14:35 27.01.2022
5679 Clear 11 1020 39 10000 0 0 13:26 27.01.2022
5680 Clear 11 1021 43 10000 1.54 0 12:39 27.01.2022
5681 Clear 12 1021 45 10000 0 0 10:23 27.01.2022
5682 Mist 13 1021 39 10000 1.54 30 08:52 27.01.2022
5683 Mist 13 1021 40 10000 1.54 30 08:30 27.01.2022
5684 Mist 13 1021 39 10000 1.54 30 08:30 27.01.2022
5685 Clear 14 1019 47 10000 0 0 05:49 27.01.2022
5686 Clear 18 1018 47 10000 0 0 01:46 27.01.2022
5687 Clear 21 1019 22 10000 1.54 0 22:44 26.01.2022
5688 Clear 21 1019 23 10000 0 0 21:55 26.01.2022
5689 Clear 20 1020 24 10000 0 0 21:31 26.01.2022
5690 Clear 19 1021 27 10000 0 0 20:35 26.01.2022
5691 Clear 18 1021 34 10000 0 0 19:55 26.01.2022
5692 Clear 17 1021 39 10000 0 0 19:20 26.01.2022
5693 Clear 16 1021 51 10000 0.45 334 18:40 26.01.2022
5694 Haze 13 1021 58 9656 0 0 17:49 26.01.2022
5695 Haze 12 1021 64 9656 0 0 17:21 26.01.2022
5696 Clear 10 1020 64 10000 0 0 16:27 26.01.2022
5697 Clear 10 1019 66 10000 0 0 15:47 26.01.2022
5698 Mist 11 1018 71 10000 0 0 13:24 26.01.2022
5699 Mist 11 1018 69 9656 0 0 11:48 26.01.2022
5700 Mist 12 1018 69 9656 0 0 10:27 26.01.2022
5701 Mist 12 1018 70 8047 0 0 09:45 26.01.2022
5702 Mist 12 1018 77 8047 0 0 07:37 26.01.2022
5703 Clear 17 1015 63 10000 1.54 250 01:54 26.01.2022
5704 Clear 19 1015 49 10000 1.34 226 23:56 25.01.2022
5705 Clear 20 1014 47 10000 0.45 283 22:56 25.01.2022
5706 Clear 19 1015 44 10000 1.54 0 22:21 25.01.2022
5707 Clear 19 1015 44 10000 0 0 21:52 25.01.2022
5708 Clear 18 1016 46 10000 1.79 291 20:46 25.01.2022
5709 Clear 18 1016 46 10000 0.89 246 20:46 25.01.2022
5710 Clear 17 1016 48 10000 2.24 227 20:23 25.01.2022
5711 Haze 16 1016 53 10000 0 0 19:50 25.01.2022
5712 Haze 14 1016 62 10000 0 0 18:32 25.01.2022
5713 Mist 12 1016 64 10000 0 0 17:43 25.01.2022
5714 Mist 11 1015 76 10000 0 0 16:35 25.01.2022
5715 Mist 11 1015 77 10000 0 0 15:49 25.01.2022
5716 Fog 11 1015 79 10000 0 0 15:31 25.01.2022
5717 Fog 11 1015 77 402 0 0 14:57 25.01.2022
5718 Fog 11 1015 82 3219 0 0 13:42 25.01.2022
5719 Mist 12 1016 80 4023 0 0 10:42 25.01.2022
5720 Mist 12 1016 81 8047 1.54 100 08:37 25.01.2022
5721 Mist 13 1017 77 9656 0 0 07:29 25.01.2022
5722 Clear 13 1017 73 10000 0 0 06:49 25.01.2022
5723 Clear 14 1017 76 10000 0 0 05:22 25.01.2022
5724 Clear 21 1016 41 10000 2.06 0 23:37 24.01.2022
5725 Clear 21 1016 36 10000 2.06 0 23:18 24.01.2022
5726 Clear 21 1016 40 10000 0.45 267 22:59 24.01.2022
5727 Clear 21 1017 34 10000 1.34 213 22:41 24.01.2022
5728 Clear 21 1017 31 10000 0 0 21:53 24.01.2022
5729 Clear 21 1017 31 10000 0 0 21:53 24.01.2022
5730 Clear 21 1018 31 10000 0 0 21:28 24.01.2022
5731 Clear 20 1018 29 10000 0 0 20:30 24.01.2022
5732 Clear 19 1019 31 10000 2.06 0 19:50 24.01.2022
5733 Clear 18 1019 33 10000 2.06 0 19:24 24.01.2022
5734 Clear 16 1019 43 10000 2.06 140 18:18 24.01.2022
5735 Clear 14 1019 43 10000 0 0 17:24 24.01.2022
5736 Clear 13 1019 44 10000 0 0 16:52 24.01.2022
5737 Clear 12 1019 42 10000 0 0 16:19 24.01.2022
5738 Clear 13 1018 42 10000 0 0 14:43 24.01.2022
5739 Clear 14 1018 40 10000 0 0 13:24 24.01.2022
5740 Clear 14 1019 39 10000 0 0 12:23 24.01.2022
5741 Clear 15 1020 36 10000 0 0 10:30 24.01.2022
5742 Clear 15 1020 36 10000 0 0 10:30 24.01.2022
5743 Clear 15 1020 37 10000 0 0 09:48 24.01.2022
5744 Clear 15 1020 38 10000 0 0 08:41 24.01.2022
5745 Clear 15 1020 44 10000 0 0 06:40 24.01.2022
5746 Clear 21 1020 34 10000 2.06 250 01:31 24.01.2022
5747 Clear 22 1020 30 10000 2.57 260 00:38 24.01.2022
5748 Clear 22 1020 30 10000 2.57 260 00:20 24.01.2022
5749 Clear 23 1020 21 10000 2.06 250 22:37 23.01.2022
5750 Clear 22 1021 22 10000 0 0 21:50 23.01.2022
5751 Clear 22 1021 22 10000 0 0 21:26 23.01.2022
5752 Clear 22 1022 22 10000 0 0 20:45 23.01.2022
5753 Clear 21 1022 23 10000 0 0 19:54 23.01.2022
5754 Clear 19 1022 26 10000 1.54 90 18:52 23.01.2022
5755 Clear 17 1022 32 10000 0 0 17:50 23.01.2022
5756 Clear 14 1021 36 10000 0 0 16:48 23.01.2022
5757 Clear 13 1021 40 10000 0 0 15:18 23.01.2022
5758 Clear 13 1020 38 10000 1.54 20 14:31 23.01.2022
5759 Clear 14 1020 38 10000 1.54 20 14:31 23.01.2022
5760 Clear 14 1020 37 10000 0 0 13:27 23.01.2022
5761 Clear 14 1020 32 10000 0 0 12:36 23.01.2022
5762 Clear 14 1020 36 10000 0 0 12:18 23.01.2022
5763 Clear 14 1020 33 10000 0 0 11:24 23.01.2022
5764 Clear 15 1020 34 10000 0.89 20 10:43 23.01.2022
5765 Clear 15 1020 33 10000 0 0 10:19 23.01.2022
5766 Clear 16 1020 31 10000 0 0 09:19 23.01.2022
5767 Clear 16 1020 33 10000 0.89 3 05:58 23.01.2022
5768 Clear 20 1017 25 10000 4.02 360 01:54 23.01.2022
5769 Clear 21 1016 22 10000 2.57 0 01:34 23.01.2022
5770 Clear 21 1016 21 10000 1.54 0 00:41 23.01.2022
5771 Clear 21 1016 24 10000 3.13 19 23:57 22.01.2022
5772 Clear 21 1016 21 10000 1.34 16 22:47 22.01.2022
5773 Haze 21 1016 17 10000 1.54 260 21:38 22.01.2022
5774 Clear 20 1017 18 10000 0 0 20:24 22.01.2022
5775 Clear 19 1018 20 10000 0 0 19:34 22.01.2022
5776 Clear 18 1017 25 10000 1.54 0 18:36 22.01.2022
5777 Clouds 16 1017 26 10000 1.34 355 17:42 22.01.2022
5778 Clear 15 1017 31 10000 0.45 84 16:57 22.01.2022
5779 Clear 14 1017 32 10000 0 0 16:20 22.01.2022
5780 Clear 14 1017 32 10000 0 0 15:42 22.01.2022
5781 Clear 14 1016 31 10000 1.79 285 14:22 22.01.2022
5782 Clear 15 1016 29 10000 0.89 74 13:27 22.01.2022
5783 Clear 15 1016 27 10000 3.6 20 12:32 22.01.2022
5784 Clear 16 1016 30 10000 1.34 190 11:58 22.01.2022
5785 Clear 16 1017 26 10000 2.57 0 10:39 22.01.2022
5786 Clear 16 1016 27 10000 2.57 0 10:20 22.01.2022
5787 Clear 17 1016 28 10000 2.68 98 08:55 22.01.2022
5788 Clear 17 1016 25 10000 0 0 08:31 22.01.2022
5789 Clear 18 1015 25 10000 2.57 0 05:20 22.01.2022
5790 Clear 19 1015 32 10000 0.45 203 02:27 22.01.2022
5791 Clear 20 1014 48 10000 1.54 90 23:50 21.01.2022
5792 Clouds 21 1014 48 10000 0.89 243 22:59 21.01.2022
5793 Clear 20 1016 48 10000 0 0 21:18 21.01.2022
5794 Clear 17 1018 54 10000 0 0 19:30 21.01.2022
5795 Clear 14 1018 54 10000 0 0 17:50 21.01.2022
5796 Clear 13 1019 52 10000 1.75 87 15:56 21.01.2022
5797 Clear 13 1017 51 10000 1.76 78 14:58 21.01.2022
5798 Clear 12 1019 59 10000 0 0 12:48 21.01.2022
5799 Clear 14 1020 53 10000 0 0 11:29 21.01.2022
5800 Clear 14 1020 53 10000 0 0 10:47 21.01.2022
5801 Clear 15 1022 43 10000 0.87 34 08:59 21.01.2022
5802 Clear 15 1021 51 10000 0 0 08:20 21.01.2022
5803 Clear 20 1022 46 10000 0.89 194 01:55 21.01.2022
5804 Clear 24 1022 29 10000 3.09 270 22:51 20.01.2022
5805 Clear 23 1023 33 10000 1.54 250 21:49 20.01.2022
5806 Clear 23 1024 30 10000 1.54 250 21:27 20.01.2022
5807 Clear 20 1025 44 10000 0 0 19:55 20.01.2022
5808 Clear 19 1025 47 10000 0 0 19:18 20.01.2022
5809 Fog 15 1024 65 10000 0 0 17:37 20.01.2022
5810 Mist 13 1024 71 9656 0 0 16:32 20.01.2022
5811 Fog 13 1023 68 10000 0 0 15:32 20.01.2022
5812 Mist 13 1023 73 9656 0 0 14:38 20.01.2022
5813 Mist 13 1022 72 9656 0 0 13:18 20.01.2022
5814 Mist 13 1023 73 8047 0 0 12:30 20.01.2022
5815 Mist 13 1023 77 9656 0 0 11:20 20.01.2022
5816 Mist 13 1022 77 9656 0 0 10:19 20.01.2022
5817 Fog 13 1022 78 10000 0 0 09:19 20.01.2022
5818 Clear 13 1022 83 10000 0 0 07:24 20.01.2022
5819 Clouds 17 1020 70 10000 0 0 00:41 20.01.2022
5820 Clouds 17 1021 71 10000 0 0 22:50 19.01.2022
5821 Haze 17 1021 72 9656 0.89 292 21:44 19.01.2022
5822 Haze 17 1021 72 9656 2.06 290 21:22 19.01.2022
5823 Haze 16 1022 75 10000 1.54 290 20:45 19.01.2022
5824 Haze 15 1023 82 8047 0 0 19:27 19.01.2022
5825 Haze 13 1022 89 8047 0 0 17:52 19.01.2022
5826 Haze 13 1022 90 8047 0 0 17:32 19.01.2022
5827 Haze 12 1021 91 10000 0 0 16:27 19.01.2022
5828 Mist 11 1020 89 9656 0 0 13:42 19.01.2022
5829 Clouds 11 1020 88 10000 0 0 12:24 19.01.2022
5830 Mist 12 1020 89 9656 0 0 11:38 19.01.2022
5831 Clear 12 1020 90 10000 0 0 10:20 19.01.2022
5832 Clear 12 1020 90 10000 0 0 09:33 19.01.2022
5833 Clouds 13 1020 88 10000 2.06 260 06:35 19.01.2022
5834 Clouds 16 1018 77 10000 0 0 01:55 19.01.2022
5835 Clouds 17 1018 73 10000 0 0 23:19 18.01.2022
5836 Clouds 17 1018 71 10000 2.06 0 22:18 18.01.2022
5837 Clouds 17 1019 75 10000 1.79 230 20:55 18.01.2022
5838 Haze 16 1019 79 8047 0 0 19:54 18.01.2022
5839 Haze 16 1019 81 8047 0 0 19:36 18.01.2022
5840 Haze 15 1019 86 8047 0 0 18:38 18.01.2022
5841 Haze 14 1019 89 9656 0 0 17:57 18.01.2022
5842 Mist 13 1018 90 10000 0 0 16:40 18.01.2022
5843 Clouds 13 1018 90 10000 0 0 15:40 18.01.2022
5844 Clouds 13 1018 89 10000 0 0 15:20 18.01.2022
5845 Clouds 13 1018 89 10000 0 0 15:20 18.01.2022
5846 Haze 14 1018 90 10000 0 0 12:30 18.01.2022
5847 Clouds 14 1018 90 10000 0 0 10:46 18.01.2022
5848 Clouds 14 1018 91 10000 0 0 08:49 18.01.2022
5849 Haze 14 1018 89 1200 0 0 07:49 18.01.2022
5850 Haze 16 1017 81 10000 0 0 02:33 18.01.2022
5851 Clouds 17 1017 76 10000 0 0 23:38 17.01.2022
5852 Clouds 17 1018 76 10000 0 0 22:26 17.01.2022
5853 Clouds 17 1019 76 10000 1.54 0 21:33 17.01.2022
5854 Clouds 16 1020 82 10000 0.89 67 19:57 17.01.2022
5855 Clouds 15 1019 85 10000 0 0 18:30 17.01.2022
5856 Clouds 15 1019 83 10000 0.45 5 17:25 17.01.2022
5857 Mist 14 1018 80 6437 1.54 50 16:35 17.01.2022
5858 Mist 14 1017 76 4828 0 0 15:18 17.01.2022
5859 Clouds 15 1017 76 10000 0 0 14:43 17.01.2022
5860 Clouds 15 1017 74 9656 0 0 13:22 17.01.2022
5861 Clouds 15 1017 73 10000 2.57 100 12:55 17.01.2022
5862 Clouds 15 1017 70 10000 1.54 90 11:49 17.01.2022
5863 Clouds 15 1017 66 10000 0 0 10:21 17.01.2022
5864 Clouds 15 1017 66 10000 0 0 10:21 17.01.2022
5865 Clouds 16 1018 61 10000 0 0 09:34 17.01.2022
5866 Clouds 16 1018 57 10000 0 0 07:24 17.01.2022
5867 Clouds 18 1017 47 10000 0.89 212 02:59 17.01.2022
5868 Clouds 22 1016 32 10000 2.06 250 00:55 17.01.2022
5869 Clear 23 1017 30 10000 0 0 22:29 16.01.2022
5870 Clear 22 1019 23 10000 1.54 60 20:36 16.01.2022
5871 Clear 20 1019 30 10000 1.54 30 18:51 16.01.2022
5872 Clouds 18 1020 40 10000 0.45 335 17:59 16.01.2022
5873 Clear 16 1019 42 10000 1.54 360 17:21 16.01.2022
5874 Clouds 15 1018 39 10000 0 0 16:33 16.01.2022
5875 Clouds 16 1018 43 10000 0 0 14:31 16.01.2022
5876 Clouds 16 1018 45 10000 1.54 30 13:46 16.01.2022
5877 Clouds 16 1019 47 10000 1.54 360 12:46 16.01.2022
5878 Clouds 16 1019 50 10000 0 0 11:42 16.01.2022
5879 Clouds 16 1019 51 10000 0 0 10:54 16.01.2022
5880 Clouds 16 1019 50 10000 0 0 10:19 16.01.2022
5881 Clouds 17 1020 49 10000 0 0 09:40 16.01.2022
5882 Clouds 17 1020 49 10000 0 0 09:22 16.01.2022
5883 Clouds 17 1020 50 10000 0 0 07:33 16.01.2022
5884 Clouds 19 1019 37 10000 0 0 00:42 16.01.2022
5885 Clouds 19 1020 37 10000 0 0 23:49 15.01.2022
5886 Clouds 18 1021 59 10000 0 0 21:37 15.01.2022
5887 Clouds 17 1022 59 10000 0 0 21:19 15.01.2022
5888 Clouds 17 1022 63 10000 0 0 20:39 15.01.2022
5889 Clouds 16 1023 67 10000 0 0 19:29 15.01.2022
5890 Clouds 16 1023 67 10000 2.06 260 18:44 15.01.2022
5891 Clouds 15 1022 61 10000 0 0 17:25 15.01.2022
5892 Clear 15 1020 39 10000 0 0 15:50 15.01.2022
5893 Clear 16 1021 40 10000 0 0 13:52 15.01.2022
5894 Clear 16 1020 41 10000 0 0 11:46 15.01.2022
5895 Clear 16 1020 42 10000 0 0 10:36 15.01.2022
5896 Clear 17 1019 42 10000 0 0 07:48 15.01.2022
5897 Fog 23 1018 33 10000 0 0 23:50 14.01.2022
5898 Clear 23 1020 33 10000 0 0 21:52 14.01.2022
5899 Clear 22 1020 31 10000 0 0 20:37 14.01.2022
5900 Clear 21 1020 33 10000 0.45 5 19:58 14.01.2022
5901 Clear 18 1020 44 10000 0 0 18:48 14.01.2022
5902 Clear 16 1020 53 10000 0 0 17:57 14.01.2022
5903 Clear 14 1020 66 10000 0 0 16:48 14.01.2022
5904 Fog 14 1019 59 10000 0 0 15:37 14.01.2022
5905 Clear 14 1019 59 10000 0 0 14:38 14.01.2022
5906 Smoke 14 1019 61 10000 0 0 13:34 14.01.2022
5907 Clear 14 1020 63 10000 0 0 12:24 14.01.2022
5908 Clear 15 1020 65 10000 0 0 10:50 14.01.2022
5909 Clouds 16 1021 61 10000 0.69 137 08:54 14.01.2022
5910 Clear 16 1021 58 10000 0 0 08:20 14.01.2022
5911 Clouds 17 1022 55 10000 0 0 03:55 14.01.2022
5912 Clouds 20 1020 38 10000 0 0 00:50 14.01.2022
5913 Clouds 19 1021 40 10000 0 0 22:46 13.01.2022
5914 Clear 19 1022 39 10000 0 0 21:31 13.01.2022
5915 Clouds 19 1022 43 10000 1.06 152 20:56 13.01.2022
5916 Clear 18 1024 44 10000 0 0 19:40 13.01.2022
5917 Clear 17 1024 42 10000 0 0 19:21 13.01.2022
5918 Clear 16 1023 54 10000 0 0 17:48 13.01.2022
5919 Clear 16 1022 41 10000 0 0 16:20 13.01.2022
5920 Clear 16 1022 39 10000 0 0 15:37 13.01.2022
5921 Clear 16 1022 38 10000 1.54 130 14:40 13.01.2022
5922 Clear 16 1022 35 10000 0 0 12:37 13.01.2022
5923 Clear 17 1023 35 10000 0 0 10:23 13.01.2022
5924 Clouds 18 1023 29 10000 0.89 341 08:58 13.01.2022
5925 Clear 17 1023 36 10000 0 0 08:26 13.01.2022
5926 Clear 17 1023 36 10000 0 0 07:23 13.01.2022
5927 Clouds 17 1023 34 10000 1.78 5 05:59 13.01.2022
5928 Clear 17 1022 36 10000 0 0 05:19 13.01.2022
5929 Clear 20 1022 38 10000 0 0 01:56 13.01.2022
5930 Clear 22 1022 29 10000 1.54 30 00:54 13.01.2022
5931 Clear 24 1021 19 10000 0 0 23:49 12.01.2022
5932 Clear 24 1022 20 10000 0 0 23:19 12.01.2022
5933 Clear 24 1023 20 10000 0 0 21:57 12.01.2022
5934 Clear 23 1023 20 10000 0 0 21:22 12.01.2022
5935 Clear 23 1023 20 10000 0 0 21:22 12.01.2022
5936 Clear 23 1024 22 10000 0.89 360 20:56 12.01.2022
5937 Clear 20 1025 30 10000 1.54 20 19:43 12.01.2022
5938 Clear 17 1025 37 10000 2.06 0 18:42 12.01.2022
5939 Clear 14 1024 36 10000 1.54 10 17:21 12.01.2022
5940 Clear 13 1023 35 10000 0 0 16:32 12.01.2022
5941 Clear 14 1023 35 10000 0 0 14:48 12.01.2022
5942 Clear 14 1023 33 10000 0 0 13:24 12.01.2022
5943 Clear 15 1024 31 10000 0.45 32 10:56 12.01.2022
5944 Clear 16 1024 29 10000 1.54 20 08:43 12.01.2022
5945 Clear 16 1024 31 10000 0 0 07:50 12.01.2022
5946 Clear 16 1024 30 10000 0 0 07:31 12.01.2022
5947 Clear 24 1022 17 10000 0 0 23:53 11.01.2022
5948 Clear 25 1022 17 10000 0.45 228 22:56 11.01.2022
5949 Clear 24 1022 17 10000 1.54 0 22:23 11.01.2022
5950 Haze 23 1024 18 4023 0.89 169 20:56 11.01.2022
5951 Clear 22 1025 20 10000 0 0 20:20 11.01.2022
5952 Clear 18 1026 28 10000 0 0 18:43 11.01.2022
5953 Clear 15 1025 33 10000 0 0 17:35 11.01.2022
5954 Clear 13 1025 33 10000 0 0 16:38 11.01.2022
5955 Clear 13 1025 32 10000 1.34 332 15:56 11.01.2022
5956 Clear 13 1023 34 10000 2.06 20 14:43 11.01.2022
5957 Clear 13 1024 34 10000 1.54 30 13:56 11.01.2022
5958 Clear 13 1024 34 10000 1.54 30 13:36 11.01.2022
5959 Clear 13 1024 32 10000 1.54 20 12:51 11.01.2022
5960 Clear 13 1024 32 10000 1.54 20 12:22 11.01.2022
5961 Clear 14 1025 37 10000 0 0 10:24 11.01.2022
5962 Clear 15 1025 36 10000 0 0 07:35 11.01.2022
5963 Clear 20 1024 30 10000 0 0 01:47 11.01.2022
5964 Clear 22 1024 20 10000 1.54 0 00:22 11.01.2022
5965 Clear 22 1024 26 10000 1.54 0 23:37 10.01.2022
5966 Clear 21 1025 22 10000 0 0 22:19 10.01.2022
5967 Clear 21 1025 24 10000 0 0 21:54 10.01.2022
5968 Clear 20 1026 23 10000 0 0 21:31 10.01.2022
5969 Clear 20 1026 31 10000 0.45 360 20:58 10.01.2022
5970 Clear 19 1027 30 10000 0 0 20:29 10.01.2022
5971 Clear 18 1027 36 10000 0.45 360 19:47 10.01.2022
5972 Clear 17 1027 38 10000 1.54 360 19:22 10.01.2022
5973 Clear 16 1027 39 10000 1.54 20 18:54 10.01.2022
5974 Clear 15 1027 43 10000 1.54 20 18:34 10.01.2022
5975 Clear 13 1026 41 10000 0 0 16:43 10.01.2022
5976 Clouds 13 1027 44 10000 2.95 8 15:55 10.01.2022
5977 Clear 13 1026 40 10000 1.54 20 14:39 10.01.2022
5978 Clear 13 1026 39 10000 2.57 10 12:43 10.01.2022
5979 Clear 14 1026 40 10000 0 0 11:40 10.01.2022
5980 Clear 14 1027 39 10000 0 0 10:45 10.01.2022
5981 Clouds 14 1028 42 10000 0.45 340 08:57 10.01.2022
5982 Haze 15 1026 55 9656 0 0 05:51 10.01.2022
5983 Clear 19 1024 47 10000 0 0 01:35 10.01.2022
5984 Clear 21 1024 32 10000 0 0 00:44 10.01.2022
5985 Clear 22 1024 28 10000 0 0 00:19 10.01.2022
5986 Clear 22 1023 24 10000 0 0 22:43 09.01.2022
5987 Clear 22 1024 27 10000 0 0 21:47 09.01.2022
5988 Clear 21 1024 29 10000 0 0 21:25 09.01.2022
5989 Clear 21 1025 31 10000 0.45 219 20:58 09.01.2022
5990 Clear 21 1025 32 10000 0 0 20:39 09.01.2022
5991 Clear 20 1025 33 10000 0 0 20:21 09.01.2022
5992 Clear 19 1024 39 10000 0 0 19:38 09.01.2022
5993 Clear 17 1024 46 10000 0 0 19:18 09.01.2022
5994 Clear 16 1024 54 10000 0 0 18:37 09.01.2022
5995 Haze 13 1024 66 9656 0 0 17:48 09.01.2022
5996 Haze 11 1024 70 9656 0 0 17:29 09.01.2022
5997 Haze 10 1023 69 9656 1.54 30 16:43 09.01.2022
5998 Haze 10 1022 71 9656 0 0 15:46 09.01.2022
5999 Haze 10 1022 69 9656 0 0 15:25 09.01.2022
6000 Haze 10 1022 75 9656 0 0 14:39 09.01.2022
6001 Haze 10 1021 78 9656 0 0 13:48 09.01.2022
6002 Clouds 12 1021 66 10000 2 10 11:58 09.01.2022
6003 Mist 10 1022 77 6437 0 0 11:28 09.01.2022
6004 Clouds 11 1021 71 10000 1.34 24 09:55 09.01.2022
6005 Haze 11 1022 81 9656 0 0 09:20 09.01.2022
6006 Clouds 11 1021 80 10000 0.58 343 07:54 09.01.2022
6007 Clear 16 1017 66 10000 0 0 01:30 09.01.2022
6008 Clear 16 1017 64 10000 2.06 260 00:50 09.01.2022
6009 Clear 17 1017 61 10000 0 0 23:36 08.01.2022
6010 Clouds 17 1017 62 10000 0.45 214 22:56 08.01.2022
6011 Clouds 16 1018 63 10000 0 0 21:32 08.01.2022
6012 Clear 16 1019 62 10000 2.57 140 20:44 08.01.2022
6013 Clear 16 1019 62 10000 2.57 140 20:23 08.01.2022
6014 Clear 15 1019 68 10000 1.54 0 19:22 08.01.2022
6015 Mist 12 1018 83 6437 0 0 17:43 08.01.2022
6016 Mist 11 1017 84 6437 0 0 16:57 08.01.2022
6017 Mist 11 1017 83 8047 0 0 15:35 08.01.2022
6018 Clouds 11 1016 82 10000 0 0 14:33 08.01.2022
6019 Clouds 12 1015 84 10000 0 0 12:35 08.01.2022
6020 Mist 12 1015 87 10000 0 0 10:43 08.01.2022
6021 Mist 12 1015 88 10000 0 0 10:23 08.01.2022
6022 Mist 12 1015 88 10000 0 0 10:23 08.01.2022
6023 Mist 12 1015 88 9656 0 0 09:34 08.01.2022
6024 Mist 12 1015 88 9656 0 0 09:34 08.01.2022
6025 Haze 12 1015 88 8047 0 0 07:18 08.01.2022
6026 Haze 13 1013 80 4023 0 0 01:49 08.01.2022
6027 Haze 14 1013 77 3219 0 0 00:25 08.01.2022
6028 Haze 15 1013 76 4828 0 0 22:39 07.01.2022
6029 Mist 15 1015 75 2816 0 0 20:40 07.01.2022
6030 Mist 15 1015 74 3219 0 0 19:39 07.01.2022
6031 Mist 14 1015 74 1609 0 0 18:53 07.01.2022
6032 Mist 13 1015 75 1609 0 0 18:30 07.01.2022
6033 Fog 11 1014 84 805 0 0 17:25 07.01.2022
6034 Mist 11 1014 86 1207 0 0 16:22 07.01.2022
6035 Fog 12 1013 84 402 0 0 13:53 07.01.2022
6036 Fog 12 1013 82 402 0 0 13:19 07.01.2022
6037 Fog 12 1013 81 402 0 0 12:35 07.01.2022
6038 Mist 14 1014 72 8047 0 0 07:31 07.01.2022
6039 Clear 17 1013 55 10000 1.54 290 02:54 07.01.2022
6040 Clear 18 1013 59 10000 0.45 175 01:52 07.01.2022
6041 Clear 20 1013 50 10000 0 0 01:27 07.01.2022
6042 Clear 21 1013 51 10000 0.89 205 00:57 07.01.2022
6043 Clear 22 1013 47 10000 0 0 22:46 06.01.2022
6044 Fog 21 1015 49 10000 0 0 21:23 06.01.2022
6045 Haze 20 1016 48 10000 0 0 20:20 06.01.2022
6046 Haze 19 1017 48 10000 0 0 19:41 06.01.2022
6047 Mist 16 1016 58 6437 1.54 140 17:53 06.01.2022
6048 Mist 14 1016 68 10000 0 0 17:34 06.01.2022
6049 Mist 13 1016 66 10000 0 0 16:42 06.01.2022
6050 Mist 13 1016 64 10000 0 0 15:46 06.01.2022
6051 Mist 13 1016 65 10000 0 0 15:25 06.01.2022
6052 Mist 12 1016 70 10000 0 0 14:43 06.01.2022
6053 Mist 13 1016 67 10000 0 0 14:18 06.01.2022
6054 Mist 13 1016 68 10000 0 0 12:43 06.01.2022
6055 Mist 13 1016 65 10000 0 0 11:42 06.01.2022
6056 Mist 13 1016 62 10000 0 0 11:42 06.01.2022
6057 Mist 13 1016 62 10000 0 0 11:22 06.01.2022
6058 Haze 14 1016 61 9656 0 0 08:51 06.01.2022
6059 Clear 19 1016 55 10000 0 0 00:53 06.01.2022
6060 Clear 20 1017 46 10000 2.06 260 23:37 05.01.2022
6061 Clouds 21 1017 46 10000 0.89 255 22:56 05.01.2022
6062 Clear 20 1017 44 10000 0 0 22:32 05.01.2022
6063 Clear 20 1018 42 10000 0 0 21:48 05.01.2022
6064 Clouds 19 1019 43 10000 0.26 67 20:57 05.01.2022
6065 Clear 18 1020 45 10000 0 0 20:18 05.01.2022
6066 Clear 15 1020 58 10000 0 0 18:44 05.01.2022
6067 Clear 11 1020 74 10000 0 0 17:26 05.01.2022
6068 Clear 11 1020 75 10000 0 0 16:50 05.01.2022
6069 Clear 10 1020 74 10000 0 0 15:26 05.01.2022
6070 Clear 11 1020 72 10000 0 0 13:52 05.01.2022
6071 Clear 11 1020 73 10000 0 0 13:25 05.01.2022
6072 Clear 11 1021 74 10000 0 0 11:36 05.01.2022
6073 Clear 11 1022 78 10000 0 0 07:47 05.01.2022
6074 Clear 11 1022 82 10000 0 0 06:25 05.01.2022
6075 Clear 16 1022 56 10000 0.45 203 00:59 05.01.2022
6076 Clear 17 1022 48 10000 0 0 23:28 04.01.2022
6077 Clear 17 1023 49 10000 0.89 283 22:58 04.01.2022
6078 Clear 16 1024 57 10000 0 0 21:31 04.01.2022
6079 Clear 16 1024 57 10000 0 0 21:31 04.01.2022
6080 Clear 16 1024 57 10000 0 0 21:31 04.01.2022
6081 Clear 13 1025 57 10000 0 0 19:22 04.01.2022
6082 Clear 11 1024 65 10000 0 0 17:54 04.01.2022
6083 Clear 8 1024 67 10000 0 0 16:53 04.01.2022
6084 Clear 8 1024 69 10000 0 0 16:25 04.01.2022
6085 Clouds 9 1023 55 10000 0.68 34 14:54 04.01.2022
6086 Clear 8 1024 68 10000 0 0 14:35 04.01.2022
6087 Clear 8 1024 70 10000 0 0 13:40 04.01.2022
6088 Clear 9 1024 68 10000 0 0 10:52 04.01.2022
6089 Clear 9 1024 74 10000 0 0 09:47 04.01.2022
6090 Clear 10 1024 71 10000 0 0 08:35 04.01.2022
6091 Clear 12 1022 71 10000 0 0 03:39 04.01.2022
6092 Clear 16 1022 48 10000 1.54 270 00:42 04.01.2022
6093 Clear 17 1022 44 10000 1.54 0 23:41 03.01.2022
6094 Clear 17 1022 39 10000 0 0 22:21 03.01.2022
6095 Clear 17 1023 37 10000 0 0 21:35 03.01.2022
6096 Clear 16 1023 34 10000 0 0 20:28 03.01.2022
6097 Clear 13 1025 38 10000 0.85 220 18:54 03.01.2022
6098 Clear 12 1023 44 10000 0 0 18:29 03.01.2022
6099 Clear 9 1023 50 10000 0 0 17:18 03.01.2022
6100 Clear 7 1023 50 10000 1.54 360 16:28 03.01.2022
6101 Clear 8 1022 46 10000 1.54 20 14:31 03.01.2022
6102 Smoke 9 1022 48 10000 1.54 10 12:51 03.01.2022
6103 Smoke 9 1022 46 10000 0 0 11:50 03.01.2022
6104 Clear 9 1023 44 10000 0 0 10:37 03.01.2022
6105 Clear 10 1023 49 10000 0 0 08:54 03.01.2022
6106 Clear 10 1023 51 10000 0 0 07:51 03.01.2022
6107 Clear 14 1022 48 10000 3.09 260 02:28 03.01.2022
6108 Clear 18 1022 25 10000 1.54 0 23:22 02.01.2022
6109 Clear 17 1023 28 10000 0.45 45 22:56 02.01.2022
6110 Clear 17 1024 29 10000 1.54 70 21:52 02.01.2022
6111 Clear 16 1026 34 10000 1.54 0 20:50 02.01.2022
6112 Clear 15 1026 35 10000 1.54 0 20:29 02.01.2022
6113 Clear 13 1027 39 10000 0 0 19:31 02.01.2022
6114 Clear 13 1027 43 10000 0.88 8 18:55 02.01.2022
6115 Clear 11 1026 53 10000 0.87 13 17:56 02.01.2022
6116 Clear 10 1026 49 10000 1.54 10 17:38 02.01.2022
6117 Clear 9 1026 51 10000 1.54 10 17:20 02.01.2022
6118 Clear 8 1026 49 10000 2.06 10 16:27 02.01.2022
6119 Clear 8 1025 54 10000 0 0 14:41 02.01.2022
6120 Clear 8 1025 49 10000 0 0 13:25 02.01.2022
6121 Clear 9 1025 50 10000 0 0 12:31 02.01.2022
6122 Clear 9 1025 51 10000 1.54 360 11:41 02.01.2022
6123 Clear 9 1025 54 10000 0 0 10:53 02.01.2022
6124 Clear 9 1026 58 10000 1.54 350 09:56 02.01.2022
6125 Clear 10 1025 55 10000 0 0 07:34 02.01.2022
6126 Clear 12 1023 70 10000 1.54 0 02:51 02.01.2022
6127 Clear 16 1020 52 10000 2.06 110 23:42 01.01.2022
6128 Clear 16 1020 52 10000 2.06 110 23:23 01.01.2022
6129 Clear 16 1020 52 10000 1.54 0 22:25 01.01.2022
6130 Clear 15 1020 55 10000 0 0 21:44 01.01.2022
6131 Clear 15 1020 56 10000 0 0 21:21 01.01.2022
6132 Haze 15 1020 58 10000 0 0 20:20 01.01.2022
6133 Clear 14 1020 57 10000 0 0 19:33 01.01.2022
6134 Clear 12 1020 64 10000 0 0 18:29 01.01.2022
6135 Clouds 10 1019 69 10000 0 0 17:38 01.01.2022
6136 Clouds 8 1018 70 10000 0 0 16:34 01.01.2022
6137 Clouds 8 1017 72 10000 0 0 15:33 01.01.2022
6138 Clouds 8 1015 73 10000 0 0 14:22 01.01.2022
6139 Clouds 9 1015 73 10000 0 0 13:35 01.01.2022
6140 Clouds 9 1014 76 10000 0 0 12:18 01.01.2022
6141 Clouds 9 1014 79 10000 1.54 360 11:25 01.01.2022
6142 Haze 9 1013 80 10000 0 0 10:52 01.01.2022
6143 Haze 9 1012 76 6437 1.54 10 09:47 01.01.2022
6144 Clear 10 1011 72 10000 0 0 08:35 01.01.2022
6145 Clear 10 1011 79 10000 0.45 35 07:56 01.01.2022
6146 Clouds 10 1010 70 10000 0 0 07:37 01.01.2022
6147 Clouds 11 1009 71 10000 2.06 30 06:43 01.01.2022
6148 Clouds 11 1007 77 10000 0 0 04:39 01.01.2022
6149 Clear 12 1007 84 10000 0 0 03:52 01.01.2022
6150 Clouds 15 1006 77 10000 2.06 250 23:55 31.12.2021
6151 Clouds 15 1006 77 10000 1.54 0 22:25 31.12.2021
6152 Clear 15 1007 76 10000 2.06 270 21:47 31.12.2021
6153 Clear 14 1008 79 10000 0 0 19:48 31.12.2021
6154 Clear 14 1008 82 10000 0 0 19:28 31.12.2021
6155 Clear 10 1008 93 10000 0 0 17:56 31.12.2021
6156 Clear 10 1007 92 10000 1.54 60 17:26 31.12.2021
6157 Clear 10 1007 91 10000 0 0 16:52 31.12.2021
6158 Clear 9 1007 90 10000 0 0 16:18 31.12.2021
6159 Clear 9 1006 92 10000 0 0 15:50 31.12.2021
6160 Clear 9 1006 93 10000 0 0 15:27 31.12.2021
6161 Clear 9 1007 93 10000 0 0 14:41 31.12.2021
6162 Clear 9 1007 91 10000 0 0 13:55 31.12.2021
6163 Clear 9 1007 93 10000 1.79 345 12:53 31.12.2021
6164 Clear 9 1007 93 10000 0 0 12:26 31.12.2021
6165 Clear 10 1008 93 10000 1.54 360 11:42 31.12.2021
6166 Clear 10 1008 94 10000 1.88 7 10:58 31.12.2021
6167 Mist 10 1009 93 8047 0 0 10:29 31.12.2021
6168 Mist 11 1009 95 9656 0 0 09:35 31.12.2021
6169 Clouds 11 1010 94 10000 0.45 346 08:54 31.12.2021
6170 Clear 11 1009 94 10000 1.54 360 08:23 31.12.2021
6171 Clouds 11 1010 94 10000 0 0 06:24 31.12.2021
6172 Rain 13 1010 94 2816 2.57 110 23:23 30.12.2021
6173 Rain 12 1011 94 4023 1.54 0 22:32 30.12.2021
6174 Rain 12 1011 94 10000 3.09 70 21:41 30.12.2021
6175 Rain 12 1011 94 4828 2.57 70 21:22 30.12.2021
6176 Rain 12 1012 94 6437 3.09 0 20:43 30.12.2021
6177 Rain 12 1012 94 6437 3.09 0 20:23 30.12.2021
6178 Rain 12 1012 93 10000 4.12 80 19:43 30.12.2021
6179 Mist 12 1012 94 3219 3.6 90 18:29 30.12.2021
6180 Mist 11 1012 94 2414 0 0 17:38 30.12.2021
6181 Rain 11 1011 94 4828 2.57 0 15:58 30.12.2021
6182 Rain 11 1011 94 4023 1.54 0 15:39 30.12.2021
6183 Rain 11 1010 93 6437 4.12 90 14:37 30.12.2021
6184 Rain 11 1010 94 6437 4.12 100 13:32 30.12.2021
6185 Rain 11 1011 94 9656 3.09 0 12:29 30.12.2021
6186 Rain 11 1011 94 4828 3.6 90 10:50 30.12.2021
6187 Rain 11 1011 94 4828 3.09 0 09:56 30.12.2021
6188 Rain 11 1011 94 8047 1.79 76 08:56 30.12.2021
6189 Rain 12 1011 94 6437 1.54 0 06:52 30.12.2021
6190 Rain 10 1011 92 8047 3.09 60 03:42 30.12.2021
6191 Rain 10 1011 91 10000 2.06 0 02:42 30.12.2021
6192 Mist 11 1012 90 2414 3.6 90 23:43 29.12.2021
6193 Rain 11 1012 90 10000 3.09 90 23:22 29.12.2021
6194 Rain 11 1012 87 3219 3.09 0 22:21 29.12.2021
6195 Rain 11 1013 80 6437 3.6 140 21:33 29.12.2021
6196 Clouds 11 1013 79 10000 2.06 110 20:38 29.12.2021
6197 Clouds 11 1014 80 10000 1.54 0 19:48 29.12.2021
6198 Clouds 10 1013 81 10000 2.06 0 18:52 29.12.2021
6199 Clouds 9 1013 83 10000 0 0 17:56 29.12.2021
6200 Clouds 9 1013 85 10000 0 0 17:28 29.12.2021
6201 Clouds 8 1012 86 10000 2.06 70 16:41 29.12.2021
6202 Clouds 8 1012 86 10000 1.34 51 15:59 29.12.2021
6203 Clouds 8 1012 84 10000 2.06 0 14:24 29.12.2021
6204 Clouds 8 1013 84 10000 1.54 80 12:42 29.12.2021
6205 Clouds 8 1013 85 10000 0 0 11:49 29.12.2021
6206 Clouds 8 1013 85 10000 0 0 09:59 29.12.2021
6207 Clear 8 1012 83 10000 1.54 100 07:52 29.12.2021
6208 Clear 8 1011 83 10000 0 0 06:43 29.12.2021
6209 Clear 8 1011 82 10000 0 0 06:23 29.12.2021
6210 Clouds 9 1011 81 10000 0 0 05:42 29.12.2021
6211 Clouds 10 1011 71 10000 0 0 03:18 29.12.2021
6212 Clear 12 1010 60 10000 0.89 263 00:24 29.12.2021
6213 Clouds 12 1010 61 10000 0 0 23:47 28.12.2021
6214 Clouds 12 1010 60 10000 0 0 22:45 28.12.2021
6215 Clouds 12 1010 60 10000 0 0 22:24 28.12.2021
6216 Clouds 12 1011 62 10000 0.45 184 21:53 28.12.2021
6217 Clouds 12 1012 64 10000 1.54 0 20:48 28.12.2021
6218 Clear 11 1012 72 10000 2.57 100 19:44 28.12.2021
6219 Clear 10 1012 78 10000 0 0 18:44 28.12.2021
6220 Fog 10 1012 82 10000 0 0 18:23 28.12.2021
6221 Clouds 8 1011 89 10000 0 0 16:35 28.12.2021
6222 Clouds 8 1011 89 10000 0 0 15:52 28.12.2021
6223 Clouds 8 1012 89 10000 0 0 15:27 28.12.2021
6224 Clouds 8 1012 91 10000 0 0 14:53 28.12.2021
6225 Clouds 8 1012 90 10000 0 0 14:21 28.12.2021
6226 Clear 8 1012 89 10000 0 0 13:54 28.12.2021
6227 Clear 8 1012 89 10000 0 0 13:33 28.12.2021
6228 Clouds 8 1012 87 10000 5.66 280 12:55 28.12.2021
6229 Clear 8 1012 88 10000 0 0 12:18 28.12.2021
6230 Clear 9 1012 87 10000 0 0 09:30 28.12.2021
6231 Clear 10 1012 87 10000 0 0 07:33 28.12.2021
6232 Clouds 11 1012 91 10000 0 0 03:31 28.12.2021
6233 Mist 10 1015 87 4828 0 0 23:37 27.12.2021
6234 Clouds 11 1016 77 10000 2.06 280 22:20 27.12.2021
6235 Clouds 12 1017 67 10000 0.45 275 21:30 27.12.2021
6236 Clouds 12 1018 65 10000 0 0 20:32 27.12.2021
6237 Clear 12 1018 69 10000 1.54 0 19:47 27.12.2021
6238 Clouds 11 1019 76 10000 0.45 174 18:57 27.12.2021
6239 Clear 9 1018 83 10000 0 0 17:51 27.12.2021
6240 Clear 8 1018 85 10000 0 0 17:28 27.12.2021
6241 Clouds 7 1019 84 10000 0 0 15:54 27.12.2021
6242 Clouds 7 1019 85 10000 0 0 15:19 27.12.2021
6243 Clouds 7 1019 84 10000 2.06 100 14:22 27.12.2021
6244 Clouds 7 1019 83 10000 0 0 12:52 27.12.2021
6245 Clear 8 1019 82 10000 2.06 90 10:40 27.12.2021
6246 Clear 8 1019 82 10000 2.06 90 10:22 27.12.2021
6247 Clear 8 1019 81 10000 0 0 08:43 27.12.2021
6248 Clear 8 1019 78 10000 0 0 07:34 27.12.2021
6249 Clear 9 1019 76 10000 1.54 90 06:27 27.12.2021
6250 Clear 12 1018 63 10000 0.45 253 01:52 27.12.2021
6251 Clear 14 1017 54 10000 0 0 23:49 26.12.2021
6252 Clear 15 1017 54 10000 0 0 23:19 26.12.2021
6253 Clear 14 1019 61 10000 0 0 21:37 26.12.2021
6254 Clouds 13 1020 75 10000 0.45 223 19:57 26.12.2021
6255 Clear 11 1019 81 10000 0 0 18:46 26.12.2021
6256 Clear 11 1019 84 10000 0 0 18:22 26.12.2021
6257 Clear 8 1017 87 10000 0 0 15:54 26.12.2021
6258 Clear 9 1016 89 10000 0 0 13:51 26.12.2021
6259 Clear 9 1016 88 10000 0 0 13:32 26.12.2021
6260 Clouds 10 1016 91 10000 0 0 12:37 26.12.2021
6261 Clouds 10 1016 91 10000 0 0 12:37 26.12.2021
6262 Clouds 10 1015 91 10000 0 0 11:56 26.12.2021
6263 Mist 11 1015 92 8047 3.09 250 09:42 26.12.2021
6264 Mist 11 1015 93 4828 2.06 0 08:50 26.12.2021
6265 Rain 11 1015 93 4828 0 0 08:27 26.12.2021
6266 Mist 10 1015 86 9656 2.57 0 06:47 26.12.2021
6267 Mist 12 1015 83 10000 0.45 252 00:45 26.12.2021
6268 Clouds 12 1015 77 10000 1.54 0 23:49 25.12.2021
6269 Clouds 12 1015 77 10000 1.34 213 23:25 25.12.2021
6270 Clouds 13 1016 80 10000 0 0 22:21 25.12.2021
6271 Mist 12 1017 89 10000 0 0 20:36 25.12.2021
6272 Mist 12 1018 87 4828 0 0 19:20 25.12.2021
6273 Clouds 11 1018 88 10000 2.06 210 18:54 25.12.2021
6274 Mist 11 1018 92 4828 0 0 16:58 25.12.2021
6275 Mist 11 1017 92 4828 0 0 15:54 25.12.2021
6276 Clouds 11 1016 88 10000 1.54 100 14:25 25.12.2021
6277 Clouds 11 1016 89 10000 0 0 12:43 25.12.2021
6278 Mist 11 1016 90 10000 0 0 11:27 25.12.2021
6279 Mist 11 1017 91 10000 1.54 90 09:49 25.12.2021
6280 Clouds 11 1017 93 10000 0 0 07:54 25.12.2021
6281 Clouds 13 1014 83 10000 0 0 02:18 25.12.2021
6282 Clouds 15 1013 75 10000 1.54 250 00:30 25.12.2021
6283 Clouds 15 1013 74 10000 0 0 23:38 24.12.2021
6284 Mist 14 1012 89 10000 1.54 0 19:39 24.12.2021
6285 Clouds 14 1012 89 10000 1.54 0 19:20 24.12.2021
6286 Clouds 12 1009 91 10000 3.6 270 16:50 24.12.2021
6287 Rain 12 1009 92 10000 1.79 257 16:19 24.12.2021
6288 Rain 13 1009 92 2414 0 0 15:45 24.12.2021
6289 Mist 13 1008 92 9656 0.45 244 14:46 24.12.2021
6290 Mist 13 1008 92 9656 0 0 14:23 24.12.2021
6291 Mist 13 1008 93 10000 1.54 0 13:37 24.12.2021
6292 Mist 13 1009 93 4828 2.06 100 12:48 24.12.2021
6293 Mist 13 1009 93 8047 2.06 0 11:52 24.12.2021
6294 Mist 13 1009 93 10000 2.06 80 11:26 24.12.2021
6295 Clouds 12 1009 93 10000 2.57 110 10:53 24.12.2021
6296 Rain 12 1009 93 8047 1.54 120 10:22 24.12.2021
6297 Mist 12 1011 94 8047 2.06 0 08:25 24.12.2021
6298 Mist 12 1012 93 3219 0 0 07:50 24.12.2021
6299 Mist 12 1013 92 4023 3.09 0 02:52 24.12.2021
6300 Rain 12 1013 94 9656 0.45 5 00:19 24.12.2021
6301 Rain 12 1014 94 6437 0.89 5 23:23 23.12.2021
6302 Rain 12 1015 94 4023 1.54 100 22:39 23.12.2021
6303 Rain 13 1016 94 4023 2.06 80 22:20 23.12.2021
6304 Rain 12 1016 93 4828 3.09 90 21:33 23.12.2021
6305 Mist 12 1017 93 1609 0.45 10 20:20 23.12.2021
6306 Mist 12 1017 90 3219 2.06 0 18:37 23.12.2021
6307 Mist 12 1017 89 4828 2.06 0 17:57 23.12.2021
6308 Clouds 12 1017 87 10000 2.06 70 16:57 23.12.2021
6309 Clouds 12 1017 84 10000 2.06 70 16:25 23.12.2021
6310 Clouds 12 1017 85 9656 0 0 15:32 23.12.2021
6311 Rain 12 1017 86 10000 0 0 14:54 23.12.2021
6312 Clouds 12 1017 84 10000 0 0 14:36 23.12.2021
6313 Haze 13 1017 82 10000 1.54 130 13:22 23.12.2021
6314 Clouds 14 1017 70 10000 0 0 10:54 23.12.2021
6315 Clouds 14 1017 70 10000 0 0 09:49 23.12.2021
6316 Clouds 14 1017 69 10000 0 0 09:26 23.12.2021
6317 Clouds 14 1018 69 10000 0 0 08:25 23.12.2021
6318 Clouds 15 1016 61 10000 0 0 04:36 23.12.2021
6319 Clear 17 1017 51 10000 0 0 23:33 22.12.2021
6320 Clear 18 1017 46 10000 0 0 22:49 22.12.2021
6321 Clear 18 1018 45 10000 1.54 0 21:57 22.12.2021
6322 Clear 18 1018 42 10000 0 0 21:29 22.12.2021
6323 Clear 18 1019 41 10000 0 0 20:52 22.12.2021
6324 Clear 18 1019 39 10000 0 0 20:33 22.12.2021
6325 Clear 17 1020 40 10000 0 0 19:37 22.12.2021
6326 Clear 15 1020 50 10000 0 0 18:19 22.12.2021
6327 Clear 13 1020 60 10000 0 0 17:37 22.12.2021
6328 Clear 12 1019 57 10000 0 0 15:49 22.12.2021
6329 Clear 12 1019 56 10000 0 0 13:46 22.12.2021
6330 Clear 12 1019 59 10000 0 0 12:47 22.12.2021
6331 Clear 12 1020 60 10000 0 0 11:37 22.12.2021
6332 Mist 12 1020 64 10000 0 0 09:43 22.12.2021
6333 Clear 13 1021 61 10000 0 0 07:55 22.12.2021
6334 Clear 13 1020 65 10000 0 0 05:51 22.12.2021
6335 Clear 13 1020 66 10000 0 0 05:31 22.12.2021
6336 Clear 13 1019 67 10000 0 0 04:55 22.12.2021
6337 Clear 13 1020 67 10000 0 0 04:35 22.12.2021
6338 Clear 14 1019 65 10000 0 0 03:34 22.12.2021
6339 Clear 15 1019 58 10000 1.54 270 02:25 22.12.2021
6340 Clear 19 1018 42 10000 0.45 257 23:47 21.12.2021
6341 Clear 19 1019 28 10000 0 0 22:36 21.12.2021
6342 Clear 19 1019 30 10000 0 0 21:55 21.12.2021
6343 Clear 19 1019 31 10000 0 0 21:31 21.12.2021
6344 Clear 17 1021 45 10000 0 0 20:24 21.12.2021
6345 Clear 16 1021 47 10000 0 0 19:52 21.12.2021
6346 Clear 15 1021 49 10000 0 0 19:33 21.12.2021
6347 Clear 14 1021 53 10000 0 0 18:23 21.12.2021
6348 Clear 14 1020 50 10000 0 0 17:53 21.12.2021
6349 Clear 13 1020 45 10000 0 0 16:47 21.12.2021
6350 Clear 13 1020 49 10000 0 0 15:34 21.12.2021
6351 Clear 13 1020 49 10000 0 0 14:20 21.12.2021
6352 Clear 13 1019 48 10000 0 0 13:41 21.12.2021
6353 Clear 13 1019 49 10000 0 0 12:25 21.12.2021
6354 Haze 13 1020 53 9656 0 0 10:38 21.12.2021
6355 Haze 13 1020 52 9656 0 0 09:50 21.12.2021
6356 Clouds 14 1021 37 10000 0.54 290 08:55 21.12.2021
6357 Haze 13 1020 58 9656 0 0 07:43 21.12.2021
6358 Haze 13 1020 59 9656 0 0 07:20 21.12.2021
6359 Clear 14 1019 63 10000 0 0 03:24 21.12.2021
6360 Clear 16 1019 54 10000 0 0 01:25 21.12.2021
6361 Clear 17 1019 44 10000 0 0 23:54 20.12.2021
6362 Clear 18 1019 34 10000 0 0 22:35 20.12.2021
6363 Clear 17 1020 33 10000 0 0 21:52 20.12.2021
6364 Clear 17 1020 33 10000 0.45 21 21:24 20.12.2021
6365 Clear 17 1021 35 10000 1.54 90 20:54 20.12.2021
6366 Clear 16 1022 37 10000 0 0 20:23 20.12.2021
6367 Clear 15 1023 49 10000 0 0 19:38 20.12.2021
6368 Clear 14 1023 49 10000 0 0 19:19 20.12.2021
6369 Clear 13 1022 59 10000 0 0 18:32 20.12.2021
6370 Haze 10 1022 65 10000 0 0 17:50 20.12.2021
6371 Clear 8 1022 65 10000 0 0 16:47 20.12.2021
6372 Clouds 10 1021 43 10000 0.66 354 15:57 20.12.2021
6373 Clear 8 1021 65 10000 0 0 15:35 20.12.2021
6374 Clear 8 1021 68 10000 0 0 13:49 20.12.2021
6375 Mist 9 1021 67 10000 0 0 12:30 20.12.2021
6376 Mist 9 1021 71 10000 0 0 10:46 20.12.2021
6377 Clear 10 1021 69 10000 0 0 09:40 20.12.2021
6378 Clear 10 1021 71 10000 0 0 08:50 20.12.2021
6379 Clear 10 1021 69 10000 0 0 08:31 20.12.2021
6380 Clear 11 1021 68 10000 0 0 07:35 20.12.2021
6381 Clear 11 1021 70 10000 0 0 06:39 20.12.2021
6382 Clear 17 1019 53 10000 0.89 260 00:26 20.12.2021
6383 Clear 19 1019 40 10000 2.11 175 22:58 19.12.2021
6384 Clear 18 1019 39 10000 0.89 163 22:40 19.12.2021
6385 Clear 18 1020 30 10000 0.45 294 21:32 19.12.2021
6386 Clear 18 1020 27 10000 0 0 20:44 19.12.2021
6387 Clear 17 1021 28 10000 0 0 20:23 19.12.2021
6388 Clear 16 1021 31 10000 0 0 19:42 19.12.2021
6389 Clear 14 1021 40 10000 0 0 18:46 19.12.2021
6390 Clear 12 1020 43 10000 0 0 17:54 19.12.2021
6391 Clear 11 1020 47 10000 0 0 17:35 19.12.2021
6392 Clear 9 1020 52 10000 0 0 16:41 19.12.2021
6393 Clear 11 1019 37 10000 0.9 63 15:56 19.12.2021
6394 Clear 9 1019 49 10000 0 0 15:25 19.12.2021
6395 Clear 9 1019 49 10000 0 0 15:25 19.12.2021
6396 Clear 10 1019 49 10000 0 0 14:45 19.12.2021
6397 Clear 10 1019 46 10000 0 0 13:35 19.12.2021
6398 Clear 12 1018 37 10000 0.57 29 12:59 19.12.2021
6399 Clear 10 1019 46 10000 2.06 20 12:32 19.12.2021
6400 Clear 11 1019 46 10000 1.54 20 11:38 19.12.2021
6401 Clear 11 1019 47 10000 1.54 40 10:50 19.12.2021
6402 Clear 11 1019 44 10000 1.54 40 10:22 19.12.2021
6403 Clear 12 1020 47 10000 0 0 08:51 19.12.2021
6404 Clear 12 1020 52 10000 0 0 06:54 19.12.2021
6405 Clear 15 1019 60 10000 0 0 02:30 19.12.2021
6406 Clear 18 1020 42 10000 0.45 278 00:55 19.12.2021
6407 Clear 20 1019 31 10000 1.54 260 23:21 18.12.2021
6408 Clear 19 1020 30 10000 0 0 22:29 18.12.2021
6409 Clear 19 1021 25 10000 0 0 21:51 18.12.2021
6410 Clear 19 1021 24 10000 0.45 140 21:30 18.12.2021
6411 Clear 18 1022 26 10000 0.45 360 20:43 18.12.2021
6412 Clear 19 1022 26 10000 0 0 20:43 18.12.2021
6413 Clear 17 1022 28 10000 0 0 19:50 18.12.2021
6414 Clear 14 1022 43 10000 0 0 18:26 18.12.2021
6415 Clear 13 1022 41 10000 0 0 17:50 18.12.2021
6416 Clear 11 1022 50 10000 0 0 16:55 18.12.2021
6417 Clear 10 1022 49 10000 0 0 16:21 18.12.2021
6418 Clear 10 1022 50 10000 1.54 10 15:25 18.12.2021
6419 Clear 10 1021 50 10000 0 0 14:19 18.12.2021
6420 Clear 10 1021 55 10000 0 0 12:21 18.12.2021
6421 Clear 11 1021 55 10000 0 0 10:43 18.12.2021
6422 Clear 11 1022 54 10000 0 0 09:33 18.12.2021
6423 Clear 12 1021 53 10000 0 0 08:37 18.12.2021
6424 Clear 12 1021 52 10000 0 0 08:18 18.12.2021
6425 Clear 16 1019 61 10000 0 0 01:48 18.12.2021
6426 Clear 16 1019 60 10000 0 0 01:48 18.12.2021
6427 Clear 18 1019 46 10000 0 0 00:27 18.12.2021
6428 Clear 19 1019 45 10000 0 0 23:37 17.12.2021
6429 Clear 18 1020 50 10000 0 0 21:54 17.12.2021
6430 Clear 17 1020 55 10000 1.54 90 20:50 17.12.2021
6431 Clear 16 1021 58 10000 1.54 90 20:28 17.12.2021
6432 Clear 14 1021 72 10000 0 0 18:54 17.12.2021
6433 Clear 13 1021 77 10000 0 0 18:21 17.12.2021
6434 Clear 11 1020 83 10000 0 0 17:26 17.12.2021
6435 Haze 9 1019 84 10000 0 0 16:44 17.12.2021
6436 Haze 9 1019 84 10000 0 0 16:19 17.12.2021
6437 Haze 9 1019 86 10000 0 0 15:19 17.12.2021
6438 Haze 9 1019 86 10000 0 0 14:34 17.12.2021
6439 Haze 10 1019 87 10000 0 0 12:46 17.12.2021
6440 Haze 10 1019 89 10000 1.54 70 11:27 17.12.2021
6441 Haze 10 1019 89 10000 1.54 0 09:59 17.12.2021
6442 Mist 11 1019 90 9656 0.89 11 08:58 17.12.2021
6443 Haze 11 1019 89 10000 1.54 70 08:20 17.12.2021
6444 Mist 11 1018 90 6437 1.54 100 05:41 17.12.2021
6445 Mist 11 1018 85 4023 0 0 02:52 17.12.2021
6446 Clouds 13 1018 68 10000 1.54 0 23:20 16.12.2021
6447 Clear 14 1019 63 10000 1.34 293 22:24 16.12.2021
6448 Clear 14 1019 63 10000 0 0 22:23 16.12.2021
6449 Clear 14 1019 63 10000 1.34 293 22:23 16.12.2021
6450 Clear 14 1019 63 10000 1.34 293 22:23 16.12.2021
6451 Clear 14 1020 60 10000 0 0 21:44 16.12.2021
6452 Clear 13 1020 59 10000 0 0 20:55 16.12.2021
6453 Clouds 13 1021 58 10000 0 0 20:27 16.12.2021
6454 Clear 12 1022 59 10000 1.54 0 19:31 16.12.2021
6455 Clear 10 1021 67 10000 1.54 60 18:36 16.12.2021
6456 Clear 9 1021 70 10000 0 0 17:48 16.12.2021
6457 Clear 7 1022 73 10000 0 0 16:44 16.12.2021
6458 Clear 7 1022 73 10000 0 0 16:18 16.12.2021
6459 Clear 7 1021 73 10000 1.54 30 14:32 16.12.2021
6460 Clear 7 1022 74 10000 0 0 12:34 16.12.2021
6461 Clear 7 1022 73 10000 0 0 11:19 16.12.2021
6462 Clear 7 1022 73 10000 0 0 11:19 16.12.2021
6463 Clear 7 1023 69 10000 0 0 10:45 16.12.2021
6464 Clear 8 1023 68 10000 0 0 09:51 16.12.2021
6465 Clear 8 1023 71 10000 0 0 07:19 16.12.2021
6466 Clear 8 1024 69 10000 0 0 06:18 16.12.2021
6467 Clear 13 1022 53 10000 0.89 266 00:44 16.12.2021
6468 Clear 14 1022 47 10000 0.45 244 23:21 15.12.2021
6469 Clear 13 1022 49 10000 0 0 22:22 15.12.2021
6470 Clear 13 1023 50 10000 0 0 21:46 15.12.2021
6471 Clear 13 1023 51 10000 0 0 21:26 15.12.2021
6472 Clear 12 1024 63 10000 2.06 140 19:55 15.12.2021
6473 Clear 11 1025 65 10000 1.54 100 19:19 15.12.2021
6474 Clear 9 1024 72 10000 1.54 0 18:26 15.12.2021
6475 Clear 8 1024 76 10000 0 0 17:49 15.12.2021
6476 Clear 7 1024 79 10000 0 0 17:27 15.12.2021
6477 Clear 6 1023 80 10000 0 0 16:26 15.12.2021
6478 Mist 5 1022 79 8047 0 0 15:45 15.12.2021
6479 Mist 6 1022 80 8047 0 0 15:27 15.12.2021
6480 Clouds 6 1021 79 10000 1.23 348 13:59 15.12.2021
6481 Clear 6 1022 81 10000 0 0 12:24 15.12.2021
6482 Clear 6 1021 80 10000 0 0 10:24 15.12.2021
6483 Clear 7 1020 84 10000 0 0 08:48 15.12.2021
6484 Clear 8 1018 84 10000 0 0 06:45 15.12.2021
6485 Clouds 10 1012 87 9656 3.6 260 00:52 15.12.2021
6486 Mist 10 1012 88 8047 2.06 280 23:41 14.12.2021
6487 Rain 10 1012 90 10000 4.12 260 22:48 14.12.2021
6488 Mist 11 1011 92 10000 6.69 260 21:51 14.12.2021
6489 Rain 14 1010 93 10000 1.54 0 20:27 14.12.2021
6490 Rain 14 1011 94 6437 0 0 19:40 14.12.2021
6491 Mist 14 1012 94 2414 1.34 211 18:44 14.12.2021
6492 Rain 14 1012 94 402 0 0 17:58 14.12.2021
6493 Rain 14 1012 95 2012 2.06 0 17:28 14.12.2021
6494 Rain 14 1012 94 4023 2.57 0 16:38 14.12.2021
6495 Rain 13 1013 94 4023 2.57 0 15:26 14.12.2021
6496 Rain 13 1014 93 4828 2.57 0 13:31 14.12.2021
6497 Rain 12 1016 93 3219 2.06 0 11:58 14.12.2021
6498 Mist 12 1016 93 4023 2.57 80 11:23 14.12.2021
6499 Rain 12 1017 91 2816 0.89 329 09:57 14.12.2021
6500 Mist 12 1018 89 4828 3.6 100 09:35 14.12.2021
6501 Clouds 13 1018 82 10000 2.57 0 08:25 14.12.2021
6502 Clouds 13 1018 80 10000 0.89 348 07:43 14.12.2021
6503 Clouds 14 1018 70 10000 2.06 90 02:27 14.12.2021
6504 Clouds 14 1018 71 10000 0.45 53 22:56 13.12.2021
6505 Clouds 14 1019 65 10000 1.54 110 21:53 13.12.2021
6506 Clouds 14 1019 67 10000 0 0 21:18 13.12.2021
6507 Clouds 13 1020 68 10000 0.45 360 20:42 13.12.2021
6508 Clouds 13 1021 70 10000 2.57 110 19:52 13.12.2021
6509 Clouds 11 1020 73 10000 2.57 90 18:24 13.12.2021
6510 Clouds 11 1020 77 10000 2.57 80 17:26 13.12.2021
6511 Clouds 10 1019 82 10000 0 0 15:54 13.12.2021
6512 Clouds 9 1019 78 10000 0 0 15:32 13.12.2021
6513 Clouds 9 1018 82 10000 0 0 13:45 13.12.2021
6514 Clouds 9 1018 83 10000 0 0 12:49 13.12.2021
6515 Clouds 9 1018 84 10000 0 0 11:59 13.12.2021
6516 Clouds 9 1018 80 10000 0 0 11:35 13.12.2021
6517 Clouds 10 1018 79 10000 1.54 100 10:47 13.12.2021
6518 Clouds 10 1019 75 10000 0 0 09:41 13.12.2021
6519 Clear 10 1018 74 10000 0 0 07:53 13.12.2021
6520 Clear 11 1017 76 10000 0 0 05:36 13.12.2021
6521 Clear 13 1016 70 10000 0 0 03:30 13.12.2021
6522 Clear 18 1015 38 10000 0.45 277 23:26 12.12.2021
6523 Clear 18 1016 35 10000 0 0 21:50 12.12.2021
6524 Clear 17 1017 35 10000 0.45 301 20:28 12.12.2021
6525 Clear 14 1018 46 10000 0 0 18:43 12.12.2021
6526 Clear 12 1018 49 10000 0 0 17:46 12.12.2021
6527 Clear 9 1017 56 10000 0 0 16:28 12.12.2021
6528 Clear 9 1017 59 10000 0 0 15:51 12.12.2021
6529 Clear 9 1017 59 10000 0 0 15:26 12.12.2021
6530 Clear 9 1017 56 10000 0 0 14:37 12.12.2021
6531 Clear 9 1017 55 10000 0 0 13:34 12.12.2021
6532 Clear 10 1018 54 10000 1.54 20 12:32 12.12.2021
6533 Clear 10 1018 55 10000 0 0 11:44 12.12.2021
6534 Clear 10 1018 55 10000 0 0 11:25 12.12.2021
6535 Clear 10 1018 53 10000 0 0 10:32 12.12.2021
6536 Clear 11 1019 50 10000 1.54 30 09:39 12.12.2021
6537 Clear 11 1019 49 10000 1.54 30 08:38 12.12.2021
6538 Clear 12 1019 52 10000 0 0 06:34 12.12.2021
6539 Clear 12 1019 51 10000 0 0 05:22 12.12.2021
6540 Clear 13 1019 60 10000 2.06 220 03:57 12.12.2021
6541 Clear 18 1019 37 10000 0 0 00:36 12.12.2021
6542 Clear 19 1020 24 10000 0 0 22:24 11.12.2021
6543 Clear 19 1021 26 10000 2.06 50 21:52 11.12.2021
6544 Clear 18 1021 27 10000 2.06 50 21:21 11.12.2021
6545 Clear 16 1023 37 10000 2.06 10 19:40 11.12.2021
6546 Clear 15 1023 43 10000 0 0 18:53 11.12.2021
6547 Clear 14 1023 45 10000 0 0 18:30 11.12.2021
6548 Clear 12 1023 47 10000 0 0 17:41 11.12.2021
6549 Clouds 10 1022 49 10000 1.87 11 15:57 11.12.2021
6550 Clear 10 1022 53 10000 0 0 15:35 11.12.2021
6551 Clear 10 1022 62 10000 1.54 20 13:46 11.12.2021
6552 Clear 11 1021 62 10000 1.89 12 11:58 11.12.2021
6553 Clear 11 1022 63 10000 1.54 360 10:24 11.12.2021
6554 Clear 11 1022 69 10000 0 0 09:37 11.12.2021
6555 Clear 13 1021 74 10000 0 0 03:25 11.12.2021
6556 Clear 16 1019 58 10000 0 0 00:44 11.12.2021
6557 Clouds 17 1019 56 10000 2.57 0 23:40 10.12.2021
6558 Clouds 16 1019 57 10000 0 0 22:33 10.12.2021
6559 Clear 15 1019 60 10000 0 0 21:38 10.12.2021
6560 Clear 15 1020 60 10000 2.06 90 20:22 10.12.2021
6561 Clear 14 1020 68 10000 1.54 0 19:18 10.12.2021
6562 Clear 11 1019 80 10000 1.54 90 17:31 10.12.2021
6563 Clear 9 1018 82 10000 0 0 16:34 10.12.2021
6564 Clear 8 1017 83 10000 0 0 15:43 10.12.2021
6565 Clear 8 1017 82 10000 0 0 15:23 10.12.2021
6566 Clouds 9 1016 84 10000 1.61 12 13:53 10.12.2021
6567 Clear 9 1016 79 10000 0 0 13:31 10.12.2021
6568 Clear 9 1016 78 10000 0 0 12:51 10.12.2021
6569 Clear 10 1016 75 10000 0 0 11:36 10.12.2021
6570 Clear 10 1016 71 10000 0 0 10:56 10.12.2021
6571 Clear 10 1016 71 10000 2.06 0 09:36 10.12.2021
6572 Clear 11 1015 71 10000 0 0 07:25 10.12.2021
6573 Clouds 11 1013 81 10000 1.98 299 04:57 10.12.2021
6574 Clear 13 1013 82 10000 0 0 02:39 10.12.2021
6575 Clouds 14 1013 84 10000 3.09 260 23:40 09.12.2021
6576 Clouds 14 1013 84 10000 3.09 260 23:40 09.12.2021
6577 Clouds 14 1013 90 10000 2.57 260 22:41 09.12.2021
6578 Clouds 14 1013 89 10000 2.57 260 22:41 09.12.2021
6579 Rain 13 1013 90 10000 0.45 200 22:21 09.12.2021
6580 Rain 14 1014 91 9656 0 0 21:39 09.12.2021
6581 Rain 14 1014 90 10000 1.54 260 20:35 09.12.2021
6582 Clouds 14 1015 90 10000 1.34 207 19:43 09.12.2021
6583 Mist 14 1015 90 9656 3.09 0 19:20 09.12.2021
6584 Clouds 14 1015 88 10000 1.54 0 18:19 09.12.2021
6585 Clouds 14 1015 88 10000 2.06 0 17:48 09.12.2021
6586 Clouds 13 1015 88 10000 2.06 0 17:24 09.12.2021
6587 Clouds 13 1015 89 10000 1.54 250 16:36 09.12.2021
6588 Clouds 13 1014 90 10000 1.54 250 15:19 09.12.2021
6589 Clouds 13 1014 90 10000 0 0 14:36 09.12.2021
6590 Mist 14 1015 89 10000 0 0 12:48 09.12.2021
6591 Mist 14 1015 88 10000 0.45 232 12:24 09.12.2021
6592 Clouds 14 1015 89 10000 0 0 10:40 09.12.2021
6593 Haze 14 1016 90 10000 0 0 07:53 09.12.2021
6594 Clouds 14 1016 86 10000 0.45 203 03:58 09.12.2021
6595 Clear 17 1015 74 10000 2.57 250 01:43 09.12.2021
6596 Clear 19 1015 64 10000 1.79 223 23:38 08.12.2021
6597 Clear 19 1015 65 10000 1.34 211 22:59 08.12.2021
6598 Clear 19 1016 64 10000 3.13 253 22:37 08.12.2021
6599 Clear 19 1016 63 10000 0.45 302 21:39 08.12.2021
6600 Clear 19 1016 63 10000 0.89 242 21:39 08.12.2021
6601 Clear 18 1017 65 10000 0 0 20:58 08.12.2021
6602 Clear 18 1018 70 10000 1.54 200 19:57 08.12.2021
6603 Haze 17 1018 72 9656 0 0 19:29 08.12.2021
6604 Haze 15 1018 80 9656 1.54 0 18:28 08.12.2021
6605 Haze 13 1018 86 8047 0 0 17:24 08.12.2021
6606 Mist 11 1017 83 10000 0 0 15:45 08.12.2021
6607 Mist 11 1017 83 10000 0 0 15:23 08.12.2021
6608 Mist 11 1017 86 9656 0 0 14:26 08.12.2021
6609 Clear 12 1016 85 10000 0 0 10:53 08.12.2021
6610 Clear 12 1016 85 10000 0 0 10:28 08.12.2021
6611 Clouds 12 1016 86 10000 0.32 68 08:54 08.12.2021
6612 Clear 13 1016 86 10000 0 0 07:21 08.12.2021
6613 Haze 16 1015 70 10000 0 0 01:39 08.12.2021
6614 Haze 18 1014 66 10000 2.06 100 23:33 07.12.2021
6615 Haze 17 1015 70 8047 0 0 21:26 07.12.2021
6616 Haze 16 1015 74 8047 0 0 20:54 07.12.2021
6617 Haze 15 1016 83 6437 1.54 0 19:50 07.12.2021
6618 Haze 14 1015 85 6437 1.54 0 18:42 07.12.2021
6619 Haze 14 1015 88 8047 1.54 0 17:27 07.12.2021
6620 Clouds 13 1015 89 9656 0 0 16:58 07.12.2021
6621 Clouds 13 1015 89 9656 0 0 16:28 07.12.2021
6622 Clouds 13 1014 89 10000 1.9 75 14:57 07.12.2021
6623 Rain 14 1015 82 10000 0 0 13:53 07.12.2021
6624 Clouds 14 1015 80 10000 0 0 12:49 07.12.2021
6625 Clouds 14 1015 82 10000 0 0 11:25 07.12.2021
6626 Clouds 14 1016 80 10000 0 0 09:55 07.12.2021
6627 Haze 14 1016 82 10000 1.54 0 07:57 07.12.2021
6628 Haze 14 1016 85 8047 0 0 05:59 07.12.2021
6629 Haze 14 1016 85 8047 0 0 05:33 07.12.2021
6630 Haze 19 1016 68 4828 0 0 23:45 06.12.2021
6631 Haze 20 1017 62 4828 1.54 0 22:44 06.12.2021
6632 Haze 20 1017 60 4023 1.34 288 22:23 06.12.2021
6633 Haze 20 1017 58 4828 0.89 261 21:51 06.12.2021
6634 Haze 20 1018 51 4023 0 0 20:33 06.12.2021
6635 Haze 20 1018 56 4828 2.06 170 19:55 06.12.2021
6636 Haze 19 1019 58 4023 0 0 19:20 06.12.2021
6637 Haze 17 1019 64 4828 0 0 18:23 06.12.2021
6638 Mist 15 1019 68 4828 0 0 17:40 06.12.2021
6639 Mist 12 1018 84 4023 0 0 16:32 06.12.2021
6640 Mist 12 1017 75 4828 0 0 15:38 06.12.2021
6641 Mist 13 1017 75 6437 0 0 13:46 06.12.2021
6642 Mist 12 1017 80 4828 0 0 12:39 06.12.2021
6643 Mist 13 1018 80 4828 0 0 11:36 06.12.2021
6644 Mist 14 1017 76 6437 0 0 08:46 06.12.2021
6645 Mist 15 1017 75 6437 0 0 06:40 06.12.2021
6646 Haze 18 1017 67 4828 1.54 90 23:38 05.12.2021
6647 Haze 18 1019 72 4828 1.54 90 21:51 05.12.2021
6648 Haze 18 1019 72 4023 0 0 21:19 05.12.2021
6649 Mist 16 1020 74 3219 0 0 20:19 05.12.2021
6650 Mist 15 1020 81 2816 0 0 19:33 05.12.2021
6651 Mist 14 1021 88 2816 1.54 100 18:55 05.12.2021
6652 Mist 13 1021 88 3219 1.54 120 18:20 05.12.2021
6653 Mist 12 1021 89 3219 0 0 17:48 05.12.2021
6654 Mist 12 1020 88 4023 0 0 16:48 05.12.2021
6655 Mist 11 1020 86 4023 0 0 16:26 05.12.2021
6656 Mist 12 1020 88 4828 0 0 15:49 05.12.2021
6657 Mist 12 1020 87 4828 0 0 14:43 05.12.2021
6658 Mist 11 1020 87 4828 0 0 14:25 05.12.2021
6659 Mist 11 1020 86 4828 0 0 13:22 05.12.2021
6660 Mist 12 1020 84 4828 0 0 12:40 05.12.2021
6661 Mist 12 1020 84 4828 0 0 12:18 05.12.2021
6662 Mist 12 1020 84 6437 0 0 11:30 05.12.2021
6663 Mist 12 1020 87 10000 0 0 09:59 05.12.2021
6664 Haze 12 1021 86 9656 1.54 0 08:24 05.12.2021
6665 Haze 14 1020 83 10000 0 0 03:39 05.12.2021
6666 Haze 18 1020 67 6437 0.89 273 23:45 04.12.2021
6667 Haze 17 1021 66 4828 0 0 21:55 04.12.2021
6668 Haze 17 1021 68 4023 0.89 254 21:18 04.12.2021
6669 Haze 16 1022 72 3219 0 0 20:27 04.12.2021
6670 Haze 15 1022 77 3219 0 0 19:32 04.12.2021
6671 Haze 14 1022 80 3219 0 0 18:21 04.12.2021
6672 Haze 13 1021 82 3219 0 0 17:40 04.12.2021
6673 Haze 13 1021 83 3219 0 0 17:19 04.12.2021
6674 Haze 12 1021 82 4023 0 0 16:42 04.12.2021
6675 Haze 12 1021 84 4023 0 0 16:23 04.12.2021
6676 Haze 12 1020 87 9656 0 0 11:55 04.12.2021
6677 Haze 12 1020 84 8047 0 0 11:33 04.12.2021
6678 Haze 12 1020 84 8047 0 0 10:56 04.12.2021
6679 Haze 12 1020 87 10000 0 0 08:52 04.12.2021
6680 Haze 13 1020 88 10000 0 0 07:22 04.12.2021
6681 Haze 13 1019 85 9656 0 0 04:42 04.12.2021
6682 Haze 17 1018 70 8047 1.54 0 00:49 04.12.2021
6683 Haze 18 1018 68 6437 0 0 23:29 03.12.2021
6684 Haze 18 1018 67 4828 0.45 245 22:50 03.12.2021
6685 Haze 17 1019 68 3219